<?xml version="1.0" encoding="UTF-8" standalone="no" ?>
<gpx xmlns="http://www.topografix.com/GPX/1/1" xmlns:xsi="http://www.w3.org/2001/XMLSchema-instance" xsi:schemaLocation="http://www.topografix.com/GPX/1/1 http://www.topografix.com/GPX/1/1/gpx.xsd" version="1.1" creator="VisuGPX - https://www.visugpx.com">
  <metadata>
    <name>MARMARE-14 15:37:45</name>
  </metadata>
  <trk>
    <name><![CDATA[MARMARE-14 15:37:45]]></name>
    <trkseg>
      <trkpt lat="42.76649" lon="1.85057">
        <ele>1357.52</ele>
        <time>2019-12-14T08:48:17Z</time>
      </trkpt>
      <trkpt lat="42.76648" lon="1.85057">
        <ele>1356.56</ele>
        <time>2019-12-14T08:48:24Z</time>
      </trkpt>
      <trkpt lat="42.76647" lon="1.85061">
        <ele>1356.08</ele>
        <time>2019-12-14T08:48:46Z</time>
      </trkpt>
      <trkpt lat="42.76647" lon="1.85061">
        <ele>1355.6</ele>
        <time>2019-12-14T08:49:09Z</time>
      </trkpt>
      <trkpt lat="42.76647" lon="1.85061">
        <ele>1358</ele>
        <time>2019-12-14T08:49:16Z</time>
      </trkpt>
      <trkpt lat="42.76646" lon="1.85061">
        <ele>1356.56</ele>
        <time>2019-12-14T08:49:18Z</time>
      </trkpt>
      <trkpt lat="42.76646" lon="1.85061">
        <ele>1355.6</ele>
        <time>2019-12-14T08:49:42Z</time>
      </trkpt>
      <trkpt lat="42.76646" lon="1.8506">
        <ele>1355.6</ele>
        <time>2019-12-14T08:50:07Z</time>
      </trkpt>
      <trkpt lat="42.76645" lon="1.85061">
        <ele>1356.56</ele>
        <time>2019-12-14T08:50:35Z</time>
      </trkpt>
      <trkpt lat="42.76646" lon="1.8506">
        <ele>1356.56</ele>
        <time>2019-12-14T08:50:55Z</time>
      </trkpt>
      <trkpt lat="42.76647" lon="1.8506">
        <ele>1357.04</ele>
        <time>2019-12-14T08:51:21Z</time>
      </trkpt>
      <trkpt lat="42.76647" lon="1.85057">
        <ele>1357.52</ele>
        <time>2019-12-14T08:51:32Z</time>
      </trkpt>
      <trkpt lat="42.76644" lon="1.85058">
        <ele>1357.04</ele>
        <time>2019-12-14T08:51:43Z</time>
      </trkpt>
      <trkpt lat="42.76645" lon="1.8506">
        <ele>1356.08</ele>
        <time>2019-12-14T08:51:59Z</time>
      </trkpt>
      <trkpt lat="42.76647" lon="1.85061">
        <ele>1356.08</ele>
        <time>2019-12-14T08:52:25Z</time>
      </trkpt>
      <trkpt lat="42.76647" lon="1.8506">
        <ele>1357.52</ele>
        <time>2019-12-14T08:52:43Z</time>
      </trkpt>
      <trkpt lat="42.76648" lon="1.8506">
        <ele>1357.52</ele>
        <time>2019-12-14T08:53:03Z</time>
      </trkpt>
      <trkpt lat="42.76647" lon="1.85059">
        <ele>1353.67</ele>
        <time>2019-12-14T08:53:24Z</time>
      </trkpt>
      <trkpt lat="42.76646" lon="1.8506">
        <ele>1357.52</ele>
        <time>2019-12-14T08:53:25Z</time>
      </trkpt>
      <trkpt lat="42.76646" lon="1.8506">
        <ele>1356.56</ele>
        <time>2019-12-14T08:53:26Z</time>
      </trkpt>
      <trkpt lat="42.76643" lon="1.85063">
        <ele>1356.56</ele>
        <time>2019-12-14T08:53:45Z</time>
      </trkpt>
      <trkpt lat="42.76645" lon="1.85056">
        <ele>1355.6</ele>
        <time>2019-12-14T08:54:07Z</time>
      </trkpt>
      <trkpt lat="42.76645" lon="1.85056">
        <ele>1355.6</ele>
        <time>2019-12-14T08:54:08Z</time>
      </trkpt>
      <trkpt lat="42.76648" lon="1.85052">
        <ele>1354.63</ele>
        <time>2019-12-14T08:54:11Z</time>
      </trkpt>
      <trkpt lat="42.76648" lon="1.85051">
        <ele>1356.56</ele>
        <time>2019-12-14T08:54:12Z</time>
      </trkpt>
      <trkpt lat="42.76648" lon="1.85037">
        <ele>1354.15</ele>
        <time>2019-12-14T08:54:23Z</time>
      </trkpt>
      <trkpt lat="42.76649" lon="1.85033">
        <ele>1358</ele>
        <time>2019-12-14T08:54:27Z</time>
      </trkpt>
      <trkpt lat="42.7665" lon="1.85029">
        <ele>1354.15</ele>
        <time>2019-12-14T08:54:30Z</time>
      </trkpt>
      <trkpt lat="42.76652" lon="1.85025">
        <ele>1357.52</ele>
        <time>2019-12-14T08:54:34Z</time>
      </trkpt>
      <trkpt lat="42.76654" lon="1.85022">
        <ele>1356.08</ele>
        <time>2019-12-14T08:54:37Z</time>
      </trkpt>
      <trkpt lat="42.76655" lon="1.8502">
        <ele>1359.44</ele>
        <time>2019-12-14T08:54:38Z</time>
      </trkpt>
      <trkpt lat="42.76656" lon="1.85019">
        <ele>1356.56</ele>
        <time>2019-12-14T08:54:39Z</time>
      </trkpt>
      <trkpt lat="42.76657" lon="1.85016">
        <ele>1359.92</ele>
        <time>2019-12-14T08:54:43Z</time>
      </trkpt>
      <trkpt lat="42.76658" lon="1.85014">
        <ele>1358.48</ele>
        <time>2019-12-14T08:54:45Z</time>
      </trkpt>
      <trkpt lat="42.76662" lon="1.8501">
        <ele>1360.4</ele>
        <time>2019-12-14T08:54:51Z</time>
      </trkpt>
      <trkpt lat="42.76676" lon="1.85002">
        <ele>1358.96</ele>
        <time>2019-12-14T08:55:02Z</time>
      </trkpt>
      <trkpt lat="42.76685" lon="1.84994">
        <ele>1361.36</ele>
        <time>2019-12-14T08:55:13Z</time>
      </trkpt>
      <trkpt lat="42.76689" lon="1.84991">
        <ele>1360.88</ele>
        <time>2019-12-14T08:55:19Z</time>
      </trkpt>
      <trkpt lat="42.76692" lon="1.8499">
        <ele>1360.88</ele>
        <time>2019-12-14T08:55:22Z</time>
      </trkpt>
      <trkpt lat="42.76703" lon="1.84986">
        <ele>1362.81</ele>
        <time>2019-12-14T08:55:35Z</time>
      </trkpt>
      <trkpt lat="42.76705" lon="1.84984">
        <ele>1364.25</ele>
        <time>2019-12-14T08:55:37Z</time>
      </trkpt>
      <trkpt lat="42.76708" lon="1.84982">
        <ele>1365.21</ele>
        <time>2019-12-14T08:55:42Z</time>
      </trkpt>
      <trkpt lat="42.76711" lon="1.84981">
        <ele>1368.09</ele>
        <time>2019-12-14T08:55:46Z</time>
      </trkpt>
      <trkpt lat="42.76712" lon="1.8498">
        <ele>1364.73</ele>
        <time>2019-12-14T08:55:47Z</time>
      </trkpt>
      <trkpt lat="42.76715" lon="1.84977">
        <ele>1364.73</ele>
        <time>2019-12-14T08:55:52Z</time>
      </trkpt>
      <trkpt lat="42.76717" lon="1.84975">
        <ele>1363.77</ele>
        <time>2019-12-14T08:55:54Z</time>
      </trkpt>
      <trkpt lat="42.76718" lon="1.84974">
        <ele>1368.09</ele>
        <time>2019-12-14T08:55:55Z</time>
      </trkpt>
      <trkpt lat="42.76719" lon="1.84973">
        <ele>1366.17</ele>
        <time>2019-12-14T08:55:57Z</time>
      </trkpt>
      <trkpt lat="42.76721" lon="1.84971">
        <ele>1364.73</ele>
        <time>2019-12-14T08:55:59Z</time>
      </trkpt>
      <trkpt lat="42.76722" lon="1.84971">
        <ele>1369.54</ele>
        <time>2019-12-14T08:56:00Z</time>
      </trkpt>
      <trkpt lat="42.76723" lon="1.84971">
        <ele>1366.65</ele>
        <time>2019-12-14T08:56:02Z</time>
      </trkpt>
      <trkpt lat="42.76725" lon="1.84969">
        <ele>1365.69</ele>
        <time>2019-12-14T08:56:04Z</time>
      </trkpt>
      <trkpt lat="42.76726" lon="1.84969">
        <ele>1370.5</ele>
        <time>2019-12-14T08:56:05Z</time>
      </trkpt>
      <trkpt lat="42.76728" lon="1.84967">
        <ele>1367.61</ele>
        <time>2019-12-14T08:56:07Z</time>
      </trkpt>
      <trkpt lat="42.7673" lon="1.84965">
        <ele>1370.98</ele>
        <time>2019-12-14T08:56:09Z</time>
      </trkpt>
      <trkpt lat="42.76729" lon="1.84965">
        <ele>1367.13</ele>
        <time>2019-12-14T08:56:10Z</time>
      </trkpt>
      <trkpt lat="42.76732" lon="1.84962">
        <ele>1367.61</ele>
        <time>2019-12-14T08:56:15Z</time>
      </trkpt>
      <trkpt lat="42.76734" lon="1.8496">
        <ele>1368.57</ele>
        <time>2019-12-14T08:56:17Z</time>
      </trkpt>
      <trkpt lat="42.76735" lon="1.84958">
        <ele>1370.98</ele>
        <time>2019-12-14T08:56:19Z</time>
      </trkpt>
      <trkpt lat="42.76737" lon="1.84955">
        <ele>1369.05</ele>
        <time>2019-12-14T08:56:22Z</time>
      </trkpt>
      <trkpt lat="42.76739" lon="1.84951">
        <ele>1368.57</ele>
        <time>2019-12-14T08:56:27Z</time>
      </trkpt>
      <trkpt lat="42.7674" lon="1.84947">
        <ele>1369.54</ele>
        <time>2019-12-14T08:56:30Z</time>
      </trkpt>
      <trkpt lat="42.76741" lon="1.84943">
        <ele>1373.38</ele>
        <time>2019-12-14T08:56:33Z</time>
      </trkpt>
      <trkpt lat="42.76743" lon="1.84941">
        <ele>1371.46</ele>
        <time>2019-12-14T08:56:35Z</time>
      </trkpt>
      <trkpt lat="42.76744" lon="1.84935">
        <ele>1370.5</ele>
        <time>2019-12-14T08:56:40Z</time>
      </trkpt>
      <trkpt lat="42.76749" lon="1.84929">
        <ele>1370.98</ele>
        <time>2019-12-14T08:56:47Z</time>
      </trkpt>
      <trkpt lat="42.7675" lon="1.84929">
        <ele>1375.3</ele>
        <time>2019-12-14T08:56:48Z</time>
      </trkpt>
      <trkpt lat="42.76752" lon="1.84926">
        <ele>1372.42</ele>
        <time>2019-12-14T08:56:52Z</time>
      </trkpt>
      <trkpt lat="42.76754" lon="1.84925">
        <ele>1371.94</ele>
        <time>2019-12-14T08:56:54Z</time>
      </trkpt>
      <trkpt lat="42.76754" lon="1.84924">
        <ele>1376.75</ele>
        <time>2019-12-14T08:56:55Z</time>
      </trkpt>
      <trkpt lat="42.76755" lon="1.84924">
        <ele>1372.42</ele>
        <time>2019-12-14T08:56:56Z</time>
      </trkpt>
      <trkpt lat="42.76757" lon="1.84922">
        <ele>1376.26</ele>
        <time>2019-12-14T08:56:59Z</time>
      </trkpt>
      <trkpt lat="42.76758" lon="1.84921">
        <ele>1374.34</ele>
        <time>2019-12-14T08:57:01Z</time>
      </trkpt>
      <trkpt lat="42.76761" lon="1.84919">
        <ele>1377.71</ele>
        <time>2019-12-14T08:57:05Z</time>
      </trkpt>
      <trkpt lat="42.76762" lon="1.84918">
        <ele>1373.86</ele>
        <time>2019-12-14T08:57:06Z</time>
      </trkpt>
      <trkpt lat="42.76762" lon="1.84917">
        <ele>1376.26</ele>
        <time>2019-12-14T08:57:07Z</time>
      </trkpt>
      <trkpt lat="42.76765" lon="1.84914">
        <ele>1373.86</ele>
        <time>2019-12-14T08:57:11Z</time>
      </trkpt>
      <trkpt lat="42.76767" lon="1.84913">
        <ele>1374.34</ele>
        <time>2019-12-14T08:57:13Z</time>
      </trkpt>
      <trkpt lat="42.76768" lon="1.84912">
        <ele>1378.19</ele>
        <time>2019-12-14T08:57:14Z</time>
      </trkpt>
      <trkpt lat="42.76768" lon="1.84912">
        <ele>1375.3</ele>
        <time>2019-12-14T08:57:15Z</time>
      </trkpt>
      <trkpt lat="42.76775" lon="1.84905">
        <ele>1377.71</ele>
        <time>2019-12-14T08:57:23Z</time>
      </trkpt>
      <trkpt lat="42.76779" lon="1.84901">
        <ele>1377.23</ele>
        <time>2019-12-14T08:57:31Z</time>
      </trkpt>
      <trkpt lat="42.7678" lon="1.84899">
        <ele>1376.26</ele>
        <time>2019-12-14T08:57:33Z</time>
      </trkpt>
      <trkpt lat="42.76781" lon="1.84895">
        <ele>1377.71</ele>
        <time>2019-12-14T08:57:36Z</time>
      </trkpt>
      <trkpt lat="42.76785" lon="1.84892">
        <ele>1377.71</ele>
        <time>2019-12-14T08:57:41Z</time>
      </trkpt>
      <trkpt lat="42.76787" lon="1.84884">
        <ele>1380.11</ele>
        <time>2019-12-14T08:57:48Z</time>
      </trkpt>
      <trkpt lat="42.7679" lon="1.84883">
        <ele>1378.67</ele>
        <time>2019-12-14T08:57:51Z</time>
      </trkpt>
      <trkpt lat="42.76798" lon="1.8488">
        <ele>1378.19</ele>
        <time>2019-12-14T08:58:03Z</time>
      </trkpt>
      <trkpt lat="42.76805" lon="1.84879">
        <ele>1377.71</ele>
        <time>2019-12-14T08:58:10Z</time>
      </trkpt>
      <trkpt lat="42.76806" lon="1.84879">
        <ele>1376.26</ele>
        <time>2019-12-14T08:58:12Z</time>
      </trkpt>
      <trkpt lat="42.7681" lon="1.84879">
        <ele>1375.78</ele>
        <time>2019-12-14T08:58:17Z</time>
      </trkpt>
      <trkpt lat="42.76813" lon="1.84877">
        <ele>1378.19</ele>
        <time>2019-12-14T08:58:20Z</time>
      </trkpt>
      <trkpt lat="42.76814" lon="1.84878">
        <ele>1376.26</ele>
        <time>2019-12-14T08:58:21Z</time>
      </trkpt>
      <trkpt lat="42.76816" lon="1.84877">
        <ele>1376.75</ele>
        <time>2019-12-14T08:58:24Z</time>
      </trkpt>
      <trkpt lat="42.76821" lon="1.84876">
        <ele>1378.19</ele>
        <time>2019-12-14T08:58:29Z</time>
      </trkpt>
      <trkpt lat="42.76831" lon="1.84876">
        <ele>1378.67</ele>
        <time>2019-12-14T08:58:41Z</time>
      </trkpt>
      <trkpt lat="42.76833" lon="1.84875">
        <ele>1376.75</ele>
        <time>2019-12-14T08:58:42Z</time>
      </trkpt>
      <trkpt lat="42.76843" lon="1.84872">
        <ele>1380.11</ele>
        <time>2019-12-14T08:58:52Z</time>
      </trkpt>
      <trkpt lat="42.76845" lon="1.84872">
        <ele>1378.67</ele>
        <time>2019-12-14T08:58:54Z</time>
      </trkpt>
      <trkpt lat="42.76849" lon="1.84871">
        <ele>1380.11</ele>
        <time>2019-12-14T08:58:58Z</time>
      </trkpt>
      <trkpt lat="42.76857" lon="1.84866">
        <ele>1381.55</ele>
        <time>2019-12-14T08:59:07Z</time>
      </trkpt>
      <trkpt lat="42.76868" lon="1.84863">
        <ele>1381.55</ele>
        <time>2019-12-14T08:59:19Z</time>
      </trkpt>
      <trkpt lat="42.7687" lon="1.8486">
        <ele>1383.47</ele>
        <time>2019-12-14T08:59:22Z</time>
      </trkpt>
      <trkpt lat="42.76881" lon="1.84851">
        <ele>1384.44</ele>
        <time>2019-12-14T08:59:34Z</time>
      </trkpt>
      <trkpt lat="42.76884" lon="1.8484">
        <ele>1384.92</ele>
        <time>2019-12-14T08:59:48Z</time>
      </trkpt>
      <trkpt lat="42.76887" lon="1.84822">
        <ele>1383.47</ele>
        <time>2019-12-14T09:00:01Z</time>
      </trkpt>
      <trkpt lat="42.76884" lon="1.8481">
        <ele>1385.88</ele>
        <time>2019-12-14T09:00:10Z</time>
      </trkpt>
      <trkpt lat="42.76882" lon="1.84802">
        <ele>1385.88</ele>
        <time>2019-12-14T09:00:20Z</time>
      </trkpt>
      <trkpt lat="42.76879" lon="1.84794">
        <ele>1386.84</ele>
        <time>2019-12-14T09:00:32Z</time>
      </trkpt>
      <trkpt lat="42.76875" lon="1.84789">
        <ele>1386.84</ele>
        <time>2019-12-14T09:00:44Z</time>
      </trkpt>
      <trkpt lat="42.76874" lon="1.84789">
        <ele>1389.72</ele>
        <time>2019-12-14T09:00:45Z</time>
      </trkpt>
      <trkpt lat="42.76869" lon="1.84779">
        <ele>1388.28</ele>
        <time>2019-12-14T09:00:56Z</time>
      </trkpt>
      <trkpt lat="42.76869" lon="1.84778">
        <ele>1389.24</ele>
        <time>2019-12-14T09:00:58Z</time>
      </trkpt>
      <trkpt lat="42.76866" lon="1.84773">
        <ele>1391.65</ele>
        <time>2019-12-14T09:01:04Z</time>
      </trkpt>
      <trkpt lat="42.76863" lon="1.84764">
        <ele>1392.61</ele>
        <time>2019-12-14T09:01:16Z</time>
      </trkpt>
      <trkpt lat="42.7686" lon="1.84758">
        <ele>1393.09</ele>
        <time>2019-12-14T09:01:23Z</time>
      </trkpt>
      <trkpt lat="42.76855" lon="1.84744">
        <ele>1393.09</ele>
        <time>2019-12-14T09:01:35Z</time>
      </trkpt>
      <trkpt lat="42.76855" lon="1.84743">
        <ele>1395.01</ele>
        <time>2019-12-14T09:01:36Z</time>
      </trkpt>
      <trkpt lat="42.76853" lon="1.84741">
        <ele>1395.01</ele>
        <time>2019-12-14T09:01:39Z</time>
      </trkpt>
      <trkpt lat="42.76853" lon="1.84738">
        <ele>1394.53</ele>
        <time>2019-12-14T09:01:42Z</time>
      </trkpt>
      <trkpt lat="42.76853" lon="1.84729">
        <ele>1397.41</ele>
        <time>2019-12-14T09:01:50Z</time>
      </trkpt>
      <trkpt lat="42.76851" lon="1.84725">
        <ele>1398.37</ele>
        <time>2019-12-14T09:01:54Z</time>
      </trkpt>
      <trkpt lat="42.76854" lon="1.8472">
        <ele>1399.34</ele>
        <time>2019-12-14T09:02:05Z</time>
      </trkpt>
      <trkpt lat="42.76856" lon="1.84725">
        <ele>1398.37</ele>
        <time>2019-12-14T09:02:14Z</time>
      </trkpt>
      <trkpt lat="42.76856" lon="1.84728">
        <ele>1398.86</ele>
        <time>2019-12-14T09:02:16Z</time>
      </trkpt>
      <trkpt lat="42.76859" lon="1.84733">
        <ele>1400.78</ele>
        <time>2019-12-14T09:02:22Z</time>
      </trkpt>
      <trkpt lat="42.7686" lon="1.84736">
        <ele>1399.82</ele>
        <time>2019-12-14T09:02:24Z</time>
      </trkpt>
      <trkpt lat="42.76864" lon="1.84748">
        <ele>1401.74</ele>
        <time>2019-12-14T09:02:36Z</time>
      </trkpt>
      <trkpt lat="42.76866" lon="1.8475">
        <ele>1403.66</ele>
        <time>2019-12-14T09:02:39Z</time>
      </trkpt>
      <trkpt lat="42.76868" lon="1.84752">
        <ele>1403.66</ele>
        <time>2019-12-14T09:02:42Z</time>
      </trkpt>
      <trkpt lat="42.76872" lon="1.84756">
        <ele>1405.1</ele>
        <time>2019-12-14T09:02:48Z</time>
      </trkpt>
      <trkpt lat="42.76875" lon="1.84759">
        <ele>1405.58</ele>
        <time>2019-12-14T09:02:51Z</time>
      </trkpt>
      <trkpt lat="42.76882" lon="1.84766">
        <ele>1407.03</ele>
        <time>2019-12-14T09:03:02Z</time>
      </trkpt>
      <trkpt lat="42.76887" lon="1.84768">
        <ele>1407.99</ele>
        <time>2019-12-14T09:03:08Z</time>
      </trkpt>
      <trkpt lat="42.76892" lon="1.84769">
        <ele>1408.47</ele>
        <time>2019-12-14T09:03:14Z</time>
      </trkpt>
      <trkpt lat="42.76895" lon="1.84771">
        <ele>1408.47</ele>
        <time>2019-12-14T09:03:18Z</time>
      </trkpt>
      <trkpt lat="42.76898" lon="1.84773">
        <ele>1407.99</ele>
        <time>2019-12-14T09:03:22Z</time>
      </trkpt>
      <trkpt lat="42.769" lon="1.84777">
        <ele>1409.43</ele>
        <time>2019-12-14T09:03:25Z</time>
      </trkpt>
      <trkpt lat="42.76901" lon="1.84777">
        <ele>1409.43</ele>
        <time>2019-12-14T09:03:27Z</time>
      </trkpt>
      <trkpt lat="42.76903" lon="1.8478">
        <ele>1410.39</ele>
        <time>2019-12-14T09:03:32Z</time>
      </trkpt>
      <trkpt lat="42.76905" lon="1.84781">
        <ele>1411.83</ele>
        <time>2019-12-14T09:03:38Z</time>
      </trkpt>
      <trkpt lat="42.76911" lon="1.84787">
        <ele>1410.87</ele>
        <time>2019-12-14T09:03:45Z</time>
      </trkpt>
      <trkpt lat="42.76914" lon="1.84792">
        <ele>1411.35</ele>
        <time>2019-12-14T09:03:50Z</time>
      </trkpt>
      <trkpt lat="42.76916" lon="1.84794">
        <ele>1413.28</ele>
        <time>2019-12-14T09:03:52Z</time>
      </trkpt>
      <trkpt lat="42.76919" lon="1.84797">
        <ele>1413.28</ele>
        <time>2019-12-14T09:03:56Z</time>
      </trkpt>
      <trkpt lat="42.76924" lon="1.84801">
        <ele>1414.72</ele>
        <time>2019-12-14T09:04:02Z</time>
      </trkpt>
      <trkpt lat="42.76925" lon="1.84804">
        <ele>1413.28</ele>
        <time>2019-12-14T09:04:04Z</time>
      </trkpt>
      <trkpt lat="42.7693" lon="1.8481">
        <ele>1416.16</ele>
        <time>2019-12-14T09:04:13Z</time>
      </trkpt>
      <trkpt lat="42.76931" lon="1.84806">
        <ele>1415.2</ele>
        <time>2019-12-14T09:04:34Z</time>
      </trkpt>
      <trkpt lat="42.76932" lon="1.84809">
        <ele>1416.64</ele>
        <time>2019-12-14T09:04:36Z</time>
      </trkpt>
      <trkpt lat="42.76932" lon="1.84809">
        <ele>1415.68</ele>
        <time>2019-12-14T09:04:37Z</time>
      </trkpt>
      <trkpt lat="42.76935" lon="1.84813">
        <ele>1417.6</ele>
        <time>2019-12-14T09:04:40Z</time>
      </trkpt>
      <trkpt lat="42.76935" lon="1.84815">
        <ele>1417.6</ele>
        <time>2019-12-14T09:04:44Z</time>
      </trkpt>
      <trkpt lat="42.76938" lon="1.84819">
        <ele>1419.04</ele>
        <time>2019-12-14T09:04:49Z</time>
      </trkpt>
      <trkpt lat="42.76938" lon="1.84821">
        <ele>1417.12</ele>
        <time>2019-12-14T09:04:51Z</time>
      </trkpt>
      <trkpt lat="42.76938" lon="1.84822">
        <ele>1419.04</ele>
        <time>2019-12-14T09:04:53Z</time>
      </trkpt>
      <trkpt lat="42.76943" lon="1.8483">
        <ele>1418.08</ele>
        <time>2019-12-14T09:05:02Z</time>
      </trkpt>
      <trkpt lat="42.76949" lon="1.84833">
        <ele>1420</ele>
        <time>2019-12-14T09:05:15Z</time>
      </trkpt>
      <trkpt lat="42.7695" lon="1.84834">
        <ele>1421.45</ele>
        <time>2019-12-14T09:05:22Z</time>
      </trkpt>
      <trkpt lat="42.76953" lon="1.84836">
        <ele>1420.49</ele>
        <time>2019-12-14T09:05:26Z</time>
      </trkpt>
      <trkpt lat="42.76955" lon="1.84838">
        <ele>1422.41</ele>
        <time>2019-12-14T09:05:29Z</time>
      </trkpt>
      <trkpt lat="42.7696" lon="1.84841">
        <ele>1422.41</ele>
        <time>2019-12-14T09:05:45Z</time>
      </trkpt>
      <trkpt lat="42.76961" lon="1.84842">
        <ele>1419.52</ele>
        <time>2019-12-14T09:06:07Z</time>
      </trkpt>
      <trkpt lat="42.76961" lon="1.84842">
        <ele>1425.29</ele>
        <time>2019-12-14T09:06:08Z</time>
      </trkpt>
      <trkpt lat="42.76961" lon="1.84842">
        <ele>1422.89</ele>
        <time>2019-12-14T09:06:09Z</time>
      </trkpt>
      <trkpt lat="42.76961" lon="1.84843">
        <ele>1421.45</ele>
        <time>2019-12-14T09:06:38Z</time>
      </trkpt>
      <trkpt lat="42.76965" lon="1.84844">
        <ele>1421.93</ele>
        <time>2019-12-14T09:07:06Z</time>
      </trkpt>
      <trkpt lat="42.76966" lon="1.84845">
        <ele>1422.41</ele>
        <time>2019-12-14T09:07:14Z</time>
      </trkpt>
      <trkpt lat="42.76966" lon="1.84846">
        <ele>1420.97</ele>
        <time>2019-12-14T09:07:17Z</time>
      </trkpt>
      <trkpt lat="42.76958" lon="1.84852">
        <ele>1422.41</ele>
        <time>2019-12-14T09:07:46Z</time>
      </trkpt>
      <trkpt lat="42.76959" lon="1.84841">
        <ele>1421.45</ele>
        <time>2019-12-14T09:08:04Z</time>
      </trkpt>
      <trkpt lat="42.76962" lon="1.8484">
        <ele>1421.45</ele>
        <time>2019-12-14T09:08:21Z</time>
      </trkpt>
      <trkpt lat="42.76962" lon="1.84841">
        <ele>1421.45</ele>
        <time>2019-12-14T09:08:33Z</time>
      </trkpt>
      <trkpt lat="42.76964" lon="1.84835">
        <ele>1424.81</ele>
        <time>2019-12-14T09:08:41Z</time>
      </trkpt>
      <trkpt lat="42.76962" lon="1.8483">
        <ele>1423.85</ele>
        <time>2019-12-14T09:08:54Z</time>
      </trkpt>
      <trkpt lat="42.76957" lon="1.84835">
        <ele>1423.85</ele>
        <time>2019-12-14T09:09:24Z</time>
      </trkpt>
      <trkpt lat="42.76957" lon="1.8484">
        <ele>1422.89</ele>
        <time>2019-12-14T09:09:41Z</time>
      </trkpt>
      <trkpt lat="42.76956" lon="1.84841">
        <ele>1421.93</ele>
        <time>2019-12-14T09:09:54Z</time>
      </trkpt>
      <trkpt lat="42.76956" lon="1.8484">
        <ele>1423.37</ele>
        <time>2019-12-14T09:10:10Z</time>
      </trkpt>
      <trkpt lat="42.76956" lon="1.8484">
        <ele>1421.93</ele>
        <time>2019-12-14T09:10:12Z</time>
      </trkpt>
      <trkpt lat="42.76955" lon="1.84839">
        <ele>1421.45</ele>
        <time>2019-12-14T09:10:40Z</time>
      </trkpt>
      <trkpt lat="42.76958" lon="1.84838">
        <ele>1421.45</ele>
        <time>2019-12-14T09:11:13Z</time>
      </trkpt>
      <trkpt lat="42.76958" lon="1.84839">
        <ele>1421.93</ele>
        <time>2019-12-14T09:11:38Z</time>
      </trkpt>
      <trkpt lat="42.76959" lon="1.84839">
        <ele>1423.85</ele>
        <time>2019-12-14T09:12:09Z</time>
      </trkpt>
      <trkpt lat="42.76959" lon="1.84839">
        <ele>1422.89</ele>
        <time>2019-12-14T09:12:14Z</time>
      </trkpt>
      <trkpt lat="42.76958" lon="1.84837">
        <ele>1423.37</ele>
        <time>2019-12-14T09:12:33Z</time>
      </trkpt>
      <trkpt lat="42.76962" lon="1.84842">
        <ele>1422.89</ele>
        <time>2019-12-14T09:12:56Z</time>
      </trkpt>
      <trkpt lat="42.76965" lon="1.84845">
        <ele>1426.25</ele>
        <time>2019-12-14T09:13:04Z</time>
      </trkpt>
      <trkpt lat="42.76971" lon="1.8485">
        <ele>1424.81</ele>
        <time>2019-12-14T09:13:17Z</time>
      </trkpt>
      <trkpt lat="42.76972" lon="1.84852">
        <ele>1426.73</ele>
        <time>2019-12-14T09:13:20Z</time>
      </trkpt>
      <trkpt lat="42.76977" lon="1.84861">
        <ele>1427.21</ele>
        <time>2019-12-14T09:13:34Z</time>
      </trkpt>
      <trkpt lat="42.76984" lon="1.84871">
        <ele>1429.14</ele>
        <time>2019-12-14T09:13:49Z</time>
      </trkpt>
      <trkpt lat="42.76993" lon="1.84877">
        <ele>1430.58</ele>
        <time>2019-12-14T09:14:04Z</time>
      </trkpt>
      <trkpt lat="42.77003" lon="1.84881">
        <ele>1432.02</ele>
        <time>2019-12-14T09:14:21Z</time>
      </trkpt>
      <trkpt lat="42.77015" lon="1.84878">
        <ele>1432.5</ele>
        <time>2019-12-14T09:14:33Z</time>
      </trkpt>
      <trkpt lat="42.77025" lon="1.84876">
        <ele>1432.5</ele>
        <time>2019-12-14T09:14:45Z</time>
      </trkpt>
      <trkpt lat="42.77028" lon="1.84876">
        <ele>1432.02</ele>
        <time>2019-12-14T09:14:47Z</time>
      </trkpt>
      <trkpt lat="42.7703" lon="1.84877">
        <ele>1431.54</ele>
        <time>2019-12-14T09:14:49Z</time>
      </trkpt>
      <trkpt lat="42.77031" lon="1.84876">
        <ele>1435.39</ele>
        <time>2019-12-14T09:14:50Z</time>
      </trkpt>
      <trkpt lat="42.77032" lon="1.84876">
        <ele>1432.02</ele>
        <time>2019-12-14T09:14:51Z</time>
      </trkpt>
      <trkpt lat="42.77033" lon="1.84876">
        <ele>1435.39</ele>
        <time>2019-12-14T09:14:52Z</time>
      </trkpt>
      <trkpt lat="42.77034" lon="1.84876">
        <ele>1430.1</ele>
        <time>2019-12-14T09:14:53Z</time>
      </trkpt>
      <trkpt lat="42.77035" lon="1.84876">
        <ele>1435.39</ele>
        <time>2019-12-14T09:14:54Z</time>
      </trkpt>
      <trkpt lat="42.77037" lon="1.84876">
        <ele>1432.02</ele>
        <time>2019-12-14T09:14:57Z</time>
      </trkpt>
      <trkpt lat="42.77038" lon="1.84876">
        <ele>1434.91</ele>
        <time>2019-12-14T09:14:58Z</time>
      </trkpt>
      <trkpt lat="42.77039" lon="1.84876">
        <ele>1430.58</ele>
        <time>2019-12-14T09:14:59Z</time>
      </trkpt>
      <trkpt lat="42.7704" lon="1.84875">
        <ele>1432.5</ele>
        <time>2019-12-14T09:15:00Z</time>
      </trkpt>
      <trkpt lat="42.77042" lon="1.84876">
        <ele>1432.5</ele>
        <time>2019-12-14T09:15:02Z</time>
      </trkpt>
      <trkpt lat="42.77043" lon="1.84876">
        <ele>1435.87</ele>
        <time>2019-12-14T09:15:03Z</time>
      </trkpt>
      <trkpt lat="42.77044" lon="1.84876">
        <ele>1432.98</ele>
        <time>2019-12-14T09:15:04Z</time>
      </trkpt>
      <trkpt lat="42.77045" lon="1.84876">
        <ele>1436.35</ele>
        <time>2019-12-14T09:15:05Z</time>
      </trkpt>
      <trkpt lat="42.77046" lon="1.84876">
        <ele>1433.94</ele>
        <time>2019-12-14T09:15:06Z</time>
      </trkpt>
      <trkpt lat="42.7705" lon="1.84877">
        <ele>1435.39</ele>
        <time>2019-12-14T09:15:10Z</time>
      </trkpt>
      <trkpt lat="42.77053" lon="1.84877">
        <ele>1433.94</ele>
        <time>2019-12-14T09:15:13Z</time>
      </trkpt>
      <trkpt lat="42.77057" lon="1.84876">
        <ele>1434.42</ele>
        <time>2019-12-14T09:15:17Z</time>
      </trkpt>
      <trkpt lat="42.77061" lon="1.84876">
        <ele>1433.94</ele>
        <time>2019-12-14T09:15:21Z</time>
      </trkpt>
      <trkpt lat="42.77065" lon="1.84876">
        <ele>1436.35</ele>
        <time>2019-12-14T09:15:28Z</time>
      </trkpt>
      <trkpt lat="42.77068" lon="1.84876">
        <ele>1435.39</ele>
        <time>2019-12-14T09:15:33Z</time>
      </trkpt>
      <trkpt lat="42.7707" lon="1.84876">
        <ele>1434.91</ele>
        <time>2019-12-14T09:15:35Z</time>
      </trkpt>
      <trkpt lat="42.77074" lon="1.84875">
        <ele>1435.87</ele>
        <time>2019-12-14T09:15:42Z</time>
      </trkpt>
      <trkpt lat="42.77078" lon="1.84869">
        <ele>1435.39</ele>
        <time>2019-12-14T09:15:53Z</time>
      </trkpt>
      <trkpt lat="42.77082" lon="1.84869">
        <ele>1437.31</ele>
        <time>2019-12-14T09:15:59Z</time>
      </trkpt>
      <trkpt lat="42.77089" lon="1.8487">
        <ele>1438.27</ele>
        <time>2019-12-14T09:16:09Z</time>
      </trkpt>
      <trkpt lat="42.7709" lon="1.84869">
        <ele>1438.27</ele>
        <time>2019-12-14T09:16:10Z</time>
      </trkpt>
      <trkpt lat="42.77091" lon="1.84869">
        <ele>1436.83</ele>
        <time>2019-12-14T09:16:12Z</time>
      </trkpt>
      <trkpt lat="42.77096" lon="1.84871">
        <ele>1437.79</ele>
        <time>2019-12-14T09:16:18Z</time>
      </trkpt>
      <trkpt lat="42.77102" lon="1.8487">
        <ele>1440.19</ele>
        <time>2019-12-14T09:16:28Z</time>
      </trkpt>
      <trkpt lat="42.77108" lon="1.84869">
        <ele>1440.67</ele>
        <time>2019-12-14T09:16:42Z</time>
      </trkpt>
      <trkpt lat="42.77116" lon="1.84871">
        <ele>1441.15</ele>
        <time>2019-12-14T09:16:51Z</time>
      </trkpt>
      <trkpt lat="42.77117" lon="1.84871">
        <ele>1439.71</ele>
        <time>2019-12-14T09:16:53Z</time>
      </trkpt>
      <trkpt lat="42.77119" lon="1.84872">
        <ele>1439.23</ele>
        <time>2019-12-14T09:16:55Z</time>
      </trkpt>
      <trkpt lat="42.77128" lon="1.84871">
        <ele>1441.63</ele>
        <time>2019-12-14T09:17:07Z</time>
      </trkpt>
      <trkpt lat="42.77129" lon="1.84871">
        <ele>1439.71</ele>
        <time>2019-12-14T09:17:09Z</time>
      </trkpt>
      <trkpt lat="42.77131" lon="1.84871">
        <ele>1440.19</ele>
        <time>2019-12-14T09:17:11Z</time>
      </trkpt>
      <trkpt lat="42.77136" lon="1.84871">
        <ele>1440.19</ele>
        <time>2019-12-14T09:17:17Z</time>
      </trkpt>
      <trkpt lat="42.77144" lon="1.84872">
        <ele>1441.63</ele>
        <time>2019-12-14T09:17:28Z</time>
      </trkpt>
      <trkpt lat="42.77145" lon="1.84871">
        <ele>1441.63</ele>
        <time>2019-12-14T09:17:29Z</time>
      </trkpt>
      <trkpt lat="42.77149" lon="1.84869">
        <ele>1439.71</ele>
        <time>2019-12-14T09:17:34Z</time>
      </trkpt>
      <trkpt lat="42.77154" lon="1.84867">
        <ele>1441.15</ele>
        <time>2019-12-14T09:17:41Z</time>
      </trkpt>
      <trkpt lat="42.77159" lon="1.84868">
        <ele>1442.11</ele>
        <time>2019-12-14T09:17:48Z</time>
      </trkpt>
      <trkpt lat="42.77161" lon="1.84864">
        <ele>1441.15</ele>
        <time>2019-12-14T09:17:58Z</time>
      </trkpt>
      <trkpt lat="42.77162" lon="1.84859">
        <ele>1443.08</ele>
        <time>2019-12-14T09:18:03Z</time>
      </trkpt>
      <trkpt lat="42.77163" lon="1.84859">
        <ele>1441.63</ele>
        <time>2019-12-14T09:18:05Z</time>
      </trkpt>
      <trkpt lat="42.77163" lon="1.84863">
        <ele>1441.63</ele>
        <time>2019-12-14T09:18:18Z</time>
      </trkpt>
      <trkpt lat="42.77168" lon="1.84866">
        <ele>1442.6</ele>
        <time>2019-12-14T09:18:23Z</time>
      </trkpt>
      <trkpt lat="42.77171" lon="1.84867">
        <ele>1442.6</ele>
        <time>2019-12-14T09:18:26Z</time>
      </trkpt>
      <trkpt lat="42.77173" lon="1.84868">
        <ele>1441.15</ele>
        <time>2019-12-14T09:18:28Z</time>
      </trkpt>
      <trkpt lat="42.77176" lon="1.84871">
        <ele>1440.67</ele>
        <time>2019-12-14T09:18:33Z</time>
      </trkpt>
      <trkpt lat="42.77184" lon="1.8487">
        <ele>1438.75</ele>
        <time>2019-12-14T09:18:42Z</time>
      </trkpt>
      <trkpt lat="42.77185" lon="1.84869">
        <ele>1438.27</ele>
        <time>2019-12-14T09:18:44Z</time>
      </trkpt>
      <trkpt lat="42.77188" lon="1.84864">
        <ele>1438.27</ele>
        <time>2019-12-14T09:18:53Z</time>
      </trkpt>
      <trkpt lat="42.77188" lon="1.84865">
        <ele>1439.71</ele>
        <time>2019-12-14T09:18:58Z</time>
      </trkpt>
      <trkpt lat="42.77188" lon="1.84865">
        <ele>1439.71</ele>
        <time>2019-12-14T09:19:02Z</time>
      </trkpt>
      <trkpt lat="42.7719" lon="1.84864">
        <ele>1437.31</ele>
        <time>2019-12-14T09:19:17Z</time>
      </trkpt>
      <trkpt lat="42.77192" lon="1.84862">
        <ele>1441.15</ele>
        <time>2019-12-14T09:19:19Z</time>
      </trkpt>
      <trkpt lat="42.77193" lon="1.84862">
        <ele>1438.27</ele>
        <time>2019-12-14T09:19:20Z</time>
      </trkpt>
      <trkpt lat="42.77195" lon="1.84861">
        <ele>1438.75</ele>
        <time>2019-12-14T09:19:23Z</time>
      </trkpt>
      <trkpt lat="42.77201" lon="1.84858">
        <ele>1442.11</ele>
        <time>2019-12-14T09:19:32Z</time>
      </trkpt>
      <trkpt lat="42.77202" lon="1.84856">
        <ele>1442.11</ele>
        <time>2019-12-14T09:19:34Z</time>
      </trkpt>
      <trkpt lat="42.77207" lon="1.84852">
        <ele>1442.11</ele>
        <time>2019-12-14T09:19:42Z</time>
      </trkpt>
      <trkpt lat="42.77208" lon="1.84851">
        <ele>1442.11</ele>
        <time>2019-12-14T09:19:44Z</time>
      </trkpt>
      <trkpt lat="42.77212" lon="1.84846">
        <ele>1443.08</ele>
        <time>2019-12-14T09:19:52Z</time>
      </trkpt>
      <trkpt lat="42.77216" lon="1.84843">
        <ele>1444.04</ele>
        <time>2019-12-14T09:20:01Z</time>
      </trkpt>
      <trkpt lat="42.7722" lon="1.84837">
        <ele>1445</ele>
        <time>2019-12-14T09:20:11Z</time>
      </trkpt>
      <trkpt lat="42.77225" lon="1.84832">
        <ele>1445</ele>
        <time>2019-12-14T09:20:20Z</time>
      </trkpt>
      <trkpt lat="42.77227" lon="1.84831">
        <ele>1443.56</ele>
        <time>2019-12-14T09:20:23Z</time>
      </trkpt>
      <trkpt lat="42.77232" lon="1.84828">
        <ele>1444.04</ele>
        <time>2019-12-14T09:20:29Z</time>
      </trkpt>
      <trkpt lat="42.77233" lon="1.84828">
        <ele>1444.04</ele>
        <time>2019-12-14T09:20:30Z</time>
      </trkpt>
      <trkpt lat="42.77237" lon="1.84826">
        <ele>1443.56</ele>
        <time>2019-12-14T09:20:35Z</time>
      </trkpt>
      <trkpt lat="42.7724" lon="1.84824">
        <ele>1443.56</ele>
        <time>2019-12-14T09:20:39Z</time>
      </trkpt>
      <trkpt lat="42.77244" lon="1.84822">
        <ele>1444.52</ele>
        <time>2019-12-14T09:20:44Z</time>
      </trkpt>
      <trkpt lat="42.77247" lon="1.84822">
        <ele>1446.92</ele>
        <time>2019-12-14T09:20:49Z</time>
      </trkpt>
      <trkpt lat="42.77252" lon="1.84819">
        <ele>1445.96</ele>
        <time>2019-12-14T09:20:57Z</time>
      </trkpt>
      <trkpt lat="42.77255" lon="1.8482">
        <ele>1445.48</ele>
        <time>2019-12-14T09:21:02Z</time>
      </trkpt>
      <trkpt lat="42.77257" lon="1.8482">
        <ele>1446.44</ele>
        <time>2019-12-14T09:21:04Z</time>
      </trkpt>
      <trkpt lat="42.77262" lon="1.8482">
        <ele>1448.36</ele>
        <time>2019-12-14T09:21:11Z</time>
      </trkpt>
      <trkpt lat="42.77264" lon="1.84818">
        <ele>1449.81</ele>
        <time>2019-12-14T09:21:14Z</time>
      </trkpt>
      <trkpt lat="42.77269" lon="1.84816">
        <ele>1448.84</ele>
        <time>2019-12-14T09:21:19Z</time>
      </trkpt>
      <trkpt lat="42.77273" lon="1.84815">
        <ele>1447.88</ele>
        <time>2019-12-14T09:21:24Z</time>
      </trkpt>
      <trkpt lat="42.77281" lon="1.84812">
        <ele>1450.29</ele>
        <time>2019-12-14T09:21:34Z</time>
      </trkpt>
      <trkpt lat="42.77285" lon="1.84809">
        <ele>1452.21</ele>
        <time>2019-12-14T09:21:39Z</time>
      </trkpt>
      <trkpt lat="42.77287" lon="1.84808">
        <ele>1453.65</ele>
        <time>2019-12-14T09:21:43Z</time>
      </trkpt>
      <trkpt lat="42.77288" lon="1.84807">
        <ele>1449.81</ele>
        <time>2019-12-14T09:21:44Z</time>
      </trkpt>
      <trkpt lat="42.77289" lon="1.84806">
        <ele>1454.61</ele>
        <time>2019-12-14T09:21:45Z</time>
      </trkpt>
      <trkpt lat="42.77289" lon="1.84806">
        <ele>1451.25</ele>
        <time>2019-12-14T09:21:46Z</time>
      </trkpt>
      <trkpt lat="42.77293" lon="1.84804">
        <ele>1452.21</ele>
        <time>2019-12-14T09:21:51Z</time>
      </trkpt>
      <trkpt lat="42.77299" lon="1.84802">
        <ele>1452.21</ele>
        <time>2019-12-14T09:21:58Z</time>
      </trkpt>
      <trkpt lat="42.77299" lon="1.84802">
        <ele>1452.69</ele>
        <time>2019-12-14T09:22:00Z</time>
      </trkpt>
      <trkpt lat="42.773" lon="1.84802">
        <ele>1455.57</ele>
        <time>2019-12-14T09:22:01Z</time>
      </trkpt>
      <trkpt lat="42.77303" lon="1.84799">
        <ele>1457.5</ele>
        <time>2019-12-14T09:22:09Z</time>
      </trkpt>
      <trkpt lat="42.77305" lon="1.84799">
        <ele>1454.61</ele>
        <time>2019-12-14T09:22:12Z</time>
      </trkpt>
      <trkpt lat="42.77307" lon="1.84798">
        <ele>1455.57</ele>
        <time>2019-12-14T09:22:14Z</time>
      </trkpt>
      <trkpt lat="42.77313" lon="1.84797">
        <ele>1457.02</ele>
        <time>2019-12-14T09:22:23Z</time>
      </trkpt>
      <trkpt lat="42.77316" lon="1.84796">
        <ele>1456.53</ele>
        <time>2019-12-14T09:22:27Z</time>
      </trkpt>
      <trkpt lat="42.77316" lon="1.84796">
        <ele>1460.86</ele>
        <time>2019-12-14T09:22:28Z</time>
      </trkpt>
      <trkpt lat="42.77318" lon="1.84797">
        <ele>1458.46</ele>
        <time>2019-12-14T09:22:32Z</time>
      </trkpt>
      <trkpt lat="42.7732" lon="1.84797">
        <ele>1459.9</ele>
        <time>2019-12-14T09:22:34Z</time>
      </trkpt>
      <trkpt lat="42.7732" lon="1.84799">
        <ele>1459.9</ele>
        <time>2019-12-14T09:22:51Z</time>
      </trkpt>
      <trkpt lat="42.77323" lon="1.84797">
        <ele>1459.9</ele>
        <time>2019-12-14T09:23:19Z</time>
      </trkpt>
      <trkpt lat="42.77324" lon="1.84798">
        <ele>1460.38</ele>
        <time>2019-12-14T09:23:22Z</time>
      </trkpt>
      <trkpt lat="42.77328" lon="1.84798">
        <ele>1458.94</ele>
        <time>2019-12-14T09:23:26Z</time>
      </trkpt>
      <trkpt lat="42.7733" lon="1.84798">
        <ele>1461.34</ele>
        <time>2019-12-14T09:23:28Z</time>
      </trkpt>
      <trkpt lat="42.77331" lon="1.84798">
        <ele>1459.9</ele>
        <time>2019-12-14T09:23:30Z</time>
      </trkpt>
      <trkpt lat="42.77332" lon="1.84794">
        <ele>1459.42</ele>
        <time>2019-12-14T09:23:33Z</time>
      </trkpt>
      <trkpt lat="42.7733" lon="1.84791">
        <ele>1461.82</ele>
        <time>2019-12-14T09:23:38Z</time>
      </trkpt>
      <trkpt lat="42.77328" lon="1.84795">
        <ele>1460.86</ele>
        <time>2019-12-14T09:23:58Z</time>
      </trkpt>
      <trkpt lat="42.77325" lon="1.84799">
        <ele>1460.38</ele>
        <time>2019-12-14T09:24:11Z</time>
      </trkpt>
      <trkpt lat="42.77326" lon="1.848">
        <ele>1459.9</ele>
        <time>2019-12-14T09:24:32Z</time>
      </trkpt>
      <trkpt lat="42.77326" lon="1.84799">
        <ele>1459.9</ele>
        <time>2019-12-14T09:25:03Z</time>
      </trkpt>
      <trkpt lat="42.77325" lon="1.848">
        <ele>1459.9</ele>
        <time>2019-12-14T09:25:18Z</time>
      </trkpt>
      <trkpt lat="42.77332" lon="1.84798">
        <ele>1461.82</ele>
        <time>2019-12-14T09:25:27Z</time>
      </trkpt>
      <trkpt lat="42.77334" lon="1.84798">
        <ele>1460.38</ele>
        <time>2019-12-14T09:25:30Z</time>
      </trkpt>
      <trkpt lat="42.7734" lon="1.84804">
        <ele>1463.26</ele>
        <time>2019-12-14T09:25:41Z</time>
      </trkpt>
      <trkpt lat="42.77341" lon="1.84804">
        <ele>1463.26</ele>
        <time>2019-12-14T09:25:42Z</time>
      </trkpt>
      <trkpt lat="42.77342" lon="1.84804">
        <ele>1461.34</ele>
        <time>2019-12-14T09:25:43Z</time>
      </trkpt>
      <trkpt lat="42.77345" lon="1.84805">
        <ele>1461.82</ele>
        <time>2019-12-14T09:25:46Z</time>
      </trkpt>
      <trkpt lat="42.77353" lon="1.8481">
        <ele>1464.23</ele>
        <time>2019-12-14T09:25:55Z</time>
      </trkpt>
      <trkpt lat="42.77363" lon="1.84814">
        <ele>1467.11</ele>
        <time>2019-12-14T09:26:06Z</time>
      </trkpt>
      <trkpt lat="42.7737" lon="1.84815">
        <ele>1463.74</ele>
        <time>2019-12-14T09:26:16Z</time>
      </trkpt>
      <trkpt lat="42.77371" lon="1.84815">
        <ele>1469.03</ele>
        <time>2019-12-14T09:26:17Z</time>
      </trkpt>
      <trkpt lat="42.77371" lon="1.84815">
        <ele>1465.67</ele>
        <time>2019-12-14T09:26:18Z</time>
      </trkpt>
      <trkpt lat="42.77374" lon="1.84815">
        <ele>1466.63</ele>
        <time>2019-12-14T09:26:21Z</time>
      </trkpt>
      <trkpt lat="42.7738" lon="1.84815">
        <ele>1469.51</ele>
        <time>2019-12-14T09:26:31Z</time>
      </trkpt>
      <trkpt lat="42.77381" lon="1.84816">
        <ele>1468.07</ele>
        <time>2019-12-14T09:26:32Z</time>
      </trkpt>
      <trkpt lat="42.77383" lon="1.84816">
        <ele>1467.59</ele>
        <time>2019-12-14T09:26:34Z</time>
      </trkpt>
      <trkpt lat="42.77387" lon="1.84816">
        <ele>1470.47</ele>
        <time>2019-12-14T09:26:41Z</time>
      </trkpt>
      <trkpt lat="42.77389" lon="1.84817">
        <ele>1470.95</ele>
        <time>2019-12-14T09:26:43Z</time>
      </trkpt>
      <trkpt lat="42.77395" lon="1.84817">
        <ele>1472.4</ele>
        <time>2019-12-14T09:26:52Z</time>
      </trkpt>
      <trkpt lat="42.77398" lon="1.84821">
        <ele>1471.92</ele>
        <time>2019-12-14T09:27:00Z</time>
      </trkpt>
      <trkpt lat="42.77403" lon="1.84824">
        <ele>1473.84</ele>
        <time>2019-12-14T09:27:11Z</time>
      </trkpt>
      <trkpt lat="42.77403" lon="1.84825">
        <ele>1473.84</ele>
        <time>2019-12-14T09:27:12Z</time>
      </trkpt>
      <trkpt lat="42.77407" lon="1.84827">
        <ele>1472.4</ele>
        <time>2019-12-14T09:27:17Z</time>
      </trkpt>
      <trkpt lat="42.77413" lon="1.84829">
        <ele>1473.36</ele>
        <time>2019-12-14T09:27:26Z</time>
      </trkpt>
      <trkpt lat="42.7742" lon="1.84834">
        <ele>1473.84</ele>
        <time>2019-12-14T09:27:36Z</time>
      </trkpt>
      <trkpt lat="42.77421" lon="1.84834">
        <ele>1473.84</ele>
        <time>2019-12-14T09:27:37Z</time>
      </trkpt>
      <trkpt lat="42.77423" lon="1.84834">
        <ele>1473.84</ele>
        <time>2019-12-14T09:27:40Z</time>
      </trkpt>
      <trkpt lat="42.77428" lon="1.84833">
        <ele>1473.36</ele>
        <time>2019-12-14T09:27:45Z</time>
      </trkpt>
      <trkpt lat="42.77438" lon="1.84836">
        <ele>1471.92</ele>
        <time>2019-12-14T09:27:55Z</time>
      </trkpt>
      <trkpt lat="42.77448" lon="1.84843">
        <ele>1473.84</ele>
        <time>2019-12-14T09:28:07Z</time>
      </trkpt>
      <trkpt lat="42.7745" lon="1.84845">
        <ele>1471.92</ele>
        <time>2019-12-14T09:28:10Z</time>
      </trkpt>
      <trkpt lat="42.77454" lon="1.84847">
        <ele>1473.36</ele>
        <time>2019-12-14T09:28:15Z</time>
      </trkpt>
      <trkpt lat="42.77463" lon="1.84852">
        <ele>1473.84</ele>
        <time>2019-12-14T09:28:26Z</time>
      </trkpt>
      <trkpt lat="42.77469" lon="1.84856">
        <ele>1475.76</ele>
        <time>2019-12-14T09:28:35Z</time>
      </trkpt>
      <trkpt lat="42.77477" lon="1.84862">
        <ele>1476.24</ele>
        <time>2019-12-14T09:28:45Z</time>
      </trkpt>
      <trkpt lat="42.77482" lon="1.84865">
        <ele>1473.84</ele>
        <time>2019-12-14T09:28:50Z</time>
      </trkpt>
      <trkpt lat="42.77484" lon="1.84864">
        <ele>1475.76</ele>
        <time>2019-12-14T09:28:52Z</time>
      </trkpt>
      <trkpt lat="42.77485" lon="1.84864">
        <ele>1475.76</ele>
        <time>2019-12-14T09:28:54Z</time>
      </trkpt>
      <trkpt lat="42.77491" lon="1.84863">
        <ele>1473.84</ele>
        <time>2019-12-14T09:29:00Z</time>
      </trkpt>
      <trkpt lat="42.77493" lon="1.84863">
        <ele>1474.32</ele>
        <time>2019-12-14T09:29:03Z</time>
      </trkpt>
      <trkpt lat="42.775" lon="1.84864">
        <ele>1474.32</ele>
        <time>2019-12-14T09:29:10Z</time>
      </trkpt>
      <trkpt lat="42.77511" lon="1.84866">
        <ele>1474.8</ele>
        <time>2019-12-14T09:29:21Z</time>
      </trkpt>
      <trkpt lat="42.77517" lon="1.84869">
        <ele>1475.28</ele>
        <time>2019-12-14T09:29:33Z</time>
      </trkpt>
      <trkpt lat="42.77522" lon="1.8487">
        <ele>1475.28</ele>
        <time>2019-12-14T09:29:47Z</time>
      </trkpt>
      <trkpt lat="42.77526" lon="1.84871">
        <ele>1477.2</ele>
        <time>2019-12-14T09:29:52Z</time>
      </trkpt>
      <trkpt lat="42.77529" lon="1.84872">
        <ele>1477.2</ele>
        <time>2019-12-14T09:29:55Z</time>
      </trkpt>
      <trkpt lat="42.77531" lon="1.84873">
        <ele>1475.76</ele>
        <time>2019-12-14T09:29:58Z</time>
      </trkpt>
      <trkpt lat="42.77543" lon="1.84876">
        <ele>1477.68</ele>
        <time>2019-12-14T09:30:08Z</time>
      </trkpt>
      <trkpt lat="42.77548" lon="1.84878">
        <ele>1476.24</ele>
        <time>2019-12-14T09:30:12Z</time>
      </trkpt>
      <trkpt lat="42.77558" lon="1.84878">
        <ele>1476.72</ele>
        <time>2019-12-14T09:30:22Z</time>
      </trkpt>
      <trkpt lat="42.77565" lon="1.8488">
        <ele>1476.24</ele>
        <time>2019-12-14T09:30:29Z</time>
      </trkpt>
      <trkpt lat="42.77572" lon="1.84882">
        <ele>1478.65</ele>
        <time>2019-12-14T09:30:37Z</time>
      </trkpt>
      <trkpt lat="42.77574" lon="1.84882">
        <ele>1478.65</ele>
        <time>2019-12-14T09:30:39Z</time>
      </trkpt>
      <trkpt lat="42.77577" lon="1.84882">
        <ele>1477.2</ele>
        <time>2019-12-14T09:30:42Z</time>
      </trkpt>
      <trkpt lat="42.77579" lon="1.84883">
        <ele>1477.2</ele>
        <time>2019-12-14T09:30:45Z</time>
      </trkpt>
      <trkpt lat="42.77582" lon="1.84883">
        <ele>1479.13</ele>
        <time>2019-12-14T09:30:48Z</time>
      </trkpt>
      <trkpt lat="42.77589" lon="1.84884">
        <ele>1477.68</ele>
        <time>2019-12-14T09:30:55Z</time>
      </trkpt>
      <trkpt lat="42.77591" lon="1.84884">
        <ele>1478.16</ele>
        <time>2019-12-14T09:30:58Z</time>
      </trkpt>
      <trkpt lat="42.77595" lon="1.84887">
        <ele>1478.16</ele>
        <time>2019-12-14T09:31:03Z</time>
      </trkpt>
      <trkpt lat="42.77603" lon="1.84889">
        <ele>1477.68</ele>
        <time>2019-12-14T09:31:11Z</time>
      </trkpt>
      <trkpt lat="42.77608" lon="1.84889">
        <ele>1481.05</ele>
        <time>2019-12-14T09:31:26Z</time>
      </trkpt>
      <trkpt lat="42.7761" lon="1.84889">
        <ele>1478.16</ele>
        <time>2019-12-14T09:31:29Z</time>
      </trkpt>
      <trkpt lat="42.77618" lon="1.84891">
        <ele>1480.09</ele>
        <time>2019-12-14T09:31:39Z</time>
      </trkpt>
      <trkpt lat="42.77623" lon="1.84892">
        <ele>1479.61</ele>
        <time>2019-12-14T09:31:44Z</time>
      </trkpt>
      <trkpt lat="42.77626" lon="1.84893">
        <ele>1482.01</ele>
        <time>2019-12-14T09:31:47Z</time>
      </trkpt>
      <trkpt lat="42.77628" lon="1.84894">
        <ele>1479.61</ele>
        <time>2019-12-14T09:31:49Z</time>
      </trkpt>
      <trkpt lat="42.7763" lon="1.84895">
        <ele>1480.09</ele>
        <time>2019-12-14T09:31:52Z</time>
      </trkpt>
      <trkpt lat="42.77639" lon="1.84897">
        <ele>1480.09</ele>
        <time>2019-12-14T09:32:02Z</time>
      </trkpt>
      <trkpt lat="42.77643" lon="1.84898">
        <ele>1481.53</ele>
        <time>2019-12-14T09:32:07Z</time>
      </trkpt>
      <trkpt lat="42.77645" lon="1.84899">
        <ele>1480.57</ele>
        <time>2019-12-14T09:32:09Z</time>
      </trkpt>
      <trkpt lat="42.77648" lon="1.84901">
        <ele>1483.45</ele>
        <time>2019-12-14T09:32:16Z</time>
      </trkpt>
      <trkpt lat="42.7765" lon="1.84903">
        <ele>1482.01</ele>
        <time>2019-12-14T09:32:21Z</time>
      </trkpt>
      <trkpt lat="42.7765" lon="1.84904">
        <ele>1482.01</ele>
        <time>2019-12-14T09:32:22Z</time>
      </trkpt>
      <trkpt lat="42.77656" lon="1.84912">
        <ele>1481.05</ele>
        <time>2019-12-14T09:32:32Z</time>
      </trkpt>
      <trkpt lat="42.77657" lon="1.84912">
        <ele>1484.41</ele>
        <time>2019-12-14T09:32:33Z</time>
      </trkpt>
      <trkpt lat="42.77658" lon="1.84913">
        <ele>1482.01</ele>
        <time>2019-12-14T09:32:35Z</time>
      </trkpt>
      <trkpt lat="42.77661" lon="1.84915">
        <ele>1484.41</ele>
        <time>2019-12-14T09:32:38Z</time>
      </trkpt>
      <trkpt lat="42.77666" lon="1.84919">
        <ele>1484.89</ele>
        <time>2019-12-14T09:32:43Z</time>
      </trkpt>
      <trkpt lat="42.77671" lon="1.84928">
        <ele>1485.37</ele>
        <time>2019-12-14T09:32:53Z</time>
      </trkpt>
      <trkpt lat="42.77672" lon="1.84931">
        <ele>1482.97</ele>
        <time>2019-12-14T09:32:56Z</time>
      </trkpt>
      <trkpt lat="42.77677" lon="1.84939">
        <ele>1486.34</ele>
        <time>2019-12-14T09:33:06Z</time>
      </trkpt>
      <trkpt lat="42.77678" lon="1.84941">
        <ele>1486.82</ele>
        <time>2019-12-14T09:33:08Z</time>
      </trkpt>
      <trkpt lat="42.7768" lon="1.84943">
        <ele>1483.45</ele>
        <time>2019-12-14T09:33:11Z</time>
      </trkpt>
      <trkpt lat="42.77681" lon="1.84945">
        <ele>1485.85</ele>
        <time>2019-12-14T09:33:17Z</time>
      </trkpt>
      <trkpt lat="42.77685" lon="1.84949">
        <ele>1484.89</ele>
        <time>2019-12-14T09:33:24Z</time>
      </trkpt>
      <trkpt lat="42.77687" lon="1.84951">
        <ele>1486.82</ele>
        <time>2019-12-14T09:33:29Z</time>
      </trkpt>
      <trkpt lat="42.77691" lon="1.84955">
        <ele>1486.82</ele>
        <time>2019-12-14T09:33:34Z</time>
      </trkpt>
      <trkpt lat="42.77693" lon="1.84958">
        <ele>1489.22</ele>
        <time>2019-12-14T09:33:38Z</time>
      </trkpt>
      <trkpt lat="42.77697" lon="1.84963">
        <ele>1485.85</ele>
        <time>2019-12-14T09:33:46Z</time>
      </trkpt>
      <trkpt lat="42.77699" lon="1.84964">
        <ele>1486.82</ele>
        <time>2019-12-14T09:33:48Z</time>
      </trkpt>
      <trkpt lat="42.77702" lon="1.84967">
        <ele>1488.74</ele>
        <time>2019-12-14T09:33:53Z</time>
      </trkpt>
      <trkpt lat="42.77704" lon="1.84969">
        <ele>1490.18</ele>
        <time>2019-12-14T09:33:56Z</time>
      </trkpt>
      <trkpt lat="42.77707" lon="1.84972">
        <ele>1489.7</ele>
        <time>2019-12-14T09:34:00Z</time>
      </trkpt>
      <trkpt lat="42.77712" lon="1.84976">
        <ele>1488.74</ele>
        <time>2019-12-14T09:34:08Z</time>
      </trkpt>
      <trkpt lat="42.77719" lon="1.8498">
        <ele>1489.7</ele>
        <time>2019-12-14T09:34:19Z</time>
      </trkpt>
      <trkpt lat="42.77721" lon="1.84982">
        <ele>1490.18</ele>
        <time>2019-12-14T09:34:22Z</time>
      </trkpt>
      <trkpt lat="42.77724" lon="1.84984">
        <ele>1492.1</ele>
        <time>2019-12-14T09:34:27Z</time>
      </trkpt>
      <trkpt lat="42.77731" lon="1.84989">
        <ele>1494.03</ele>
        <time>2019-12-14T09:34:39Z</time>
      </trkpt>
      <trkpt lat="42.77738" lon="1.84995">
        <ele>1494.99</ele>
        <time>2019-12-14T09:34:49Z</time>
      </trkpt>
      <trkpt lat="42.77738" lon="1.84994">
        <ele>1494.99</ele>
        <time>2019-12-14T09:34:59Z</time>
      </trkpt>
      <trkpt lat="42.7774" lon="1.84994">
        <ele>1493.55</ele>
        <time>2019-12-14T09:35:04Z</time>
      </trkpt>
      <trkpt lat="42.77747" lon="1.84996">
        <ele>1496.43</ele>
        <time>2019-12-14T09:35:14Z</time>
      </trkpt>
      <trkpt lat="42.77751" lon="1.84998">
        <ele>1494.99</ele>
        <time>2019-12-14T09:35:19Z</time>
      </trkpt>
      <trkpt lat="42.77756" lon="1.85002">
        <ele>1495.95</ele>
        <time>2019-12-14T09:35:26Z</time>
      </trkpt>
      <trkpt lat="42.77758" lon="1.85004">
        <ele>1495.47</ele>
        <time>2019-12-14T09:35:28Z</time>
      </trkpt>
      <trkpt lat="42.77763" lon="1.85008">
        <ele>1498.35</ele>
        <time>2019-12-14T09:35:37Z</time>
      </trkpt>
      <trkpt lat="42.77766" lon="1.85012">
        <ele>1498.83</ele>
        <time>2019-12-14T09:35:44Z</time>
      </trkpt>
      <trkpt lat="42.77771" lon="1.85017">
        <ele>1502.2</ele>
        <time>2019-12-14T09:35:54Z</time>
      </trkpt>
      <trkpt lat="42.77778" lon="1.85021">
        <ele>1503.16</ele>
        <time>2019-12-14T09:36:04Z</time>
      </trkpt>
      <trkpt lat="42.7778" lon="1.85022">
        <ele>1501.72</ele>
        <time>2019-12-14T09:36:08Z</time>
      </trkpt>
      <trkpt lat="42.77781" lon="1.85023">
        <ele>1503.16</ele>
        <time>2019-12-14T09:36:10Z</time>
      </trkpt>
      <trkpt lat="42.77787" lon="1.85026">
        <ele>1504.6</ele>
        <time>2019-12-14T09:36:21Z</time>
      </trkpt>
      <trkpt lat="42.77796" lon="1.85026">
        <ele>1506.04</ele>
        <time>2019-12-14T09:36:33Z</time>
      </trkpt>
      <trkpt lat="42.77802" lon="1.85027">
        <ele>1507.97</ele>
        <time>2019-12-14T09:36:43Z</time>
      </trkpt>
      <trkpt lat="42.7781" lon="1.85031">
        <ele>1507</ele>
        <time>2019-12-14T09:36:54Z</time>
      </trkpt>
      <trkpt lat="42.77815" lon="1.85033">
        <ele>1509.41</ele>
        <time>2019-12-14T09:37:03Z</time>
      </trkpt>
      <trkpt lat="42.7782" lon="1.85035">
        <ele>1509.41</ele>
        <time>2019-12-14T09:37:12Z</time>
      </trkpt>
      <trkpt lat="42.77828" lon="1.85037">
        <ele>1512.77</ele>
        <time>2019-12-14T09:37:24Z</time>
      </trkpt>
      <trkpt lat="42.77833" lon="1.85042">
        <ele>1512.29</ele>
        <time>2019-12-14T09:37:36Z</time>
      </trkpt>
      <trkpt lat="42.77836" lon="1.85044">
        <ele>1511.81</ele>
        <time>2019-12-14T09:37:40Z</time>
      </trkpt>
      <trkpt lat="42.77838" lon="1.85046">
        <ele>1510.85</ele>
        <time>2019-12-14T09:37:42Z</time>
      </trkpt>
      <trkpt lat="42.77841" lon="1.85052">
        <ele>1511.33</ele>
        <time>2019-12-14T09:37:50Z</time>
      </trkpt>
      <trkpt lat="42.77843" lon="1.85059">
        <ele>1511.33</ele>
        <time>2019-12-14T09:37:56Z</time>
      </trkpt>
      <trkpt lat="42.77843" lon="1.85062">
        <ele>1511.33</ele>
        <time>2019-12-14T09:38:10Z</time>
      </trkpt>
      <trkpt lat="42.77843" lon="1.85062">
        <ele>1511.33</ele>
        <time>2019-12-14T09:38:11Z</time>
      </trkpt>
      <trkpt lat="42.77843" lon="1.8506">
        <ele>1511.81</ele>
        <time>2019-12-14T09:38:36Z</time>
      </trkpt>
      <trkpt lat="42.77842" lon="1.8506">
        <ele>1512.77</ele>
        <time>2019-12-14T09:38:40Z</time>
      </trkpt>
      <trkpt lat="42.77841" lon="1.85059">
        <ele>1511.33</ele>
        <time>2019-12-14T09:39:11Z</time>
      </trkpt>
      <trkpt lat="42.77841" lon="1.85059">
        <ele>1512.77</ele>
        <time>2019-12-14T09:39:13Z</time>
      </trkpt>
      <trkpt lat="42.77842" lon="1.8506">
        <ele>1512.29</ele>
        <time>2019-12-14T09:39:39Z</time>
      </trkpt>
      <trkpt lat="42.77842" lon="1.85059">
        <ele>1513.73</ele>
        <time>2019-12-14T09:39:56Z</time>
      </trkpt>
      <trkpt lat="42.77843" lon="1.8506">
        <ele>1510.37</ele>
        <time>2019-12-14T09:40:15Z</time>
      </trkpt>
      <trkpt lat="42.77843" lon="1.85059">
        <ele>1515.18</ele>
        <time>2019-12-14T09:40:16Z</time>
      </trkpt>
      <trkpt lat="42.77843" lon="1.85059">
        <ele>1512.77</ele>
        <time>2019-12-14T09:40:19Z</time>
      </trkpt>
      <trkpt lat="42.77844" lon="1.85062">
        <ele>1511.33</ele>
        <time>2019-12-14T09:40:46Z</time>
      </trkpt>
      <trkpt lat="42.77848" lon="1.85075">
        <ele>1512.29</ele>
        <time>2019-12-14T09:40:55Z</time>
      </trkpt>
      <trkpt lat="42.77853" lon="1.85085">
        <ele>1514.21</ele>
        <time>2019-12-14T09:41:04Z</time>
      </trkpt>
      <trkpt lat="42.77857" lon="1.85097">
        <ele>1515.66</ele>
        <time>2019-12-14T09:41:13Z</time>
      </trkpt>
      <trkpt lat="42.77859" lon="1.85101">
        <ele>1513.73</ele>
        <time>2019-12-14T09:41:17Z</time>
      </trkpt>
      <trkpt lat="42.77861" lon="1.85107">
        <ele>1517.1</ele>
        <time>2019-12-14T09:41:21Z</time>
      </trkpt>
      <trkpt lat="42.77864" lon="1.85116">
        <ele>1514.21</ele>
        <time>2019-12-14T09:41:28Z</time>
      </trkpt>
      <trkpt lat="42.77864" lon="1.8512">
        <ele>1515.18</ele>
        <time>2019-12-14T09:41:31Z</time>
      </trkpt>
      <trkpt lat="42.77865" lon="1.85123">
        <ele>1515.66</ele>
        <time>2019-12-14T09:41:34Z</time>
      </trkpt>
      <trkpt lat="42.77866" lon="1.85126">
        <ele>1518.06</ele>
        <time>2019-12-14T09:41:37Z</time>
      </trkpt>
      <trkpt lat="42.77868" lon="1.85132">
        <ele>1518.54</ele>
        <time>2019-12-14T09:41:43Z</time>
      </trkpt>
      <trkpt lat="42.77869" lon="1.85135">
        <ele>1516.14</ele>
        <time>2019-12-14T09:41:48Z</time>
      </trkpt>
      <trkpt lat="42.77871" lon="1.85147">
        <ele>1517.1</ele>
        <time>2019-12-14T09:41:58Z</time>
      </trkpt>
      <trkpt lat="42.77872" lon="1.85149">
        <ele>1516.62</ele>
        <time>2019-12-14T09:42:00Z</time>
      </trkpt>
      <trkpt lat="42.77873" lon="1.85152">
        <ele>1518.54</ele>
        <time>2019-12-14T09:42:03Z</time>
      </trkpt>
      <trkpt lat="42.77874" lon="1.8516">
        <ele>1519.02</ele>
        <time>2019-12-14T09:42:08Z</time>
      </trkpt>
      <trkpt lat="42.77874" lon="1.85169">
        <ele>1519.98</ele>
        <time>2019-12-14T09:42:17Z</time>
      </trkpt>
      <trkpt lat="42.77876" lon="1.85178">
        <ele>1523.35</ele>
        <time>2019-12-14T09:42:26Z</time>
      </trkpt>
      <trkpt lat="42.77878" lon="1.85183">
        <ele>1522.39</ele>
        <time>2019-12-14T09:42:31Z</time>
      </trkpt>
      <trkpt lat="42.77878" lon="1.85187">
        <ele>1521.9</ele>
        <time>2019-12-14T09:42:34Z</time>
      </trkpt>
      <trkpt lat="42.77879" lon="1.8519">
        <ele>1523.83</ele>
        <time>2019-12-14T09:42:36Z</time>
      </trkpt>
      <trkpt lat="42.77878" lon="1.85198">
        <ele>1525.75</ele>
        <time>2019-12-14T09:42:43Z</time>
      </trkpt>
      <trkpt lat="42.77878" lon="1.85199">
        <ele>1522.39</ele>
        <time>2019-12-14T09:42:44Z</time>
      </trkpt>
      <trkpt lat="42.77877" lon="1.85202">
        <ele>1523.83</ele>
        <time>2019-12-14T09:42:47Z</time>
      </trkpt>
      <trkpt lat="42.77878" lon="1.85213">
        <ele>1527.67</ele>
        <time>2019-12-14T09:42:58Z</time>
      </trkpt>
      <trkpt lat="42.77878" lon="1.85214">
        <ele>1525.27</ele>
        <time>2019-12-14T09:42:59Z</time>
      </trkpt>
      <trkpt lat="42.77878" lon="1.85217">
        <ele>1524.31</ele>
        <time>2019-12-14T09:43:02Z</time>
      </trkpt>
      <trkpt lat="42.77878" lon="1.85219">
        <ele>1525.27</ele>
        <time>2019-12-14T09:43:04Z</time>
      </trkpt>
      <trkpt lat="42.77879" lon="1.85222">
        <ele>1525.75</ele>
        <time>2019-12-14T09:43:08Z</time>
      </trkpt>
      <trkpt lat="42.7788" lon="1.85224">
        <ele>1525.27</ele>
        <time>2019-12-14T09:43:10Z</time>
      </trkpt>
      <trkpt lat="42.7788" lon="1.85225">
        <ele>1529.11</ele>
        <time>2019-12-14T09:43:11Z</time>
      </trkpt>
      <trkpt lat="42.77881" lon="1.85231">
        <ele>1529.59</ele>
        <time>2019-12-14T09:43:19Z</time>
      </trkpt>
      <trkpt lat="42.77882" lon="1.85232">
        <ele>1526.23</ele>
        <time>2019-12-14T09:43:20Z</time>
      </trkpt>
      <trkpt lat="42.77882" lon="1.85232">
        <ele>1530.08</ele>
        <time>2019-12-14T09:43:21Z</time>
      </trkpt>
      <trkpt lat="42.77882" lon="1.85233">
        <ele>1526.23</ele>
        <time>2019-12-14T09:43:22Z</time>
      </trkpt>
      <trkpt lat="42.77885" lon="1.85234">
        <ele>1529.11</ele>
        <time>2019-12-14T09:43:39Z</time>
      </trkpt>
      <trkpt lat="42.77886" lon="1.85233">
        <ele>1528.15</ele>
        <time>2019-12-14T09:43:41Z</time>
      </trkpt>
      <trkpt lat="42.77886" lon="1.85233">
        <ele>1528.15</ele>
        <time>2019-12-14T09:43:42Z</time>
      </trkpt>
      <trkpt lat="42.77895" lon="1.85234">
        <ele>1526.71</ele>
        <time>2019-12-14T09:43:54Z</time>
      </trkpt>
      <trkpt lat="42.77901" lon="1.85241">
        <ele>1530.56</ele>
        <time>2019-12-14T09:44:04Z</time>
      </trkpt>
      <trkpt lat="42.77904" lon="1.8525">
        <ele>1531.04</ele>
        <time>2019-12-14T09:44:14Z</time>
      </trkpt>
      <trkpt lat="42.77905" lon="1.85252">
        <ele>1532.48</ele>
        <time>2019-12-14T09:44:16Z</time>
      </trkpt>
      <trkpt lat="42.77906" lon="1.85252">
        <ele>1530.56</ele>
        <time>2019-12-14T09:44:17Z</time>
      </trkpt>
      <trkpt lat="42.77908" lon="1.85256">
        <ele>1533.92</ele>
        <time>2019-12-14T09:44:21Z</time>
      </trkpt>
      <trkpt lat="42.7791" lon="1.85259">
        <ele>1533.44</ele>
        <time>2019-12-14T09:44:27Z</time>
      </trkpt>
      <trkpt lat="42.77912" lon="1.85263">
        <ele>1532</ele>
        <time>2019-12-14T09:44:31Z</time>
      </trkpt>
      <trkpt lat="42.77915" lon="1.8527">
        <ele>1532.96</ele>
        <time>2019-12-14T09:44:40Z</time>
      </trkpt>
      <trkpt lat="42.77919" lon="1.85279">
        <ele>1533.44</ele>
        <time>2019-12-14T09:44:51Z</time>
      </trkpt>
      <trkpt lat="42.77921" lon="1.85284">
        <ele>1535.84</ele>
        <time>2019-12-14T09:44:58Z</time>
      </trkpt>
      <trkpt lat="42.77925" lon="1.8529">
        <ele>1535.36</ele>
        <time>2019-12-14T09:45:07Z</time>
      </trkpt>
      <trkpt lat="42.77929" lon="1.85296">
        <ele>1537.77</ele>
        <time>2019-12-14T09:45:15Z</time>
      </trkpt>
      <trkpt lat="42.77932" lon="1.85304">
        <ele>1537.29</ele>
        <time>2019-12-14T09:45:25Z</time>
      </trkpt>
      <trkpt lat="42.77932" lon="1.85304">
        <ele>1537.29</ele>
        <time>2019-12-14T09:45:28Z</time>
      </trkpt>
      <trkpt lat="42.77935" lon="1.85307">
        <ele>1540.65</ele>
        <time>2019-12-14T09:45:36Z</time>
      </trkpt>
      <trkpt lat="42.77936" lon="1.85307">
        <ele>1536.8</ele>
        <time>2019-12-14T09:45:37Z</time>
      </trkpt>
      <trkpt lat="42.77936" lon="1.85308">
        <ele>1540.17</ele>
        <time>2019-12-14T09:45:38Z</time>
      </trkpt>
      <trkpt lat="42.77939" lon="1.85313">
        <ele>1541.61</ele>
        <time>2019-12-14T09:45:46Z</time>
      </trkpt>
      <trkpt lat="42.7794" lon="1.85314">
        <ele>1537.29</ele>
        <time>2019-12-14T09:45:47Z</time>
      </trkpt>
      <trkpt lat="42.7794" lon="1.85314">
        <ele>1542.57</ele>
        <time>2019-12-14T09:45:48Z</time>
      </trkpt>
      <trkpt lat="42.77941" lon="1.85314">
        <ele>1539.21</ele>
        <time>2019-12-14T09:45:49Z</time>
      </trkpt>
      <trkpt lat="42.77941" lon="1.85314">
        <ele>1542.57</ele>
        <time>2019-12-14T09:45:50Z</time>
      </trkpt>
      <trkpt lat="42.77943" lon="1.85316">
        <ele>1538.25</ele>
        <time>2019-12-14T09:45:55Z</time>
      </trkpt>
      <trkpt lat="42.77944" lon="1.85316">
        <ele>1544.01</ele>
        <time>2019-12-14T09:45:56Z</time>
      </trkpt>
      <trkpt lat="42.77945" lon="1.85317">
        <ele>1540.17</ele>
        <time>2019-12-14T09:45:57Z</time>
      </trkpt>
      <trkpt lat="42.77947" lon="1.85323">
        <ele>1543.53</ele>
        <time>2019-12-14T09:46:05Z</time>
      </trkpt>
      <trkpt lat="42.77948" lon="1.85324">
        <ele>1540.65</ele>
        <time>2019-12-14T09:46:06Z</time>
      </trkpt>
      <trkpt lat="42.77949" lon="1.85325">
        <ele>1544.5</ele>
        <time>2019-12-14T09:46:07Z</time>
      </trkpt>
      <trkpt lat="42.7795" lon="1.85325">
        <ele>1541.13</ele>
        <time>2019-12-14T09:46:08Z</time>
      </trkpt>
      <trkpt lat="42.77953" lon="1.85328">
        <ele>1541.61</ele>
        <time>2019-12-14T09:46:14Z</time>
      </trkpt>
      <trkpt lat="42.77954" lon="1.85329">
        <ele>1542.09</ele>
        <time>2019-12-14T09:46:16Z</time>
      </trkpt>
      <trkpt lat="42.77956" lon="1.8533">
        <ele>1542.09</ele>
        <time>2019-12-14T09:46:18Z</time>
      </trkpt>
      <trkpt lat="42.77957" lon="1.85331">
        <ele>1545.46</ele>
        <time>2019-12-14T09:46:21Z</time>
      </trkpt>
      <trkpt lat="42.77961" lon="1.85336">
        <ele>1545.94</ele>
        <time>2019-12-14T09:46:30Z</time>
      </trkpt>
      <trkpt lat="42.77967" lon="1.85337">
        <ele>1544.98</ele>
        <time>2019-12-14T09:46:38Z</time>
      </trkpt>
      <trkpt lat="42.77968" lon="1.8534">
        <ele>1544.01</ele>
        <time>2019-12-14T09:46:56Z</time>
      </trkpt>
      <trkpt lat="42.77973" lon="1.85344">
        <ele>1547.38</ele>
        <time>2019-12-14T09:47:06Z</time>
      </trkpt>
      <trkpt lat="42.77978" lon="1.8535">
        <ele>1548.82</ele>
        <time>2019-12-14T09:47:16Z</time>
      </trkpt>
      <trkpt lat="42.77978" lon="1.8535">
        <ele>1548.82</ele>
        <time>2019-12-14T09:47:17Z</time>
      </trkpt>
      <trkpt lat="42.77983" lon="1.85357">
        <ele>1548.82</ele>
        <time>2019-12-14T09:47:26Z</time>
      </trkpt>
      <trkpt lat="42.77984" lon="1.85358">
        <ele>1548.82</ele>
        <time>2019-12-14T09:47:28Z</time>
      </trkpt>
      <trkpt lat="42.77988" lon="1.85362">
        <ele>1549.3</ele>
        <time>2019-12-14T09:47:36Z</time>
      </trkpt>
      <trkpt lat="42.77988" lon="1.85364">
        <ele>1552.67</ele>
        <time>2019-12-14T09:47:40Z</time>
      </trkpt>
      <trkpt lat="42.77989" lon="1.85366">
        <ele>1549.78</ele>
        <time>2019-12-14T09:47:43Z</time>
      </trkpt>
      <trkpt lat="42.77989" lon="1.85367">
        <ele>1553.63</ele>
        <time>2019-12-14T09:47:44Z</time>
      </trkpt>
      <trkpt lat="42.77989" lon="1.85368">
        <ele>1550.26</ele>
        <time>2019-12-14T09:47:45Z</time>
      </trkpt>
      <trkpt lat="42.7799" lon="1.85369">
        <ele>1553.63</ele>
        <time>2019-12-14T09:47:48Z</time>
      </trkpt>
      <trkpt lat="42.77991" lon="1.85371">
        <ele>1552.67</ele>
        <time>2019-12-14T09:47:54Z</time>
      </trkpt>
      <trkpt lat="42.77994" lon="1.85377">
        <ele>1553.63</ele>
        <time>2019-12-14T09:48:03Z</time>
      </trkpt>
      <trkpt lat="42.77995" lon="1.85378">
        <ele>1553.63</ele>
        <time>2019-12-14T09:48:05Z</time>
      </trkpt>
      <trkpt lat="42.77997" lon="1.85381">
        <ele>1556.03</ele>
        <time>2019-12-14T09:48:11Z</time>
      </trkpt>
      <trkpt lat="42.77997" lon="1.85382">
        <ele>1552.67</ele>
        <time>2019-12-14T09:48:12Z</time>
      </trkpt>
      <trkpt lat="42.77998" lon="1.85383">
        <ele>1556.51</ele>
        <time>2019-12-14T09:48:13Z</time>
      </trkpt>
      <trkpt lat="42.77998" lon="1.85383">
        <ele>1553.15</ele>
        <time>2019-12-14T09:48:14Z</time>
      </trkpt>
      <trkpt lat="42.77999" lon="1.85384">
        <ele>1556.51</ele>
        <time>2019-12-14T09:48:15Z</time>
      </trkpt>
      <trkpt lat="42.78002" lon="1.85388">
        <ele>1556.51</ele>
        <time>2019-12-14T09:48:23Z</time>
      </trkpt>
      <trkpt lat="42.78005" lon="1.85395">
        <ele>1556.03</ele>
        <time>2019-12-14T09:48:34Z</time>
      </trkpt>
      <trkpt lat="42.7801" lon="1.854">
        <ele>1557.95</ele>
        <time>2019-12-14T09:48:43Z</time>
      </trkpt>
      <trkpt lat="42.78013" lon="1.85404">
        <ele>1557.95</ele>
        <time>2019-12-14T09:48:52Z</time>
      </trkpt>
      <trkpt lat="42.78017" lon="1.85409">
        <ele>1561.32</ele>
        <time>2019-12-14T09:49:01Z</time>
      </trkpt>
      <trkpt lat="42.7802" lon="1.85414">
        <ele>1559.88</ele>
        <time>2019-12-14T09:49:10Z</time>
      </trkpt>
      <trkpt lat="42.78024" lon="1.8542">
        <ele>1559.88</ele>
        <time>2019-12-14T09:49:20Z</time>
      </trkpt>
      <trkpt lat="42.78025" lon="1.85421">
        <ele>1563.72</ele>
        <time>2019-12-14T09:49:21Z</time>
      </trkpt>
      <trkpt lat="42.78028" lon="1.85426">
        <ele>1564.2</ele>
        <time>2019-12-14T09:49:32Z</time>
      </trkpt>
      <trkpt lat="42.78028" lon="1.85427">
        <ele>1562.76</ele>
        <time>2019-12-14T09:50:08Z</time>
      </trkpt>
      <trkpt lat="42.78028" lon="1.8543">
        <ele>1562.76</ele>
        <time>2019-12-14T09:50:21Z</time>
      </trkpt>
      <trkpt lat="42.7803" lon="1.85438">
        <ele>1563.24</ele>
        <time>2019-12-14T09:50:34Z</time>
      </trkpt>
      <trkpt lat="42.78031" lon="1.85441">
        <ele>1563.24</ele>
        <time>2019-12-14T09:50:38Z</time>
      </trkpt>
      <trkpt lat="42.78033" lon="1.85444">
        <ele>1566.61</ele>
        <time>2019-12-14T09:50:42Z</time>
      </trkpt>
      <trkpt lat="42.78033" lon="1.85444">
        <ele>1563.24</ele>
        <time>2019-12-14T09:50:43Z</time>
      </trkpt>
      <trkpt lat="42.78033" lon="1.85444">
        <ele>1566.61</ele>
        <time>2019-12-14T09:50:44Z</time>
      </trkpt>
      <trkpt lat="42.78037" lon="1.85448">
        <ele>1563.72</ele>
        <time>2019-12-14T09:50:51Z</time>
      </trkpt>
      <trkpt lat="42.78037" lon="1.8545">
        <ele>1564.68</ele>
        <time>2019-12-14T09:50:53Z</time>
      </trkpt>
      <trkpt lat="42.78038" lon="1.85449">
        <ele>1568.05</ele>
        <time>2019-12-14T09:50:54Z</time>
      </trkpt>
      <trkpt lat="42.78038" lon="1.8545">
        <ele>1564.68</ele>
        <time>2019-12-14T09:50:55Z</time>
      </trkpt>
      <trkpt lat="42.78039" lon="1.8545">
        <ele>1567.57</ele>
        <time>2019-12-14T09:50:56Z</time>
      </trkpt>
      <trkpt lat="42.7804" lon="1.85452">
        <ele>1565.16</ele>
        <time>2019-12-14T09:50:59Z</time>
      </trkpt>
      <trkpt lat="42.78041" lon="1.85452">
        <ele>1564.68</ele>
        <time>2019-12-14T09:51:01Z</time>
      </trkpt>
      <trkpt lat="42.78042" lon="1.85452">
        <ele>1569.49</ele>
        <time>2019-12-14T09:51:02Z</time>
      </trkpt>
      <trkpt lat="42.78043" lon="1.85452">
        <ele>1564.68</ele>
        <time>2019-12-14T09:51:03Z</time>
      </trkpt>
      <trkpt lat="42.78044" lon="1.85452">
        <ele>1568.53</ele>
        <time>2019-12-14T09:51:05Z</time>
      </trkpt>
      <trkpt lat="42.78045" lon="1.85452">
        <ele>1566.12</ele>
        <time>2019-12-14T09:51:08Z</time>
      </trkpt>
      <trkpt lat="42.7805" lon="1.85454">
        <ele>1569.01</ele>
        <time>2019-12-14T09:51:17Z</time>
      </trkpt>
      <trkpt lat="42.78056" lon="1.85458">
        <ele>1569.97</ele>
        <time>2019-12-14T09:51:29Z</time>
      </trkpt>
      <trkpt lat="42.7806" lon="1.85461">
        <ele>1571.41</ele>
        <time>2019-12-14T09:51:37Z</time>
      </trkpt>
      <trkpt lat="42.78064" lon="1.85463">
        <ele>1573.33</ele>
        <time>2019-12-14T09:51:47Z</time>
      </trkpt>
      <trkpt lat="42.78068" lon="1.85468">
        <ele>1573.33</ele>
        <time>2019-12-14T09:52:00Z</time>
      </trkpt>
      <trkpt lat="42.78072" lon="1.85474">
        <ele>1576.7</ele>
        <time>2019-12-14T09:52:09Z</time>
      </trkpt>
      <trkpt lat="42.78072" lon="1.85482">
        <ele>1577.66</ele>
        <time>2019-12-14T09:52:19Z</time>
      </trkpt>
      <trkpt lat="42.78073" lon="1.85489">
        <ele>1579.1</ele>
        <time>2019-12-14T09:52:27Z</time>
      </trkpt>
      <trkpt lat="42.78077" lon="1.85491">
        <ele>1575.74</ele>
        <time>2019-12-14T09:52:34Z</time>
      </trkpt>
      <trkpt lat="42.78078" lon="1.85491">
        <ele>1581.99</ele>
        <time>2019-12-14T09:52:35Z</time>
      </trkpt>
      <trkpt lat="42.78078" lon="1.85491">
        <ele>1578.14</ele>
        <time>2019-12-14T09:52:36Z</time>
      </trkpt>
      <trkpt lat="42.78082" lon="1.85496">
        <ele>1581.99</ele>
        <time>2019-12-14T09:52:46Z</time>
      </trkpt>
      <trkpt lat="42.78085" lon="1.85501">
        <ele>1579.58</ele>
        <time>2019-12-14T09:52:55Z</time>
      </trkpt>
      <trkpt lat="42.7809" lon="1.85505">
        <ele>1584.87</ele>
        <time>2019-12-14T09:53:05Z</time>
      </trkpt>
      <trkpt lat="42.7809" lon="1.85506">
        <ele>1583.43</ele>
        <time>2019-12-14T09:53:07Z</time>
      </trkpt>
      <trkpt lat="42.78094" lon="1.85512">
        <ele>1587.27</ele>
        <time>2019-12-14T09:53:16Z</time>
      </trkpt>
      <trkpt lat="42.78094" lon="1.85512">
        <ele>1582.95</ele>
        <time>2019-12-14T09:53:17Z</time>
      </trkpt>
      <trkpt lat="42.78096" lon="1.85512">
        <ele>1585.35</ele>
        <time>2019-12-14T09:53:19Z</time>
      </trkpt>
      <trkpt lat="42.78097" lon="1.85513">
        <ele>1585.35</ele>
        <time>2019-12-14T09:53:21Z</time>
      </trkpt>
      <trkpt lat="42.78101" lon="1.85517">
        <ele>1585.35</ele>
        <time>2019-12-14T09:53:29Z</time>
      </trkpt>
      <trkpt lat="42.78101" lon="1.85518">
        <ele>1588.72</ele>
        <time>2019-12-14T09:53:30Z</time>
      </trkpt>
      <trkpt lat="42.78103" lon="1.8552">
        <ele>1589.2</ele>
        <time>2019-12-14T09:53:34Z</time>
      </trkpt>
      <trkpt lat="42.78104" lon="1.85521">
        <ele>1588.72</ele>
        <time>2019-12-14T09:53:36Z</time>
      </trkpt>
      <trkpt lat="42.78108" lon="1.85526">
        <ele>1588.72</ele>
        <time>2019-12-14T09:53:43Z</time>
      </trkpt>
      <trkpt lat="42.78109" lon="1.85528">
        <ele>1589.68</ele>
        <time>2019-12-14T09:53:45Z</time>
      </trkpt>
      <trkpt lat="42.7811" lon="1.85528">
        <ele>1589.68</ele>
        <time>2019-12-14T09:53:47Z</time>
      </trkpt>
      <trkpt lat="42.78113" lon="1.85531">
        <ele>1589.68</ele>
        <time>2019-12-14T09:53:52Z</time>
      </trkpt>
      <trkpt lat="42.78118" lon="1.85536">
        <ele>1592.56</ele>
        <time>2019-12-14T09:54:01Z</time>
      </trkpt>
      <trkpt lat="42.78119" lon="1.85537">
        <ele>1591.6</ele>
        <time>2019-12-14T09:54:03Z</time>
      </trkpt>
      <trkpt lat="42.7812" lon="1.85539">
        <ele>1591.6</ele>
        <time>2019-12-14T09:54:05Z</time>
      </trkpt>
      <trkpt lat="42.78122" lon="1.85541">
        <ele>1591.6</ele>
        <time>2019-12-14T09:54:07Z</time>
      </trkpt>
      <trkpt lat="42.78127" lon="1.85544">
        <ele>1591.12</ele>
        <time>2019-12-14T09:54:14Z</time>
      </trkpt>
      <trkpt lat="42.78131" lon="1.85547">
        <ele>1593.04</ele>
        <time>2019-12-14T09:54:21Z</time>
      </trkpt>
      <trkpt lat="42.78133" lon="1.85549">
        <ele>1593.04</ele>
        <time>2019-12-14T09:54:23Z</time>
      </trkpt>
      <trkpt lat="42.78134" lon="1.8555">
        <ele>1593.04</ele>
        <time>2019-12-14T09:54:25Z</time>
      </trkpt>
      <trkpt lat="42.78142" lon="1.85554">
        <ele>1592.56</ele>
        <time>2019-12-14T09:54:35Z</time>
      </trkpt>
      <trkpt lat="42.78144" lon="1.85556">
        <ele>1593.52</ele>
        <time>2019-12-14T09:54:44Z</time>
      </trkpt>
      <trkpt lat="42.7815" lon="1.85555">
        <ele>1594.48</ele>
        <time>2019-12-14T09:54:55Z</time>
      </trkpt>
      <trkpt lat="42.78149" lon="1.85553">
        <ele>1593.04</ele>
        <time>2019-12-14T09:55:05Z</time>
      </trkpt>
      <trkpt lat="42.78148" lon="1.85551">
        <ele>1594.48</ele>
        <time>2019-12-14T09:55:35Z</time>
      </trkpt>
      <trkpt lat="42.78147" lon="1.85554">
        <ele>1594.48</ele>
        <time>2019-12-14T09:55:56Z</time>
      </trkpt>
      <trkpt lat="42.78145" lon="1.85553">
        <ele>1593.04</ele>
        <time>2019-12-14T09:55:59Z</time>
      </trkpt>
      <trkpt lat="42.78141" lon="1.85549">
        <ele>1593.04</ele>
        <time>2019-12-14T09:56:04Z</time>
      </trkpt>
      <trkpt lat="42.78138" lon="1.85546">
        <ele>1593.04</ele>
        <time>2019-12-14T09:56:18Z</time>
      </trkpt>
      <trkpt lat="42.78138" lon="1.85547">
        <ele>1594</ele>
        <time>2019-12-14T09:56:48Z</time>
      </trkpt>
      <trkpt lat="42.78138" lon="1.85544">
        <ele>1594</ele>
        <time>2019-12-14T09:57:14Z</time>
      </trkpt>
      <trkpt lat="42.78138" lon="1.85547">
        <ele>1593.04</ele>
        <time>2019-12-14T09:57:49Z</time>
      </trkpt>
      <trkpt lat="42.78138" lon="1.85547">
        <ele>1593.04</ele>
        <time>2019-12-14T09:58:11Z</time>
      </trkpt>
      <trkpt lat="42.7814" lon="1.85548">
        <ele>1593.04</ele>
        <time>2019-12-14T09:58:46Z</time>
      </trkpt>
      <trkpt lat="42.78141" lon="1.85551">
        <ele>1593.04</ele>
        <time>2019-12-14T09:59:07Z</time>
      </trkpt>
      <trkpt lat="42.78147" lon="1.85555">
        <ele>1593.04</ele>
        <time>2019-12-14T09:59:17Z</time>
      </trkpt>
      <trkpt lat="42.78148" lon="1.85555">
        <ele>1594</ele>
        <time>2019-12-14T09:59:29Z</time>
      </trkpt>
      <trkpt lat="42.7815" lon="1.85552">
        <ele>1594.48</ele>
        <time>2019-12-14T09:59:47Z</time>
      </trkpt>
      <trkpt lat="42.78151" lon="1.85552">
        <ele>1592.56</ele>
        <time>2019-12-14T09:59:48Z</time>
      </trkpt>
      <trkpt lat="42.78153" lon="1.85551">
        <ele>1594</ele>
        <time>2019-12-14T09:59:51Z</time>
      </trkpt>
      <trkpt lat="42.78158" lon="1.85551">
        <ele>1594</ele>
        <time>2019-12-14T09:59:56Z</time>
      </trkpt>
      <trkpt lat="42.78161" lon="1.8555">
        <ele>1596.41</ele>
        <time>2019-12-14T10:00:01Z</time>
      </trkpt>
      <trkpt lat="42.78163" lon="1.8555">
        <ele>1594.96</ele>
        <time>2019-12-14T10:00:03Z</time>
      </trkpt>
      <trkpt lat="42.78166" lon="1.85549">
        <ele>1594.48</ele>
        <time>2019-12-14T10:00:06Z</time>
      </trkpt>
      <trkpt lat="42.7817" lon="1.85548">
        <ele>1594.48</ele>
        <time>2019-12-14T10:00:11Z</time>
      </trkpt>
      <trkpt lat="42.78172" lon="1.85547">
        <ele>1594.96</ele>
        <time>2019-12-14T10:00:14Z</time>
      </trkpt>
      <trkpt lat="42.78175" lon="1.85547">
        <ele>1595.45</ele>
        <time>2019-12-14T10:00:19Z</time>
      </trkpt>
      <trkpt lat="42.78177" lon="1.85547">
        <ele>1594</ele>
        <time>2019-12-14T10:00:21Z</time>
      </trkpt>
      <trkpt lat="42.78178" lon="1.85547">
        <ele>1598.81</ele>
        <time>2019-12-14T10:00:22Z</time>
      </trkpt>
      <trkpt lat="42.78179" lon="1.85549">
        <ele>1596.89</ele>
        <time>2019-12-14T10:00:24Z</time>
      </trkpt>
      <trkpt lat="42.78181" lon="1.85549">
        <ele>1598.81</ele>
        <time>2019-12-14T10:00:28Z</time>
      </trkpt>
      <trkpt lat="42.78186" lon="1.85552">
        <ele>1599.29</ele>
        <time>2019-12-14T10:00:39Z</time>
      </trkpt>
      <trkpt lat="42.78194" lon="1.85558">
        <ele>1599.77</ele>
        <time>2019-12-14T10:00:51Z</time>
      </trkpt>
      <trkpt lat="42.78201" lon="1.85561">
        <ele>1598.33</ele>
        <time>2019-12-14T10:01:01Z</time>
      </trkpt>
      <trkpt lat="42.78205" lon="1.85563">
        <ele>1601.69</ele>
        <time>2019-12-14T10:01:08Z</time>
      </trkpt>
      <trkpt lat="42.7821" lon="1.85563">
        <ele>1600.73</ele>
        <time>2019-12-14T10:01:14Z</time>
      </trkpt>
      <trkpt lat="42.78211" lon="1.85564">
        <ele>1600.73</ele>
        <time>2019-12-14T10:01:16Z</time>
      </trkpt>
      <trkpt lat="42.78217" lon="1.85566">
        <ele>1600.25</ele>
        <time>2019-12-14T10:01:25Z</time>
      </trkpt>
      <trkpt lat="42.78223" lon="1.85567">
        <ele>1600.73</ele>
        <time>2019-12-14T10:01:33Z</time>
      </trkpt>
      <trkpt lat="42.78225" lon="1.85567">
        <ele>1600.73</ele>
        <time>2019-12-14T10:01:35Z</time>
      </trkpt>
      <trkpt lat="42.78231" lon="1.85567">
        <ele>1601.69</ele>
        <time>2019-12-14T10:01:44Z</time>
      </trkpt>
      <trkpt lat="42.7824" lon="1.85568">
        <ele>1604.58</ele>
        <time>2019-12-14T10:01:57Z</time>
      </trkpt>
      <trkpt lat="42.78246" lon="1.85567">
        <ele>1603.14</ele>
        <time>2019-12-14T10:02:06Z</time>
      </trkpt>
      <trkpt lat="42.7825" lon="1.85567">
        <ele>1604.1</ele>
        <time>2019-12-14T10:02:11Z</time>
      </trkpt>
      <trkpt lat="42.78253" lon="1.85567">
        <ele>1604.1</ele>
        <time>2019-12-14T10:02:16Z</time>
      </trkpt>
      <trkpt lat="42.78256" lon="1.85567">
        <ele>1604.58</ele>
        <time>2019-12-14T10:02:20Z</time>
      </trkpt>
      <trkpt lat="42.78262" lon="1.85567">
        <ele>1604.1</ele>
        <time>2019-12-14T10:02:30Z</time>
      </trkpt>
      <trkpt lat="42.78268" lon="1.85569">
        <ele>1604.58</ele>
        <time>2019-12-14T10:02:39Z</time>
      </trkpt>
      <trkpt lat="42.78277" lon="1.85573">
        <ele>1606.02</ele>
        <time>2019-12-14T10:02:51Z</time>
      </trkpt>
      <trkpt lat="42.7828" lon="1.85577">
        <ele>1606.02</ele>
        <time>2019-12-14T10:02:57Z</time>
      </trkpt>
      <trkpt lat="42.78285" lon="1.85583">
        <ele>1607.46</ele>
        <time>2019-12-14T10:03:07Z</time>
      </trkpt>
      <trkpt lat="42.78291" lon="1.85592">
        <ele>1608.9</ele>
        <time>2019-12-14T10:03:21Z</time>
      </trkpt>
      <trkpt lat="42.78295" lon="1.85598">
        <ele>1607.46</ele>
        <time>2019-12-14T10:03:30Z</time>
      </trkpt>
      <trkpt lat="42.78301" lon="1.85607">
        <ele>1607.94</ele>
        <time>2019-12-14T10:03:40Z</time>
      </trkpt>
      <trkpt lat="42.78303" lon="1.8561">
        <ele>1607.94</ele>
        <time>2019-12-14T10:03:44Z</time>
      </trkpt>
      <trkpt lat="42.78308" lon="1.85617">
        <ele>1609.38</ele>
        <time>2019-12-14T10:03:53Z</time>
      </trkpt>
      <trkpt lat="42.78311" lon="1.8562">
        <ele>1608.42</ele>
        <time>2019-12-14T10:03:58Z</time>
      </trkpt>
      <trkpt lat="42.78312" lon="1.85622">
        <ele>1608.9</ele>
        <time>2019-12-14T10:04:00Z</time>
      </trkpt>
      <trkpt lat="42.78316" lon="1.85626">
        <ele>1608.9</ele>
        <time>2019-12-14T10:04:07Z</time>
      </trkpt>
      <trkpt lat="42.78319" lon="1.85629">
        <ele>1610.35</ele>
        <time>2019-12-14T10:04:12Z</time>
      </trkpt>
      <trkpt lat="42.78326" lon="1.85632">
        <ele>1609.38</ele>
        <time>2019-12-14T10:04:20Z</time>
      </trkpt>
      <trkpt lat="42.78333" lon="1.85636">
        <ele>1610.35</ele>
        <time>2019-12-14T10:04:30Z</time>
      </trkpt>
      <trkpt lat="42.78333" lon="1.85636">
        <ele>1610.35</ele>
        <time>2019-12-14T10:04:31Z</time>
      </trkpt>
      <trkpt lat="42.78337" lon="1.85636">
        <ele>1611.79</ele>
        <time>2019-12-14T10:04:36Z</time>
      </trkpt>
      <trkpt lat="42.78344" lon="1.85638">
        <ele>1611.79</ele>
        <time>2019-12-14T10:04:45Z</time>
      </trkpt>
      <trkpt lat="42.78346" lon="1.85639">
        <ele>1611.79</ele>
        <time>2019-12-14T10:04:47Z</time>
      </trkpt>
      <trkpt lat="42.78353" lon="1.85641">
        <ele>1611.31</ele>
        <time>2019-12-14T10:04:56Z</time>
      </trkpt>
      <trkpt lat="42.78355" lon="1.85641">
        <ele>1610.83</ele>
        <time>2019-12-14T10:04:58Z</time>
      </trkpt>
      <trkpt lat="42.78362" lon="1.85644">
        <ele>1611.79</ele>
        <time>2019-12-14T10:05:09Z</time>
      </trkpt>
      <trkpt lat="42.78363" lon="1.85645">
        <ele>1613.23</ele>
        <time>2019-12-14T10:05:10Z</time>
      </trkpt>
      <trkpt lat="42.78365" lon="1.85645">
        <ele>1613.23</ele>
        <time>2019-12-14T10:05:12Z</time>
      </trkpt>
      <trkpt lat="42.78371" lon="1.85647">
        <ele>1613.23</ele>
        <time>2019-12-14T10:05:20Z</time>
      </trkpt>
      <trkpt lat="42.78378" lon="1.85648">
        <ele>1614.67</ele>
        <time>2019-12-14T10:05:30Z</time>
      </trkpt>
      <trkpt lat="42.78385" lon="1.85651">
        <ele>1614.67</ele>
        <time>2019-12-14T10:05:41Z</time>
      </trkpt>
      <trkpt lat="42.78393" lon="1.85654">
        <ele>1614.19</ele>
        <time>2019-12-14T10:05:52Z</time>
      </trkpt>
      <trkpt lat="42.78395" lon="1.85654">
        <ele>1615.63</ele>
        <time>2019-12-14T10:05:55Z</time>
      </trkpt>
      <trkpt lat="42.78403" lon="1.85657">
        <ele>1615.15</ele>
        <time>2019-12-14T10:06:06Z</time>
      </trkpt>
      <trkpt lat="42.78412" lon="1.85661">
        <ele>1616.11</ele>
        <time>2019-12-14T10:06:19Z</time>
      </trkpt>
      <trkpt lat="42.78416" lon="1.85662">
        <ele>1616.11</ele>
        <time>2019-12-14T10:06:24Z</time>
      </trkpt>
      <trkpt lat="42.78425" lon="1.85666">
        <ele>1617.07</ele>
        <time>2019-12-14T10:06:35Z</time>
      </trkpt>
      <trkpt lat="42.78429" lon="1.85667">
        <ele>1617.07</ele>
        <time>2019-12-14T10:06:40Z</time>
      </trkpt>
      <trkpt lat="42.78433" lon="1.85668">
        <ele>1619</ele>
        <time>2019-12-14T10:06:45Z</time>
      </trkpt>
      <trkpt lat="42.78437" lon="1.85668">
        <ele>1617.56</ele>
        <time>2019-12-14T10:06:49Z</time>
      </trkpt>
      <trkpt lat="42.7844" lon="1.85667">
        <ele>1618.52</ele>
        <time>2019-12-14T10:06:53Z</time>
      </trkpt>
      <trkpt lat="42.7844" lon="1.85665">
        <ele>1618.52</ele>
        <time>2019-12-14T10:06:56Z</time>
      </trkpt>
      <trkpt lat="42.78442" lon="1.85664">
        <ele>1618.52</ele>
        <time>2019-12-14T10:06:58Z</time>
      </trkpt>
      <trkpt lat="42.78446" lon="1.85664">
        <ele>1618.04</ele>
        <time>2019-12-14T10:07:03Z</time>
      </trkpt>
      <trkpt lat="42.78448" lon="1.85664">
        <ele>1618.04</ele>
        <time>2019-12-14T10:07:05Z</time>
      </trkpt>
      <trkpt lat="42.78454" lon="1.85664">
        <ele>1619</ele>
        <time>2019-12-14T10:07:17Z</time>
      </trkpt>
      <trkpt lat="42.78461" lon="1.85667">
        <ele>1620.92</ele>
        <time>2019-12-14T10:07:27Z</time>
      </trkpt>
      <trkpt lat="42.78462" lon="1.85667">
        <ele>1620.92</ele>
        <time>2019-12-14T10:07:28Z</time>
      </trkpt>
      <trkpt lat="42.78463" lon="1.85668">
        <ele>1619.48</ele>
        <time>2019-12-14T10:07:30Z</time>
      </trkpt>
      <trkpt lat="42.78467" lon="1.85669">
        <ele>1620.44</ele>
        <time>2019-12-14T10:07:35Z</time>
      </trkpt>
      <trkpt lat="42.78475" lon="1.85674">
        <ele>1620.92</ele>
        <time>2019-12-14T10:07:45Z</time>
      </trkpt>
      <trkpt lat="42.78476" lon="1.85675">
        <ele>1621.88</ele>
        <time>2019-12-14T10:07:47Z</time>
      </trkpt>
      <trkpt lat="42.78482" lon="1.8568">
        <ele>1620.92</ele>
        <time>2019-12-14T10:07:54Z</time>
      </trkpt>
      <trkpt lat="42.78487" lon="1.85683">
        <ele>1621.88</ele>
        <time>2019-12-14T10:08:01Z</time>
      </trkpt>
      <trkpt lat="42.78492" lon="1.85688">
        <ele>1622.84</ele>
        <time>2019-12-14T10:08:10Z</time>
      </trkpt>
      <trkpt lat="42.78494" lon="1.85689">
        <ele>1622.84</ele>
        <time>2019-12-14T10:08:12Z</time>
      </trkpt>
      <trkpt lat="42.78499" lon="1.85693">
        <ele>1624.77</ele>
        <time>2019-12-14T10:08:23Z</time>
      </trkpt>
      <trkpt lat="42.78505" lon="1.85701">
        <ele>1625.73</ele>
        <time>2019-12-14T10:08:33Z</time>
      </trkpt>
      <trkpt lat="42.78506" lon="1.85701">
        <ele>1625.73</ele>
        <time>2019-12-14T10:08:34Z</time>
      </trkpt>
      <trkpt lat="42.78509" lon="1.85705">
        <ele>1624.28</ele>
        <time>2019-12-14T10:08:40Z</time>
      </trkpt>
      <trkpt lat="42.78511" lon="1.85705">
        <ele>1625.73</ele>
        <time>2019-12-14T10:08:45Z</time>
      </trkpt>
      <trkpt lat="42.78511" lon="1.85707">
        <ele>1623.8</ele>
        <time>2019-12-14T10:08:47Z</time>
      </trkpt>
      <trkpt lat="42.78513" lon="1.85711">
        <ele>1626.69</ele>
        <time>2019-12-14T10:08:51Z</time>
      </trkpt>
      <trkpt lat="42.78519" lon="1.85716">
        <ele>1626.69</ele>
        <time>2019-12-14T10:09:00Z</time>
      </trkpt>
      <trkpt lat="42.78526" lon="1.8572">
        <ele>1626.69</ele>
        <time>2019-12-14T10:09:09Z</time>
      </trkpt>
      <trkpt lat="42.78532" lon="1.85726">
        <ele>1629.57</ele>
        <time>2019-12-14T10:09:19Z</time>
      </trkpt>
      <trkpt lat="42.78539" lon="1.85732">
        <ele>1630.05</ele>
        <time>2019-12-14T10:09:28Z</time>
      </trkpt>
      <trkpt lat="42.78543" lon="1.85734">
        <ele>1628.61</ele>
        <time>2019-12-14T10:09:33Z</time>
      </trkpt>
      <trkpt lat="42.78548" lon="1.85733">
        <ele>1629.57</ele>
        <time>2019-12-14T10:09:40Z</time>
      </trkpt>
      <trkpt lat="42.7855" lon="1.85732">
        <ele>1629.57</ele>
        <time>2019-12-14T10:09:42Z</time>
      </trkpt>
      <trkpt lat="42.78553" lon="1.85729">
        <ele>1631.98</ele>
        <time>2019-12-14T10:09:52Z</time>
      </trkpt>
      <trkpt lat="42.78555" lon="1.85726">
        <ele>1630.05</ele>
        <time>2019-12-14T10:09:55Z</time>
      </trkpt>
      <trkpt lat="42.78555" lon="1.85724">
        <ele>1631.01</ele>
        <time>2019-12-14T10:09:57Z</time>
      </trkpt>
      <trkpt lat="42.78556" lon="1.85721">
        <ele>1632.46</ele>
        <time>2019-12-14T10:10:00Z</time>
      </trkpt>
      <trkpt lat="42.78558" lon="1.85716">
        <ele>1632.94</ele>
        <time>2019-12-14T10:10:21Z</time>
      </trkpt>
      <trkpt lat="42.78558" lon="1.85716">
        <ele>1631.49</ele>
        <time>2019-12-14T10:10:22Z</time>
      </trkpt>
      <trkpt lat="42.78558" lon="1.8571">
        <ele>1631.01</ele>
        <time>2019-12-14T10:10:27Z</time>
      </trkpt>
      <trkpt lat="42.78558" lon="1.85704">
        <ele>1631.49</ele>
        <time>2019-12-14T10:10:34Z</time>
      </trkpt>
      <trkpt lat="42.78556" lon="1.85693">
        <ele>1633.42</ele>
        <time>2019-12-14T10:10:45Z</time>
      </trkpt>
      <trkpt lat="42.78555" lon="1.85682">
        <ele>1634.38</ele>
        <time>2019-12-14T10:10:56Z</time>
      </trkpt>
      <trkpt lat="42.78555" lon="1.85677">
        <ele>1634.86</ele>
        <time>2019-12-14T10:11:02Z</time>
      </trkpt>
      <trkpt lat="42.78557" lon="1.8567">
        <ele>1634.38</ele>
        <time>2019-12-14T10:11:09Z</time>
      </trkpt>
      <trkpt lat="42.78562" lon="1.85659">
        <ele>1634.86</ele>
        <time>2019-12-14T10:11:21Z</time>
      </trkpt>
      <trkpt lat="42.78565" lon="1.85654">
        <ele>1636.78</ele>
        <time>2019-12-14T10:11:28Z</time>
      </trkpt>
      <trkpt lat="42.78566" lon="1.85653">
        <ele>1635.34</ele>
        <time>2019-12-14T10:11:30Z</time>
      </trkpt>
      <trkpt lat="42.7857" lon="1.85645">
        <ele>1638.7</ele>
        <time>2019-12-14T10:11:40Z</time>
      </trkpt>
      <trkpt lat="42.78574" lon="1.85636">
        <ele>1638.7</ele>
        <time>2019-12-14T10:11:49Z</time>
      </trkpt>
      <trkpt lat="42.78578" lon="1.85628">
        <ele>1639.67</ele>
        <time>2019-12-14T10:11:59Z</time>
      </trkpt>
      <trkpt lat="42.78578" lon="1.85628">
        <ele>1639.67</ele>
        <time>2019-12-14T10:12:00Z</time>
      </trkpt>
      <trkpt lat="42.78584" lon="1.8562">
        <ele>1641.11</ele>
        <time>2019-12-14T10:12:11Z</time>
      </trkpt>
      <trkpt lat="42.78584" lon="1.85619">
        <ele>1638.22</ele>
        <time>2019-12-14T10:12:12Z</time>
      </trkpt>
      <trkpt lat="42.78587" lon="1.85611">
        <ele>1640.63</ele>
        <time>2019-12-14T10:12:21Z</time>
      </trkpt>
      <trkpt lat="42.78591" lon="1.85604">
        <ele>1642.07</ele>
        <time>2019-12-14T10:12:31Z</time>
      </trkpt>
      <trkpt lat="42.78595" lon="1.85594">
        <ele>1642.07</ele>
        <time>2019-12-14T10:12:41Z</time>
      </trkpt>
      <trkpt lat="42.78597" lon="1.85588">
        <ele>1642.55</ele>
        <time>2019-12-14T10:12:48Z</time>
      </trkpt>
      <trkpt lat="42.78599" lon="1.85578">
        <ele>1641.59</ele>
        <time>2019-12-14T10:12:57Z</time>
      </trkpt>
      <trkpt lat="42.786" lon="1.85574">
        <ele>1641.59</ele>
        <time>2019-12-14T10:13:02Z</time>
      </trkpt>
      <trkpt lat="42.78601" lon="1.85571">
        <ele>1641.59</ele>
        <time>2019-12-14T10:13:04Z</time>
      </trkpt>
      <trkpt lat="42.78602" lon="1.85566">
        <ele>1643.51</ele>
        <time>2019-12-14T10:13:09Z</time>
      </trkpt>
      <trkpt lat="42.78604" lon="1.8556">
        <ele>1642.55</ele>
        <time>2019-12-14T10:13:14Z</time>
      </trkpt>
      <trkpt lat="42.78604" lon="1.85556">
        <ele>1642.07</ele>
        <time>2019-12-14T10:13:17Z</time>
      </trkpt>
      <trkpt lat="42.78605" lon="1.85551">
        <ele>1642.07</ele>
        <time>2019-12-14T10:13:22Z</time>
      </trkpt>
      <trkpt lat="42.7861" lon="1.85544">
        <ele>1643.99</ele>
        <time>2019-12-14T10:13:33Z</time>
      </trkpt>
      <trkpt lat="42.7861" lon="1.85542">
        <ele>1642.55</ele>
        <time>2019-12-14T10:13:35Z</time>
      </trkpt>
      <trkpt lat="42.78615" lon="1.85538">
        <ele>1643.99</ele>
        <time>2019-12-14T10:13:42Z</time>
      </trkpt>
      <trkpt lat="42.78625" lon="1.8554">
        <ele>1644.47</ele>
        <time>2019-12-14T10:13:53Z</time>
      </trkpt>
      <trkpt lat="42.78626" lon="1.85541">
        <ele>1642.55</ele>
        <time>2019-12-14T10:13:54Z</time>
      </trkpt>
      <trkpt lat="42.78628" lon="1.85541">
        <ele>1642.55</ele>
        <time>2019-12-14T10:13:56Z</time>
      </trkpt>
      <trkpt lat="42.78633" lon="1.85545">
        <ele>1643.99</ele>
        <time>2019-12-14T10:14:03Z</time>
      </trkpt>
      <trkpt lat="42.78634" lon="1.85546">
        <ele>1643.99</ele>
        <time>2019-12-14T10:14:05Z</time>
      </trkpt>
      <trkpt lat="42.78636" lon="1.85547">
        <ele>1644.47</ele>
        <time>2019-12-14T10:14:07Z</time>
      </trkpt>
      <trkpt lat="42.78637" lon="1.85548">
        <ele>1645.91</ele>
        <time>2019-12-14T10:14:09Z</time>
      </trkpt>
      <trkpt lat="42.78638" lon="1.85549">
        <ele>1642.55</ele>
        <time>2019-12-14T10:14:10Z</time>
      </trkpt>
      <trkpt lat="42.78639" lon="1.8555">
        <ele>1644.95</ele>
        <time>2019-12-14T10:14:12Z</time>
      </trkpt>
      <trkpt lat="42.78641" lon="1.85552">
        <ele>1643.03</ele>
        <time>2019-12-14T10:14:15Z</time>
      </trkpt>
      <trkpt lat="42.78645" lon="1.85555">
        <ele>1643.03</ele>
        <time>2019-12-14T10:14:20Z</time>
      </trkpt>
      <trkpt lat="42.78647" lon="1.85556">
        <ele>1643.51</ele>
        <time>2019-12-14T10:14:22Z</time>
      </trkpt>
      <trkpt lat="42.7865" lon="1.85559">
        <ele>1643.99</ele>
        <time>2019-12-14T10:14:27Z</time>
      </trkpt>
      <trkpt lat="42.78652" lon="1.8556">
        <ele>1643.99</ele>
        <time>2019-12-14T10:14:29Z</time>
      </trkpt>
      <trkpt lat="42.78655" lon="1.85562">
        <ele>1645.91</ele>
        <time>2019-12-14T10:14:34Z</time>
      </trkpt>
      <trkpt lat="42.78659" lon="1.85564">
        <ele>1643.99</ele>
        <time>2019-12-14T10:14:39Z</time>
      </trkpt>
      <trkpt lat="42.78667" lon="1.85566">
        <ele>1644.47</ele>
        <time>2019-12-14T10:14:49Z</time>
      </trkpt>
      <trkpt lat="42.7867" lon="1.85567">
        <ele>1644.95</ele>
        <time>2019-12-14T10:14:59Z</time>
      </trkpt>
      <trkpt lat="42.78671" lon="1.85568">
        <ele>1644.95</ele>
        <time>2019-12-14T10:15:17Z</time>
      </trkpt>
      <trkpt lat="42.78671" lon="1.85569">
        <ele>1643.99</ele>
        <time>2019-12-14T10:15:34Z</time>
      </trkpt>
      <trkpt lat="42.78674" lon="1.85569">
        <ele>1645.91</ele>
        <time>2019-12-14T10:15:39Z</time>
      </trkpt>
      <trkpt lat="42.78673" lon="1.85568">
        <ele>1644.95</ele>
        <time>2019-12-14T10:15:45Z</time>
      </trkpt>
      <trkpt lat="42.78673" lon="1.85568">
        <ele>1644.95</ele>
        <time>2019-12-14T10:15:46Z</time>
      </trkpt>
      <trkpt lat="42.7867" lon="1.85566">
        <ele>1645.91</ele>
        <time>2019-12-14T10:15:51Z</time>
      </trkpt>
      <trkpt lat="42.7867" lon="1.85567">
        <ele>1644.47</ele>
        <time>2019-12-14T10:15:55Z</time>
      </trkpt>
      <trkpt lat="42.78672" lon="1.85567">
        <ele>1644.47</ele>
        <time>2019-12-14T10:15:57Z</time>
      </trkpt>
      <trkpt lat="42.78682" lon="1.85568">
        <ele>1644.47</ele>
        <time>2019-12-14T10:16:06Z</time>
      </trkpt>
      <trkpt lat="42.7869" lon="1.85569">
        <ele>1645.91</ele>
        <time>2019-12-14T10:16:15Z</time>
      </trkpt>
      <trkpt lat="42.78694" lon="1.85569">
        <ele>1645.91</ele>
        <time>2019-12-14T10:16:19Z</time>
      </trkpt>
      <trkpt lat="42.78697" lon="1.8557">
        <ele>1645.91</ele>
        <time>2019-12-14T10:16:22Z</time>
      </trkpt>
      <trkpt lat="42.78699" lon="1.85571">
        <ele>1644.95</ele>
        <time>2019-12-14T10:16:24Z</time>
      </trkpt>
      <trkpt lat="42.787" lon="1.85571">
        <ele>1644.95</ele>
        <time>2019-12-14T10:16:25Z</time>
      </trkpt>
      <trkpt lat="42.78702" lon="1.85571">
        <ele>1645.43</ele>
        <time>2019-12-14T10:16:27Z</time>
      </trkpt>
      <trkpt lat="42.78705" lon="1.85572">
        <ele>1645.43</ele>
        <time>2019-12-14T10:16:30Z</time>
      </trkpt>
      <trkpt lat="42.7871" lon="1.85572">
        <ele>1643.99</ele>
        <time>2019-12-14T10:16:35Z</time>
      </trkpt>
      <trkpt lat="42.78711" lon="1.85572">
        <ele>1643.99</ele>
        <time>2019-12-14T10:16:36Z</time>
      </trkpt>
      <trkpt lat="42.7872" lon="1.8557">
        <ele>1643.99</ele>
        <time>2019-12-14T10:16:45Z</time>
      </trkpt>
      <trkpt lat="42.78725" lon="1.85565">
        <ele>1641.59</ele>
        <time>2019-12-14T10:16:55Z</time>
      </trkpt>
      <trkpt lat="42.78729" lon="1.85559">
        <ele>1643.51</ele>
        <time>2019-12-14T10:16:59Z</time>
      </trkpt>
      <trkpt lat="42.78738" lon="1.85548">
        <ele>1642.07</ele>
        <time>2019-12-14T10:17:10Z</time>
      </trkpt>
      <trkpt lat="42.78743" lon="1.85541">
        <ele>1643.51</ele>
        <time>2019-12-14T10:17:17Z</time>
      </trkpt>
      <trkpt lat="42.78747" lon="1.85537">
        <ele>1644.47</ele>
        <time>2019-12-14T10:17:22Z</time>
      </trkpt>
      <trkpt lat="42.78751" lon="1.85534">
        <ele>1644.47</ele>
        <time>2019-12-14T10:17:27Z</time>
      </trkpt>
      <trkpt lat="42.78755" lon="1.85531">
        <ele>1643.03</ele>
        <time>2019-12-14T10:17:32Z</time>
      </trkpt>
      <trkpt lat="42.78756" lon="1.85529">
        <ele>1644.47</ele>
        <time>2019-12-14T10:17:34Z</time>
      </trkpt>
      <trkpt lat="42.78761" lon="1.85528">
        <ele>1642.55</ele>
        <time>2019-12-14T10:17:42Z</time>
      </trkpt>
      <trkpt lat="42.78771" lon="1.8553">
        <ele>1642.07</ele>
        <time>2019-12-14T10:17:52Z</time>
      </trkpt>
      <trkpt lat="42.78772" lon="1.8553">
        <ele>1642.07</ele>
        <time>2019-12-14T10:17:53Z</time>
      </trkpt>
      <trkpt lat="42.78774" lon="1.85529">
        <ele>1643.03</ele>
        <time>2019-12-14T10:17:56Z</time>
      </trkpt>
      <trkpt lat="42.78775" lon="1.85529">
        <ele>1643.03</ele>
        <time>2019-12-14T10:17:57Z</time>
      </trkpt>
      <trkpt lat="42.78786" lon="1.85532">
        <ele>1641.11</ele>
        <time>2019-12-14T10:18:07Z</time>
      </trkpt>
      <trkpt lat="42.78787" lon="1.85532">
        <ele>1641.11</ele>
        <time>2019-12-14T10:18:08Z</time>
      </trkpt>
      <trkpt lat="42.78788" lon="1.85532">
        <ele>1641.11</ele>
        <time>2019-12-14T10:18:09Z</time>
      </trkpt>
      <trkpt lat="42.7879" lon="1.85532">
        <ele>1641.11</ele>
        <time>2019-12-14T10:18:11Z</time>
      </trkpt>
      <trkpt lat="42.78791" lon="1.85532">
        <ele>1642.55</ele>
        <time>2019-12-14T10:18:12Z</time>
      </trkpt>
      <trkpt lat="42.78799" lon="1.8553">
        <ele>1641.11</ele>
        <time>2019-12-14T10:18:22Z</time>
      </trkpt>
      <trkpt lat="42.788" lon="1.85526">
        <ele>1641.11</ele>
        <time>2019-12-14T10:18:47Z</time>
      </trkpt>
      <trkpt lat="42.78803" lon="1.85529">
        <ele>1641.11</ele>
        <time>2019-12-14T10:18:59Z</time>
      </trkpt>
      <trkpt lat="42.78807" lon="1.85529">
        <ele>1642.07</ele>
        <time>2019-12-14T10:19:04Z</time>
      </trkpt>
      <trkpt lat="42.78808" lon="1.8553">
        <ele>1641.11</ele>
        <time>2019-12-14T10:19:06Z</time>
      </trkpt>
      <trkpt lat="42.7881" lon="1.8553">
        <ele>1641.11</ele>
        <time>2019-12-14T10:19:07Z</time>
      </trkpt>
      <trkpt lat="42.78817" lon="1.8553">
        <ele>1640.15</ele>
        <time>2019-12-14T10:19:16Z</time>
      </trkpt>
      <trkpt lat="42.78818" lon="1.85528">
        <ele>1641.11</ele>
        <time>2019-12-14T10:19:18Z</time>
      </trkpt>
      <trkpt lat="42.78819" lon="1.85524">
        <ele>1640.63</ele>
        <time>2019-12-14T10:19:21Z</time>
      </trkpt>
      <trkpt lat="42.7882" lon="1.85522">
        <ele>1642.07</ele>
        <time>2019-12-14T10:19:23Z</time>
      </trkpt>
      <trkpt lat="42.78821" lon="1.85519">
        <ele>1642.07</ele>
        <time>2019-12-14T10:19:26Z</time>
      </trkpt>
      <trkpt lat="42.78826" lon="1.85512">
        <ele>1642.55</ele>
        <time>2019-12-14T10:19:35Z</time>
      </trkpt>
      <trkpt lat="42.78829" lon="1.85506">
        <ele>1640.63</ele>
        <time>2019-12-14T10:19:40Z</time>
      </trkpt>
      <trkpt lat="42.78829" lon="1.85504">
        <ele>1640.63</ele>
        <time>2019-12-14T10:19:41Z</time>
      </trkpt>
      <trkpt lat="42.7883" lon="1.85499">
        <ele>1642.07</ele>
        <time>2019-12-14T10:19:45Z</time>
      </trkpt>
      <trkpt lat="42.78831" lon="1.85498">
        <ele>1642.07</ele>
        <time>2019-12-14T10:19:46Z</time>
      </trkpt>
      <trkpt lat="42.78831" lon="1.85493">
        <ele>1641.11</ele>
        <time>2019-12-14T10:19:51Z</time>
      </trkpt>
      <trkpt lat="42.78832" lon="1.85489">
        <ele>1641.59</ele>
        <time>2019-12-14T10:19:55Z</time>
      </trkpt>
      <trkpt lat="42.78831" lon="1.85482">
        <ele>1642.07</ele>
        <time>2019-12-14T10:20:01Z</time>
      </trkpt>
      <trkpt lat="42.7883" lon="1.85472">
        <ele>1640.15</ele>
        <time>2019-12-14T10:20:10Z</time>
      </trkpt>
      <trkpt lat="42.7883" lon="1.85471">
        <ele>1641.59</ele>
        <time>2019-12-14T10:20:11Z</time>
      </trkpt>
      <trkpt lat="42.78829" lon="1.85463">
        <ele>1644.47</ele>
        <time>2019-12-14T10:20:19Z</time>
      </trkpt>
      <trkpt lat="42.78828" lon="1.8546">
        <ele>1642.07</ele>
        <time>2019-12-14T10:20:21Z</time>
      </trkpt>
      <trkpt lat="42.78828" lon="1.85457">
        <ele>1642.07</ele>
        <time>2019-12-14T10:20:24Z</time>
      </trkpt>
      <trkpt lat="42.78827" lon="1.85444">
        <ele>1643.03</ele>
        <time>2019-12-14T10:20:34Z</time>
      </trkpt>
      <trkpt lat="42.78827" lon="1.85432">
        <ele>1642.55</ele>
        <time>2019-12-14T10:20:45Z</time>
      </trkpt>
      <trkpt lat="42.7883" lon="1.85423">
        <ele>1643.03</ele>
        <time>2019-12-14T10:20:55Z</time>
      </trkpt>
      <trkpt lat="42.78833" lon="1.85419">
        <ele>1642.07</ele>
        <time>2019-12-14T10:20:59Z</time>
      </trkpt>
      <trkpt lat="42.78838" lon="1.85412">
        <ele>1641.11</ele>
        <time>2019-12-14T10:21:06Z</time>
      </trkpt>
      <trkpt lat="42.78844" lon="1.85404">
        <ele>1640.15</ele>
        <time>2019-12-14T10:21:16Z</time>
      </trkpt>
      <trkpt lat="42.78847" lon="1.854">
        <ele>1639.19</ele>
        <time>2019-12-14T10:21:21Z</time>
      </trkpt>
      <trkpt lat="42.78851" lon="1.85392">
        <ele>1638.22</ele>
        <time>2019-12-14T10:21:29Z</time>
      </trkpt>
      <trkpt lat="42.7885" lon="1.85387">
        <ele>1637.74</ele>
        <time>2019-12-14T10:21:34Z</time>
      </trkpt>
      <trkpt lat="42.7885" lon="1.85385">
        <ele>1637.74</ele>
        <time>2019-12-14T10:21:36Z</time>
      </trkpt>
      <trkpt lat="42.78849" lon="1.85381">
        <ele>1638.7</ele>
        <time>2019-12-14T10:21:39Z</time>
      </trkpt>
      <trkpt lat="42.78847" lon="1.85376">
        <ele>1639.19</ele>
        <time>2019-12-14T10:21:44Z</time>
      </trkpt>
      <trkpt lat="42.78846" lon="1.85373">
        <ele>1637.74</ele>
        <time>2019-12-14T10:21:47Z</time>
      </trkpt>
      <trkpt lat="42.78842" lon="1.85367">
        <ele>1637.74</ele>
        <time>2019-12-14T10:21:54Z</time>
      </trkpt>
      <trkpt lat="42.78838" lon="1.85359">
        <ele>1636.78</ele>
        <time>2019-12-14T10:22:05Z</time>
      </trkpt>
      <trkpt lat="42.78834" lon="1.85357">
        <ele>1636.78</ele>
        <time>2019-12-14T10:22:11Z</time>
      </trkpt>
      <trkpt lat="42.78832" lon="1.85354">
        <ele>1636.78</ele>
        <time>2019-12-14T10:22:15Z</time>
      </trkpt>
      <trkpt lat="42.7883" lon="1.85351">
        <ele>1638.22</ele>
        <time>2019-12-14T10:22:18Z</time>
      </trkpt>
      <trkpt lat="42.78827" lon="1.85347">
        <ele>1635.82</ele>
        <time>2019-12-14T10:22:21Z</time>
      </trkpt>
      <trkpt lat="42.78823" lon="1.85337">
        <ele>1637.74</ele>
        <time>2019-12-14T10:22:30Z</time>
      </trkpt>
      <trkpt lat="42.78822" lon="1.85333">
        <ele>1637.26</ele>
        <time>2019-12-14T10:22:34Z</time>
      </trkpt>
      <trkpt lat="42.78821" lon="1.85322">
        <ele>1636.3</ele>
        <time>2019-12-14T10:22:44Z</time>
      </trkpt>
      <trkpt lat="42.78819" lon="1.85312">
        <ele>1637.26</ele>
        <time>2019-12-14T10:22:53Z</time>
      </trkpt>
      <trkpt lat="42.78819" lon="1.85311">
        <ele>1635.82</ele>
        <time>2019-12-14T10:22:54Z</time>
      </trkpt>
      <trkpt lat="42.78818" lon="1.85308">
        <ele>1635.82</ele>
        <time>2019-12-14T10:22:56Z</time>
      </trkpt>
      <trkpt lat="42.78817" lon="1.85306">
        <ele>1635.82</ele>
        <time>2019-12-14T10:22:59Z</time>
      </trkpt>
      <trkpt lat="42.78816" lon="1.85303">
        <ele>1635.34</ele>
        <time>2019-12-14T10:23:01Z</time>
      </trkpt>
      <trkpt lat="42.78816" lon="1.85301">
        <ele>1635.82</ele>
        <time>2019-12-14T10:23:03Z</time>
      </trkpt>
      <trkpt lat="42.78813" lon="1.85294">
        <ele>1635.34</ele>
        <time>2019-12-14T10:23:11Z</time>
      </trkpt>
      <trkpt lat="42.78811" lon="1.85291">
        <ele>1635.34</ele>
        <time>2019-12-14T10:23:14Z</time>
      </trkpt>
      <trkpt lat="42.78809" lon="1.85281">
        <ele>1636.78</ele>
        <time>2019-12-14T10:23:23Z</time>
      </trkpt>
      <trkpt lat="42.78809" lon="1.8528">
        <ele>1636.78</ele>
        <time>2019-12-14T10:23:24Z</time>
      </trkpt>
      <trkpt lat="42.78804" lon="1.85275">
        <ele>1637.26</ele>
        <time>2019-12-14T10:23:37Z</time>
      </trkpt>
      <trkpt lat="42.78803" lon="1.85275">
        <ele>1635.82</ele>
        <time>2019-12-14T10:23:38Z</time>
      </trkpt>
      <trkpt lat="42.78799" lon="1.85265">
        <ele>1635.82</ele>
        <time>2019-12-14T10:23:50Z</time>
      </trkpt>
      <trkpt lat="42.78797" lon="1.85256">
        <ele>1637.26</ele>
        <time>2019-12-14T10:23:58Z</time>
      </trkpt>
      <trkpt lat="42.78794" lon="1.85252">
        <ele>1636.78</ele>
        <time>2019-12-14T10:24:02Z</time>
      </trkpt>
      <trkpt lat="42.78789" lon="1.85245">
        <ele>1635.34</ele>
        <time>2019-12-14T10:24:08Z</time>
      </trkpt>
      <trkpt lat="42.78788" lon="1.85242">
        <ele>1633.42</ele>
        <time>2019-12-14T10:24:10Z</time>
      </trkpt>
      <trkpt lat="42.78787" lon="1.8524">
        <ele>1635.82</ele>
        <time>2019-12-14T10:24:13Z</time>
      </trkpt>
      <trkpt lat="42.78784" lon="1.85231">
        <ele>1636.78</ele>
        <time>2019-12-14T10:24:22Z</time>
      </trkpt>
      <trkpt lat="42.78782" lon="1.85223">
        <ele>1634.86</ele>
        <time>2019-12-14T10:24:29Z</time>
      </trkpt>
      <trkpt lat="42.7878" lon="1.85219">
        <ele>1634.38</ele>
        <time>2019-12-14T10:24:34Z</time>
      </trkpt>
      <trkpt lat="42.78778" lon="1.8521">
        <ele>1636.3</ele>
        <time>2019-12-14T10:24:44Z</time>
      </trkpt>
      <trkpt lat="42.78777" lon="1.85207">
        <ele>1635.82</ele>
        <time>2019-12-14T10:24:47Z</time>
      </trkpt>
      <trkpt lat="42.78776" lon="1.85205">
        <ele>1635.82</ele>
        <time>2019-12-14T10:24:49Z</time>
      </trkpt>
      <trkpt lat="42.78776" lon="1.85202">
        <ele>1634.38</ele>
        <time>2019-12-14T10:24:52Z</time>
      </trkpt>
      <trkpt lat="42.78775" lon="1.85196">
        <ele>1634.38</ele>
        <time>2019-12-14T10:24:58Z</time>
      </trkpt>
      <trkpt lat="42.78774" lon="1.85193">
        <ele>1633.42</ele>
        <time>2019-12-14T10:25:02Z</time>
      </trkpt>
      <trkpt lat="42.78774" lon="1.8519">
        <ele>1634.86</ele>
        <time>2019-12-14T10:25:04Z</time>
      </trkpt>
      <trkpt lat="42.78773" lon="1.85186">
        <ele>1634.86</ele>
        <time>2019-12-14T10:25:07Z</time>
      </trkpt>
      <trkpt lat="42.78772" lon="1.85184">
        <ele>1633.42</ele>
        <time>2019-12-14T10:25:09Z</time>
      </trkpt>
      <trkpt lat="42.78771" lon="1.8518">
        <ele>1633.9</ele>
        <time>2019-12-14T10:25:12Z</time>
      </trkpt>
      <trkpt lat="42.78771" lon="1.85177">
        <ele>1634.86</ele>
        <time>2019-12-14T10:25:14Z</time>
      </trkpt>
      <trkpt lat="42.78771" lon="1.85175">
        <ele>1633.9</ele>
        <time>2019-12-14T10:25:16Z</time>
      </trkpt>
      <trkpt lat="42.78769" lon="1.85169">
        <ele>1633.9</ele>
        <time>2019-12-14T10:25:22Z</time>
      </trkpt>
      <trkpt lat="42.78769" lon="1.85167">
        <ele>1633.9</ele>
        <time>2019-12-14T10:25:24Z</time>
      </trkpt>
      <trkpt lat="42.78768" lon="1.85157">
        <ele>1632.94</ele>
        <time>2019-12-14T10:25:34Z</time>
      </trkpt>
      <trkpt lat="42.78768" lon="1.85156">
        <ele>1634.38</ele>
        <time>2019-12-14T10:25:48Z</time>
      </trkpt>
      <trkpt lat="42.78766" lon="1.85158">
        <ele>1634.86</ele>
        <time>2019-12-14T10:26:08Z</time>
      </trkpt>
      <trkpt lat="42.78767" lon="1.85157">
        <ele>1634.86</ele>
        <time>2019-12-14T10:26:26Z</time>
      </trkpt>
      <trkpt lat="42.78767" lon="1.85153">
        <ele>1633.42</ele>
        <time>2019-12-14T10:26:36Z</time>
      </trkpt>
      <trkpt lat="42.78769" lon="1.85143">
        <ele>1633.9</ele>
        <time>2019-12-14T10:26:48Z</time>
      </trkpt>
      <trkpt lat="42.78769" lon="1.85141">
        <ele>1633.42</ele>
        <time>2019-12-14T10:26:54Z</time>
      </trkpt>
      <trkpt lat="42.78768" lon="1.85131">
        <ele>1633.9</ele>
        <time>2019-12-14T10:27:04Z</time>
      </trkpt>
      <trkpt lat="42.78767" lon="1.85125">
        <ele>1633.42</ele>
        <time>2019-12-14T10:27:10Z</time>
      </trkpt>
      <trkpt lat="42.78767" lon="1.85112">
        <ele>1633.42</ele>
        <time>2019-12-14T10:27:22Z</time>
      </trkpt>
      <trkpt lat="42.78767" lon="1.85098">
        <ele>1632.94</ele>
        <time>2019-12-14T10:27:34Z</time>
      </trkpt>
      <trkpt lat="42.78766" lon="1.85091">
        <ele>1633.9</ele>
        <time>2019-12-14T10:27:44Z</time>
      </trkpt>
      <trkpt lat="42.78767" lon="1.85088">
        <ele>1632.46</ele>
        <time>2019-12-14T10:27:48Z</time>
      </trkpt>
      <trkpt lat="42.78767" lon="1.85086">
        <ele>1633.9</ele>
        <time>2019-12-14T10:27:50Z</time>
      </trkpt>
      <trkpt lat="42.78763" lon="1.85074">
        <ele>1633.9</ele>
        <time>2019-12-14T10:28:01Z</time>
      </trkpt>
      <trkpt lat="42.78762" lon="1.85073">
        <ele>1633.9</ele>
        <time>2019-12-14T10:28:02Z</time>
      </trkpt>
      <trkpt lat="42.78759" lon="1.85062">
        <ele>1631.98</ele>
        <time>2019-12-14T10:28:12Z</time>
      </trkpt>
      <trkpt lat="42.78758" lon="1.8506">
        <ele>1633.9</ele>
        <time>2019-12-14T10:28:14Z</time>
      </trkpt>
      <trkpt lat="42.78757" lon="1.85057">
        <ele>1632.46</ele>
        <time>2019-12-14T10:28:16Z</time>
      </trkpt>
      <trkpt lat="42.78758" lon="1.85053">
        <ele>1633.9</ele>
        <time>2019-12-14T10:28:29Z</time>
      </trkpt>
      <trkpt lat="42.78757" lon="1.85054">
        <ele>1633.9</ele>
        <time>2019-12-14T10:28:54Z</time>
      </trkpt>
      <trkpt lat="42.78757" lon="1.85053">
        <ele>1633.9</ele>
        <time>2019-12-14T10:29:29Z</time>
      </trkpt>
      <trkpt lat="42.78758" lon="1.8505">
        <ele>1632.46</ele>
        <time>2019-12-14T10:29:52Z</time>
      </trkpt>
      <trkpt lat="42.78755" lon="1.85052">
        <ele>1632.46</ele>
        <time>2019-12-14T10:30:15Z</time>
      </trkpt>
      <trkpt lat="42.78753" lon="1.8505">
        <ele>1632.94</ele>
        <time>2019-12-14T10:30:18Z</time>
      </trkpt>
      <trkpt lat="42.78744" lon="1.85039">
        <ele>1631.49</ele>
        <time>2019-12-14T10:30:30Z</time>
      </trkpt>
      <trkpt lat="42.78743" lon="1.85036">
        <ele>1631.49</ele>
        <time>2019-12-14T10:30:33Z</time>
      </trkpt>
      <trkpt lat="42.7874" lon="1.85035">
        <ele>1631.01</ele>
        <time>2019-12-14T10:30:36Z</time>
      </trkpt>
      <trkpt lat="42.78738" lon="1.85034">
        <ele>1630.53</ele>
        <time>2019-12-14T10:30:38Z</time>
      </trkpt>
      <trkpt lat="42.78737" lon="1.85034">
        <ele>1630.05</ele>
        <time>2019-12-14T10:30:40Z</time>
      </trkpt>
      <trkpt lat="42.78733" lon="1.85027">
        <ele>1631.98</ele>
        <time>2019-12-14T10:30:48Z</time>
      </trkpt>
      <trkpt lat="42.7873" lon="1.85022">
        <ele>1632.94</ele>
        <time>2019-12-14T10:30:53Z</time>
      </trkpt>
      <trkpt lat="42.78728" lon="1.85019">
        <ele>1631.01</ele>
        <time>2019-12-14T10:30:56Z</time>
      </trkpt>
      <trkpt lat="42.78723" lon="1.85003">
        <ele>1632.94</ele>
        <time>2019-12-14T10:31:10Z</time>
      </trkpt>
      <trkpt lat="42.78722" lon="1.85002">
        <ele>1631.49</ele>
        <time>2019-12-14T10:31:12Z</time>
      </trkpt>
      <trkpt lat="42.7872" lon="1.85">
        <ele>1631.01</ele>
        <time>2019-12-14T10:31:15Z</time>
      </trkpt>
      <trkpt lat="42.78717" lon="1.84994">
        <ele>1631.01</ele>
        <time>2019-12-14T10:31:20Z</time>
      </trkpt>
      <trkpt lat="42.78714" lon="1.84982">
        <ele>1630.53</ele>
        <time>2019-12-14T10:31:30Z</time>
      </trkpt>
      <trkpt lat="42.78713" lon="1.8498">
        <ele>1631.98</ele>
        <time>2019-12-14T10:31:33Z</time>
      </trkpt>
      <trkpt lat="42.78711" lon="1.84974">
        <ele>1630.53</ele>
        <time>2019-12-14T10:31:38Z</time>
      </trkpt>
      <trkpt lat="42.78709" lon="1.84962">
        <ele>1630.53</ele>
        <time>2019-12-14T10:31:48Z</time>
      </trkpt>
      <trkpt lat="42.78708" lon="1.84959">
        <ele>1630.53</ele>
        <time>2019-12-14T10:31:51Z</time>
      </trkpt>
      <trkpt lat="42.78708" lon="1.84947">
        <ele>1630.53</ele>
        <time>2019-12-14T10:32:00Z</time>
      </trkpt>
      <trkpt lat="42.78708" lon="1.84945">
        <ele>1630.53</ele>
        <time>2019-12-14T10:32:03Z</time>
      </trkpt>
      <trkpt lat="42.78707" lon="1.8493">
        <ele>1631.98</ele>
        <time>2019-12-14T10:32:14Z</time>
      </trkpt>
      <trkpt lat="42.78706" lon="1.84918">
        <ele>1631.49</ele>
        <time>2019-12-14T10:32:24Z</time>
      </trkpt>
      <trkpt lat="42.78706" lon="1.84916">
        <ele>1629.57</ele>
        <time>2019-12-14T10:32:26Z</time>
      </trkpt>
      <trkpt lat="42.78706" lon="1.84913">
        <ele>1631.01</ele>
        <time>2019-12-14T10:32:28Z</time>
      </trkpt>
      <trkpt lat="42.78706" lon="1.8491">
        <ele>1629.09</ele>
        <time>2019-12-14T10:32:31Z</time>
      </trkpt>
      <trkpt lat="42.78704" lon="1.84902">
        <ele>1627.65</ele>
        <time>2019-12-14T10:32:39Z</time>
      </trkpt>
      <trkpt lat="42.78704" lon="1.84901">
        <ele>1631.49</ele>
        <time>2019-12-14T10:32:40Z</time>
      </trkpt>
      <trkpt lat="42.78702" lon="1.84896">
        <ele>1628.61</ele>
        <time>2019-12-14T10:32:44Z</time>
      </trkpt>
      <trkpt lat="42.78699" lon="1.84882">
        <ele>1630.53</ele>
        <time>2019-12-14T10:32:56Z</time>
      </trkpt>
      <trkpt lat="42.78697" lon="1.84877">
        <ele>1629.57</ele>
        <time>2019-12-14T10:33:01Z</time>
      </trkpt>
      <trkpt lat="42.78694" lon="1.84866">
        <ele>1631.49</ele>
        <time>2019-12-14T10:33:12Z</time>
      </trkpt>
      <trkpt lat="42.78694" lon="1.84861">
        <ele>1628.13</ele>
        <time>2019-12-14T10:33:16Z</time>
      </trkpt>
      <trkpt lat="42.78693" lon="1.8486">
        <ele>1630.05</ele>
        <time>2019-12-14T10:33:17Z</time>
      </trkpt>
      <trkpt lat="42.78693" lon="1.84851">
        <ele>1629.57</ele>
        <time>2019-12-14T10:33:30Z</time>
      </trkpt>
      <trkpt lat="42.78693" lon="1.8485">
        <ele>1630.05</ele>
        <time>2019-12-14T10:33:31Z</time>
      </trkpt>
      <trkpt lat="42.78692" lon="1.8484">
        <ele>1631.01</ele>
        <time>2019-12-14T10:33:44Z</time>
      </trkpt>
      <trkpt lat="42.78693" lon="1.84837">
        <ele>1629.57</ele>
        <time>2019-12-14T10:33:54Z</time>
      </trkpt>
      <trkpt lat="42.78695" lon="1.84827">
        <ele>1629.09</ele>
        <time>2019-12-14T10:34:05Z</time>
      </trkpt>
      <trkpt lat="42.78694" lon="1.84822">
        <ele>1629.09</ele>
        <time>2019-12-14T10:34:11Z</time>
      </trkpt>
      <trkpt lat="42.78693" lon="1.84819">
        <ele>1628.61</ele>
        <time>2019-12-14T10:34:14Z</time>
      </trkpt>
      <trkpt lat="42.78691" lon="1.84811">
        <ele>1629.09</ele>
        <time>2019-12-14T10:34:28Z</time>
      </trkpt>
      <trkpt lat="42.78691" lon="1.84812">
        <ele>1629.09</ele>
        <time>2019-12-14T10:34:54Z</time>
      </trkpt>
      <trkpt lat="42.7869" lon="1.84812">
        <ele>1630.05</ele>
        <time>2019-12-14T10:35:08Z</time>
      </trkpt>
      <trkpt lat="42.7869" lon="1.84811">
        <ele>1630.05</ele>
        <time>2019-12-14T10:35:09Z</time>
      </trkpt>
      <trkpt lat="42.78687" lon="1.84809">
        <ele>1628.13</ele>
        <time>2019-12-14T10:35:12Z</time>
      </trkpt>
      <trkpt lat="42.78681" lon="1.8481">
        <ele>1628.13</ele>
        <time>2019-12-14T10:35:19Z</time>
      </trkpt>
      <trkpt lat="42.78678" lon="1.84808">
        <ele>1628.61</ele>
        <time>2019-12-14T10:35:22Z</time>
      </trkpt>
      <trkpt lat="42.78678" lon="1.84805">
        <ele>1630.05</ele>
        <time>2019-12-14T10:35:25Z</time>
      </trkpt>
      <trkpt lat="42.78677" lon="1.84801">
        <ele>1627.17</ele>
        <time>2019-12-14T10:35:28Z</time>
      </trkpt>
      <trkpt lat="42.78676" lon="1.848">
        <ele>1632.46</ele>
        <time>2019-12-14T10:35:29Z</time>
      </trkpt>
      <trkpt lat="42.78674" lon="1.84802">
        <ele>1629.09</ele>
        <time>2019-12-14T10:35:33Z</time>
      </trkpt>
      <trkpt lat="42.78673" lon="1.84805">
        <ele>1628.61</ele>
        <time>2019-12-14T10:35:36Z</time>
      </trkpt>
      <trkpt lat="42.7867" lon="1.84807">
        <ele>1629.09</ele>
        <time>2019-12-14T10:35:39Z</time>
      </trkpt>
      <trkpt lat="42.78667" lon="1.84809">
        <ele>1631.49</ele>
        <time>2019-12-14T10:35:43Z</time>
      </trkpt>
      <trkpt lat="42.78663" lon="1.8481">
        <ele>1631.98</ele>
        <time>2019-12-14T10:35:48Z</time>
      </trkpt>
      <trkpt lat="42.78661" lon="1.84803">
        <ele>1633.42</ele>
        <time>2019-12-14T10:35:59Z</time>
      </trkpt>
      <trkpt lat="42.78662" lon="1.848">
        <ele>1633.42</ele>
        <time>2019-12-14T10:36:03Z</time>
      </trkpt>
      <trkpt lat="42.78663" lon="1.84796">
        <ele>1631.49</ele>
        <time>2019-12-14T10:36:06Z</time>
      </trkpt>
      <trkpt lat="42.78664" lon="1.84794">
        <ele>1631.49</ele>
        <time>2019-12-14T10:36:08Z</time>
      </trkpt>
      <trkpt lat="42.78664" lon="1.84791">
        <ele>1631.49</ele>
        <time>2019-12-14T10:36:22Z</time>
      </trkpt>
      <trkpt lat="42.78664" lon="1.84788">
        <ele>1632.94</ele>
        <time>2019-12-14T10:36:25Z</time>
      </trkpt>
      <trkpt lat="42.78665" lon="1.84786">
        <ele>1632.94</ele>
        <time>2019-12-14T10:36:35Z</time>
      </trkpt>
      <trkpt lat="42.78667" lon="1.84781">
        <ele>1632.94</ele>
        <time>2019-12-14T10:36:40Z</time>
      </trkpt>
      <trkpt lat="42.78672" lon="1.84771">
        <ele>1631.49</ele>
        <time>2019-12-14T10:36:50Z</time>
      </trkpt>
      <trkpt lat="42.78675" lon="1.84762">
        <ele>1634.38</ele>
        <time>2019-12-14T10:37:00Z</time>
      </trkpt>
      <trkpt lat="42.78677" lon="1.84752">
        <ele>1636.78</ele>
        <time>2019-12-14T10:37:11Z</time>
      </trkpt>
      <trkpt lat="42.78678" lon="1.84748">
        <ele>1634.38</ele>
        <time>2019-12-14T10:37:14Z</time>
      </trkpt>
      <trkpt lat="42.78679" lon="1.84747">
        <ele>1634.38</ele>
        <time>2019-12-14T10:37:16Z</time>
      </trkpt>
      <trkpt lat="42.78679" lon="1.84742">
        <ele>1635.82</ele>
        <time>2019-12-14T10:37:21Z</time>
      </trkpt>
      <trkpt lat="42.78679" lon="1.84739">
        <ele>1634.86</ele>
        <time>2019-12-14T10:37:23Z</time>
      </trkpt>
      <trkpt lat="42.78681" lon="1.84734">
        <ele>1635.34</ele>
        <time>2019-12-14T10:37:28Z</time>
      </trkpt>
      <trkpt lat="42.78681" lon="1.84723">
        <ele>1635.34</ele>
        <time>2019-12-14T10:37:37Z</time>
      </trkpt>
      <trkpt lat="42.7868" lon="1.84721">
        <ele>1636.78</ele>
        <time>2019-12-14T10:37:39Z</time>
      </trkpt>
      <trkpt lat="42.78679" lon="1.84718">
        <ele>1637.26</ele>
        <time>2019-12-14T10:37:43Z</time>
      </trkpt>
      <trkpt lat="42.78679" lon="1.84715">
        <ele>1635.34</ele>
        <time>2019-12-14T10:37:46Z</time>
      </trkpt>
      <trkpt lat="42.78678" lon="1.84713">
        <ele>1635.82</ele>
        <time>2019-12-14T10:37:48Z</time>
      </trkpt>
      <trkpt lat="42.78677" lon="1.8471">
        <ele>1635.82</ele>
        <time>2019-12-14T10:37:52Z</time>
      </trkpt>
      <trkpt lat="42.78674" lon="1.84703">
        <ele>1636.78</ele>
        <time>2019-12-14T10:38:01Z</time>
      </trkpt>
      <trkpt lat="42.78674" lon="1.84701">
        <ele>1638.22</ele>
        <time>2019-12-14T10:38:03Z</time>
      </trkpt>
      <trkpt lat="42.78673" lon="1.84698">
        <ele>1638.22</ele>
        <time>2019-12-14T10:38:05Z</time>
      </trkpt>
      <trkpt lat="42.78673" lon="1.84694">
        <ele>1638.22</ele>
        <time>2019-12-14T10:38:08Z</time>
      </trkpt>
      <trkpt lat="42.78672" lon="1.84692">
        <ele>1637.26</ele>
        <time>2019-12-14T10:38:10Z</time>
      </trkpt>
      <trkpt lat="42.78671" lon="1.84689">
        <ele>1637.26</ele>
        <time>2019-12-14T10:38:12Z</time>
      </trkpt>
      <trkpt lat="42.78669" lon="1.84684">
        <ele>1639.67</ele>
        <time>2019-12-14T10:38:20Z</time>
      </trkpt>
      <trkpt lat="42.78667" lon="1.84682">
        <ele>1638.22</ele>
        <time>2019-12-14T10:38:23Z</time>
      </trkpt>
      <trkpt lat="42.78666" lon="1.8468">
        <ele>1638.7</ele>
        <time>2019-12-14T10:38:25Z</time>
      </trkpt>
      <trkpt lat="42.78662" lon="1.84673">
        <ele>1642.07</ele>
        <time>2019-12-14T10:38:33Z</time>
      </trkpt>
      <trkpt lat="42.78662" lon="1.84672">
        <ele>1639.19</ele>
        <time>2019-12-14T10:38:34Z</time>
      </trkpt>
      <trkpt lat="42.7866" lon="1.8467">
        <ele>1639.19</ele>
        <time>2019-12-14T10:38:38Z</time>
      </trkpt>
      <trkpt lat="42.78659" lon="1.84666">
        <ele>1642.55</ele>
        <time>2019-12-14T10:38:43Z</time>
      </trkpt>
      <trkpt lat="42.78658" lon="1.84663">
        <ele>1643.03</ele>
        <time>2019-12-14T10:38:47Z</time>
      </trkpt>
      <trkpt lat="42.78656" lon="1.8466">
        <ele>1639.67</ele>
        <time>2019-12-14T10:38:52Z</time>
      </trkpt>
      <trkpt lat="42.78656" lon="1.84659">
        <ele>1643.99</ele>
        <time>2019-12-14T10:38:53Z</time>
      </trkpt>
      <trkpt lat="42.78655" lon="1.84658">
        <ele>1640.63</ele>
        <time>2019-12-14T10:38:54Z</time>
      </trkpt>
      <trkpt lat="42.78655" lon="1.84657">
        <ele>1643.51</ele>
        <time>2019-12-14T10:38:55Z</time>
      </trkpt>
      <trkpt lat="42.78654" lon="1.84656">
        <ele>1641.11</ele>
        <time>2019-12-14T10:38:56Z</time>
      </trkpt>
      <trkpt lat="42.78653" lon="1.84655">
        <ele>1641.11</ele>
        <time>2019-12-14T10:38:58Z</time>
      </trkpt>
      <trkpt lat="42.78649" lon="1.84647">
        <ele>1642.55</ele>
        <time>2019-12-14T10:39:09Z</time>
      </trkpt>
      <trkpt lat="42.78648" lon="1.84645">
        <ele>1642.55</ele>
        <time>2019-12-14T10:39:11Z</time>
      </trkpt>
      <trkpt lat="42.78647" lon="1.84643">
        <ele>1641.59</ele>
        <time>2019-12-14T10:39:14Z</time>
      </trkpt>
      <trkpt lat="42.78646" lon="1.84642">
        <ele>1645.91</ele>
        <time>2019-12-14T10:39:15Z</time>
      </trkpt>
      <trkpt lat="42.78646" lon="1.84643">
        <ele>1641.59</ele>
        <time>2019-12-14T10:39:16Z</time>
      </trkpt>
      <trkpt lat="42.78646" lon="1.84642">
        <ele>1646.4</ele>
        <time>2019-12-14T10:39:17Z</time>
      </trkpt>
      <trkpt lat="42.78645" lon="1.84642">
        <ele>1642.07</ele>
        <time>2019-12-14T10:39:18Z</time>
      </trkpt>
      <trkpt lat="42.78645" lon="1.84641">
        <ele>1646.4</ele>
        <time>2019-12-14T10:39:19Z</time>
      </trkpt>
      <trkpt lat="42.78645" lon="1.84641">
        <ele>1643.03</ele>
        <time>2019-12-14T10:39:20Z</time>
      </trkpt>
      <trkpt lat="42.78644" lon="1.8464">
        <ele>1646.4</ele>
        <time>2019-12-14T10:39:21Z</time>
      </trkpt>
      <trkpt lat="42.78644" lon="1.84639">
        <ele>1643.03</ele>
        <time>2019-12-14T10:39:22Z</time>
      </trkpt>
      <trkpt lat="42.78643" lon="1.84639">
        <ele>1646.4</ele>
        <time>2019-12-14T10:39:23Z</time>
      </trkpt>
      <trkpt lat="42.78643" lon="1.84638">
        <ele>1643.51</ele>
        <time>2019-12-14T10:39:24Z</time>
      </trkpt>
      <trkpt lat="42.78643" lon="1.84637">
        <ele>1646.88</ele>
        <time>2019-12-14T10:39:25Z</time>
      </trkpt>
      <trkpt lat="42.78642" lon="1.84637">
        <ele>1643.51</ele>
        <time>2019-12-14T10:39:26Z</time>
      </trkpt>
      <trkpt lat="42.78642" lon="1.84637">
        <ele>1648.32</ele>
        <time>2019-12-14T10:39:27Z</time>
      </trkpt>
      <trkpt lat="42.78641" lon="1.84635">
        <ele>1643.03</ele>
        <time>2019-12-14T10:39:28Z</time>
      </trkpt>
      <trkpt lat="42.78641" lon="1.84635">
        <ele>1647.36</ele>
        <time>2019-12-14T10:39:29Z</time>
      </trkpt>
      <trkpt lat="42.78641" lon="1.84634">
        <ele>1643.51</ele>
        <time>2019-12-14T10:39:30Z</time>
      </trkpt>
      <trkpt lat="42.7864" lon="1.84634">
        <ele>1646.88</ele>
        <time>2019-12-14T10:39:31Z</time>
      </trkpt>
      <trkpt lat="42.7864" lon="1.84633">
        <ele>1643.03</ele>
        <time>2019-12-14T10:39:32Z</time>
      </trkpt>
      <trkpt lat="42.7864" lon="1.84632">
        <ele>1647.36</ele>
        <time>2019-12-14T10:39:33Z</time>
      </trkpt>
      <trkpt lat="42.78639" lon="1.84631">
        <ele>1647.84</ele>
        <time>2019-12-14T10:39:35Z</time>
      </trkpt>
      <trkpt lat="42.78638" lon="1.84629">
        <ele>1645.43</ele>
        <time>2019-12-14T10:39:38Z</time>
      </trkpt>
      <trkpt lat="42.78638" lon="1.84628">
        <ele>1648.8</ele>
        <time>2019-12-14T10:39:39Z</time>
      </trkpt>
      <trkpt lat="42.78637" lon="1.84626">
        <ele>1646.88</ele>
        <time>2019-12-14T10:39:42Z</time>
      </trkpt>
      <trkpt lat="42.78637" lon="1.84624">
        <ele>1646.88</ele>
        <time>2019-12-14T10:39:44Z</time>
      </trkpt>
      <trkpt lat="42.78639" lon="1.84618">
        <ele>1650.24</ele>
        <time>2019-12-14T10:39:53Z</time>
      </trkpt>
      <trkpt lat="42.7864" lon="1.84615">
        <ele>1648.8</ele>
        <time>2019-12-14T10:39:57Z</time>
      </trkpt>
      <trkpt lat="42.78644" lon="1.84607">
        <ele>1652.16</ele>
        <time>2019-12-14T10:40:09Z</time>
      </trkpt>
      <trkpt lat="42.78644" lon="1.84606">
        <ele>1648.32</ele>
        <time>2019-12-14T10:40:10Z</time>
      </trkpt>
      <trkpt lat="42.78645" lon="1.84605">
        <ele>1649.28</ele>
        <time>2019-12-14T10:40:12Z</time>
      </trkpt>
      <trkpt lat="42.7865" lon="1.84598">
        <ele>1650.24</ele>
        <time>2019-12-14T10:40:21Z</time>
      </trkpt>
      <trkpt lat="42.78652" lon="1.84591">
        <ele>1651.2</ele>
        <time>2019-12-14T10:40:30Z</time>
      </trkpt>
      <trkpt lat="42.78653" lon="1.84586">
        <ele>1652.16</ele>
        <time>2019-12-14T10:40:34Z</time>
      </trkpt>
      <trkpt lat="42.78655" lon="1.84584">
        <ele>1653.6</ele>
        <time>2019-12-14T10:40:36Z</time>
      </trkpt>
      <trkpt lat="42.78656" lon="1.8458">
        <ele>1653.6</ele>
        <time>2019-12-14T10:40:41Z</time>
      </trkpt>
      <trkpt lat="42.78657" lon="1.84579">
        <ele>1652.16</ele>
        <time>2019-12-14T10:40:43Z</time>
      </trkpt>
      <trkpt lat="42.78658" lon="1.84577">
        <ele>1652.16</ele>
        <time>2019-12-14T10:40:45Z</time>
      </trkpt>
      <trkpt lat="42.78658" lon="1.84575">
        <ele>1651.68</ele>
        <time>2019-12-14T10:40:47Z</time>
      </trkpt>
      <trkpt lat="42.78657" lon="1.84573">
        <ele>1654.09</ele>
        <time>2019-12-14T10:40:50Z</time>
      </trkpt>
      <trkpt lat="42.78652" lon="1.8457">
        <ele>1654.09</ele>
        <time>2019-12-14T10:40:55Z</time>
      </trkpt>
      <trkpt lat="42.78648" lon="1.84567">
        <ele>1652.16</ele>
        <time>2019-12-14T10:41:00Z</time>
      </trkpt>
      <trkpt lat="42.78639" lon="1.84559">
        <ele>1652.16</ele>
        <time>2019-12-14T10:41:12Z</time>
      </trkpt>
      <trkpt lat="42.78636" lon="1.84556">
        <ele>1651.68</ele>
        <time>2019-12-14T10:41:16Z</time>
      </trkpt>
      <trkpt lat="42.78635" lon="1.84555">
        <ele>1653.6</ele>
        <time>2019-12-14T10:41:18Z</time>
      </trkpt>
      <trkpt lat="42.78634" lon="1.84553">
        <ele>1652.16</ele>
        <time>2019-12-14T10:41:20Z</time>
      </trkpt>
      <trkpt lat="42.78633" lon="1.84544">
        <ele>1651.2</ele>
        <time>2019-12-14T10:41:28Z</time>
      </trkpt>
      <trkpt lat="42.78633" lon="1.84541">
        <ele>1651.68</ele>
        <time>2019-12-14T10:41:31Z</time>
      </trkpt>
      <trkpt lat="42.78633" lon="1.84538">
        <ele>1651.2</ele>
        <time>2019-12-14T10:41:33Z</time>
      </trkpt>
      <trkpt lat="42.78634" lon="1.84535">
        <ele>1650.72</ele>
        <time>2019-12-14T10:41:35Z</time>
      </trkpt>
      <trkpt lat="42.78634" lon="1.84535">
        <ele>1653.6</ele>
        <time>2019-12-14T10:41:36Z</time>
      </trkpt>
      <trkpt lat="42.78634" lon="1.84533">
        <ele>1653.12</ele>
        <time>2019-12-14T10:41:38Z</time>
      </trkpt>
      <trkpt lat="42.78634" lon="1.8453">
        <ele>1653.12</ele>
        <time>2019-12-14T10:41:40Z</time>
      </trkpt>
      <trkpt lat="42.78633" lon="1.84525">
        <ele>1653.6</ele>
        <time>2019-12-14T10:41:45Z</time>
      </trkpt>
      <trkpt lat="42.78635" lon="1.84518">
        <ele>1652.64</ele>
        <time>2019-12-14T10:41:52Z</time>
      </trkpt>
      <trkpt lat="42.78637" lon="1.84515">
        <ele>1653.6</ele>
        <time>2019-12-14T10:41:55Z</time>
      </trkpt>
      <trkpt lat="42.78641" lon="1.84504">
        <ele>1653.12</ele>
        <time>2019-12-14T10:42:06Z</time>
      </trkpt>
      <trkpt lat="42.78646" lon="1.84499">
        <ele>1652.64</ele>
        <time>2019-12-14T10:42:14Z</time>
      </trkpt>
      <trkpt lat="42.78654" lon="1.84497">
        <ele>1651.68</ele>
        <time>2019-12-14T10:42:26Z</time>
      </trkpt>
      <trkpt lat="42.78658" lon="1.84494">
        <ele>1649.76</ele>
        <time>2019-12-14T10:42:33Z</time>
      </trkpt>
      <trkpt lat="42.78664" lon="1.84483">
        <ele>1647.84</ele>
        <time>2019-12-14T10:42:45Z</time>
      </trkpt>
      <trkpt lat="42.78666" lon="1.84479">
        <ele>1647.36</ele>
        <time>2019-12-14T10:42:50Z</time>
      </trkpt>
      <trkpt lat="42.78666" lon="1.84478">
        <ele>1646.4</ele>
        <time>2019-12-14T10:42:52Z</time>
      </trkpt>
      <trkpt lat="42.78667" lon="1.84476">
        <ele>1646.4</ele>
        <time>2019-12-14T10:43:06Z</time>
      </trkpt>
      <trkpt lat="42.78667" lon="1.84477">
        <ele>1647.84</ele>
        <time>2019-12-14T10:43:09Z</time>
      </trkpt>
      <trkpt lat="42.78666" lon="1.84475">
        <ele>1647.84</ele>
        <time>2019-12-14T10:43:37Z</time>
      </trkpt>
      <trkpt lat="42.78666" lon="1.84475">
        <ele>1647.84</ele>
        <time>2019-12-14T10:44:03Z</time>
      </trkpt>
      <trkpt lat="42.78667" lon="1.84474">
        <ele>1648.32</ele>
        <time>2019-12-14T10:44:27Z</time>
      </trkpt>
      <trkpt lat="42.78667" lon="1.84474">
        <ele>1647.84</ele>
        <time>2019-12-14T10:44:48Z</time>
      </trkpt>
      <trkpt lat="42.78668" lon="1.84473">
        <ele>1648.8</ele>
        <time>2019-12-14T10:45:12Z</time>
      </trkpt>
      <trkpt lat="42.78667" lon="1.84468">
        <ele>1648.32</ele>
        <time>2019-12-14T10:45:17Z</time>
      </trkpt>
      <trkpt lat="42.78666" lon="1.84466">
        <ele>1646.88</ele>
        <time>2019-12-14T10:45:20Z</time>
      </trkpt>
      <trkpt lat="42.78662" lon="1.84455">
        <ele>1646.4</ele>
        <time>2019-12-14T10:45:30Z</time>
      </trkpt>
      <trkpt lat="42.78661" lon="1.84452">
        <ele>1645.43</ele>
        <time>2019-12-14T10:45:33Z</time>
      </trkpt>
      <trkpt lat="42.7866" lon="1.8445">
        <ele>1646.88</ele>
        <time>2019-12-14T10:45:35Z</time>
      </trkpt>
      <trkpt lat="42.78657" lon="1.84444">
        <ele>1648.32</ele>
        <time>2019-12-14T10:45:47Z</time>
      </trkpt>
      <trkpt lat="42.78656" lon="1.84445">
        <ele>1647.36</ele>
        <time>2019-12-14T10:45:59Z</time>
      </trkpt>
      <trkpt lat="42.78655" lon="1.84449">
        <ele>1646.88</ele>
        <time>2019-12-14T10:46:30Z</time>
      </trkpt>
      <trkpt lat="42.78655" lon="1.84438">
        <ele>1649.28</ele>
        <time>2019-12-14T10:46:44Z</time>
      </trkpt>
      <trkpt lat="42.78653" lon="1.84426">
        <ele>1647.84</ele>
        <time>2019-12-14T10:46:54Z</time>
      </trkpt>
      <trkpt lat="42.78652" lon="1.84416">
        <ele>1647.84</ele>
        <time>2019-12-14T10:47:03Z</time>
      </trkpt>
      <trkpt lat="42.78651" lon="1.8441">
        <ele>1648.8</ele>
        <time>2019-12-14T10:47:08Z</time>
      </trkpt>
      <trkpt lat="42.7865" lon="1.844">
        <ele>1652.64</ele>
        <time>2019-12-14T10:47:18Z</time>
      </trkpt>
      <trkpt lat="42.7865" lon="1.84394">
        <ele>1649.28</ele>
        <time>2019-12-14T10:47:25Z</time>
      </trkpt>
      <trkpt lat="42.7865" lon="1.84392">
        <ele>1648.8</ele>
        <time>2019-12-14T10:47:27Z</time>
      </trkpt>
      <trkpt lat="42.7865" lon="1.84391">
        <ele>1654.09</ele>
        <time>2019-12-14T10:47:28Z</time>
      </trkpt>
      <trkpt lat="42.7865" lon="1.84389">
        <ele>1650.72</ele>
        <time>2019-12-14T10:47:30Z</time>
      </trkpt>
      <trkpt lat="42.7865" lon="1.84386">
        <ele>1650.24</ele>
        <time>2019-12-14T10:47:32Z</time>
      </trkpt>
      <trkpt lat="42.7865" lon="1.84386">
        <ele>1654.57</ele>
        <time>2019-12-14T10:47:33Z</time>
      </trkpt>
      <trkpt lat="42.78652" lon="1.8438">
        <ele>1650.72</ele>
        <time>2019-12-14T10:47:37Z</time>
      </trkpt>
      <trkpt lat="42.78652" lon="1.84378">
        <ele>1649.76</ele>
        <time>2019-12-14T10:47:39Z</time>
      </trkpt>
      <trkpt lat="42.78653" lon="1.84378">
        <ele>1655.05</ele>
        <time>2019-12-14T10:47:40Z</time>
      </trkpt>
      <trkpt lat="42.78653" lon="1.84377">
        <ele>1649.28</ele>
        <time>2019-12-14T10:47:41Z</time>
      </trkpt>
      <trkpt lat="42.78653" lon="1.84376">
        <ele>1653.6</ele>
        <time>2019-12-14T10:47:43Z</time>
      </trkpt>
      <trkpt lat="42.78653" lon="1.84375">
        <ele>1653.6</ele>
        <time>2019-12-14T10:47:44Z</time>
      </trkpt>
      <trkpt lat="42.78654" lon="1.84372">
        <ele>1656.01</ele>
        <time>2019-12-14T10:47:48Z</time>
      </trkpt>
      <trkpt lat="42.78654" lon="1.84371">
        <ele>1651.2</ele>
        <time>2019-12-14T10:47:49Z</time>
      </trkpt>
      <trkpt lat="42.78654" lon="1.8437">
        <ele>1655.53</ele>
        <time>2019-12-14T10:47:50Z</time>
      </trkpt>
      <trkpt lat="42.78655" lon="1.84369">
        <ele>1652.16</ele>
        <time>2019-12-14T10:47:51Z</time>
      </trkpt>
      <trkpt lat="42.78656" lon="1.84364">
        <ele>1652.16</ele>
        <time>2019-12-14T10:47:56Z</time>
      </trkpt>
      <trkpt lat="42.78655" lon="1.84362">
        <ele>1651.68</ele>
        <time>2019-12-14T10:47:58Z</time>
      </trkpt>
      <trkpt lat="42.78655" lon="1.8436">
        <ele>1651.2</ele>
        <time>2019-12-14T10:48:00Z</time>
      </trkpt>
      <trkpt lat="42.78655" lon="1.84358">
        <ele>1651.68</ele>
        <time>2019-12-14T10:48:02Z</time>
      </trkpt>
      <trkpt lat="42.78655" lon="1.84358">
        <ele>1657.45</ele>
        <time>2019-12-14T10:48:03Z</time>
      </trkpt>
      <trkpt lat="42.78655" lon="1.84357">
        <ele>1652.16</ele>
        <time>2019-12-14T10:48:04Z</time>
      </trkpt>
      <trkpt lat="42.78655" lon="1.84356">
        <ele>1656.97</ele>
        <time>2019-12-14T10:48:05Z</time>
      </trkpt>
      <trkpt lat="42.78655" lon="1.84356">
        <ele>1652.64</ele>
        <time>2019-12-14T10:48:06Z</time>
      </trkpt>
      <trkpt lat="42.78655" lon="1.84355">
        <ele>1656.97</ele>
        <time>2019-12-14T10:48:07Z</time>
      </trkpt>
      <trkpt lat="42.78655" lon="1.84354">
        <ele>1653.6</ele>
        <time>2019-12-14T10:48:08Z</time>
      </trkpt>
      <trkpt lat="42.78655" lon="1.84353">
        <ele>1654.57</ele>
        <time>2019-12-14T10:48:09Z</time>
      </trkpt>
      <trkpt lat="42.78655" lon="1.8435">
        <ele>1656.49</ele>
        <time>2019-12-14T10:48:11Z</time>
      </trkpt>
      <trkpt lat="42.78655" lon="1.84348">
        <ele>1656.49</ele>
        <time>2019-12-14T10:48:13Z</time>
      </trkpt>
      <trkpt lat="42.78654" lon="1.84346">
        <ele>1656.49</ele>
        <time>2019-12-14T10:48:15Z</time>
      </trkpt>
      <trkpt lat="42.78653" lon="1.84337">
        <ele>1657.93</ele>
        <time>2019-12-14T10:48:28Z</time>
      </trkpt>
      <trkpt lat="42.78653" lon="1.84334">
        <ele>1656.49</ele>
        <time>2019-12-14T10:48:30Z</time>
      </trkpt>
      <trkpt lat="42.78653" lon="1.84332">
        <ele>1656.01</ele>
        <time>2019-12-14T10:48:32Z</time>
      </trkpt>
      <trkpt lat="42.78653" lon="1.84332">
        <ele>1659.37</ele>
        <time>2019-12-14T10:48:33Z</time>
      </trkpt>
      <trkpt lat="42.78653" lon="1.84329">
        <ele>1659.85</ele>
        <time>2019-12-14T10:48:36Z</time>
      </trkpt>
      <trkpt lat="42.78653" lon="1.84327">
        <ele>1660.33</ele>
        <time>2019-12-14T10:48:38Z</time>
      </trkpt>
      <trkpt lat="42.78653" lon="1.84326">
        <ele>1657.93</ele>
        <time>2019-12-14T10:48:40Z</time>
      </trkpt>
      <trkpt lat="42.78654" lon="1.84324">
        <ele>1657.93</ele>
        <time>2019-12-14T10:48:42Z</time>
      </trkpt>
      <trkpt lat="42.78654" lon="1.84322">
        <ele>1656.97</ele>
        <time>2019-12-14T10:48:44Z</time>
      </trkpt>
      <trkpt lat="42.78654" lon="1.8432">
        <ele>1656.49</ele>
        <time>2019-12-14T10:48:46Z</time>
      </trkpt>
      <trkpt lat="42.78654" lon="1.8432">
        <ele>1661.78</ele>
        <time>2019-12-14T10:48:47Z</time>
      </trkpt>
      <trkpt lat="42.78654" lon="1.84318">
        <ele>1656.97</ele>
        <time>2019-12-14T10:48:48Z</time>
      </trkpt>
      <trkpt lat="42.78654" lon="1.84317">
        <ele>1657.45</ele>
        <time>2019-12-14T10:48:50Z</time>
      </trkpt>
      <trkpt lat="42.78654" lon="1.84316">
        <ele>1661.78</ele>
        <time>2019-12-14T10:48:51Z</time>
      </trkpt>
      <trkpt lat="42.78654" lon="1.84315">
        <ele>1657.93</ele>
        <time>2019-12-14T10:48:52Z</time>
      </trkpt>
      <trkpt lat="42.78654" lon="1.84315">
        <ele>1662.26</ele>
        <time>2019-12-14T10:48:53Z</time>
      </trkpt>
      <trkpt lat="42.78654" lon="1.84314">
        <ele>1657.45</ele>
        <time>2019-12-14T10:48:54Z</time>
      </trkpt>
      <trkpt lat="42.78654" lon="1.84314">
        <ele>1664.18</ele>
        <time>2019-12-14T10:48:55Z</time>
      </trkpt>
      <trkpt lat="42.78654" lon="1.84313">
        <ele>1658.89</ele>
        <time>2019-12-14T10:48:56Z</time>
      </trkpt>
      <trkpt lat="42.78654" lon="1.84312">
        <ele>1664.18</ele>
        <time>2019-12-14T10:48:57Z</time>
      </trkpt>
      <trkpt lat="42.78653" lon="1.84311">
        <ele>1659.37</ele>
        <time>2019-12-14T10:48:58Z</time>
      </trkpt>
      <trkpt lat="42.78653" lon="1.8431">
        <ele>1659.85</ele>
        <time>2019-12-14T10:49:01Z</time>
      </trkpt>
      <trkpt lat="42.78652" lon="1.84309">
        <ele>1665.14</ele>
        <time>2019-12-14T10:49:02Z</time>
      </trkpt>
      <trkpt lat="42.78652" lon="1.84309">
        <ele>1659.85</ele>
        <time>2019-12-14T10:49:03Z</time>
      </trkpt>
      <trkpt lat="42.78652" lon="1.84308">
        <ele>1665.14</ele>
        <time>2019-12-14T10:49:04Z</time>
      </trkpt>
      <trkpt lat="42.78651" lon="1.84308">
        <ele>1660.33</ele>
        <time>2019-12-14T10:49:05Z</time>
      </trkpt>
      <trkpt lat="42.78651" lon="1.84307">
        <ele>1665.62</ele>
        <time>2019-12-14T10:49:06Z</time>
      </trkpt>
      <trkpt lat="42.78651" lon="1.84306">
        <ele>1660.33</ele>
        <time>2019-12-14T10:49:07Z</time>
      </trkpt>
      <trkpt lat="42.78651" lon="1.84306">
        <ele>1664.66</ele>
        <time>2019-12-14T10:49:08Z</time>
      </trkpt>
      <trkpt lat="42.7865" lon="1.84303">
        <ele>1661.3</ele>
        <time>2019-12-14T10:49:11Z</time>
      </trkpt>
      <trkpt lat="42.7865" lon="1.84303">
        <ele>1664.66</ele>
        <time>2019-12-14T10:49:12Z</time>
      </trkpt>
      <trkpt lat="42.78649" lon="1.84302">
        <ele>1661.3</ele>
        <time>2019-12-14T10:49:13Z</time>
      </trkpt>
      <trkpt lat="42.78649" lon="1.843">
        <ele>1661.78</ele>
        <time>2019-12-14T10:49:15Z</time>
      </trkpt>
      <trkpt lat="42.78649" lon="1.843">
        <ele>1666.1</ele>
        <time>2019-12-14T10:49:16Z</time>
      </trkpt>
      <trkpt lat="42.78649" lon="1.84299">
        <ele>1661.78</ele>
        <time>2019-12-14T10:49:17Z</time>
      </trkpt>
      <trkpt lat="42.78648" lon="1.84298">
        <ele>1666.1</ele>
        <time>2019-12-14T10:49:18Z</time>
      </trkpt>
      <trkpt lat="42.78648" lon="1.84298">
        <ele>1662.74</ele>
        <time>2019-12-14T10:49:19Z</time>
      </trkpt>
      <trkpt lat="42.78646" lon="1.84294">
        <ele>1666.1</ele>
        <time>2019-12-14T10:49:26Z</time>
      </trkpt>
      <trkpt lat="42.78645" lon="1.84293">
        <ele>1663.22</ele>
        <time>2019-12-14T10:49:27Z</time>
      </trkpt>
      <trkpt lat="42.78645" lon="1.84293">
        <ele>1667.06</ele>
        <time>2019-12-14T10:49:28Z</time>
      </trkpt>
      <trkpt lat="42.78645" lon="1.84292">
        <ele>1663.7</ele>
        <time>2019-12-14T10:49:29Z</time>
      </trkpt>
      <trkpt lat="42.78644" lon="1.84291">
        <ele>1667.06</ele>
        <time>2019-12-14T10:49:30Z</time>
      </trkpt>
      <trkpt lat="42.78644" lon="1.84291">
        <ele>1663.7</ele>
        <time>2019-12-14T10:49:31Z</time>
      </trkpt>
      <trkpt lat="42.78644" lon="1.8429">
        <ele>1666.58</ele>
        <time>2019-12-14T10:49:32Z</time>
      </trkpt>
      <trkpt lat="42.7864" lon="1.84282">
        <ele>1664.66</ele>
        <time>2019-12-14T10:49:43Z</time>
      </trkpt>
      <trkpt lat="42.7864" lon="1.84282">
        <ele>1668.51</ele>
        <time>2019-12-14T10:49:44Z</time>
      </trkpt>
      <trkpt lat="42.78634" lon="1.84272">
        <ele>1668.99</ele>
        <time>2019-12-14T10:49:58Z</time>
      </trkpt>
      <trkpt lat="42.78632" lon="1.84271">
        <ele>1669.95</ele>
        <time>2019-12-14T10:50:13Z</time>
      </trkpt>
      <trkpt lat="42.78632" lon="1.84269">
        <ele>1668.51</ele>
        <time>2019-12-14T10:50:15Z</time>
      </trkpt>
      <trkpt lat="42.78632" lon="1.84268">
        <ele>1670.43</ele>
        <time>2019-12-14T10:50:16Z</time>
      </trkpt>
      <trkpt lat="42.78631" lon="1.84267">
        <ele>1670.91</ele>
        <time>2019-12-14T10:50:18Z</time>
      </trkpt>
      <trkpt lat="42.7863" lon="1.84269">
        <ele>1669.95</ele>
        <time>2019-12-14T10:50:26Z</time>
      </trkpt>
      <trkpt lat="42.78629" lon="1.84259">
        <ele>1669.47</ele>
        <time>2019-12-14T10:50:38Z</time>
      </trkpt>
      <trkpt lat="42.78629" lon="1.84257">
        <ele>1672.83</ele>
        <time>2019-12-14T10:50:40Z</time>
      </trkpt>
      <trkpt lat="42.78629" lon="1.84256">
        <ele>1668.99</ele>
        <time>2019-12-14T10:50:41Z</time>
      </trkpt>
      <trkpt lat="42.78628" lon="1.84256">
        <ele>1672.83</ele>
        <time>2019-12-14T10:50:42Z</time>
      </trkpt>
      <trkpt lat="42.78628" lon="1.84255">
        <ele>1668.51</ele>
        <time>2019-12-14T10:50:43Z</time>
      </trkpt>
      <trkpt lat="42.78628" lon="1.84254">
        <ele>1673.31</ele>
        <time>2019-12-14T10:50:44Z</time>
      </trkpt>
      <trkpt lat="42.78628" lon="1.84253">
        <ele>1668.99</ele>
        <time>2019-12-14T10:50:45Z</time>
      </trkpt>
      <trkpt lat="42.78629" lon="1.84252">
        <ele>1673.31</ele>
        <time>2019-12-14T10:50:46Z</time>
      </trkpt>
      <trkpt lat="42.78629" lon="1.84251">
        <ele>1669.47</ele>
        <time>2019-12-14T10:50:47Z</time>
      </trkpt>
      <trkpt lat="42.78629" lon="1.84249">
        <ele>1669.47</ele>
        <time>2019-12-14T10:50:49Z</time>
      </trkpt>
      <trkpt lat="42.78629" lon="1.84246">
        <ele>1669.47</ele>
        <time>2019-12-14T10:50:51Z</time>
      </trkpt>
      <trkpt lat="42.78629" lon="1.84246">
        <ele>1673.31</ele>
        <time>2019-12-14T10:50:52Z</time>
      </trkpt>
      <trkpt lat="42.78629" lon="1.84244">
        <ele>1669.47</ele>
        <time>2019-12-14T10:50:55Z</time>
      </trkpt>
      <trkpt lat="42.78629" lon="1.84243">
        <ele>1673.79</ele>
        <time>2019-12-14T10:50:56Z</time>
      </trkpt>
      <trkpt lat="42.7863" lon="1.84233">
        <ele>1674.75</ele>
        <time>2019-12-14T10:51:09Z</time>
      </trkpt>
      <trkpt lat="42.78629" lon="1.8423">
        <ele>1670.91</ele>
        <time>2019-12-14T10:51:12Z</time>
      </trkpt>
      <trkpt lat="42.78629" lon="1.84228">
        <ele>1671.87</ele>
        <time>2019-12-14T10:51:14Z</time>
      </trkpt>
      <trkpt lat="42.78629" lon="1.84219">
        <ele>1673.31</ele>
        <time>2019-12-14T10:51:23Z</time>
      </trkpt>
      <trkpt lat="42.78627" lon="1.84212">
        <ele>1677.64</ele>
        <time>2019-12-14T10:51:33Z</time>
      </trkpt>
      <trkpt lat="42.78627" lon="1.84211">
        <ele>1674.27</ele>
        <time>2019-12-14T10:51:34Z</time>
      </trkpt>
      <trkpt lat="42.78627" lon="1.8421">
        <ele>1677.64</ele>
        <time>2019-12-14T10:51:35Z</time>
      </trkpt>
      <trkpt lat="42.78626" lon="1.84209">
        <ele>1673.79</ele>
        <time>2019-12-14T10:51:36Z</time>
      </trkpt>
      <trkpt lat="42.78626" lon="1.84208">
        <ele>1678.12</ele>
        <time>2019-12-14T10:51:37Z</time>
      </trkpt>
      <trkpt lat="42.78626" lon="1.84207">
        <ele>1674.75</ele>
        <time>2019-12-14T10:51:38Z</time>
      </trkpt>
      <trkpt lat="42.78625" lon="1.84205">
        <ele>1678.6</ele>
        <time>2019-12-14T10:51:41Z</time>
      </trkpt>
      <trkpt lat="42.78625" lon="1.84204">
        <ele>1675.23</ele>
        <time>2019-12-14T10:51:42Z</time>
      </trkpt>
      <trkpt lat="42.78623" lon="1.84198">
        <ele>1679.08</ele>
        <time>2019-12-14T10:51:50Z</time>
      </trkpt>
      <trkpt lat="42.78623" lon="1.84197">
        <ele>1675.23</ele>
        <time>2019-12-14T10:51:51Z</time>
      </trkpt>
      <trkpt lat="42.78623" lon="1.84196">
        <ele>1679.08</ele>
        <time>2019-12-14T10:51:52Z</time>
      </trkpt>
      <trkpt lat="42.78623" lon="1.84195">
        <ele>1676.2</ele>
        <time>2019-12-14T10:51:53Z</time>
      </trkpt>
      <trkpt lat="42.78621" lon="1.84192">
        <ele>1677.64</ele>
        <time>2019-12-14T10:51:57Z</time>
      </trkpt>
      <trkpt lat="42.78621" lon="1.84193">
        <ele>1675.23</ele>
        <time>2019-12-14T10:52:09Z</time>
      </trkpt>
      <trkpt lat="42.78621" lon="1.84192">
        <ele>1677.64</ele>
        <time>2019-12-14T10:52:12Z</time>
      </trkpt>
      <trkpt lat="42.78621" lon="1.84192">
        <ele>1680.04</ele>
        <time>2019-12-14T10:52:14Z</time>
      </trkpt>
      <trkpt lat="42.78621" lon="1.84192">
        <ele>1678.12</ele>
        <time>2019-12-14T10:52:17Z</time>
      </trkpt>
      <trkpt lat="42.78622" lon="1.84191">
        <ele>1677.64</ele>
        <time>2019-12-14T10:52:38Z</time>
      </trkpt>
      <trkpt lat="42.78621" lon="1.84194">
        <ele>1678.12</ele>
        <time>2019-12-14T10:52:53Z</time>
      </trkpt>
      <trkpt lat="42.78618" lon="1.8419">
        <ele>1677.16</ele>
        <time>2019-12-14T10:53:19Z</time>
      </trkpt>
      <trkpt lat="42.78618" lon="1.84189">
        <ele>1680.52</ele>
        <time>2019-12-14T10:53:20Z</time>
      </trkpt>
      <trkpt lat="42.78616" lon="1.84182">
        <ele>1681</ele>
        <time>2019-12-14T10:53:29Z</time>
      </trkpt>
      <trkpt lat="42.78613" lon="1.84173">
        <ele>1681.96</ele>
        <time>2019-12-14T10:53:42Z</time>
      </trkpt>
      <trkpt lat="42.78612" lon="1.84169">
        <ele>1680.52</ele>
        <time>2019-12-14T10:53:49Z</time>
      </trkpt>
      <trkpt lat="42.78611" lon="1.84166">
        <ele>1681</ele>
        <time>2019-12-14T10:53:51Z</time>
      </trkpt>
      <trkpt lat="42.78611" lon="1.84166">
        <ele>1684.37</ele>
        <time>2019-12-14T10:53:52Z</time>
      </trkpt>
      <trkpt lat="42.78608" lon="1.84161">
        <ele>1682.44</ele>
        <time>2019-12-14T10:53:58Z</time>
      </trkpt>
      <trkpt lat="42.78608" lon="1.84159">
        <ele>1682.44</ele>
        <time>2019-12-14T10:54:00Z</time>
      </trkpt>
      <trkpt lat="42.78608" lon="1.84159">
        <ele>1686.29</ele>
        <time>2019-12-14T10:54:01Z</time>
      </trkpt>
      <trkpt lat="42.78607" lon="1.84158">
        <ele>1682.44</ele>
        <time>2019-12-14T10:54:02Z</time>
      </trkpt>
      <trkpt lat="42.78607" lon="1.84159">
        <ele>1686.77</ele>
        <time>2019-12-14T10:54:03Z</time>
      </trkpt>
      <trkpt lat="42.78606" lon="1.84158">
        <ele>1683.41</ele>
        <time>2019-12-14T10:54:05Z</time>
      </trkpt>
      <trkpt lat="42.78606" lon="1.84157">
        <ele>1686.77</ele>
        <time>2019-12-14T10:54:06Z</time>
      </trkpt>
      <trkpt lat="42.78604" lon="1.84154">
        <ele>1683.41</ele>
        <time>2019-12-14T10:54:11Z</time>
      </trkpt>
      <trkpt lat="42.78603" lon="1.84154">
        <ele>1688.21</ele>
        <time>2019-12-14T10:54:12Z</time>
      </trkpt>
      <trkpt lat="42.78603" lon="1.84154">
        <ele>1683.41</ele>
        <time>2019-12-14T10:54:13Z</time>
      </trkpt>
      <trkpt lat="42.78602" lon="1.84154">
        <ele>1689.17</ele>
        <time>2019-12-14T10:54:14Z</time>
      </trkpt>
      <trkpt lat="42.78602" lon="1.84153">
        <ele>1684.85</ele>
        <time>2019-12-14T10:54:15Z</time>
      </trkpt>
      <trkpt lat="42.78601" lon="1.84153">
        <ele>1689.17</ele>
        <time>2019-12-14T10:54:16Z</time>
      </trkpt>
      <trkpt lat="42.78601" lon="1.84152">
        <ele>1685.81</ele>
        <time>2019-12-14T10:54:18Z</time>
      </trkpt>
      <trkpt lat="42.78598" lon="1.84151">
        <ele>1689.65</ele>
        <time>2019-12-14T10:54:23Z</time>
      </trkpt>
      <trkpt lat="42.78598" lon="1.8415">
        <ele>1685.33</ele>
        <time>2019-12-14T10:54:24Z</time>
      </trkpt>
      <trkpt lat="42.78597" lon="1.8415">
        <ele>1689.17</ele>
        <time>2019-12-14T10:54:25Z</time>
      </trkpt>
      <trkpt lat="42.78597" lon="1.84149">
        <ele>1685.33</ele>
        <time>2019-12-14T10:54:26Z</time>
      </trkpt>
      <trkpt lat="42.78595" lon="1.8415">
        <ele>1686.29</ele>
        <time>2019-12-14T10:54:28Z</time>
      </trkpt>
      <trkpt lat="42.78594" lon="1.8415">
        <ele>1689.17</ele>
        <time>2019-12-14T10:54:31Z</time>
      </trkpt>
      <trkpt lat="42.7859" lon="1.84148">
        <ele>1692.54</ele>
        <time>2019-12-14T10:54:41Z</time>
      </trkpt>
      <trkpt lat="42.78589" lon="1.84148">
        <ele>1688.69</ele>
        <time>2019-12-14T10:54:42Z</time>
      </trkpt>
      <trkpt lat="42.78589" lon="1.84148">
        <ele>1693.02</ele>
        <time>2019-12-14T10:54:43Z</time>
      </trkpt>
      <trkpt lat="42.78589" lon="1.84148">
        <ele>1689.17</ele>
        <time>2019-12-14T10:54:44Z</time>
      </trkpt>
      <trkpt lat="42.78588" lon="1.84148">
        <ele>1692.54</ele>
        <time>2019-12-14T10:54:45Z</time>
      </trkpt>
      <trkpt lat="42.78587" lon="1.84147">
        <ele>1688.21</ele>
        <time>2019-12-14T10:54:49Z</time>
      </trkpt>
      <trkpt lat="42.78587" lon="1.84147">
        <ele>1693.5</ele>
        <time>2019-12-14T10:54:50Z</time>
      </trkpt>
      <trkpt lat="42.78586" lon="1.84146">
        <ele>1689.17</ele>
        <time>2019-12-14T10:54:51Z</time>
      </trkpt>
      <trkpt lat="42.78586" lon="1.84146">
        <ele>1693.98</ele>
        <time>2019-12-14T10:54:52Z</time>
      </trkpt>
      <trkpt lat="42.78586" lon="1.84146">
        <ele>1690.14</ele>
        <time>2019-12-14T10:54:53Z</time>
      </trkpt>
      <trkpt lat="42.78585" lon="1.84145">
        <ele>1693.02</ele>
        <time>2019-12-14T10:54:56Z</time>
      </trkpt>
      <trkpt lat="42.78584" lon="1.84145">
        <ele>1693.02</ele>
        <time>2019-12-14T10:54:57Z</time>
      </trkpt>
      <trkpt lat="42.7858" lon="1.84143">
        <ele>1693.02</ele>
        <time>2019-12-14T10:55:06Z</time>
      </trkpt>
      <trkpt lat="42.78579" lon="1.84142">
        <ele>1695.9</ele>
        <time>2019-12-14T10:55:07Z</time>
      </trkpt>
      <trkpt lat="42.78578" lon="1.84142">
        <ele>1693.02</ele>
        <time>2019-12-14T10:55:08Z</time>
      </trkpt>
      <trkpt lat="42.78578" lon="1.84141">
        <ele>1696.86</ele>
        <time>2019-12-14T10:55:09Z</time>
      </trkpt>
      <trkpt lat="42.78577" lon="1.84141">
        <ele>1692.06</ele>
        <time>2019-12-14T10:55:10Z</time>
      </trkpt>
      <trkpt lat="42.78577" lon="1.84141">
        <ele>1697.34</ele>
        <time>2019-12-14T10:55:11Z</time>
      </trkpt>
      <trkpt lat="42.78577" lon="1.84141">
        <ele>1693.02</ele>
        <time>2019-12-14T10:55:12Z</time>
      </trkpt>
      <trkpt lat="42.78577" lon="1.84141">
        <ele>1697.34</ele>
        <time>2019-12-14T10:55:13Z</time>
      </trkpt>
      <trkpt lat="42.78576" lon="1.8414">
        <ele>1693.5</ele>
        <time>2019-12-14T10:55:14Z</time>
      </trkpt>
      <trkpt lat="42.78576" lon="1.8414">
        <ele>1697.83</ele>
        <time>2019-12-14T10:55:15Z</time>
      </trkpt>
      <trkpt lat="42.78575" lon="1.8414">
        <ele>1693.5</ele>
        <time>2019-12-14T10:55:16Z</time>
      </trkpt>
      <trkpt lat="42.78575" lon="1.8414">
        <ele>1698.31</ele>
        <time>2019-12-14T10:55:17Z</time>
      </trkpt>
      <trkpt lat="42.78574" lon="1.8414">
        <ele>1694.46</ele>
        <time>2019-12-14T10:55:18Z</time>
      </trkpt>
      <trkpt lat="42.78572" lon="1.84142">
        <ele>1698.31</ele>
        <time>2019-12-14T10:55:22Z</time>
      </trkpt>
      <trkpt lat="42.7857" lon="1.84144">
        <ele>1697.83</ele>
        <time>2019-12-14T10:55:24Z</time>
      </trkpt>
      <trkpt lat="42.78566" lon="1.84148">
        <ele>1694.46</ele>
        <time>2019-12-14T10:55:33Z</time>
      </trkpt>
      <trkpt lat="42.78565" lon="1.84149">
        <ele>1695.42</ele>
        <time>2019-12-14T10:55:35Z</time>
      </trkpt>
      <trkpt lat="42.78565" lon="1.84149">
        <ele>1699.27</ele>
        <time>2019-12-14T10:55:36Z</time>
      </trkpt>
      <trkpt lat="42.78563" lon="1.8415">
        <ele>1696.86</ele>
        <time>2019-12-14T10:55:40Z</time>
      </trkpt>
      <trkpt lat="42.78562" lon="1.84151">
        <ele>1695.9</ele>
        <time>2019-12-14T10:55:42Z</time>
      </trkpt>
      <trkpt lat="42.78562" lon="1.84151">
        <ele>1701.19</ele>
        <time>2019-12-14T10:55:43Z</time>
      </trkpt>
      <trkpt lat="42.78561" lon="1.84151">
        <ele>1695.9</ele>
        <time>2019-12-14T10:55:44Z</time>
      </trkpt>
      <trkpt lat="42.7856" lon="1.84152">
        <ele>1701.19</ele>
        <time>2019-12-14T10:55:46Z</time>
      </trkpt>
      <trkpt lat="42.7856" lon="1.84153">
        <ele>1696.86</ele>
        <time>2019-12-14T10:55:47Z</time>
      </trkpt>
      <trkpt lat="42.78559" lon="1.84153">
        <ele>1701.67</ele>
        <time>2019-12-14T10:55:48Z</time>
      </trkpt>
      <trkpt lat="42.78559" lon="1.84153">
        <ele>1697.34</ele>
        <time>2019-12-14T10:55:49Z</time>
      </trkpt>
      <trkpt lat="42.78559" lon="1.84153">
        <ele>1701.67</ele>
        <time>2019-12-14T10:55:50Z</time>
      </trkpt>
      <trkpt lat="42.78558" lon="1.84153">
        <ele>1696.86</ele>
        <time>2019-12-14T10:55:51Z</time>
      </trkpt>
      <trkpt lat="42.78558" lon="1.84153">
        <ele>1703.11</ele>
        <time>2019-12-14T10:55:52Z</time>
      </trkpt>
      <trkpt lat="42.78558" lon="1.84153">
        <ele>1698.31</ele>
        <time>2019-12-14T10:55:53Z</time>
      </trkpt>
      <trkpt lat="42.78557" lon="1.84153">
        <ele>1702.15</ele>
        <time>2019-12-14T10:55:54Z</time>
      </trkpt>
      <trkpt lat="42.78557" lon="1.84153">
        <ele>1698.31</ele>
        <time>2019-12-14T10:55:55Z</time>
      </trkpt>
      <trkpt lat="42.78556" lon="1.84153">
        <ele>1702.15</ele>
        <time>2019-12-14T10:55:56Z</time>
      </trkpt>
      <trkpt lat="42.78551" lon="1.84155">
        <ele>1699.27</ele>
        <time>2019-12-14T10:56:08Z</time>
      </trkpt>
      <trkpt lat="42.7855" lon="1.84155">
        <ele>1703.59</ele>
        <time>2019-12-14T10:56:09Z</time>
      </trkpt>
      <trkpt lat="42.7855" lon="1.84155">
        <ele>1700.71</ele>
        <time>2019-12-14T10:56:11Z</time>
      </trkpt>
      <trkpt lat="42.78549" lon="1.84155">
        <ele>1704.55</ele>
        <time>2019-12-14T10:56:12Z</time>
      </trkpt>
      <trkpt lat="42.78549" lon="1.84156">
        <ele>1700.71</ele>
        <time>2019-12-14T10:56:13Z</time>
      </trkpt>
      <trkpt lat="42.78549" lon="1.84155">
        <ele>1704.07</ele>
        <time>2019-12-14T10:56:14Z</time>
      </trkpt>
      <trkpt lat="42.78548" lon="1.84156">
        <ele>1700.23</ele>
        <time>2019-12-14T10:56:15Z</time>
      </trkpt>
      <trkpt lat="42.78548" lon="1.84156">
        <ele>1705.04</ele>
        <time>2019-12-14T10:56:16Z</time>
      </trkpt>
      <trkpt lat="42.78547" lon="1.84156">
        <ele>1701.67</ele>
        <time>2019-12-14T10:56:17Z</time>
      </trkpt>
      <trkpt lat="42.78547" lon="1.84156">
        <ele>1705.04</ele>
        <time>2019-12-14T10:56:22Z</time>
      </trkpt>
      <trkpt lat="42.78546" lon="1.84157">
        <ele>1703.11</ele>
        <time>2019-12-14T10:56:45Z</time>
      </trkpt>
      <trkpt lat="42.78548" lon="1.84158">
        <ele>1704.55</ele>
        <time>2019-12-14T10:57:15Z</time>
      </trkpt>
      <trkpt lat="42.78549" lon="1.84157">
        <ele>1703.11</ele>
        <time>2019-12-14T10:57:42Z</time>
      </trkpt>
      <trkpt lat="42.78549" lon="1.84157">
        <ele>1703.11</ele>
        <time>2019-12-14T10:57:43Z</time>
      </trkpt>
      <trkpt lat="42.78549" lon="1.84156">
        <ele>1702.63</ele>
        <time>2019-12-14T10:58:02Z</time>
      </trkpt>
      <trkpt lat="42.78545" lon="1.84154">
        <ele>1703.11</ele>
        <time>2019-12-14T10:58:30Z</time>
      </trkpt>
      <trkpt lat="42.78543" lon="1.84155">
        <ele>1704.55</ele>
        <time>2019-12-14T10:58:33Z</time>
      </trkpt>
      <trkpt lat="42.78541" lon="1.84156">
        <ele>1702.63</ele>
        <time>2019-12-14T10:58:35Z</time>
      </trkpt>
      <trkpt lat="42.78539" lon="1.84157">
        <ele>1701.67</ele>
        <time>2019-12-14T10:58:37Z</time>
      </trkpt>
      <trkpt lat="42.78538" lon="1.84158">
        <ele>1705.04</ele>
        <time>2019-12-14T10:58:38Z</time>
      </trkpt>
      <trkpt lat="42.78536" lon="1.84159">
        <ele>1703.11</ele>
        <time>2019-12-14T10:58:40Z</time>
      </trkpt>
      <trkpt lat="42.78534" lon="1.84159">
        <ele>1701.67</ele>
        <time>2019-12-14T10:58:48Z</time>
      </trkpt>
      <trkpt lat="42.78533" lon="1.84159">
        <ele>1705.52</ele>
        <time>2019-12-14T10:58:50Z</time>
      </trkpt>
      <trkpt lat="42.78534" lon="1.84158">
        <ele>1708.4</ele>
        <time>2019-12-14T10:58:55Z</time>
      </trkpt>
      <trkpt lat="42.78534" lon="1.84158">
        <ele>1706</ele>
        <time>2019-12-14T10:58:56Z</time>
      </trkpt>
      <trkpt lat="42.78535" lon="1.84158">
        <ele>1705.04</ele>
        <time>2019-12-14T10:58:58Z</time>
      </trkpt>
      <trkpt lat="42.78535" lon="1.84159">
        <ele>1706.48</ele>
        <time>2019-12-14T10:59:06Z</time>
      </trkpt>
      <trkpt lat="42.78528" lon="1.8416">
        <ele>1704.55</ele>
        <time>2019-12-14T10:59:24Z</time>
      </trkpt>
      <trkpt lat="42.78522" lon="1.84163">
        <ele>1704.07</ele>
        <time>2019-12-14T10:59:30Z</time>
      </trkpt>
      <trkpt lat="42.78517" lon="1.84166">
        <ele>1702.63</ele>
        <time>2019-12-14T10:59:37Z</time>
      </trkpt>
      <trkpt lat="42.78507" lon="1.84169">
        <ele>1700.71</ele>
        <time>2019-12-14T10:59:49Z</time>
      </trkpt>
      <trkpt lat="42.78503" lon="1.84173">
        <ele>1696.86</ele>
        <time>2019-12-14T10:59:54Z</time>
      </trkpt>
      <trkpt lat="42.78498" lon="1.84176">
        <ele>1694.94</ele>
        <time>2019-12-14T10:59:58Z</time>
      </trkpt>
      <trkpt lat="42.78492" lon="1.84179">
        <ele>1692.06</ele>
        <time>2019-12-14T11:00:04Z</time>
      </trkpt>
      <trkpt lat="42.7849" lon="1.84179">
        <ele>1692.06</ele>
        <time>2019-12-14T11:00:13Z</time>
      </trkpt>
      <trkpt lat="42.78491" lon="1.84175">
        <ele>1692.06</ele>
        <time>2019-12-14T11:00:37Z</time>
      </trkpt>
      <trkpt lat="42.78493" lon="1.84176">
        <ele>1691.1</ele>
        <time>2019-12-14T11:01:01Z</time>
      </trkpt>
      <trkpt lat="42.78488" lon="1.84175">
        <ele>1690.14</ele>
        <time>2019-12-14T11:01:15Z</time>
      </trkpt>
      <trkpt lat="42.78476" lon="1.84181">
        <ele>1689.65</ele>
        <time>2019-12-14T11:01:26Z</time>
      </trkpt>
      <trkpt lat="42.78467" lon="1.84184">
        <ele>1688.21</ele>
        <time>2019-12-14T11:01:36Z</time>
      </trkpt>
      <trkpt lat="42.78458" lon="1.84186">
        <ele>1686.77</ele>
        <time>2019-12-14T11:01:46Z</time>
      </trkpt>
      <trkpt lat="42.78449" lon="1.84189">
        <ele>1686.77</ele>
        <time>2019-12-14T11:01:57Z</time>
      </trkpt>
      <trkpt lat="42.78442" lon="1.84193">
        <ele>1688.21</ele>
        <time>2019-12-14T11:02:08Z</time>
      </trkpt>
      <trkpt lat="42.78439" lon="1.84193">
        <ele>1688.21</ele>
        <time>2019-12-14T11:02:23Z</time>
      </trkpt>
      <trkpt lat="42.78439" lon="1.84194">
        <ele>1688.21</ele>
        <time>2019-12-14T11:02:54Z</time>
      </trkpt>
      <trkpt lat="42.78439" lon="1.84193">
        <ele>1689.17</ele>
        <time>2019-12-14T11:02:58Z</time>
      </trkpt>
      <trkpt lat="42.78433" lon="1.84195">
        <ele>1687.25</ele>
        <time>2019-12-14T11:03:06Z</time>
      </trkpt>
      <trkpt lat="42.78426" lon="1.84193">
        <ele>1686.29</ele>
        <time>2019-12-14T11:03:16Z</time>
      </trkpt>
      <trkpt lat="42.78424" lon="1.84193">
        <ele>1686.29</ele>
        <time>2019-12-14T11:03:18Z</time>
      </trkpt>
      <trkpt lat="42.7842" lon="1.84191">
        <ele>1685.81</ele>
        <time>2019-12-14T11:03:23Z</time>
      </trkpt>
      <trkpt lat="42.78419" lon="1.8419">
        <ele>1689.17</ele>
        <time>2019-12-14T11:03:25Z</time>
      </trkpt>
      <trkpt lat="42.78418" lon="1.8419">
        <ele>1686.77</ele>
        <time>2019-12-14T11:03:26Z</time>
      </trkpt>
      <trkpt lat="42.78416" lon="1.84188">
        <ele>1684.85</ele>
        <time>2019-12-14T11:03:31Z</time>
      </trkpt>
      <trkpt lat="42.78413" lon="1.84188">
        <ele>1685.81</ele>
        <time>2019-12-14T11:03:34Z</time>
      </trkpt>
      <trkpt lat="42.78411" lon="1.84187">
        <ele>1687.73</ele>
        <time>2019-12-14T11:03:36Z</time>
      </trkpt>
      <trkpt lat="42.78409" lon="1.84186">
        <ele>1685.33</ele>
        <time>2019-12-14T11:03:39Z</time>
      </trkpt>
      <trkpt lat="42.78407" lon="1.84186">
        <ele>1684.85</ele>
        <time>2019-12-14T11:03:42Z</time>
      </trkpt>
      <trkpt lat="42.78403" lon="1.84185">
        <ele>1687.25</ele>
        <time>2019-12-14T11:03:48Z</time>
      </trkpt>
      <trkpt lat="42.78396" lon="1.84183">
        <ele>1683.41</ele>
        <time>2019-12-14T11:03:59Z</time>
      </trkpt>
      <trkpt lat="42.78394" lon="1.84182">
        <ele>1683.89</ele>
        <time>2019-12-14T11:04:02Z</time>
      </trkpt>
      <trkpt lat="42.7839" lon="1.84182">
        <ele>1681.96</ele>
        <time>2019-12-14T11:04:07Z</time>
      </trkpt>
      <trkpt lat="42.78388" lon="1.84182">
        <ele>1681.96</ele>
        <time>2019-12-14T11:04:09Z</time>
      </trkpt>
      <trkpt lat="42.78383" lon="1.84183">
        <ele>1682.44</ele>
        <time>2019-12-14T11:04:21Z</time>
      </trkpt>
      <trkpt lat="42.7838" lon="1.84181">
        <ele>1680.52</ele>
        <time>2019-12-14T11:04:26Z</time>
      </trkpt>
      <trkpt lat="42.78374" lon="1.84178">
        <ele>1680.52</ele>
        <time>2019-12-14T11:04:34Z</time>
      </trkpt>
      <trkpt lat="42.78371" lon="1.84175">
        <ele>1679.56</ele>
        <time>2019-12-14T11:04:43Z</time>
      </trkpt>
      <trkpt lat="42.78368" lon="1.84169">
        <ele>1680.04</ele>
        <time>2019-12-14T11:04:52Z</time>
      </trkpt>
      <trkpt lat="42.78364" lon="1.84165">
        <ele>1678.12</ele>
        <time>2019-12-14T11:04:59Z</time>
      </trkpt>
      <trkpt lat="42.78363" lon="1.84163">
        <ele>1677.64</ele>
        <time>2019-12-14T11:05:03Z</time>
      </trkpt>
      <trkpt lat="42.78363" lon="1.84163">
        <ele>1681</ele>
        <time>2019-12-14T11:05:04Z</time>
      </trkpt>
      <trkpt lat="42.78362" lon="1.84162">
        <ele>1677.64</ele>
        <time>2019-12-14T11:05:06Z</time>
      </trkpt>
      <trkpt lat="42.7836" lon="1.84161">
        <ele>1679.56</ele>
        <time>2019-12-14T11:05:10Z</time>
      </trkpt>
      <trkpt lat="42.78357" lon="1.84159">
        <ele>1678.6</ele>
        <time>2019-12-14T11:05:19Z</time>
      </trkpt>
      <trkpt lat="42.78357" lon="1.84159">
        <ele>1678.12</ele>
        <time>2019-12-14T11:05:36Z</time>
      </trkpt>
      <trkpt lat="42.78351" lon="1.84159">
        <ele>1678.6</ele>
        <time>2019-12-14T11:05:47Z</time>
      </trkpt>
      <trkpt lat="42.78345" lon="1.84157">
        <ele>1675.23</ele>
        <time>2019-12-14T11:05:58Z</time>
      </trkpt>
      <trkpt lat="42.78343" lon="1.84154">
        <ele>1673.79</ele>
        <time>2019-12-14T11:06:05Z</time>
      </trkpt>
      <trkpt lat="42.78341" lon="1.84152">
        <ele>1674.27</ele>
        <time>2019-12-14T11:06:07Z</time>
      </trkpt>
      <trkpt lat="42.78341" lon="1.8415">
        <ele>1675.23</ele>
        <time>2019-12-14T11:06:09Z</time>
      </trkpt>
      <trkpt lat="42.78339" lon="1.84147">
        <ele>1676.2</ele>
        <time>2019-12-14T11:06:14Z</time>
      </trkpt>
      <trkpt lat="42.78337" lon="1.84145">
        <ele>1674.75</ele>
        <time>2019-12-14T11:06:17Z</time>
      </trkpt>
      <trkpt lat="42.78332" lon="1.84139">
        <ele>1674.75</ele>
        <time>2019-12-14T11:06:27Z</time>
      </trkpt>
      <trkpt lat="42.78334" lon="1.84137">
        <ele>1675.23</ele>
        <time>2019-12-14T11:06:49Z</time>
      </trkpt>
      <trkpt lat="42.78329" lon="1.84133">
        <ele>1674.75</ele>
        <time>2019-12-14T11:07:06Z</time>
      </trkpt>
      <trkpt lat="42.78321" lon="1.84129">
        <ele>1675.72</ele>
        <time>2019-12-14T11:07:14Z</time>
      </trkpt>
      <trkpt lat="42.78319" lon="1.84128">
        <ele>1674.27</ele>
        <time>2019-12-14T11:07:18Z</time>
      </trkpt>
      <trkpt lat="42.78313" lon="1.84125">
        <ele>1676.2</ele>
        <time>2019-12-14T11:07:25Z</time>
      </trkpt>
      <trkpt lat="42.78309" lon="1.84123">
        <ele>1676.68</ele>
        <time>2019-12-14T11:07:30Z</time>
      </trkpt>
      <trkpt lat="42.78301" lon="1.84122">
        <ele>1677.16</ele>
        <time>2019-12-14T11:07:39Z</time>
      </trkpt>
      <trkpt lat="42.78303" lon="1.84125">
        <ele>1675.72</ele>
        <time>2019-12-14T11:07:55Z</time>
      </trkpt>
      <trkpt lat="42.78302" lon="1.84127">
        <ele>1675.72</ele>
        <time>2019-12-14T11:08:12Z</time>
      </trkpt>
      <trkpt lat="42.78303" lon="1.84127">
        <ele>1675.72</ele>
        <time>2019-12-14T11:08:32Z</time>
      </trkpt>
      <trkpt lat="42.78302" lon="1.84126">
        <ele>1676.68</ele>
        <time>2019-12-14T11:08:41Z</time>
      </trkpt>
      <trkpt lat="42.78302" lon="1.84126">
        <ele>1675.23</ele>
        <time>2019-12-14T11:09:02Z</time>
      </trkpt>
      <trkpt lat="42.78303" lon="1.84127">
        <ele>1675.23</ele>
        <time>2019-12-14T11:09:28Z</time>
      </trkpt>
      <trkpt lat="42.78304" lon="1.84126">
        <ele>1675.23</ele>
        <time>2019-12-14T11:09:49Z</time>
      </trkpt>
      <trkpt lat="42.78304" lon="1.84126">
        <ele>1675.23</ele>
        <time>2019-12-14T11:10:10Z</time>
      </trkpt>
      <trkpt lat="42.78306" lon="1.84126">
        <ele>1675.23</ele>
        <time>2019-12-14T11:10:35Z</time>
      </trkpt>
      <trkpt lat="42.78305" lon="1.84125">
        <ele>1675.72</ele>
        <time>2019-12-14T11:11:01Z</time>
      </trkpt>
      <trkpt lat="42.78305" lon="1.84126">
        <ele>1675.72</ele>
        <time>2019-12-14T11:11:23Z</time>
      </trkpt>
      <trkpt lat="42.78304" lon="1.84125">
        <ele>1675.72</ele>
        <time>2019-12-14T11:12:00Z</time>
      </trkpt>
      <trkpt lat="42.78303" lon="1.84125">
        <ele>1675.23</ele>
        <time>2019-12-14T11:12:13Z</time>
      </trkpt>
      <trkpt lat="42.78301" lon="1.84125">
        <ele>1674.27</ele>
        <time>2019-12-14T11:12:16Z</time>
      </trkpt>
      <trkpt lat="42.78296" lon="1.84122">
        <ele>1674.27</ele>
        <time>2019-12-14T11:12:22Z</time>
      </trkpt>
      <trkpt lat="42.78293" lon="1.84119">
        <ele>1675.23</ele>
        <time>2019-12-14T11:12:25Z</time>
      </trkpt>
      <trkpt lat="42.7829" lon="1.84117">
        <ele>1676.68</ele>
        <time>2019-12-14T11:12:29Z</time>
      </trkpt>
      <trkpt lat="42.7829" lon="1.84116">
        <ele>1675.23</ele>
        <time>2019-12-14T11:12:30Z</time>
      </trkpt>
      <trkpt lat="42.78279" lon="1.84118">
        <ele>1674.27</ele>
        <time>2019-12-14T11:12:41Z</time>
      </trkpt>
      <trkpt lat="42.78273" lon="1.84119">
        <ele>1673.31</ele>
        <time>2019-12-14T11:12:48Z</time>
      </trkpt>
      <trkpt lat="42.78271" lon="1.84119">
        <ele>1672.35</ele>
        <time>2019-12-14T11:12:51Z</time>
      </trkpt>
      <trkpt lat="42.78267" lon="1.84118">
        <ele>1672.35</ele>
        <time>2019-12-14T11:12:54Z</time>
      </trkpt>
      <trkpt lat="42.78256" lon="1.84118">
        <ele>1672.35</ele>
        <time>2019-12-14T11:13:05Z</time>
      </trkpt>
      <trkpt lat="42.78254" lon="1.84118">
        <ele>1671.39</ele>
        <time>2019-12-14T11:13:08Z</time>
      </trkpt>
      <trkpt lat="42.78247" lon="1.84117">
        <ele>1671.87</ele>
        <time>2019-12-14T11:13:16Z</time>
      </trkpt>
      <trkpt lat="42.78244" lon="1.84115">
        <ele>1671.87</ele>
        <time>2019-12-14T11:13:20Z</time>
      </trkpt>
      <trkpt lat="42.78236" lon="1.8411">
        <ele>1672.83</ele>
        <time>2019-12-14T11:13:30Z</time>
      </trkpt>
      <trkpt lat="42.78228" lon="1.84106">
        <ele>1673.31</ele>
        <time>2019-12-14T11:13:40Z</time>
      </trkpt>
      <trkpt lat="42.78224" lon="1.84103">
        <ele>1671.87</ele>
        <time>2019-12-14T11:13:46Z</time>
      </trkpt>
      <trkpt lat="42.78218" lon="1.84101">
        <ele>1674.27</ele>
        <time>2019-12-14T11:13:54Z</time>
      </trkpt>
      <trkpt lat="42.78217" lon="1.841">
        <ele>1673.79</ele>
        <time>2019-12-14T11:13:56Z</time>
      </trkpt>
      <trkpt lat="42.78215" lon="1.84098">
        <ele>1671.87</ele>
        <time>2019-12-14T11:13:59Z</time>
      </trkpt>
      <trkpt lat="42.78212" lon="1.84092">
        <ele>1672.83</ele>
        <time>2019-12-14T11:14:06Z</time>
      </trkpt>
      <trkpt lat="42.78209" lon="1.84086">
        <ele>1674.75</ele>
        <time>2019-12-14T11:14:16Z</time>
      </trkpt>
      <trkpt lat="42.78211" lon="1.84085">
        <ele>1675.23</ele>
        <time>2019-12-14T11:14:46Z</time>
      </trkpt>
      <trkpt lat="42.78204" lon="1.8408">
        <ele>1675.72</ele>
        <time>2019-12-14T11:15:02Z</time>
      </trkpt>
      <trkpt lat="42.782" lon="1.84073">
        <ele>1677.64</ele>
        <time>2019-12-14T11:15:14Z</time>
      </trkpt>
      <trkpt lat="42.78198" lon="1.8407">
        <ele>1679.08</ele>
        <time>2019-12-14T11:15:20Z</time>
      </trkpt>
      <trkpt lat="42.78197" lon="1.84069">
        <ele>1677.64</ele>
        <time>2019-12-14T11:15:21Z</time>
      </trkpt>
      <trkpt lat="42.78193" lon="1.84061">
        <ele>1679.56</ele>
        <time>2019-12-14T11:15:32Z</time>
      </trkpt>
      <trkpt lat="42.78192" lon="1.84057">
        <ele>1681</ele>
        <time>2019-12-14T11:15:43Z</time>
      </trkpt>
      <trkpt lat="42.78193" lon="1.84056">
        <ele>1679.08</ele>
        <time>2019-12-14T11:15:55Z</time>
      </trkpt>
      <trkpt lat="42.78193" lon="1.84056">
        <ele>1680.52</ele>
        <time>2019-12-14T11:15:57Z</time>
      </trkpt>
      <trkpt lat="42.78192" lon="1.84056">
        <ele>1680.52</ele>
        <time>2019-12-14T11:16:21Z</time>
      </trkpt>
      <trkpt lat="42.78192" lon="1.84056">
        <ele>1680.52</ele>
        <time>2019-12-14T11:16:48Z</time>
      </trkpt>
      <trkpt lat="42.78193" lon="1.84051">
        <ele>1682.44</ele>
        <time>2019-12-14T11:17:21Z</time>
      </trkpt>
      <trkpt lat="42.78193" lon="1.84044">
        <ele>1683.41</ele>
        <time>2019-12-14T11:17:32Z</time>
      </trkpt>
      <trkpt lat="42.78194" lon="1.84037">
        <ele>1684.85</ele>
        <time>2019-12-14T11:17:40Z</time>
      </trkpt>
      <trkpt lat="42.78195" lon="1.84034">
        <ele>1684.85</ele>
        <time>2019-12-14T11:17:43Z</time>
      </trkpt>
      <trkpt lat="42.78195" lon="1.84025">
        <ele>1685.33</ele>
        <time>2019-12-14T11:17:54Z</time>
      </trkpt>
      <trkpt lat="42.78196" lon="1.84018">
        <ele>1688.69</ele>
        <time>2019-12-14T11:18:03Z</time>
      </trkpt>
      <trkpt lat="42.78198" lon="1.84008">
        <ele>1688.21</ele>
        <time>2019-12-14T11:18:15Z</time>
      </trkpt>
      <trkpt lat="42.78198" lon="1.84004">
        <ele>1689.65</ele>
        <time>2019-12-14T11:18:21Z</time>
      </trkpt>
      <trkpt lat="42.78192" lon="1.83998">
        <ele>1689.65</ele>
        <time>2019-12-14T11:18:32Z</time>
      </trkpt>
      <trkpt lat="42.78192" lon="1.83997">
        <ele>1692.54</ele>
        <time>2019-12-14T11:18:34Z</time>
      </trkpt>
      <trkpt lat="42.7819" lon="1.83997">
        <ele>1692.54</ele>
        <time>2019-12-14T11:18:37Z</time>
      </trkpt>
      <trkpt lat="42.78188" lon="1.83997">
        <ele>1691.58</ele>
        <time>2019-12-14T11:18:40Z</time>
      </trkpt>
      <trkpt lat="42.78181" lon="1.83996">
        <ele>1695.9</ele>
        <time>2019-12-14T11:18:51Z</time>
      </trkpt>
      <trkpt lat="42.78176" lon="1.83997">
        <ele>1697.83</ele>
        <time>2019-12-14T11:19:01Z</time>
      </trkpt>
      <trkpt lat="42.7817" lon="1.83997">
        <ele>1698.31</ele>
        <time>2019-12-14T11:19:10Z</time>
      </trkpt>
      <trkpt lat="42.78168" lon="1.83996">
        <ele>1699.27</ele>
        <time>2019-12-14T11:19:13Z</time>
      </trkpt>
      <trkpt lat="42.78167" lon="1.83989">
        <ele>1699.27</ele>
        <time>2019-12-14T11:19:24Z</time>
      </trkpt>
      <trkpt lat="42.78166" lon="1.83981">
        <ele>1700.71</ele>
        <time>2019-12-14T11:19:34Z</time>
      </trkpt>
      <trkpt lat="42.78167" lon="1.83979">
        <ele>1702.15</ele>
        <time>2019-12-14T11:19:39Z</time>
      </trkpt>
      <trkpt lat="42.78164" lon="1.83974">
        <ele>1702.63</ele>
        <time>2019-12-14T11:19:47Z</time>
      </trkpt>
      <trkpt lat="42.78162" lon="1.83966">
        <ele>1704.55</ele>
        <time>2019-12-14T11:19:57Z</time>
      </trkpt>
      <trkpt lat="42.78163" lon="1.83958">
        <ele>1705.04</ele>
        <time>2019-12-14T11:20:08Z</time>
      </trkpt>
      <trkpt lat="42.78163" lon="1.83954">
        <ele>1706.48</ele>
        <time>2019-12-14T11:20:17Z</time>
      </trkpt>
      <trkpt lat="42.78163" lon="1.83947">
        <ele>1709.84</ele>
        <time>2019-12-14T11:20:25Z</time>
      </trkpt>
      <trkpt lat="42.78163" lon="1.83945">
        <ele>1707.92</ele>
        <time>2019-12-14T11:20:28Z</time>
      </trkpt>
      <trkpt lat="42.78163" lon="1.83936">
        <ele>1712.73</ele>
        <time>2019-12-14T11:20:39Z</time>
      </trkpt>
      <trkpt lat="42.78163" lon="1.83931">
        <ele>1713.21</ele>
        <time>2019-12-14T11:20:45Z</time>
      </trkpt>
      <trkpt lat="42.78163" lon="1.83929">
        <ele>1716.57</ele>
        <time>2019-12-14T11:20:49Z</time>
      </trkpt>
      <trkpt lat="42.78163" lon="1.83922">
        <ele>1717.05</ele>
        <time>2019-12-14T11:20:58Z</time>
      </trkpt>
      <trkpt lat="42.78164" lon="1.83916">
        <ele>1719.94</ele>
        <time>2019-12-14T11:21:05Z</time>
      </trkpt>
      <trkpt lat="42.78166" lon="1.83911">
        <ele>1719.46</ele>
        <time>2019-12-14T11:21:13Z</time>
      </trkpt>
      <trkpt lat="42.78168" lon="1.83904">
        <ele>1723.78</ele>
        <time>2019-12-14T11:21:24Z</time>
      </trkpt>
      <trkpt lat="42.78171" lon="1.83901">
        <ele>1723.78</ele>
        <time>2019-12-14T11:21:42Z</time>
      </trkpt>
      <trkpt lat="42.78172" lon="1.83894">
        <ele>1725.7</ele>
        <time>2019-12-14T11:21:51Z</time>
      </trkpt>
      <trkpt lat="42.78172" lon="1.83893">
        <ele>1726.67</ele>
        <time>2019-12-14T11:21:54Z</time>
      </trkpt>
      <trkpt lat="42.78173" lon="1.83889">
        <ele>1725.7</ele>
        <time>2019-12-14T11:21:59Z</time>
      </trkpt>
      <trkpt lat="42.78175" lon="1.83886">
        <ele>1729.07</ele>
        <time>2019-12-14T11:22:05Z</time>
      </trkpt>
      <trkpt lat="42.78176" lon="1.83884">
        <ele>1729.07</ele>
        <time>2019-12-14T11:22:09Z</time>
      </trkpt>
      <trkpt lat="42.7818" lon="1.83876">
        <ele>1731.47</ele>
        <time>2019-12-14T11:22:22Z</time>
      </trkpt>
      <trkpt lat="42.78185" lon="1.83869">
        <ele>1734.36</ele>
        <time>2019-12-14T11:22:34Z</time>
      </trkpt>
      <trkpt lat="42.78186" lon="1.83866">
        <ele>1731.47</ele>
        <time>2019-12-14T11:22:37Z</time>
      </trkpt>
      <trkpt lat="42.78187" lon="1.83864">
        <ele>1731.95</ele>
        <time>2019-12-14T11:22:39Z</time>
      </trkpt>
      <trkpt lat="42.78187" lon="1.83864">
        <ele>1735.32</ele>
        <time>2019-12-14T11:22:40Z</time>
      </trkpt>
      <trkpt lat="42.78187" lon="1.83863">
        <ele>1731.95</ele>
        <time>2019-12-14T11:22:41Z</time>
      </trkpt>
      <trkpt lat="42.78187" lon="1.83863">
        <ele>1735.8</ele>
        <time>2019-12-14T11:22:42Z</time>
      </trkpt>
      <trkpt lat="42.78188" lon="1.83862">
        <ele>1731.95</ele>
        <time>2019-12-14T11:22:43Z</time>
      </trkpt>
      <trkpt lat="42.78188" lon="1.83862">
        <ele>1736.28</ele>
        <time>2019-12-14T11:22:44Z</time>
      </trkpt>
      <trkpt lat="42.78188" lon="1.83862">
        <ele>1732.91</ele>
        <time>2019-12-14T11:22:45Z</time>
      </trkpt>
      <trkpt lat="42.78188" lon="1.83861">
        <ele>1737.24</ele>
        <time>2019-12-14T11:22:46Z</time>
      </trkpt>
      <trkpt lat="42.7819" lon="1.83855">
        <ele>1737.24</ele>
        <time>2019-12-14T11:22:58Z</time>
      </trkpt>
      <trkpt lat="42.78194" lon="1.83854">
        <ele>1739.16</ele>
        <time>2019-12-14T11:23:08Z</time>
      </trkpt>
      <trkpt lat="42.78195" lon="1.83855">
        <ele>1737.72</ele>
        <time>2019-12-14T11:23:20Z</time>
      </trkpt>
      <trkpt lat="42.78195" lon="1.83856">
        <ele>1736.28</ele>
        <time>2019-12-14T11:23:44Z</time>
      </trkpt>
      <trkpt lat="42.78196" lon="1.83857">
        <ele>1737.72</ele>
        <time>2019-12-14T11:23:48Z</time>
      </trkpt>
      <trkpt lat="42.78197" lon="1.83859">
        <ele>1736.28</ele>
        <time>2019-12-14T11:24:00Z</time>
      </trkpt>
      <trkpt lat="42.78197" lon="1.83858">
        <ele>1738.2</ele>
        <time>2019-12-14T11:24:04Z</time>
      </trkpt>
      <trkpt lat="42.78197" lon="1.83855">
        <ele>1736.76</ele>
        <time>2019-12-14T11:24:22Z</time>
      </trkpt>
      <trkpt lat="42.78198" lon="1.83853">
        <ele>1738.2</ele>
        <time>2019-12-14T11:24:24Z</time>
      </trkpt>
      <trkpt lat="42.78202" lon="1.83847">
        <ele>1741.08</ele>
        <time>2019-12-14T11:24:31Z</time>
      </trkpt>
      <trkpt lat="42.78204" lon="1.83844">
        <ele>1742.05</ele>
        <time>2019-12-14T11:24:35Z</time>
      </trkpt>
      <trkpt lat="42.78207" lon="1.83842">
        <ele>1741.08</ele>
        <time>2019-12-14T11:24:40Z</time>
      </trkpt>
      <trkpt lat="42.78208" lon="1.83841">
        <ele>1743.01</ele>
        <time>2019-12-14T11:24:42Z</time>
      </trkpt>
      <trkpt lat="42.78209" lon="1.83841">
        <ele>1743.49</ele>
        <time>2019-12-14T11:24:44Z</time>
      </trkpt>
      <trkpt lat="42.7821" lon="1.83838">
        <ele>1743.97</ele>
        <time>2019-12-14T11:25:01Z</time>
      </trkpt>
      <trkpt lat="42.7821" lon="1.83838">
        <ele>1743.97</ele>
        <time>2019-12-14T11:25:02Z</time>
      </trkpt>
      <trkpt lat="42.7821" lon="1.83839">
        <ele>1739.64</ele>
        <time>2019-12-14T11:25:20Z</time>
      </trkpt>
      <trkpt lat="42.7821" lon="1.83839">
        <ele>1746.85</ele>
        <time>2019-12-14T11:25:21Z</time>
      </trkpt>
      <trkpt lat="42.7821" lon="1.83839">
        <ele>1743.97</ele>
        <time>2019-12-14T11:25:22Z</time>
      </trkpt>
      <trkpt lat="42.78209" lon="1.83838">
        <ele>1743.49</ele>
        <time>2019-12-14T11:25:52Z</time>
      </trkpt>
      <trkpt lat="42.7821" lon="1.83839">
        <ele>1741.57</ele>
        <time>2019-12-14T11:26:09Z</time>
      </trkpt>
      <trkpt lat="42.7821" lon="1.83839">
        <ele>1743.97</ele>
        <time>2019-12-14T11:26:12Z</time>
      </trkpt>
      <trkpt lat="42.7821" lon="1.83839">
        <ele>1742.53</ele>
        <time>2019-12-14T11:26:28Z</time>
      </trkpt>
      <trkpt lat="42.7821" lon="1.8384">
        <ele>1744.93</ele>
        <time>2019-12-14T11:26:43Z</time>
      </trkpt>
      <trkpt lat="42.78209" lon="1.8384">
        <ele>1743.01</ele>
        <time>2019-12-14T11:26:47Z</time>
      </trkpt>
      <trkpt lat="42.78209" lon="1.83841">
        <ele>1742.53</ele>
        <time>2019-12-14T11:27:26Z</time>
      </trkpt>
      <trkpt lat="42.78209" lon="1.83841">
        <ele>1742.05</ele>
        <time>2019-12-14T11:27:43Z</time>
      </trkpt>
      <trkpt lat="42.78211" lon="1.83841">
        <ele>1743.97</ele>
        <time>2019-12-14T11:27:45Z</time>
      </trkpt>
      <trkpt lat="42.78213" lon="1.8384">
        <ele>1745.41</ele>
        <time>2019-12-14T11:27:48Z</time>
      </trkpt>
      <trkpt lat="42.78221" lon="1.83835">
        <ele>1746.37</ele>
        <time>2019-12-14T11:27:58Z</time>
      </trkpt>
      <trkpt lat="42.78223" lon="1.83833">
        <ele>1747.81</ele>
        <time>2019-12-14T11:28:00Z</time>
      </trkpt>
      <trkpt lat="42.78229" lon="1.83829">
        <ele>1748.29</ele>
        <time>2019-12-14T11:28:09Z</time>
      </trkpt>
      <trkpt lat="42.78231" lon="1.83827">
        <ele>1749.26</ele>
        <time>2019-12-14T11:28:13Z</time>
      </trkpt>
      <trkpt lat="42.78233" lon="1.83826">
        <ele>1750.22</ele>
        <time>2019-12-14T11:28:16Z</time>
      </trkpt>
      <trkpt lat="42.78234" lon="1.83825">
        <ele>1751.18</ele>
        <time>2019-12-14T11:28:19Z</time>
      </trkpt>
      <trkpt lat="42.78237" lon="1.83822">
        <ele>1752.62</ele>
        <time>2019-12-14T11:28:24Z</time>
      </trkpt>
      <trkpt lat="42.78241" lon="1.8382">
        <ele>1752.62</ele>
        <time>2019-12-14T11:28:32Z</time>
      </trkpt>
      <trkpt lat="42.78243" lon="1.83817">
        <ele>1753.58</ele>
        <time>2019-12-14T11:28:37Z</time>
      </trkpt>
      <trkpt lat="42.78246" lon="1.83813">
        <ele>1754.06</ele>
        <time>2019-12-14T11:28:44Z</time>
      </trkpt>
      <trkpt lat="42.78249" lon="1.83808">
        <ele>1758.39</ele>
        <time>2019-12-14T11:28:53Z</time>
      </trkpt>
      <trkpt lat="42.78253" lon="1.83805">
        <ele>1760.31</ele>
        <time>2019-12-14T11:29:03Z</time>
      </trkpt>
      <trkpt lat="42.78258" lon="1.83804">
        <ele>1759.83</ele>
        <time>2019-12-14T11:29:11Z</time>
      </trkpt>
      <trkpt lat="42.7826" lon="1.83803">
        <ele>1761.75</ele>
        <time>2019-12-14T11:29:14Z</time>
      </trkpt>
      <trkpt lat="42.78266" lon="1.838">
        <ele>1762.71</ele>
        <time>2019-12-14T11:29:25Z</time>
      </trkpt>
      <trkpt lat="42.78271" lon="1.83802">
        <ele>1764.64</ele>
        <time>2019-12-14T11:29:34Z</time>
      </trkpt>
      <trkpt lat="42.78276" lon="1.83801">
        <ele>1765.6</ele>
        <time>2019-12-14T11:29:42Z</time>
      </trkpt>
      <trkpt lat="42.7828" lon="1.83799">
        <ele>1767.52</ele>
        <time>2019-12-14T11:29:52Z</time>
      </trkpt>
      <trkpt lat="42.78282" lon="1.83798">
        <ele>1767.04</ele>
        <time>2019-12-14T11:30:12Z</time>
      </trkpt>
      <trkpt lat="42.78282" lon="1.83799">
        <ele>1767.04</ele>
        <time>2019-12-14T11:30:38Z</time>
      </trkpt>
      <trkpt lat="42.78285" lon="1.83798">
        <ele>1768</ele>
        <time>2019-12-14T11:31:12Z</time>
      </trkpt>
      <trkpt lat="42.78288" lon="1.83799">
        <ele>1768</ele>
        <time>2019-12-14T11:31:17Z</time>
      </trkpt>
      <trkpt lat="42.78291" lon="1.83799">
        <ele>1768</ele>
        <time>2019-12-14T11:31:20Z</time>
      </trkpt>
      <trkpt lat="42.78294" lon="1.838">
        <ele>1768.48</ele>
        <time>2019-12-14T11:31:25Z</time>
      </trkpt>
      <trkpt lat="42.78297" lon="1.83802">
        <ele>1767.04</ele>
        <time>2019-12-14T11:31:29Z</time>
      </trkpt>
      <trkpt lat="42.78297" lon="1.83802">
        <ele>1767.04</ele>
        <time>2019-12-14T11:31:30Z</time>
      </trkpt>
      <trkpt lat="42.78305" lon="1.83808">
        <ele>1767.52</ele>
        <time>2019-12-14T11:31:41Z</time>
      </trkpt>
      <trkpt lat="42.78312" lon="1.83813">
        <ele>1767.52</ele>
        <time>2019-12-14T11:31:52Z</time>
      </trkpt>
      <trkpt lat="42.78314" lon="1.83815">
        <ele>1768.96</ele>
        <time>2019-12-14T11:31:56Z</time>
      </trkpt>
      <trkpt lat="42.78319" lon="1.83817">
        <ele>1768.96</ele>
        <time>2019-12-14T11:32:03Z</time>
      </trkpt>
      <trkpt lat="42.78321" lon="1.83819">
        <ele>1771.37</ele>
        <time>2019-12-14T11:32:07Z</time>
      </trkpt>
      <trkpt lat="42.78325" lon="1.83818">
        <ele>1773.29</ele>
        <time>2019-12-14T11:32:15Z</time>
      </trkpt>
      <trkpt lat="42.78329" lon="1.83815">
        <ele>1774.25</ele>
        <time>2019-12-14T11:32:24Z</time>
      </trkpt>
      <trkpt lat="42.78333" lon="1.83809">
        <ele>1775.69</ele>
        <time>2019-12-14T11:32:34Z</time>
      </trkpt>
      <trkpt lat="42.78339" lon="1.83806">
        <ele>1777.61</ele>
        <time>2019-12-14T11:32:44Z</time>
      </trkpt>
      <trkpt lat="42.78345" lon="1.83809">
        <ele>1780.02</ele>
        <time>2019-12-14T11:32:54Z</time>
      </trkpt>
      <trkpt lat="42.78351" lon="1.83811">
        <ele>1778.58</ele>
        <time>2019-12-14T11:33:04Z</time>
      </trkpt>
      <trkpt lat="42.78357" lon="1.83809">
        <ele>1782.42</ele>
        <time>2019-12-14T11:33:14Z</time>
      </trkpt>
      <trkpt lat="42.78358" lon="1.83808">
        <ele>1780.5</ele>
        <time>2019-12-14T11:33:15Z</time>
      </trkpt>
      <trkpt lat="42.78359" lon="1.83808">
        <ele>1780.98</ele>
        <time>2019-12-14T11:33:18Z</time>
      </trkpt>
      <trkpt lat="42.7836" lon="1.83808">
        <ele>1780.98</ele>
        <time>2019-12-14T11:33:20Z</time>
      </trkpt>
      <trkpt lat="42.78363" lon="1.83807">
        <ele>1783.38</ele>
        <time>2019-12-14T11:33:23Z</time>
      </trkpt>
      <trkpt lat="42.78368" lon="1.83803">
        <ele>1781.94</ele>
        <time>2019-12-14T11:33:30Z</time>
      </trkpt>
      <trkpt lat="42.78372" lon="1.83801">
        <ele>1782.42</ele>
        <time>2019-12-14T11:33:37Z</time>
      </trkpt>
      <trkpt lat="42.78373" lon="1.83799">
        <ele>1782.42</ele>
        <time>2019-12-14T11:33:39Z</time>
      </trkpt>
      <trkpt lat="42.78378" lon="1.83793">
        <ele>1783.86</ele>
        <time>2019-12-14T11:33:48Z</time>
      </trkpt>
      <trkpt lat="42.78384" lon="1.83786">
        <ele>1784.82</ele>
        <time>2019-12-14T11:33:57Z</time>
      </trkpt>
      <trkpt lat="42.78386" lon="1.83784">
        <ele>1783.38</ele>
        <time>2019-12-14T11:34:02Z</time>
      </trkpt>
      <trkpt lat="42.78388" lon="1.83782">
        <ele>1783.86</ele>
        <time>2019-12-14T11:34:04Z</time>
      </trkpt>
      <trkpt lat="42.7839" lon="1.83781">
        <ele>1783.38</ele>
        <time>2019-12-14T11:34:07Z</time>
      </trkpt>
      <trkpt lat="42.78393" lon="1.83775">
        <ele>1785.31</ele>
        <time>2019-12-14T11:34:14Z</time>
      </trkpt>
      <trkpt lat="42.784" lon="1.83771">
        <ele>1786.75</ele>
        <time>2019-12-14T11:34:25Z</time>
      </trkpt>
      <trkpt lat="42.784" lon="1.83771">
        <ele>1786.75</ele>
        <time>2019-12-14T11:34:48Z</time>
      </trkpt>
      <trkpt lat="42.78401" lon="1.8377">
        <ele>1785.79</ele>
        <time>2019-12-14T11:34:51Z</time>
      </trkpt>
      <trkpt lat="42.78403" lon="1.83769">
        <ele>1788.19</ele>
        <time>2019-12-14T11:34:54Z</time>
      </trkpt>
      <trkpt lat="42.78407" lon="1.83768">
        <ele>1788.67</ele>
        <time>2019-12-14T11:34:59Z</time>
      </trkpt>
      <trkpt lat="42.78409" lon="1.83765">
        <ele>1790.11</ele>
        <time>2019-12-14T11:35:10Z</time>
      </trkpt>
      <trkpt lat="42.78408" lon="1.83767">
        <ele>1788.67</ele>
        <time>2019-12-14T11:35:32Z</time>
      </trkpt>
      <trkpt lat="42.78411" lon="1.83776">
        <ele>1787.71</ele>
        <time>2019-12-14T11:35:40Z</time>
      </trkpt>
      <trkpt lat="42.78413" lon="1.8378">
        <ele>1787.71</ele>
        <time>2019-12-14T11:35:44Z</time>
      </trkpt>
      <trkpt lat="42.78417" lon="1.83785">
        <ele>1788.19</ele>
        <time>2019-12-14T11:35:53Z</time>
      </trkpt>
      <trkpt lat="42.78418" lon="1.83786">
        <ele>1786.27</ele>
        <time>2019-12-14T11:35:54Z</time>
      </trkpt>
      <trkpt lat="42.78421" lon="1.83789">
        <ele>1788.67</ele>
        <time>2019-12-14T11:36:06Z</time>
      </trkpt>
      <trkpt lat="42.78424" lon="1.83799">
        <ele>1787.23</ele>
        <time>2019-12-14T11:36:16Z</time>
      </trkpt>
      <trkpt lat="42.78426" lon="1.83803">
        <ele>1788.67</ele>
        <time>2019-12-14T11:36:21Z</time>
      </trkpt>
      <trkpt lat="42.78432" lon="1.83811">
        <ele>1789.15</ele>
        <time>2019-12-14T11:36:32Z</time>
      </trkpt>
      <trkpt lat="42.78436" lon="1.83815">
        <ele>1787.71</ele>
        <time>2019-12-14T11:36:39Z</time>
      </trkpt>
      <trkpt lat="42.78444" lon="1.83818">
        <ele>1790.59</ele>
        <time>2019-12-14T11:36:50Z</time>
      </trkpt>
      <trkpt lat="42.78452" lon="1.8382">
        <ele>1789.63</ele>
        <time>2019-12-14T11:37:00Z</time>
      </trkpt>
      <trkpt lat="42.78454" lon="1.83822">
        <ele>1789.63</ele>
        <time>2019-12-14T11:37:03Z</time>
      </trkpt>
      <trkpt lat="42.7846" lon="1.83824">
        <ele>1791.55</ele>
        <time>2019-12-14T11:37:13Z</time>
      </trkpt>
      <trkpt lat="42.78466" lon="1.83831">
        <ele>1792.03</ele>
        <time>2019-12-14T11:37:24Z</time>
      </trkpt>
      <trkpt lat="42.78467" lon="1.83832">
        <ele>1792.03</ele>
        <time>2019-12-14T11:37:26Z</time>
      </trkpt>
      <trkpt lat="42.78471" lon="1.83834">
        <ele>1793.96</ele>
        <time>2019-12-14T11:37:31Z</time>
      </trkpt>
      <trkpt lat="42.78475" lon="1.83835">
        <ele>1793.96</ele>
        <time>2019-12-14T11:37:38Z</time>
      </trkpt>
      <trkpt lat="42.78482" lon="1.83836">
        <ele>1796.36</ele>
        <time>2019-12-14T11:37:50Z</time>
      </trkpt>
      <trkpt lat="42.78483" lon="1.83837">
        <ele>1795.88</ele>
        <time>2019-12-14T11:37:52Z</time>
      </trkpt>
      <trkpt lat="42.78488" lon="1.83838">
        <ele>1798.76</ele>
        <time>2019-12-14T11:37:59Z</time>
      </trkpt>
      <trkpt lat="42.78494" lon="1.83839">
        <ele>1800.69</ele>
        <time>2019-12-14T11:38:10Z</time>
      </trkpt>
      <trkpt lat="42.78495" lon="1.83839">
        <ele>1799.24</ele>
        <time>2019-12-14T11:38:11Z</time>
      </trkpt>
      <trkpt lat="42.78497" lon="1.83839">
        <ele>1801.17</ele>
        <time>2019-12-14T11:38:13Z</time>
      </trkpt>
      <trkpt lat="42.78503" lon="1.83838">
        <ele>1802.61</ele>
        <time>2019-12-14T11:38:24Z</time>
      </trkpt>
      <trkpt lat="42.78508" lon="1.83839">
        <ele>1805.49</ele>
        <time>2019-12-14T11:38:34Z</time>
      </trkpt>
      <trkpt lat="42.78513" lon="1.83837">
        <ele>1807.42</ele>
        <time>2019-12-14T11:38:44Z</time>
      </trkpt>
      <trkpt lat="42.78515" lon="1.83836">
        <ele>1807.9</ele>
        <time>2019-12-14T11:38:48Z</time>
      </trkpt>
      <trkpt lat="42.7852" lon="1.83833">
        <ele>1808.86</ele>
        <time>2019-12-14T11:38:57Z</time>
      </trkpt>
      <trkpt lat="42.78526" lon="1.83832">
        <ele>1809.34</ele>
        <time>2019-12-14T11:39:07Z</time>
      </trkpt>
      <trkpt lat="42.7853" lon="1.8383">
        <ele>1810.3</ele>
        <time>2019-12-14T11:39:14Z</time>
      </trkpt>
      <trkpt lat="42.78534" lon="1.83828">
        <ele>1812.7</ele>
        <time>2019-12-14T11:39:21Z</time>
      </trkpt>
      <trkpt lat="42.78536" lon="1.83829">
        <ele>1814.15</ele>
        <time>2019-12-14T11:39:31Z</time>
      </trkpt>
      <trkpt lat="42.78536" lon="1.8383">
        <ele>1813.18</ele>
        <time>2019-12-14T11:39:51Z</time>
      </trkpt>
      <trkpt lat="42.78537" lon="1.8383">
        <ele>1814.15</ele>
        <time>2019-12-14T11:40:05Z</time>
      </trkpt>
      <trkpt lat="42.7854" lon="1.8383">
        <ele>1814.63</ele>
        <time>2019-12-14T11:40:09Z</time>
      </trkpt>
      <trkpt lat="42.78543" lon="1.83829">
        <ele>1815.11</ele>
        <time>2019-12-14T11:40:13Z</time>
      </trkpt>
      <trkpt lat="42.78551" lon="1.83833">
        <ele>1814.63</ele>
        <time>2019-12-14T11:40:25Z</time>
      </trkpt>
      <trkpt lat="42.78552" lon="1.83833">
        <ele>1814.63</ele>
        <time>2019-12-14T11:40:27Z</time>
      </trkpt>
      <trkpt lat="42.78559" lon="1.83834">
        <ele>1817.51</ele>
        <time>2019-12-14T11:40:36Z</time>
      </trkpt>
      <trkpt lat="42.78561" lon="1.83834">
        <ele>1818.47</ele>
        <time>2019-12-14T11:40:39Z</time>
      </trkpt>
      <trkpt lat="42.78562" lon="1.83835">
        <ele>1818.95</ele>
        <time>2019-12-14T11:40:41Z</time>
      </trkpt>
      <trkpt lat="42.78567" lon="1.83837">
        <ele>1817.99</ele>
        <time>2019-12-14T11:40:47Z</time>
      </trkpt>
      <trkpt lat="42.78569" lon="1.83838">
        <ele>1819.91</ele>
        <time>2019-12-14T11:40:50Z</time>
      </trkpt>
      <trkpt lat="42.78573" lon="1.83837">
        <ele>1819.43</ele>
        <time>2019-12-14T11:40:55Z</time>
      </trkpt>
      <trkpt lat="42.78575" lon="1.83836">
        <ele>1820.87</ele>
        <time>2019-12-14T11:40:58Z</time>
      </trkpt>
      <trkpt lat="42.78577" lon="1.83835">
        <ele>1822.32</ele>
        <time>2019-12-14T11:41:00Z</time>
      </trkpt>
      <trkpt lat="42.78579" lon="1.83836">
        <ele>1821.35</ele>
        <time>2019-12-14T11:41:03Z</time>
      </trkpt>
      <trkpt lat="42.78586" lon="1.83837">
        <ele>1824.72</ele>
        <time>2019-12-14T11:41:14Z</time>
      </trkpt>
      <trkpt lat="42.78586" lon="1.83837">
        <ele>1823.28</ele>
        <time>2019-12-14T11:41:15Z</time>
      </trkpt>
      <trkpt lat="42.78591" lon="1.83837">
        <ele>1824.72</ele>
        <time>2019-12-14T11:41:22Z</time>
      </trkpt>
      <trkpt lat="42.78596" lon="1.8384">
        <ele>1826.16</ele>
        <time>2019-12-14T11:41:29Z</time>
      </trkpt>
      <trkpt lat="42.78599" lon="1.83841">
        <ele>1825.2</ele>
        <time>2019-12-14T11:41:34Z</time>
      </trkpt>
      <trkpt lat="42.78601" lon="1.83842">
        <ele>1826.16</ele>
        <time>2019-12-14T11:41:36Z</time>
      </trkpt>
      <trkpt lat="42.78602" lon="1.83843">
        <ele>1826.16</ele>
        <time>2019-12-14T11:41:39Z</time>
      </trkpt>
      <trkpt lat="42.78609" lon="1.83844">
        <ele>1829.53</ele>
        <time>2019-12-14T11:41:49Z</time>
      </trkpt>
      <trkpt lat="42.78616" lon="1.83842">
        <ele>1829.05</ele>
        <time>2019-12-14T11:41:59Z</time>
      </trkpt>
      <trkpt lat="42.78619" lon="1.83843">
        <ele>1828.08</ele>
        <time>2019-12-14T11:42:02Z</time>
      </trkpt>
      <trkpt lat="42.7862" lon="1.83843">
        <ele>1831.93</ele>
        <time>2019-12-14T11:42:03Z</time>
      </trkpt>
      <trkpt lat="42.78622" lon="1.83843">
        <ele>1830.49</ele>
        <time>2019-12-14T11:42:07Z</time>
      </trkpt>
      <trkpt lat="42.78625" lon="1.83843">
        <ele>1832.89</ele>
        <time>2019-12-14T11:42:10Z</time>
      </trkpt>
      <trkpt lat="42.78626" lon="1.83844">
        <ele>1832.89</ele>
        <time>2019-12-14T11:42:12Z</time>
      </trkpt>
      <trkpt lat="42.78627" lon="1.83845">
        <ele>1830.01</ele>
        <time>2019-12-14T11:42:14Z</time>
      </trkpt>
      <trkpt lat="42.78633" lon="1.83847">
        <ele>1832.89</ele>
        <time>2019-12-14T11:42:20Z</time>
      </trkpt>
      <trkpt lat="42.78634" lon="1.83847">
        <ele>1831.45</ele>
        <time>2019-12-14T11:42:23Z</time>
      </trkpt>
      <trkpt lat="42.78639" lon="1.83848">
        <ele>1832.41</ele>
        <time>2019-12-14T11:42:28Z</time>
      </trkpt>
      <trkpt lat="42.78644" lon="1.83845">
        <ele>1834.33</ele>
        <time>2019-12-14T11:42:43Z</time>
      </trkpt>
      <trkpt lat="42.78645" lon="1.83843">
        <ele>1833.85</ele>
        <time>2019-12-14T11:42:54Z</time>
      </trkpt>
      <trkpt lat="42.78644" lon="1.83843">
        <ele>1833.37</ele>
        <time>2019-12-14T11:43:20Z</time>
      </trkpt>
      <trkpt lat="42.78645" lon="1.83843">
        <ele>1833.37</ele>
        <time>2019-12-14T11:43:57Z</time>
      </trkpt>
      <trkpt lat="42.78644" lon="1.83841">
        <ele>1833.37</ele>
        <time>2019-12-14T11:44:03Z</time>
      </trkpt>
      <trkpt lat="42.78645" lon="1.83844">
        <ele>1833.37</ele>
        <time>2019-12-14T11:44:20Z</time>
      </trkpt>
      <trkpt lat="42.78645" lon="1.83841">
        <ele>1835.77</ele>
        <time>2019-12-14T11:44:33Z</time>
      </trkpt>
      <trkpt lat="42.78645" lon="1.83841">
        <ele>1834.33</ele>
        <time>2019-12-14T11:44:39Z</time>
      </trkpt>
      <trkpt lat="42.78646" lon="1.83842">
        <ele>1832.89</ele>
        <time>2019-12-14T11:44:45Z</time>
      </trkpt>
      <trkpt lat="42.78646" lon="1.83841">
        <ele>1835.29</ele>
        <time>2019-12-14T11:45:05Z</time>
      </trkpt>
      <trkpt lat="42.78646" lon="1.83841">
        <ele>1833.85</ele>
        <time>2019-12-14T11:45:07Z</time>
      </trkpt>
      <trkpt lat="42.78645" lon="1.83842">
        <ele>1831.93</ele>
        <time>2019-12-14T11:45:26Z</time>
      </trkpt>
      <trkpt lat="42.78645" lon="1.83842">
        <ele>1834.81</ele>
        <time>2019-12-14T11:45:30Z</time>
      </trkpt>
      <trkpt lat="42.78645" lon="1.83842">
        <ele>1831.45</ele>
        <time>2019-12-14T11:45:31Z</time>
      </trkpt>
      <trkpt lat="42.78645" lon="1.83842">
        <ele>1832.89</ele>
        <time>2019-12-14T11:45:32Z</time>
      </trkpt>
      <trkpt lat="42.78643" lon="1.83841">
        <ele>1833.85</ele>
        <time>2019-12-14T11:45:51Z</time>
      </trkpt>
      <trkpt lat="42.78644" lon="1.83841">
        <ele>1833.37</ele>
        <time>2019-12-14T11:46:17Z</time>
      </trkpt>
      <trkpt lat="42.78644" lon="1.83842">
        <ele>1830.01</ele>
        <time>2019-12-14T11:46:37Z</time>
      </trkpt>
      <trkpt lat="42.78644" lon="1.83842">
        <ele>1836.74</ele>
        <time>2019-12-14T11:46:38Z</time>
      </trkpt>
      <trkpt lat="42.78644" lon="1.83842">
        <ele>1834.81</ele>
        <time>2019-12-14T11:46:39Z</time>
      </trkpt>
      <trkpt lat="42.78644" lon="1.83842">
        <ele>1833.85</ele>
        <time>2019-12-14T11:46:41Z</time>
      </trkpt>
      <trkpt lat="42.78645" lon="1.83841">
        <ele>1833.37</ele>
        <time>2019-12-14T11:47:12Z</time>
      </trkpt>
      <trkpt lat="42.78645" lon="1.83842">
        <ele>1832.89</ele>
        <time>2019-12-14T11:47:13Z</time>
      </trkpt>
      <trkpt lat="42.78646" lon="1.83846">
        <ele>1832.41</ele>
        <time>2019-12-14T11:47:16Z</time>
      </trkpt>
      <trkpt lat="42.78651" lon="1.83852">
        <ele>1832.41</ele>
        <time>2019-12-14T11:47:24Z</time>
      </trkpt>
      <trkpt lat="42.78654" lon="1.83851">
        <ele>1833.37</ele>
        <time>2019-12-14T11:47:27Z</time>
      </trkpt>
      <trkpt lat="42.78664" lon="1.83849">
        <ele>1834.81</ele>
        <time>2019-12-14T11:47:38Z</time>
      </trkpt>
      <trkpt lat="42.78672" lon="1.83849">
        <ele>1834.81</ele>
        <time>2019-12-14T11:47:46Z</time>
      </trkpt>
      <trkpt lat="42.7868" lon="1.83851">
        <ele>1835.29</ele>
        <time>2019-12-14T11:47:54Z</time>
      </trkpt>
      <trkpt lat="42.78682" lon="1.83853">
        <ele>1835.29</ele>
        <time>2019-12-14T11:47:57Z</time>
      </trkpt>
      <trkpt lat="42.78687" lon="1.83856">
        <ele>1834.81</ele>
        <time>2019-12-14T11:48:02Z</time>
      </trkpt>
      <trkpt lat="42.78692" lon="1.8386">
        <ele>1835.77</ele>
        <time>2019-12-14T11:48:08Z</time>
      </trkpt>
      <trkpt lat="42.78698" lon="1.83859">
        <ele>1837.7</ele>
        <time>2019-12-14T11:48:15Z</time>
      </trkpt>
      <trkpt lat="42.78701" lon="1.8386">
        <ele>1837.22</ele>
        <time>2019-12-14T11:48:18Z</time>
      </trkpt>
      <trkpt lat="42.78704" lon="1.8386">
        <ele>1836.26</ele>
        <time>2019-12-14T11:48:21Z</time>
      </trkpt>
      <trkpt lat="42.78706" lon="1.8386">
        <ele>1836.26</ele>
        <time>2019-12-14T11:48:23Z</time>
      </trkpt>
      <trkpt lat="42.78709" lon="1.83857">
        <ele>1838.18</ele>
        <time>2019-12-14T11:48:28Z</time>
      </trkpt>
      <trkpt lat="42.7871" lon="1.83857">
        <ele>1836.26</ele>
        <time>2019-12-14T11:48:29Z</time>
      </trkpt>
      <trkpt lat="42.7871" lon="1.83855">
        <ele>1836.74</ele>
        <time>2019-12-14T11:48:31Z</time>
      </trkpt>
      <trkpt lat="42.78713" lon="1.83852">
        <ele>1836.74</ele>
        <time>2019-12-14T11:48:34Z</time>
      </trkpt>
      <trkpt lat="42.78715" lon="1.83851">
        <ele>1838.18</ele>
        <time>2019-12-14T11:48:37Z</time>
      </trkpt>
      <trkpt lat="42.78722" lon="1.83844">
        <ele>1837.7</ele>
        <time>2019-12-14T11:48:47Z</time>
      </trkpt>
      <trkpt lat="42.78725" lon="1.83842">
        <ele>1839.14</ele>
        <time>2019-12-14T11:48:50Z</time>
      </trkpt>
      <trkpt lat="42.7873" lon="1.83837">
        <ele>1838.18</ele>
        <time>2019-12-14T11:48:58Z</time>
      </trkpt>
      <trkpt lat="42.78732" lon="1.83835">
        <ele>1839.62</ele>
        <time>2019-12-14T11:49:01Z</time>
      </trkpt>
      <trkpt lat="42.78734" lon="1.83834">
        <ele>1839.62</ele>
        <time>2019-12-14T11:49:03Z</time>
      </trkpt>
      <trkpt lat="42.78737" lon="1.83832">
        <ele>1840.58</ele>
        <time>2019-12-14T11:49:06Z</time>
      </trkpt>
      <trkpt lat="42.78738" lon="1.8383">
        <ele>1840.58</ele>
        <time>2019-12-14T11:49:08Z</time>
      </trkpt>
      <trkpt lat="42.7874" lon="1.83828">
        <ele>1840.1</ele>
        <time>2019-12-14T11:49:11Z</time>
      </trkpt>
      <trkpt lat="42.78741" lon="1.83826">
        <ele>1840.1</ele>
        <time>2019-12-14T11:49:13Z</time>
      </trkpt>
      <trkpt lat="42.78743" lon="1.83825">
        <ele>1840.1</ele>
        <time>2019-12-14T11:49:15Z</time>
      </trkpt>
      <trkpt lat="42.78745" lon="1.83824">
        <ele>1840.1</ele>
        <time>2019-12-14T11:49:18Z</time>
      </trkpt>
      <trkpt lat="42.78747" lon="1.83822">
        <ele>1841.54</ele>
        <time>2019-12-14T11:49:21Z</time>
      </trkpt>
      <trkpt lat="42.7875" lon="1.83816">
        <ele>1842.98</ele>
        <time>2019-12-14T11:49:28Z</time>
      </trkpt>
      <trkpt lat="42.78754" lon="1.83812">
        <ele>1841.54</ele>
        <time>2019-12-14T11:49:33Z</time>
      </trkpt>
      <trkpt lat="42.78756" lon="1.83808">
        <ele>1843.47</ele>
        <time>2019-12-14T11:49:37Z</time>
      </trkpt>
      <trkpt lat="42.78758" lon="1.83804">
        <ele>1843.95</ele>
        <time>2019-12-14T11:49:42Z</time>
      </trkpt>
      <trkpt lat="42.78762" lon="1.83798">
        <ele>1843.95</ele>
        <time>2019-12-14T11:49:49Z</time>
      </trkpt>
      <trkpt lat="42.78764" lon="1.83795">
        <ele>1845.39</ele>
        <time>2019-12-14T11:49:52Z</time>
      </trkpt>
      <trkpt lat="42.78766" lon="1.83792">
        <ele>1845.39</ele>
        <time>2019-12-14T11:49:56Z</time>
      </trkpt>
      <trkpt lat="42.78772" lon="1.83786">
        <ele>1843.95</ele>
        <time>2019-12-14T11:50:04Z</time>
      </trkpt>
      <trkpt lat="42.78778" lon="1.83778">
        <ele>1845.39</ele>
        <time>2019-12-14T11:50:14Z</time>
      </trkpt>
      <trkpt lat="42.78779" lon="1.83776">
        <ele>1847.31</ele>
        <time>2019-12-14T11:50:16Z</time>
      </trkpt>
      <trkpt lat="42.78779" lon="1.83772">
        <ele>1847.79</ele>
        <time>2019-12-14T11:50:19Z</time>
      </trkpt>
      <trkpt lat="42.78778" lon="1.83765">
        <ele>1846.83</ele>
        <time>2019-12-14T11:50:24Z</time>
      </trkpt>
      <trkpt lat="42.78779" lon="1.83762">
        <ele>1846.35</ele>
        <time>2019-12-14T11:50:27Z</time>
      </trkpt>
      <trkpt lat="42.78782" lon="1.83753">
        <ele>1847.79</ele>
        <time>2019-12-14T11:50:37Z</time>
      </trkpt>
      <trkpt lat="42.78785" lon="1.83745">
        <ele>1848.75</ele>
        <time>2019-12-14T11:50:46Z</time>
      </trkpt>
      <trkpt lat="42.78785" lon="1.83742">
        <ele>1847.31</ele>
        <time>2019-12-14T11:50:49Z</time>
      </trkpt>
      <trkpt lat="42.78786" lon="1.8374">
        <ele>1848.27</ele>
        <time>2019-12-14T11:50:51Z</time>
      </trkpt>
      <trkpt lat="42.7879" lon="1.83738">
        <ele>1848.27</ele>
        <time>2019-12-14T11:50:56Z</time>
      </trkpt>
      <trkpt lat="42.78791" lon="1.83736">
        <ele>1850.19</ele>
        <time>2019-12-14T11:50:58Z</time>
      </trkpt>
      <trkpt lat="42.78795" lon="1.83733">
        <ele>1850.19</ele>
        <time>2019-12-14T11:51:04Z</time>
      </trkpt>
      <trkpt lat="42.78797" lon="1.83731">
        <ele>1851.16</ele>
        <time>2019-12-14T11:51:07Z</time>
      </trkpt>
      <trkpt lat="42.78801" lon="1.83726">
        <ele>1851.16</ele>
        <time>2019-12-14T11:51:14Z</time>
      </trkpt>
      <trkpt lat="42.78802" lon="1.83725">
        <ele>1851.16</ele>
        <time>2019-12-14T11:51:17Z</time>
      </trkpt>
      <trkpt lat="42.78804" lon="1.83723">
        <ele>1850.68</ele>
        <time>2019-12-14T11:51:20Z</time>
      </trkpt>
      <trkpt lat="42.78806" lon="1.83722">
        <ele>1851.64</ele>
        <time>2019-12-14T11:51:23Z</time>
      </trkpt>
      <trkpt lat="42.78809" lon="1.83718">
        <ele>1851.16</ele>
        <time>2019-12-14T11:51:28Z</time>
      </trkpt>
      <trkpt lat="42.78814" lon="1.83713">
        <ele>1854.52</ele>
        <time>2019-12-14T11:51:38Z</time>
      </trkpt>
      <trkpt lat="42.78815" lon="1.83711">
        <ele>1854.04</ele>
        <time>2019-12-14T11:51:40Z</time>
      </trkpt>
      <trkpt lat="42.78819" lon="1.83706">
        <ele>1855.48</ele>
        <time>2019-12-14T11:51:47Z</time>
      </trkpt>
      <trkpt lat="42.78822" lon="1.83703">
        <ele>1854.04</ele>
        <time>2019-12-14T11:51:51Z</time>
      </trkpt>
      <trkpt lat="42.78826" lon="1.837">
        <ele>1854.52</ele>
        <time>2019-12-14T11:52:02Z</time>
      </trkpt>
      <trkpt lat="42.78826" lon="1.837">
        <ele>1856.44</ele>
        <time>2019-12-14T11:52:22Z</time>
      </trkpt>
      <trkpt lat="42.78827" lon="1.83699">
        <ele>1856.44</ele>
        <time>2019-12-14T11:52:36Z</time>
      </trkpt>
      <trkpt lat="42.78826" lon="1.83698">
        <ele>1856.44</ele>
        <time>2019-12-14T11:52:57Z</time>
      </trkpt>
      <trkpt lat="42.78828" lon="1.83697">
        <ele>1856.44</ele>
        <time>2019-12-14T11:53:01Z</time>
      </trkpt>
      <trkpt lat="42.7883" lon="1.83694">
        <ele>1856.44</ele>
        <time>2019-12-14T11:53:06Z</time>
      </trkpt>
      <trkpt lat="42.78833" lon="1.8369">
        <ele>1857.4</ele>
        <time>2019-12-14T11:53:12Z</time>
      </trkpt>
      <trkpt lat="42.78835" lon="1.83686">
        <ele>1858.85</ele>
        <time>2019-12-14T11:53:18Z</time>
      </trkpt>
      <trkpt lat="42.78835" lon="1.83685">
        <ele>1859.81</ele>
        <time>2019-12-14T11:53:31Z</time>
      </trkpt>
      <trkpt lat="42.78833" lon="1.83685">
        <ele>1858.85</ele>
        <time>2019-12-14T11:53:37Z</time>
      </trkpt>
      <trkpt lat="42.78833" lon="1.83684">
        <ele>1859.33</ele>
        <time>2019-12-14T11:53:54Z</time>
      </trkpt>
      <trkpt lat="42.78833" lon="1.83684">
        <ele>1857.89</ele>
        <time>2019-12-14T11:53:56Z</time>
      </trkpt>
      <trkpt lat="42.78833" lon="1.83683">
        <ele>1857.89</ele>
        <time>2019-12-14T11:54:16Z</time>
      </trkpt>
      <trkpt lat="42.78834" lon="1.83683">
        <ele>1858.85</ele>
        <time>2019-12-14T11:54:27Z</time>
      </trkpt>
      <trkpt lat="42.78834" lon="1.83682">
        <ele>1853.08</ele>
        <time>2019-12-14T11:54:31Z</time>
      </trkpt>
      <trkpt lat="42.78834" lon="1.83682">
        <ele>1856.92</ele>
        <time>2019-12-14T11:54:32Z</time>
      </trkpt>
      <trkpt lat="42.78834" lon="1.83683">
        <ele>1863.17</ele>
        <time>2019-12-14T11:54:36Z</time>
      </trkpt>
      <trkpt lat="42.78834" lon="1.83683">
        <ele>1858.85</ele>
        <time>2019-12-14T11:54:37Z</time>
      </trkpt>
      <trkpt lat="42.78834" lon="1.83683">
        <ele>1857.4</ele>
        <time>2019-12-14T11:54:40Z</time>
      </trkpt>
      <trkpt lat="42.78834" lon="1.83682">
        <ele>1854.52</ele>
        <time>2019-12-14T11:54:52Z</time>
      </trkpt>
      <trkpt lat="42.78834" lon="1.83683">
        <ele>1856.92</ele>
        <time>2019-12-14T11:54:54Z</time>
      </trkpt>
      <trkpt lat="42.78834" lon="1.83683">
        <ele>1860.29</ele>
        <time>2019-12-14T11:54:57Z</time>
      </trkpt>
      <trkpt lat="42.78834" lon="1.83683">
        <ele>1859.33</ele>
        <time>2019-12-14T11:54:58Z</time>
      </trkpt>
      <trkpt lat="42.78834" lon="1.83683">
        <ele>1857.89</ele>
        <time>2019-12-14T11:55:23Z</time>
      </trkpt>
      <trkpt lat="42.78836" lon="1.83683">
        <ele>1858.37</ele>
        <time>2019-12-14T11:55:48Z</time>
      </trkpt>
      <trkpt lat="42.78835" lon="1.83683">
        <ele>1856.44</ele>
        <time>2019-12-14T11:55:50Z</time>
      </trkpt>
      <trkpt lat="42.78835" lon="1.83682">
        <ele>1860.29</ele>
        <time>2019-12-14T11:55:53Z</time>
      </trkpt>
      <trkpt lat="42.78835" lon="1.83682">
        <ele>1858.85</ele>
        <time>2019-12-14T11:55:54Z</time>
      </trkpt>
      <trkpt lat="42.78835" lon="1.83683">
        <ele>1857.89</ele>
        <time>2019-12-14T11:55:56Z</time>
      </trkpt>
      <trkpt lat="42.78836" lon="1.83683">
        <ele>1856.44</ele>
        <time>2019-12-14T11:55:59Z</time>
      </trkpt>
      <trkpt lat="42.78836" lon="1.83683">
        <ele>1859.33</ele>
        <time>2019-12-14T11:56:02Z</time>
      </trkpt>
      <trkpt lat="42.78836" lon="1.83684">
        <ele>1856.92</ele>
        <time>2019-12-14T11:56:08Z</time>
      </trkpt>
      <trkpt lat="42.78835" lon="1.83684">
        <ele>1859.33</ele>
        <time>2019-12-14T11:56:10Z</time>
      </trkpt>
      <trkpt lat="42.78835" lon="1.83684">
        <ele>1857.89</ele>
        <time>2019-12-14T11:56:12Z</time>
      </trkpt>
      <trkpt lat="42.78835" lon="1.83682">
        <ele>1858.37</ele>
        <time>2019-12-14T11:56:33Z</time>
      </trkpt>
      <trkpt lat="42.78836" lon="1.83682">
        <ele>1858.37</ele>
        <time>2019-12-14T11:57:02Z</time>
      </trkpt>
      <trkpt lat="42.78839" lon="1.83679">
        <ele>1858.37</ele>
        <time>2019-12-14T11:57:15Z</time>
      </trkpt>
      <trkpt lat="42.78839" lon="1.83679">
        <ele>1856.92</ele>
        <time>2019-12-14T11:57:16Z</time>
      </trkpt>
      <trkpt lat="42.78841" lon="1.83679">
        <ele>1856.92</ele>
        <time>2019-12-14T11:57:18Z</time>
      </trkpt>
      <trkpt lat="42.78842" lon="1.83678">
        <ele>1856.92</ele>
        <time>2019-12-14T11:57:20Z</time>
      </trkpt>
      <trkpt lat="42.78844" lon="1.83677">
        <ele>1856.44</ele>
        <time>2019-12-14T11:57:35Z</time>
      </trkpt>
      <trkpt lat="42.78843" lon="1.83676">
        <ele>1855.48</ele>
        <time>2019-12-14T11:57:59Z</time>
      </trkpt>
      <trkpt lat="42.78843" lon="1.83675">
        <ele>1855.48</ele>
        <time>2019-12-14T11:58:17Z</time>
      </trkpt>
      <trkpt lat="42.78844" lon="1.83677">
        <ele>1855</ele>
        <time>2019-12-14T11:58:37Z</time>
      </trkpt>
      <trkpt lat="42.78843" lon="1.83677">
        <ele>1855.48</ele>
        <time>2019-12-14T11:59:04Z</time>
      </trkpt>
      <trkpt lat="42.78843" lon="1.83677">
        <ele>1856.44</ele>
        <time>2019-12-14T11:59:23Z</time>
      </trkpt>
      <trkpt lat="42.78843" lon="1.83677">
        <ele>1855.48</ele>
        <time>2019-12-14T11:59:28Z</time>
      </trkpt>
      <trkpt lat="42.78842" lon="1.83677">
        <ele>1857.4</ele>
        <time>2019-12-14T11:59:35Z</time>
      </trkpt>
      <trkpt lat="42.78842" lon="1.83677">
        <ele>1855.96</ele>
        <time>2019-12-14T11:59:38Z</time>
      </trkpt>
      <trkpt lat="42.78842" lon="1.83677">
        <ele>1852.12</ele>
        <time>2019-12-14T11:59:40Z</time>
      </trkpt>
      <trkpt lat="42.78842" lon="1.83677">
        <ele>1859.33</ele>
        <time>2019-12-14T11:59:41Z</time>
      </trkpt>
      <trkpt lat="42.78842" lon="1.83677">
        <ele>1855.96</ele>
        <time>2019-12-14T11:59:42Z</time>
      </trkpt>
      <trkpt lat="42.78842" lon="1.83678">
        <ele>1859.33</ele>
        <time>2019-12-14T11:59:58Z</time>
      </trkpt>
      <trkpt lat="42.78842" lon="1.83678">
        <ele>1856.92</ele>
        <time>2019-12-14T11:59:59Z</time>
      </trkpt>
      <trkpt lat="42.78842" lon="1.83678">
        <ele>1853.56</ele>
        <time>2019-12-14T12:00:01Z</time>
      </trkpt>
      <trkpt lat="42.78841" lon="1.83678">
        <ele>1858.37</ele>
        <time>2019-12-14T12:00:02Z</time>
      </trkpt>
      <trkpt lat="42.78841" lon="1.8368">
        <ele>1856.92</ele>
        <time>2019-12-14T12:00:13Z</time>
      </trkpt>
      <trkpt lat="42.78842" lon="1.83678">
        <ele>1855</ele>
        <time>2019-12-14T12:00:16Z</time>
      </trkpt>
      <trkpt lat="42.78843" lon="1.83678">
        <ele>1856.44</ele>
        <time>2019-12-14T12:00:22Z</time>
      </trkpt>
      <trkpt lat="42.78843" lon="1.83677">
        <ele>1856.44</ele>
        <time>2019-12-14T12:00:47Z</time>
      </trkpt>
      <trkpt lat="42.78843" lon="1.83677">
        <ele>1855</ele>
        <time>2019-12-14T12:00:55Z</time>
      </trkpt>
      <trkpt lat="42.78843" lon="1.83677">
        <ele>1854.04</ele>
        <time>2019-12-14T12:01:21Z</time>
      </trkpt>
      <trkpt lat="42.78843" lon="1.83677">
        <ele>1857.4</ele>
        <time>2019-12-14T12:01:22Z</time>
      </trkpt>
      <trkpt lat="42.78842" lon="1.83677">
        <ele>1853.56</ele>
        <time>2019-12-14T12:01:42Z</time>
      </trkpt>
      <trkpt lat="42.78843" lon="1.83677">
        <ele>1853.56</ele>
        <time>2019-12-14T12:01:48Z</time>
      </trkpt>
      <trkpt lat="42.78843" lon="1.83677">
        <ele>1857.4</ele>
        <time>2019-12-14T12:01:49Z</time>
      </trkpt>
      <trkpt lat="42.78842" lon="1.83678">
        <ele>1856.44</ele>
        <time>2019-12-14T12:01:53Z</time>
      </trkpt>
      <trkpt lat="42.7884" lon="1.83678">
        <ele>1857.89</ele>
        <time>2019-12-14T12:02:08Z</time>
      </trkpt>
      <trkpt lat="42.7884" lon="1.83676">
        <ele>1856.44</ele>
        <time>2019-12-14T12:02:11Z</time>
      </trkpt>
      <trkpt lat="42.7884" lon="1.83675">
        <ele>1858.37</ele>
        <time>2019-12-14T12:02:21Z</time>
      </trkpt>
      <trkpt lat="42.78839" lon="1.83676">
        <ele>1857.89</ele>
        <time>2019-12-14T12:02:25Z</time>
      </trkpt>
      <trkpt lat="42.7884" lon="1.8368">
        <ele>1856.92</ele>
        <time>2019-12-14T12:02:39Z</time>
      </trkpt>
      <trkpt lat="42.7884" lon="1.8368">
        <ele>1858.37</ele>
        <time>2019-12-14T12:02:46Z</time>
      </trkpt>
      <trkpt lat="42.7884" lon="1.8368">
        <ele>1856.92</ele>
        <time>2019-12-14T12:02:49Z</time>
      </trkpt>
      <trkpt lat="42.78839" lon="1.8368">
        <ele>1858.37</ele>
        <time>2019-12-14T12:03:17Z</time>
      </trkpt>
      <trkpt lat="42.78839" lon="1.83681">
        <ele>1855.96</ele>
        <time>2019-12-14T12:03:39Z</time>
      </trkpt>
      <trkpt lat="42.78839" lon="1.8368">
        <ele>1857.4</ele>
        <time>2019-12-14T12:03:42Z</time>
      </trkpt>
      <trkpt lat="42.7884" lon="1.8368">
        <ele>1856.92</ele>
        <time>2019-12-14T12:03:55Z</time>
      </trkpt>
      <trkpt lat="42.78841" lon="1.83681">
        <ele>1857.89</ele>
        <time>2019-12-14T12:04:31Z</time>
      </trkpt>
      <trkpt lat="42.78841" lon="1.83679">
        <ele>1857.89</ele>
        <time>2019-12-14T12:05:10Z</time>
      </trkpt>
      <trkpt lat="42.78841" lon="1.8368">
        <ele>1856.44</ele>
        <time>2019-12-14T12:05:19Z</time>
      </trkpt>
      <trkpt lat="42.78841" lon="1.8368">
        <ele>1858.37</ele>
        <time>2019-12-14T12:05:29Z</time>
      </trkpt>
      <trkpt lat="42.78841" lon="1.8368">
        <ele>1856.44</ele>
        <time>2019-12-14T12:05:33Z</time>
      </trkpt>
      <trkpt lat="42.78841" lon="1.83679">
        <ele>1859.81</ele>
        <time>2019-12-14T12:05:39Z</time>
      </trkpt>
      <trkpt lat="42.78842" lon="1.83679">
        <ele>1855.96</ele>
        <time>2019-12-14T12:05:41Z</time>
      </trkpt>
      <trkpt lat="42.78842" lon="1.83679">
        <ele>1858.85</ele>
        <time>2019-12-14T12:05:42Z</time>
      </trkpt>
      <trkpt lat="42.78842" lon="1.83679">
        <ele>1855</ele>
        <time>2019-12-14T12:05:48Z</time>
      </trkpt>
      <trkpt lat="42.78841" lon="1.83679">
        <ele>1858.37</ele>
        <time>2019-12-14T12:05:49Z</time>
      </trkpt>
      <trkpt lat="42.78841" lon="1.8368">
        <ele>1856.44</ele>
        <time>2019-12-14T12:06:04Z</time>
      </trkpt>
      <trkpt lat="42.7884" lon="1.83681">
        <ele>1856.44</ele>
        <time>2019-12-14T12:06:31Z</time>
      </trkpt>
      <trkpt lat="42.78841" lon="1.83681">
        <ele>1856.44</ele>
        <time>2019-12-14T12:07:11Z</time>
      </trkpt>
      <trkpt lat="42.78839" lon="1.83681">
        <ele>1856.44</ele>
        <time>2019-12-14T12:07:56Z</time>
      </trkpt>
      <trkpt lat="42.7884" lon="1.83681">
        <ele>1856.44</ele>
        <time>2019-12-14T12:08:33Z</time>
      </trkpt>
      <trkpt lat="42.7884" lon="1.83682">
        <ele>1856.44</ele>
        <time>2019-12-14T12:09:09Z</time>
      </trkpt>
      <trkpt lat="42.78841" lon="1.83681">
        <ele>1856.44</ele>
        <time>2019-12-14T12:09:49Z</time>
      </trkpt>
      <trkpt lat="42.7884" lon="1.8368">
        <ele>1856.44</ele>
        <time>2019-12-14T12:10:18Z</time>
      </trkpt>
      <trkpt lat="42.78838" lon="1.83681">
        <ele>1856.44</ele>
        <time>2019-12-14T12:11:03Z</time>
      </trkpt>
      <trkpt lat="42.78839" lon="1.83681">
        <ele>1856.44</ele>
        <time>2019-12-14T12:11:42Z</time>
      </trkpt>
      <trkpt lat="42.7884" lon="1.8368">
        <ele>1855.96</ele>
        <time>2019-12-14T12:12:20Z</time>
      </trkpt>
      <trkpt lat="42.7884" lon="1.83681">
        <ele>1856.44</ele>
        <time>2019-12-14T12:12:56Z</time>
      </trkpt>
      <trkpt lat="42.78841" lon="1.8368">
        <ele>1856.92</ele>
        <time>2019-12-14T12:13:26Z</time>
      </trkpt>
      <trkpt lat="42.7884" lon="1.83681">
        <ele>1857.4</ele>
        <time>2019-12-14T12:14:06Z</time>
      </trkpt>
      <trkpt lat="42.7884" lon="1.83681">
        <ele>1857.4</ele>
        <time>2019-12-14T12:14:43Z</time>
      </trkpt>
      <trkpt lat="42.7884" lon="1.8368">
        <ele>1857.4</ele>
        <time>2019-12-14T12:15:26Z</time>
      </trkpt>
      <trkpt lat="42.78841" lon="1.8368">
        <ele>1855.96</ele>
        <time>2019-12-14T12:16:04Z</time>
      </trkpt>
      <trkpt lat="42.7884" lon="1.83681">
        <ele>1855.96</ele>
        <time>2019-12-14T12:16:49Z</time>
      </trkpt>
      <trkpt lat="42.78841" lon="1.83681">
        <ele>1855.48</ele>
        <time>2019-12-14T12:17:23Z</time>
      </trkpt>
      <trkpt lat="42.78841" lon="1.83681">
        <ele>1859.33</ele>
        <time>2019-12-14T12:17:33Z</time>
      </trkpt>
      <trkpt lat="42.78842" lon="1.83681">
        <ele>1856.92</ele>
        <time>2019-12-14T12:17:34Z</time>
      </trkpt>
      <trkpt lat="42.7884" lon="1.83677">
        <ele>1856.92</ele>
        <time>2019-12-14T12:17:45Z</time>
      </trkpt>
      <trkpt lat="42.78841" lon="1.8368">
        <ele>1855</ele>
        <time>2019-12-14T12:17:54Z</time>
      </trkpt>
      <trkpt lat="42.78841" lon="1.8368">
        <ele>1855</ele>
        <time>2019-12-14T12:18:25Z</time>
      </trkpt>
      <trkpt lat="42.78841" lon="1.8368">
        <ele>1856.44</ele>
        <time>2019-12-14T12:18:43Z</time>
      </trkpt>
      <trkpt lat="42.78841" lon="1.83681">
        <ele>1856.44</ele>
        <time>2019-12-14T12:19:15Z</time>
      </trkpt>
      <trkpt lat="42.7884" lon="1.83683">
        <ele>1855</ele>
        <time>2019-12-14T12:19:53Z</time>
      </trkpt>
      <trkpt lat="42.7884" lon="1.83685">
        <ele>1855</ele>
        <time>2019-12-14T12:20:30Z</time>
      </trkpt>
      <trkpt lat="42.78841" lon="1.83684">
        <ele>1855</ele>
        <time>2019-12-14T12:21:02Z</time>
      </trkpt>
      <trkpt lat="42.78841" lon="1.83683">
        <ele>1855.96</ele>
        <time>2019-12-14T12:21:37Z</time>
      </trkpt>
      <trkpt lat="42.7884" lon="1.83682">
        <ele>1855.96</ele>
        <time>2019-12-14T12:22:09Z</time>
      </trkpt>
      <trkpt lat="42.7884" lon="1.83684">
        <ele>1856.44</ele>
        <time>2019-12-14T12:22:48Z</time>
      </trkpt>
      <trkpt lat="42.7884" lon="1.83686">
        <ele>1856.92</ele>
        <time>2019-12-14T12:23:19Z</time>
      </trkpt>
      <trkpt lat="42.78839" lon="1.83686">
        <ele>1855.48</ele>
        <time>2019-12-14T12:23:54Z</time>
      </trkpt>
      <trkpt lat="42.7884" lon="1.83683">
        <ele>1855.96</ele>
        <time>2019-12-14T12:24:18Z</time>
      </trkpt>
      <trkpt lat="42.7884" lon="1.83681">
        <ele>1856.92</ele>
        <time>2019-12-14T12:24:50Z</time>
      </trkpt>
      <trkpt lat="42.78839" lon="1.83682">
        <ele>1855.96</ele>
        <time>2019-12-14T12:25:06Z</time>
      </trkpt>
      <trkpt lat="42.78839" lon="1.83682">
        <ele>1857.89</ele>
        <time>2019-12-14T12:25:10Z</time>
      </trkpt>
      <trkpt lat="42.7884" lon="1.83681">
        <ele>1855.96</ele>
        <time>2019-12-14T12:25:15Z</time>
      </trkpt>
      <trkpt lat="42.78842" lon="1.83674">
        <ele>1854.52</ele>
        <time>2019-12-14T12:25:21Z</time>
      </trkpt>
      <trkpt lat="42.78844" lon="1.83671">
        <ele>1854.04</ele>
        <time>2019-12-14T12:25:33Z</time>
      </trkpt>
      <trkpt lat="42.78845" lon="1.83673">
        <ele>1854.04</ele>
        <time>2019-12-14T12:25:52Z</time>
      </trkpt>
      <trkpt lat="42.78844" lon="1.83674">
        <ele>1852.6</ele>
        <time>2019-12-14T12:25:59Z</time>
      </trkpt>
      <trkpt lat="42.78844" lon="1.83676">
        <ele>1855</ele>
        <time>2019-12-14T12:26:01Z</time>
      </trkpt>
      <trkpt lat="42.78843" lon="1.83677">
        <ele>1854.04</ele>
        <time>2019-12-14T12:26:02Z</time>
      </trkpt>
      <trkpt lat="42.78842" lon="1.8368">
        <ele>1855</ele>
        <time>2019-12-14T12:26:05Z</time>
      </trkpt>
      <trkpt lat="42.7884" lon="1.83681">
        <ele>1854.04</ele>
        <time>2019-12-14T12:26:08Z</time>
      </trkpt>
      <trkpt lat="42.7884" lon="1.83681">
        <ele>1856.92</ele>
        <time>2019-12-14T12:26:09Z</time>
      </trkpt>
      <trkpt lat="42.7884" lon="1.83681">
        <ele>1856.92</ele>
        <time>2019-12-14T12:26:10Z</time>
      </trkpt>
      <trkpt lat="42.7884" lon="1.83681">
        <ele>1853.56</ele>
        <time>2019-12-14T12:26:13Z</time>
      </trkpt>
      <trkpt lat="42.7884" lon="1.83681">
        <ele>1855.48</ele>
        <time>2019-12-14T12:26:14Z</time>
      </trkpt>
      <trkpt lat="42.78842" lon="1.83679">
        <ele>1855.96</ele>
        <time>2019-12-14T12:26:27Z</time>
      </trkpt>
      <trkpt lat="42.78841" lon="1.83678">
        <ele>1856.92</ele>
        <time>2019-12-14T12:26:31Z</time>
      </trkpt>
      <trkpt lat="42.78841" lon="1.83679">
        <ele>1855.48</ele>
        <time>2019-12-14T12:26:33Z</time>
      </trkpt>
      <trkpt lat="42.7884" lon="1.83678">
        <ele>1855</ele>
        <time>2019-12-14T12:26:51Z</time>
      </trkpt>
      <trkpt lat="42.78838" lon="1.83677">
        <ele>1856.44</ele>
        <time>2019-12-14T12:27:08Z</time>
      </trkpt>
      <trkpt lat="42.78841" lon="1.83678">
        <ele>1855.96</ele>
        <time>2019-12-14T12:27:20Z</time>
      </trkpt>
      <trkpt lat="42.78841" lon="1.83679">
        <ele>1855</ele>
        <time>2019-12-14T12:27:34Z</time>
      </trkpt>
      <trkpt lat="42.7884" lon="1.83679">
        <ele>1856.92</ele>
        <time>2019-12-14T12:27:36Z</time>
      </trkpt>
      <trkpt lat="42.78839" lon="1.83681">
        <ele>1855.96</ele>
        <time>2019-12-14T12:27:56Z</time>
      </trkpt>
      <trkpt lat="42.7884" lon="1.83682">
        <ele>1856.44</ele>
        <time>2019-12-14T12:28:16Z</time>
      </trkpt>
      <trkpt lat="42.78841" lon="1.8368">
        <ele>1856.44</ele>
        <time>2019-12-14T12:29:01Z</time>
      </trkpt>
      <trkpt lat="42.78842" lon="1.8368">
        <ele>1855</ele>
        <time>2019-12-14T12:29:22Z</time>
      </trkpt>
      <trkpt lat="42.78842" lon="1.8368">
        <ele>1856.92</ele>
        <time>2019-12-14T12:29:25Z</time>
      </trkpt>
      <trkpt lat="42.78841" lon="1.83682">
        <ele>1855.48</ele>
        <time>2019-12-14T12:30:04Z</time>
      </trkpt>
      <trkpt lat="42.7884" lon="1.83683">
        <ele>1855.48</ele>
        <time>2019-12-14T12:30:46Z</time>
      </trkpt>
      <trkpt lat="42.7884" lon="1.83682">
        <ele>1855.96</ele>
        <time>2019-12-14T12:31:20Z</time>
      </trkpt>
      <trkpt lat="42.78841" lon="1.83681">
        <ele>1855.96</ele>
        <time>2019-12-14T12:31:48Z</time>
      </trkpt>
      <trkpt lat="42.78846" lon="1.8368">
        <ele>1855.96</ele>
        <time>2019-12-14T12:32:20Z</time>
      </trkpt>
      <trkpt lat="42.78844" lon="1.83681">
        <ele>1859.33</ele>
        <time>2019-12-14T12:32:26Z</time>
      </trkpt>
      <trkpt lat="42.78844" lon="1.8368">
        <ele>1856.92</ele>
        <time>2019-12-14T12:32:27Z</time>
      </trkpt>
      <trkpt lat="42.78841" lon="1.8368">
        <ele>1857.4</ele>
        <time>2019-12-14T12:32:52Z</time>
      </trkpt>
      <trkpt lat="42.78839" lon="1.83676">
        <ele>1858.85</ele>
        <time>2019-12-14T12:33:15Z</time>
      </trkpt>
      <trkpt lat="42.78841" lon="1.8368">
        <ele>1857.4</ele>
        <time>2019-12-14T12:33:26Z</time>
      </trkpt>
      <trkpt lat="42.78841" lon="1.83679">
        <ele>1857.4</ele>
        <time>2019-12-14T12:33:51Z</time>
      </trkpt>
      <trkpt lat="42.78841" lon="1.83679">
        <ele>1858.37</ele>
        <time>2019-12-14T12:34:23Z</time>
      </trkpt>
      <trkpt lat="42.78841" lon="1.83679">
        <ele>1856.92</ele>
        <time>2019-12-14T12:34:26Z</time>
      </trkpt>
      <trkpt lat="42.7884" lon="1.83679">
        <ele>1858.37</ele>
        <time>2019-12-14T12:34:28Z</time>
      </trkpt>
      <trkpt lat="42.78841" lon="1.8368">
        <ele>1858.37</ele>
        <time>2019-12-14T12:34:58Z</time>
      </trkpt>
      <trkpt lat="42.78841" lon="1.83678">
        <ele>1857.4</ele>
        <time>2019-12-14T12:35:17Z</time>
      </trkpt>
      <trkpt lat="42.7884" lon="1.8368">
        <ele>1860.29</ele>
        <time>2019-12-14T12:35:24Z</time>
      </trkpt>
      <trkpt lat="42.78835" lon="1.83683">
        <ele>1860.29</ele>
        <time>2019-12-14T12:35:40Z</time>
      </trkpt>
      <trkpt lat="42.78834" lon="1.83683">
        <ele>1858.85</ele>
        <time>2019-12-14T12:35:51Z</time>
      </trkpt>
      <trkpt lat="42.78832" lon="1.83688">
        <ele>1857.4</ele>
        <time>2019-12-14T12:36:04Z</time>
      </trkpt>
      <trkpt lat="42.78832" lon="1.83687">
        <ele>1858.85</ele>
        <time>2019-12-14T12:36:05Z</time>
      </trkpt>
      <trkpt lat="42.78834" lon="1.83685">
        <ele>1860.29</ele>
        <time>2019-12-14T12:36:07Z</time>
      </trkpt>
      <trkpt lat="42.78833" lon="1.83685">
        <ele>1858.85</ele>
        <time>2019-12-14T12:36:10Z</time>
      </trkpt>
      <trkpt lat="42.78834" lon="1.83685">
        <ele>1858.85</ele>
        <time>2019-12-14T12:36:18Z</time>
      </trkpt>
      <trkpt lat="42.78836" lon="1.83682">
        <ele>1858.85</ele>
        <time>2019-12-14T12:36:29Z</time>
      </trkpt>
      <trkpt lat="42.78838" lon="1.83682">
        <ele>1857.89</ele>
        <time>2019-12-14T12:36:46Z</time>
      </trkpt>
      <trkpt lat="42.78841" lon="1.8368">
        <ele>1858.37</ele>
        <time>2019-12-14T12:36:56Z</time>
      </trkpt>
      <trkpt lat="42.78841" lon="1.83679">
        <ele>1856.92</ele>
        <time>2019-12-14T12:37:16Z</time>
      </trkpt>
      <trkpt lat="42.78836" lon="1.83682">
        <ele>1859.33</ele>
        <time>2019-12-14T12:37:21Z</time>
      </trkpt>
      <trkpt lat="42.78835" lon="1.83682">
        <ele>1855.96</ele>
        <time>2019-12-14T12:37:42Z</time>
      </trkpt>
      <trkpt lat="42.78835" lon="1.83682">
        <ele>1862.21</ele>
        <time>2019-12-14T12:37:43Z</time>
      </trkpt>
      <trkpt lat="42.78834" lon="1.83682">
        <ele>1859.33</ele>
        <time>2019-12-14T12:37:44Z</time>
      </trkpt>
      <trkpt lat="42.78833" lon="1.83682">
        <ele>1858.37</ele>
        <time>2019-12-14T12:37:46Z</time>
      </trkpt>
      <trkpt lat="42.78833" lon="1.83682">
        <ele>1855</ele>
        <time>2019-12-14T12:37:55Z</time>
      </trkpt>
      <trkpt lat="42.78833" lon="1.83682">
        <ele>1861.73</ele>
        <time>2019-12-14T12:37:56Z</time>
      </trkpt>
      <trkpt lat="42.78833" lon="1.83682">
        <ele>1855</ele>
        <time>2019-12-14T12:37:58Z</time>
      </trkpt>
      <trkpt lat="42.78833" lon="1.83682">
        <ele>1860.29</ele>
        <time>2019-12-14T12:37:59Z</time>
      </trkpt>
      <trkpt lat="42.78833" lon="1.83681">
        <ele>1856.44</ele>
        <time>2019-12-14T12:38:03Z</time>
      </trkpt>
      <trkpt lat="42.78834" lon="1.83681">
        <ele>1859.33</ele>
        <time>2019-12-14T12:38:22Z</time>
      </trkpt>
      <trkpt lat="42.78834" lon="1.83683">
        <ele>1856.92</ele>
        <time>2019-12-14T12:38:49Z</time>
      </trkpt>
      <trkpt lat="42.78834" lon="1.83683">
        <ele>1861.73</ele>
        <time>2019-12-14T12:38:50Z</time>
      </trkpt>
      <trkpt lat="42.78834" lon="1.83683">
        <ele>1857.89</ele>
        <time>2019-12-14T12:38:51Z</time>
      </trkpt>
      <trkpt lat="42.78834" lon="1.83683">
        <ele>1861.25</ele>
        <time>2019-12-14T12:38:54Z</time>
      </trkpt>
      <trkpt lat="42.78834" lon="1.83683">
        <ele>1857.89</ele>
        <time>2019-12-14T12:38:57Z</time>
      </trkpt>
      <trkpt lat="42.78833" lon="1.83683">
        <ele>1856.44</ele>
        <time>2019-12-14T12:39:13Z</time>
      </trkpt>
      <trkpt lat="42.78833" lon="1.83683">
        <ele>1860.77</ele>
        <time>2019-12-14T12:39:16Z</time>
      </trkpt>
      <trkpt lat="42.78833" lon="1.83682">
        <ele>1857.4</ele>
        <time>2019-12-14T12:39:18Z</time>
      </trkpt>
      <trkpt lat="42.78833" lon="1.83682">
        <ele>1857.4</ele>
        <time>2019-12-14T12:39:19Z</time>
      </trkpt>
      <trkpt lat="42.78832" lon="1.83682">
        <ele>1862.21</ele>
        <time>2019-12-14T12:39:36Z</time>
      </trkpt>
      <trkpt lat="42.78832" lon="1.83682">
        <ele>1860.29</ele>
        <time>2019-12-14T12:39:37Z</time>
      </trkpt>
      <trkpt lat="42.78832" lon="1.83682">
        <ele>1856.44</ele>
        <time>2019-12-14T12:39:39Z</time>
      </trkpt>
      <trkpt lat="42.78832" lon="1.83682">
        <ele>1862.69</ele>
        <time>2019-12-14T12:39:40Z</time>
      </trkpt>
      <trkpt lat="42.78834" lon="1.83681">
        <ele>1859.33</ele>
        <time>2019-12-14T12:39:47Z</time>
      </trkpt>
      <trkpt lat="42.78834" lon="1.83681">
        <ele>1859.33</ele>
        <time>2019-12-14T12:40:22Z</time>
      </trkpt>
      <trkpt lat="42.78835" lon="1.83681">
        <ele>1859.33</ele>
        <time>2019-12-14T12:40:36Z</time>
      </trkpt>
      <trkpt lat="42.78833" lon="1.83681">
        <ele>1857.89</ele>
        <time>2019-12-14T12:40:38Z</time>
      </trkpt>
      <trkpt lat="42.78832" lon="1.83682">
        <ele>1859.81</ele>
        <time>2019-12-14T12:40:41Z</time>
      </trkpt>
      <trkpt lat="42.7883" lon="1.83687">
        <ele>1857.4</ele>
        <time>2019-12-14T12:40:53Z</time>
      </trkpt>
      <trkpt lat="42.7883" lon="1.83687">
        <ele>1857.4</ele>
        <time>2019-12-14T12:40:54Z</time>
      </trkpt>
      <trkpt lat="42.7883" lon="1.83687">
        <ele>1857.4</ele>
        <time>2019-12-14T12:40:55Z</time>
      </trkpt>
      <trkpt lat="42.78828" lon="1.83692">
        <ele>1857.4</ele>
        <time>2019-12-14T12:40:59Z</time>
      </trkpt>
      <trkpt lat="42.78826" lon="1.83695">
        <ele>1857.4</ele>
        <time>2019-12-14T12:41:01Z</time>
      </trkpt>
      <trkpt lat="42.78825" lon="1.83697">
        <ele>1857.4</ele>
        <time>2019-12-14T12:41:02Z</time>
      </trkpt>
      <trkpt lat="42.78824" lon="1.83698">
        <ele>1855.96</ele>
        <time>2019-12-14T12:41:03Z</time>
      </trkpt>
      <trkpt lat="42.78824" lon="1.83698">
        <ele>1858.85</ele>
        <time>2019-12-14T12:41:10Z</time>
      </trkpt>
      <trkpt lat="42.78824" lon="1.83697">
        <ele>1856.92</ele>
        <time>2019-12-14T12:41:12Z</time>
      </trkpt>
      <trkpt lat="42.78825" lon="1.83697">
        <ele>1855.96</ele>
        <time>2019-12-14T12:41:14Z</time>
      </trkpt>
      <trkpt lat="42.78825" lon="1.83696">
        <ele>1855.96</ele>
        <time>2019-12-14T12:41:15Z</time>
      </trkpt>
      <trkpt lat="42.78826" lon="1.83693">
        <ele>1856.44</ele>
        <time>2019-12-14T12:41:18Z</time>
      </trkpt>
      <trkpt lat="42.78823" lon="1.83696">
        <ele>1857.4</ele>
        <time>2019-12-14T12:41:27Z</time>
      </trkpt>
      <trkpt lat="42.78823" lon="1.83696">
        <ele>1855.96</ele>
        <time>2019-12-14T12:41:42Z</time>
      </trkpt>
      <trkpt lat="42.78822" lon="1.83696">
        <ele>1855.96</ele>
        <time>2019-12-14T12:42:03Z</time>
      </trkpt>
      <trkpt lat="42.78822" lon="1.83696">
        <ele>1855.96</ele>
        <time>2019-12-14T12:42:37Z</time>
      </trkpt>
      <trkpt lat="42.78827" lon="1.83696">
        <ele>1855.48</ele>
        <time>2019-12-14T12:42:48Z</time>
      </trkpt>
      <trkpt lat="42.78827" lon="1.83696">
        <ele>1856.44</ele>
        <time>2019-12-14T12:42:57Z</time>
      </trkpt>
      <trkpt lat="42.78823" lon="1.83695">
        <ele>1856.92</ele>
        <time>2019-12-14T12:43:15Z</time>
      </trkpt>
      <trkpt lat="42.78823" lon="1.83696">
        <ele>1855.96</ele>
        <time>2019-12-14T12:43:36Z</time>
      </trkpt>
      <trkpt lat="42.78822" lon="1.83697">
        <ele>1855</ele>
        <time>2019-12-14T12:43:52Z</time>
      </trkpt>
      <trkpt lat="42.78821" lon="1.83698">
        <ele>1855</ele>
        <time>2019-12-14T12:43:53Z</time>
      </trkpt>
      <trkpt lat="42.78814" lon="1.83709">
        <ele>1853.08</ele>
        <time>2019-12-14T12:44:01Z</time>
      </trkpt>
      <trkpt lat="42.78808" lon="1.83713">
        <ele>1851.64</ele>
        <time>2019-12-14T12:44:06Z</time>
      </trkpt>
      <trkpt lat="42.78797" lon="1.83718">
        <ele>1849.71</ele>
        <time>2019-12-14T12:44:16Z</time>
      </trkpt>
      <trkpt lat="42.78783" lon="1.8372">
        <ele>1846.83</ele>
        <time>2019-12-14T12:44:26Z</time>
      </trkpt>
      <trkpt lat="42.78771" lon="1.83723">
        <ele>1844.91</ele>
        <time>2019-12-14T12:44:34Z</time>
      </trkpt>
      <trkpt lat="42.78766" lon="1.83723">
        <ele>1843.47</ele>
        <time>2019-12-14T12:44:38Z</time>
      </trkpt>
      <trkpt lat="42.78761" lon="1.83723">
        <ele>1842.02</ele>
        <time>2019-12-14T12:44:42Z</time>
      </trkpt>
      <trkpt lat="42.78755" lon="1.83723">
        <ele>1841.54</ele>
        <time>2019-12-14T12:44:46Z</time>
      </trkpt>
      <trkpt lat="42.78742" lon="1.83724">
        <ele>1839.14</ele>
        <time>2019-12-14T12:44:56Z</time>
      </trkpt>
      <trkpt lat="42.78736" lon="1.83724">
        <ele>1837.7</ele>
        <time>2019-12-14T12:45:01Z</time>
      </trkpt>
      <trkpt lat="42.78722" lon="1.83726">
        <ele>1835.29</ele>
        <time>2019-12-14T12:45:12Z</time>
      </trkpt>
      <trkpt lat="42.78716" lon="1.83728">
        <ele>1834.81</ele>
        <time>2019-12-14T12:45:18Z</time>
      </trkpt>
      <trkpt lat="42.78712" lon="1.8373">
        <ele>1834.33</ele>
        <time>2019-12-14T12:45:22Z</time>
      </trkpt>
      <trkpt lat="42.78704" lon="1.83743">
        <ele>1834.33</ele>
        <time>2019-12-14T12:45:37Z</time>
      </trkpt>
      <trkpt lat="42.78699" lon="1.83746">
        <ele>1832.89</ele>
        <time>2019-12-14T12:45:43Z</time>
      </trkpt>
      <trkpt lat="42.78697" lon="1.83747">
        <ele>1834.33</ele>
        <time>2019-12-14T12:45:45Z</time>
      </trkpt>
      <trkpt lat="42.78693" lon="1.83746">
        <ele>1832.89</ele>
        <time>2019-12-14T12:45:49Z</time>
      </trkpt>
      <trkpt lat="42.7869" lon="1.83747">
        <ele>1832.41</ele>
        <time>2019-12-14T12:45:52Z</time>
      </trkpt>
      <trkpt lat="42.78688" lon="1.83748">
        <ele>1833.37</ele>
        <time>2019-12-14T12:45:55Z</time>
      </trkpt>
      <trkpt lat="42.78685" lon="1.83749">
        <ele>1831.93</ele>
        <time>2019-12-14T12:45:58Z</time>
      </trkpt>
      <trkpt lat="42.78683" lon="1.8375">
        <ele>1833.37</ele>
        <time>2019-12-14T12:46:00Z</time>
      </trkpt>
      <trkpt lat="42.78681" lon="1.83751">
        <ele>1830.49</ele>
        <time>2019-12-14T12:46:03Z</time>
      </trkpt>
      <trkpt lat="42.7867" lon="1.83755">
        <ele>1831.45</ele>
        <time>2019-12-14T12:46:15Z</time>
      </trkpt>
      <trkpt lat="42.7867" lon="1.83754">
        <ele>1831.45</ele>
        <time>2019-12-14T12:46:16Z</time>
      </trkpt>
      <trkpt lat="42.78668" lon="1.83754">
        <ele>1831.45</ele>
        <time>2019-12-14T12:46:18Z</time>
      </trkpt>
      <trkpt lat="42.78666" lon="1.83753">
        <ele>1831.45</ele>
        <time>2019-12-14T12:46:33Z</time>
      </trkpt>
      <trkpt lat="42.78665" lon="1.83753">
        <ele>1831.45</ele>
        <time>2019-12-14T12:46:55Z</time>
      </trkpt>
      <trkpt lat="42.78665" lon="1.83753">
        <ele>1829.53</ele>
        <time>2019-12-14T12:46:57Z</time>
      </trkpt>
      <trkpt lat="42.78669" lon="1.83754">
        <ele>1831.45</ele>
        <time>2019-12-14T12:47:02Z</time>
      </trkpt>
      <trkpt lat="42.78669" lon="1.83756">
        <ele>1831.45</ele>
        <time>2019-12-14T12:47:09Z</time>
      </trkpt>
      <trkpt lat="42.7867" lon="1.83758">
        <ele>1830.49</ele>
        <time>2019-12-14T12:47:14Z</time>
      </trkpt>
      <trkpt lat="42.78671" lon="1.83757">
        <ele>1831.93</ele>
        <time>2019-12-14T12:47:16Z</time>
      </trkpt>
      <trkpt lat="42.7867" lon="1.83756">
        <ele>1830.01</ele>
        <time>2019-12-14T12:47:24Z</time>
      </trkpt>
      <trkpt lat="42.78665" lon="1.83754">
        <ele>1830.01</ele>
        <time>2019-12-14T12:47:36Z</time>
      </trkpt>
      <trkpt lat="42.78667" lon="1.83753">
        <ele>1831.45</ele>
        <time>2019-12-14T12:47:51Z</time>
      </trkpt>
      <trkpt lat="42.78667" lon="1.83753">
        <ele>1831.45</ele>
        <time>2019-12-14T12:48:10Z</time>
      </trkpt>
      <trkpt lat="42.78667" lon="1.83753">
        <ele>1830.49</ele>
        <time>2019-12-14T12:48:42Z</time>
      </trkpt>
      <trkpt lat="42.78666" lon="1.83752">
        <ele>1830.97</ele>
        <time>2019-12-14T12:49:06Z</time>
      </trkpt>
      <trkpt lat="42.78663" lon="1.83751">
        <ele>1829.53</ele>
        <time>2019-12-14T12:49:26Z</time>
      </trkpt>
      <trkpt lat="42.78661" lon="1.83749">
        <ele>1829.05</ele>
        <time>2019-12-14T12:49:30Z</time>
      </trkpt>
      <trkpt lat="42.78659" lon="1.83748">
        <ele>1830.49</ele>
        <time>2019-12-14T12:49:32Z</time>
      </trkpt>
      <trkpt lat="42.78656" lon="1.83744">
        <ele>1829.05</ele>
        <time>2019-12-14T12:49:42Z</time>
      </trkpt>
      <trkpt lat="42.78655" lon="1.83742">
        <ele>1828.08</ele>
        <time>2019-12-14T12:50:05Z</time>
      </trkpt>
      <trkpt lat="42.78655" lon="1.83742">
        <ele>1830.01</ele>
        <time>2019-12-14T12:50:07Z</time>
      </trkpt>
      <trkpt lat="42.78654" lon="1.83741">
        <ele>1828.56</ele>
        <time>2019-12-14T12:50:10Z</time>
      </trkpt>
      <trkpt lat="42.7865" lon="1.83737">
        <ele>1828.56</ele>
        <time>2019-12-14T12:50:18Z</time>
      </trkpt>
      <trkpt lat="42.78648" lon="1.83735">
        <ele>1827.12</ele>
        <time>2019-12-14T12:50:20Z</time>
      </trkpt>
      <trkpt lat="42.78647" lon="1.83734">
        <ele>1826.16</ele>
        <time>2019-12-14T12:50:21Z</time>
      </trkpt>
      <trkpt lat="42.78639" lon="1.83725">
        <ele>1824.72</ele>
        <time>2019-12-14T12:50:32Z</time>
      </trkpt>
      <trkpt lat="42.78632" lon="1.83716">
        <ele>1823.28</ele>
        <time>2019-12-14T12:50:43Z</time>
      </trkpt>
      <trkpt lat="42.78628" lon="1.83711">
        <ele>1822.8</ele>
        <time>2019-12-14T12:50:48Z</time>
      </trkpt>
      <trkpt lat="42.78622" lon="1.83707">
        <ele>1822.8</ele>
        <time>2019-12-14T12:50:55Z</time>
      </trkpt>
      <trkpt lat="42.78618" lon="1.83702">
        <ele>1823.28</ele>
        <time>2019-12-14T12:51:01Z</time>
      </trkpt>
      <trkpt lat="42.78616" lon="1.83699">
        <ele>1821.35</ele>
        <time>2019-12-14T12:51:04Z</time>
      </trkpt>
      <trkpt lat="42.78614" lon="1.83697">
        <ele>1822.32</ele>
        <time>2019-12-14T12:51:06Z</time>
      </trkpt>
      <trkpt lat="42.78606" lon="1.83687">
        <ele>1820.39</ele>
        <time>2019-12-14T12:51:16Z</time>
      </trkpt>
      <trkpt lat="42.786" lon="1.83678">
        <ele>1821.35</ele>
        <time>2019-12-14T12:51:26Z</time>
      </trkpt>
      <trkpt lat="42.78594" lon="1.83666">
        <ele>1817.99</ele>
        <time>2019-12-14T12:51:37Z</time>
      </trkpt>
      <trkpt lat="42.78592" lon="1.83662">
        <ele>1817.03</ele>
        <time>2019-12-14T12:51:40Z</time>
      </trkpt>
      <trkpt lat="42.78584" lon="1.83648">
        <ele>1820.87</ele>
        <time>2019-12-14T12:51:52Z</time>
      </trkpt>
      <trkpt lat="42.78579" lon="1.83636">
        <ele>1820.39</ele>
        <time>2019-12-14T12:52:02Z</time>
      </trkpt>
      <trkpt lat="42.78577" lon="1.83633">
        <ele>1821.84</ele>
        <time>2019-12-14T12:52:05Z</time>
      </trkpt>
      <trkpt lat="42.78575" lon="1.83628">
        <ele>1821.35</ele>
        <time>2019-12-14T12:52:09Z</time>
      </trkpt>
      <trkpt lat="42.78572" lon="1.83624">
        <ele>1820.39</ele>
        <time>2019-12-14T12:52:14Z</time>
      </trkpt>
      <trkpt lat="42.78571" lon="1.83623">
        <ele>1825.68</ele>
        <time>2019-12-14T12:52:15Z</time>
      </trkpt>
      <trkpt lat="42.7857" lon="1.83621">
        <ele>1825.2</ele>
        <time>2019-12-14T12:52:17Z</time>
      </trkpt>
      <trkpt lat="42.78567" lon="1.83616">
        <ele>1826.16</ele>
        <time>2019-12-14T12:52:22Z</time>
      </trkpt>
      <trkpt lat="42.78566" lon="1.83616">
        <ele>1822.8</ele>
        <time>2019-12-14T12:52:23Z</time>
      </trkpt>
      <trkpt lat="42.78566" lon="1.83604">
        <ele>1825.2</ele>
        <time>2019-12-14T12:52:35Z</time>
      </trkpt>
      <trkpt lat="42.78565" lon="1.83605">
        <ele>1825.68</ele>
        <time>2019-12-14T12:52:55Z</time>
      </trkpt>
      <trkpt lat="42.78566" lon="1.83606">
        <ele>1825.68</ele>
        <time>2019-12-14T12:53:08Z</time>
      </trkpt>
      <trkpt lat="42.78565" lon="1.83605">
        <ele>1826.16</ele>
        <time>2019-12-14T12:53:26Z</time>
      </trkpt>
      <trkpt lat="42.78565" lon="1.83607">
        <ele>1824.24</ele>
        <time>2019-12-14T12:53:49Z</time>
      </trkpt>
      <trkpt lat="42.78564" lon="1.83606">
        <ele>1826.16</ele>
        <time>2019-12-14T12:54:15Z</time>
      </trkpt>
      <trkpt lat="42.78563" lon="1.83607">
        <ele>1824.72</ele>
        <time>2019-12-14T12:54:18Z</time>
      </trkpt>
      <trkpt lat="42.78562" lon="1.83613">
        <ele>1823.76</ele>
        <time>2019-12-14T12:54:24Z</time>
      </trkpt>
      <trkpt lat="42.78562" lon="1.83621">
        <ele>1821.35</ele>
        <time>2019-12-14T12:54:31Z</time>
      </trkpt>
      <trkpt lat="42.78563" lon="1.83626">
        <ele>1822.8</ele>
        <time>2019-12-14T12:54:36Z</time>
      </trkpt>
      <trkpt lat="42.78563" lon="1.8364">
        <ele>1820.87</ele>
        <time>2019-12-14T12:54:48Z</time>
      </trkpt>
      <trkpt lat="42.78566" lon="1.83652">
        <ele>1820.87</ele>
        <time>2019-12-14T12:55:00Z</time>
      </trkpt>
      <trkpt lat="42.78567" lon="1.83655">
        <ele>1819.43</ele>
        <time>2019-12-14T12:55:02Z</time>
      </trkpt>
      <trkpt lat="42.78572" lon="1.83664">
        <ele>1817.51</ele>
        <time>2019-12-14T12:55:12Z</time>
      </trkpt>
      <trkpt lat="42.78573" lon="1.83666">
        <ele>1818.95</ele>
        <time>2019-12-14T12:55:14Z</time>
      </trkpt>
      <trkpt lat="42.78572" lon="1.83675">
        <ele>1817.03</ele>
        <time>2019-12-14T12:55:21Z</time>
      </trkpt>
      <trkpt lat="42.78567" lon="1.83684">
        <ele>1816.55</ele>
        <time>2019-12-14T12:55:31Z</time>
      </trkpt>
      <trkpt lat="42.78562" lon="1.8369">
        <ele>1817.51</ele>
        <time>2019-12-14T12:55:39Z</time>
      </trkpt>
      <trkpt lat="42.78558" lon="1.83695">
        <ele>1816.55</ele>
        <time>2019-12-14T12:55:45Z</time>
      </trkpt>
      <trkpt lat="42.78549" lon="1.83704">
        <ele>1815.11</ele>
        <time>2019-12-14T12:55:57Z</time>
      </trkpt>
      <trkpt lat="42.78547" lon="1.83705">
        <ele>1816.07</ele>
        <time>2019-12-14T12:56:05Z</time>
      </trkpt>
      <trkpt lat="42.78545" lon="1.83704">
        <ele>1815.11</ele>
        <time>2019-12-14T12:56:33Z</time>
      </trkpt>
      <trkpt lat="42.78545" lon="1.83705">
        <ele>1814.63</ele>
        <time>2019-12-14T12:56:40Z</time>
      </trkpt>
      <trkpt lat="42.78543" lon="1.83708">
        <ele>1813.66</ele>
        <time>2019-12-14T12:56:52Z</time>
      </trkpt>
      <trkpt lat="42.78542" lon="1.83709">
        <ele>1814.15</ele>
        <time>2019-12-14T12:57:05Z</time>
      </trkpt>
      <trkpt lat="42.78542" lon="1.83709">
        <ele>1815.11</ele>
        <time>2019-12-14T12:57:32Z</time>
      </trkpt>
      <trkpt lat="42.7854" lon="1.83709">
        <ele>1813.66</ele>
        <time>2019-12-14T12:57:34Z</time>
      </trkpt>
      <trkpt lat="42.78536" lon="1.83711">
        <ele>1812.7</ele>
        <time>2019-12-14T12:57:38Z</time>
      </trkpt>
      <trkpt lat="42.78529" lon="1.83713">
        <ele>1810.3</ele>
        <time>2019-12-14T12:57:45Z</time>
      </trkpt>
      <trkpt lat="42.78529" lon="1.83713">
        <ele>1810.3</ele>
        <time>2019-12-14T12:58:04Z</time>
      </trkpt>
      <trkpt lat="42.78529" lon="1.83711">
        <ele>1809.82</ele>
        <time>2019-12-14T12:58:25Z</time>
      </trkpt>
      <trkpt lat="42.78527" lon="1.83709">
        <ele>1809.34</ele>
        <time>2019-12-14T12:58:40Z</time>
      </trkpt>
      <trkpt lat="42.78525" lon="1.83706">
        <ele>1809.82</ele>
        <time>2019-12-14T12:58:55Z</time>
      </trkpt>
      <trkpt lat="42.78519" lon="1.83711">
        <ele>1800.21</ele>
        <time>2019-12-14T12:59:00Z</time>
      </trkpt>
      <trkpt lat="42.78519" lon="1.83711">
        <ele>1804.53</ele>
        <time>2019-12-14T12:59:01Z</time>
      </trkpt>
      <trkpt lat="42.78518" lon="1.83711">
        <ele>1808.86</ele>
        <time>2019-12-14T12:59:03Z</time>
      </trkpt>
      <trkpt lat="42.78514" lon="1.83713">
        <ele>1804.53</ele>
        <time>2019-12-14T12:59:06Z</time>
      </trkpt>
      <trkpt lat="42.7851" lon="1.83713">
        <ele>1803.57</ele>
        <time>2019-12-14T12:59:16Z</time>
      </trkpt>
      <trkpt lat="42.78511" lon="1.83714">
        <ele>1803.57</ele>
        <time>2019-12-14T12:59:52Z</time>
      </trkpt>
      <trkpt lat="42.78513" lon="1.83713">
        <ele>1797.8</ele>
        <time>2019-12-14T13:00:11Z</time>
      </trkpt>
      <trkpt lat="42.78513" lon="1.83712">
        <ele>1810.78</ele>
        <time>2019-12-14T13:00:12Z</time>
      </trkpt>
      <trkpt lat="42.78509" lon="1.83713">
        <ele>1803.57</ele>
        <time>2019-12-14T13:00:15Z</time>
      </trkpt>
      <trkpt lat="42.78499" lon="1.83717">
        <ele>1801.17</ele>
        <time>2019-12-14T13:00:24Z</time>
      </trkpt>
      <trkpt lat="42.7849" lon="1.83716">
        <ele>1800.69</ele>
        <time>2019-12-14T13:00:29Z</time>
      </trkpt>
      <trkpt lat="42.78486" lon="1.83718">
        <ele>1799.24</ele>
        <time>2019-12-14T13:00:31Z</time>
      </trkpt>
      <trkpt lat="42.7848" lon="1.83719">
        <ele>1798.28</ele>
        <time>2019-12-14T13:00:36Z</time>
      </trkpt>
      <trkpt lat="42.78474" lon="1.83722">
        <ele>1797.8</ele>
        <time>2019-12-14T13:00:46Z</time>
      </trkpt>
      <trkpt lat="42.78474" lon="1.83722">
        <ele>1797.8</ele>
        <time>2019-12-14T13:01:13Z</time>
      </trkpt>
      <trkpt lat="42.78473" lon="1.83722">
        <ele>1796.84</ele>
        <time>2019-12-14T13:01:41Z</time>
      </trkpt>
      <trkpt lat="42.78457" lon="1.83724">
        <ele>1794.44</ele>
        <time>2019-12-14T13:01:49Z</time>
      </trkpt>
      <trkpt lat="42.78443" lon="1.83727">
        <ele>1790.59</ele>
        <time>2019-12-14T13:01:56Z</time>
      </trkpt>
      <trkpt lat="42.78441" lon="1.83727">
        <ele>1790.59</ele>
        <time>2019-12-14T13:01:57Z</time>
      </trkpt>
      <trkpt lat="42.78432" lon="1.83728">
        <ele>1788.67</ele>
        <time>2019-12-14T13:02:03Z</time>
      </trkpt>
      <trkpt lat="42.78428" lon="1.83728">
        <ele>1787.71</ele>
        <time>2019-12-14T13:02:07Z</time>
      </trkpt>
      <trkpt lat="42.78413" lon="1.83729">
        <ele>1784.34</ele>
        <time>2019-12-14T13:02:18Z</time>
      </trkpt>
      <trkpt lat="42.78411" lon="1.83729">
        <ele>1784.34</ele>
        <time>2019-12-14T13:02:19Z</time>
      </trkpt>
      <trkpt lat="42.78399" lon="1.83728">
        <ele>1785.79</ele>
        <time>2019-12-14T13:02:29Z</time>
      </trkpt>
      <trkpt lat="42.78394" lon="1.8373">
        <ele>1783.38</ele>
        <time>2019-12-14T13:02:34Z</time>
      </trkpt>
      <trkpt lat="42.78393" lon="1.83731">
        <ele>1784.82</ele>
        <time>2019-12-14T13:02:36Z</time>
      </trkpt>
      <trkpt lat="42.7839" lon="1.83736">
        <ele>1783.38</ele>
        <time>2019-12-14T13:02:41Z</time>
      </trkpt>
      <trkpt lat="42.78387" lon="1.83741">
        <ele>1783.38</ele>
        <time>2019-12-14T13:02:47Z</time>
      </trkpt>
      <trkpt lat="42.78383" lon="1.83745">
        <ele>1781.94</ele>
        <time>2019-12-14T13:02:53Z</time>
      </trkpt>
      <trkpt lat="42.78381" lon="1.83746">
        <ele>1781.46</ele>
        <time>2019-12-14T13:02:56Z</time>
      </trkpt>
      <trkpt lat="42.78377" lon="1.8375">
        <ele>1780.98</ele>
        <time>2019-12-14T13:03:02Z</time>
      </trkpt>
      <trkpt lat="42.78379" lon="1.83756">
        <ele>1784.34</ele>
        <time>2019-12-14T13:03:07Z</time>
      </trkpt>
      <trkpt lat="42.78382" lon="1.83758">
        <ele>1785.79</ele>
        <time>2019-12-14T13:03:11Z</time>
      </trkpt>
      <trkpt lat="42.78383" lon="1.83759">
        <ele>1783.86</ele>
        <time>2019-12-14T13:03:12Z</time>
      </trkpt>
      <trkpt lat="42.78383" lon="1.83763">
        <ele>1784.34</ele>
        <time>2019-12-14T13:03:21Z</time>
      </trkpt>
      <trkpt lat="42.78383" lon="1.83765">
        <ele>1782.9</ele>
        <time>2019-12-14T13:03:24Z</time>
      </trkpt>
      <trkpt lat="42.78382" lon="1.83765">
        <ele>1782.42</ele>
        <time>2019-12-14T13:03:53Z</time>
      </trkpt>
      <trkpt lat="42.78382" lon="1.8377">
        <ele>1782.42</ele>
        <time>2019-12-14T13:04:07Z</time>
      </trkpt>
      <trkpt lat="42.78382" lon="1.83771">
        <ele>1781.94</ele>
        <time>2019-12-14T13:04:08Z</time>
      </trkpt>
      <trkpt lat="42.78382" lon="1.83786">
        <ele>1780.98</ele>
        <time>2019-12-14T13:04:19Z</time>
      </trkpt>
      <trkpt lat="42.78381" lon="1.8379">
        <ele>1781.46</ele>
        <time>2019-12-14T13:04:29Z</time>
      </trkpt>
      <trkpt lat="42.78381" lon="1.8379">
        <ele>1781.46</ele>
        <time>2019-12-14T13:04:34Z</time>
      </trkpt>
      <trkpt lat="42.7838" lon="1.83793">
        <ele>1781.46</ele>
        <time>2019-12-14T13:04:37Z</time>
      </trkpt>
      <trkpt lat="42.78379" lon="1.83795">
        <ele>1780.98</ele>
        <time>2019-12-14T13:04:39Z</time>
      </trkpt>
      <trkpt lat="42.78375" lon="1.83803">
        <ele>1782.42</ele>
        <time>2019-12-14T13:04:46Z</time>
      </trkpt>
      <trkpt lat="42.78367" lon="1.8381">
        <ele>1781.46</ele>
        <time>2019-12-14T13:04:57Z</time>
      </trkpt>
      <trkpt lat="42.78365" lon="1.83811">
        <ele>1780.02</ele>
        <time>2019-12-14T13:04:59Z</time>
      </trkpt>
      <trkpt lat="42.7836" lon="1.83816">
        <ele>1779.54</ele>
        <time>2019-12-14T13:05:11Z</time>
      </trkpt>
      <trkpt lat="42.7836" lon="1.83816">
        <ele>1780.02</ele>
        <time>2019-12-14T13:05:22Z</time>
      </trkpt>
      <trkpt lat="42.7836" lon="1.83816">
        <ele>1779.06</ele>
        <time>2019-12-14T13:05:48Z</time>
      </trkpt>
      <trkpt lat="42.78358" lon="1.83817">
        <ele>1778.58</ele>
        <time>2019-12-14T13:06:10Z</time>
      </trkpt>
      <trkpt lat="42.78357" lon="1.83816">
        <ele>1779.06</ele>
        <time>2019-12-14T13:06:24Z</time>
      </trkpt>
      <trkpt lat="42.78357" lon="1.83817">
        <ele>1778.58</ele>
        <time>2019-12-14T13:06:34Z</time>
      </trkpt>
      <trkpt lat="42.78357" lon="1.8382">
        <ele>1777.13</ele>
        <time>2019-12-14T13:06:49Z</time>
      </trkpt>
      <trkpt lat="42.78357" lon="1.8382">
        <ele>1777.13</ele>
        <time>2019-12-14T13:07:03Z</time>
      </trkpt>
      <trkpt lat="42.78356" lon="1.83819">
        <ele>1777.13</ele>
        <time>2019-12-14T13:07:05Z</time>
      </trkpt>
      <trkpt lat="42.78352" lon="1.8382">
        <ele>1775.69</ele>
        <time>2019-12-14T13:07:10Z</time>
      </trkpt>
      <trkpt lat="42.78337" lon="1.83821">
        <ele>1772.33</ele>
        <time>2019-12-14T13:07:25Z</time>
      </trkpt>
      <trkpt lat="42.78333" lon="1.8382">
        <ele>1772.33</ele>
        <time>2019-12-14T13:07:32Z</time>
      </trkpt>
      <trkpt lat="42.78332" lon="1.8382">
        <ele>1772.33</ele>
        <time>2019-12-14T13:08:09Z</time>
      </trkpt>
      <trkpt lat="42.78332" lon="1.8382">
        <ele>1770.89</ele>
        <time>2019-12-14T13:08:14Z</time>
      </trkpt>
      <trkpt lat="42.78331" lon="1.8382">
        <ele>1776.17</ele>
        <time>2019-12-14T13:08:28Z</time>
      </trkpt>
      <trkpt lat="42.7833" lon="1.8382">
        <ele>1771.37</ele>
        <time>2019-12-14T13:08:29Z</time>
      </trkpt>
      <trkpt lat="42.78322" lon="1.83821">
        <ele>1768</ele>
        <time>2019-12-14T13:08:38Z</time>
      </trkpt>
      <trkpt lat="42.78311" lon="1.83816">
        <ele>1767.04</ele>
        <time>2019-12-14T13:08:49Z</time>
      </trkpt>
      <trkpt lat="42.78298" lon="1.8381">
        <ele>1765.12</ele>
        <time>2019-12-14T13:09:00Z</time>
      </trkpt>
      <trkpt lat="42.78285" lon="1.83809">
        <ele>1762.71</ele>
        <time>2019-12-14T13:09:10Z</time>
      </trkpt>
      <trkpt lat="42.78284" lon="1.83809">
        <ele>1762.71</ele>
        <time>2019-12-14T13:09:11Z</time>
      </trkpt>
      <trkpt lat="42.78283" lon="1.83809">
        <ele>1762.71</ele>
        <time>2019-12-14T13:09:12Z</time>
      </trkpt>
      <trkpt lat="42.78275" lon="1.83807">
        <ele>1763.68</ele>
        <time>2019-12-14T13:09:19Z</time>
      </trkpt>
      <trkpt lat="42.78274" lon="1.83806">
        <ele>1763.68</ele>
        <time>2019-12-14T13:09:20Z</time>
      </trkpt>
      <trkpt lat="42.78272" lon="1.83806">
        <ele>1761.75</ele>
        <time>2019-12-14T13:09:21Z</time>
      </trkpt>
      <trkpt lat="42.78271" lon="1.83806">
        <ele>1761.75</ele>
        <time>2019-12-14T13:09:22Z</time>
      </trkpt>
      <trkpt lat="42.78261" lon="1.83808">
        <ele>1759.35</ele>
        <time>2019-12-14T13:09:32Z</time>
      </trkpt>
      <trkpt lat="42.78258" lon="1.83809">
        <ele>1758.39</ele>
        <time>2019-12-14T13:09:35Z</time>
      </trkpt>
      <trkpt lat="42.78257" lon="1.83809">
        <ele>1757.91</ele>
        <time>2019-12-14T13:09:36Z</time>
      </trkpt>
      <trkpt lat="42.78256" lon="1.83809">
        <ele>1758.87</ele>
        <time>2019-12-14T13:09:40Z</time>
      </trkpt>
      <trkpt lat="42.78256" lon="1.8381">
        <ele>1756.47</ele>
        <time>2019-12-14T13:09:44Z</time>
      </trkpt>
      <trkpt lat="42.78254" lon="1.83811">
        <ele>1756.47</ele>
        <time>2019-12-14T13:09:45Z</time>
      </trkpt>
      <trkpt lat="42.78253" lon="1.83812">
        <ele>1755.5</ele>
        <time>2019-12-14T13:09:46Z</time>
      </trkpt>
      <trkpt lat="42.78251" lon="1.83813">
        <ele>1755.02</ele>
        <time>2019-12-14T13:09:47Z</time>
      </trkpt>
      <trkpt lat="42.7825" lon="1.83815">
        <ele>1754.54</ele>
        <time>2019-12-14T13:09:48Z</time>
      </trkpt>
      <trkpt lat="42.78249" lon="1.83816">
        <ele>1754.54</ele>
        <time>2019-12-14T13:09:49Z</time>
      </trkpt>
      <trkpt lat="42.78246" lon="1.83819">
        <ele>1753.1</ele>
        <time>2019-12-14T13:09:52Z</time>
      </trkpt>
      <trkpt lat="42.78238" lon="1.83828">
        <ele>1750.22</ele>
        <time>2019-12-14T13:09:57Z</time>
      </trkpt>
      <trkpt lat="42.78232" lon="1.83836">
        <ele>1746.85</ele>
        <time>2019-12-14T13:10:04Z</time>
      </trkpt>
      <trkpt lat="42.78226" lon="1.8384">
        <ele>1745.41</ele>
        <time>2019-12-14T13:10:09Z</time>
      </trkpt>
      <trkpt lat="42.78215" lon="1.83846">
        <ele>1742.05</ele>
        <time>2019-12-14T13:10:20Z</time>
      </trkpt>
      <trkpt lat="42.78206" lon="1.83849">
        <ele>1739.16</ele>
        <time>2019-12-14T13:10:34Z</time>
      </trkpt>
      <trkpt lat="42.78205" lon="1.8385">
        <ele>1739.16</ele>
        <time>2019-12-14T13:10:35Z</time>
      </trkpt>
      <trkpt lat="42.78199" lon="1.83853">
        <ele>1737.24</ele>
        <time>2019-12-14T13:10:46Z</time>
      </trkpt>
      <trkpt lat="42.78197" lon="1.83854">
        <ele>1738.2</ele>
        <time>2019-12-14T13:10:54Z</time>
      </trkpt>
      <trkpt lat="42.78194" lon="1.83864">
        <ele>1735.32</ele>
        <time>2019-12-14T13:11:01Z</time>
      </trkpt>
      <trkpt lat="42.78193" lon="1.83866">
        <ele>1734.84</ele>
        <time>2019-12-14T13:11:02Z</time>
      </trkpt>
      <trkpt lat="42.78193" lon="1.83869">
        <ele>1734.36</ele>
        <time>2019-12-14T13:11:04Z</time>
      </trkpt>
      <trkpt lat="42.78193" lon="1.83876">
        <ele>1731.95</ele>
        <time>2019-12-14T13:11:10Z</time>
      </trkpt>
      <trkpt lat="42.78192" lon="1.8388">
        <ele>1730.51</ele>
        <time>2019-12-14T13:11:17Z</time>
      </trkpt>
      <trkpt lat="42.78191" lon="1.83882">
        <ele>1730.03</ele>
        <time>2019-12-14T13:11:19Z</time>
      </trkpt>
      <trkpt lat="42.78189" lon="1.83886">
        <ele>1730.03</ele>
        <time>2019-12-14T13:11:24Z</time>
      </trkpt>
      <trkpt lat="42.78194" lon="1.8389">
        <ele>1728.11</ele>
        <time>2019-12-14T13:11:37Z</time>
      </trkpt>
      <trkpt lat="42.78191" lon="1.83891">
        <ele>1726.67</ele>
        <time>2019-12-14T13:11:43Z</time>
      </trkpt>
      <trkpt lat="42.78189" lon="1.83896">
        <ele>1727.15</ele>
        <time>2019-12-14T13:11:50Z</time>
      </trkpt>
      <trkpt lat="42.78189" lon="1.83898">
        <ele>1726.18</ele>
        <time>2019-12-14T13:12:12Z</time>
      </trkpt>
      <trkpt lat="42.78186" lon="1.83897">
        <ele>1723.78</ele>
        <time>2019-12-14T13:12:32Z</time>
      </trkpt>
      <trkpt lat="42.78184" lon="1.83899">
        <ele>1723.78</ele>
        <time>2019-12-14T13:12:34Z</time>
      </trkpt>
      <trkpt lat="42.7818" lon="1.839">
        <ele>1723.3</ele>
        <time>2019-12-14T13:12:39Z</time>
      </trkpt>
      <trkpt lat="42.78171" lon="1.83907">
        <ele>1720.42</ele>
        <time>2019-12-14T13:12:51Z</time>
      </trkpt>
      <trkpt lat="42.78169" lon="1.8391">
        <ele>1720.9</ele>
        <time>2019-12-14T13:13:09Z</time>
      </trkpt>
      <trkpt lat="42.78169" lon="1.83911">
        <ele>1720.42</ele>
        <time>2019-12-14T13:13:29Z</time>
      </trkpt>
      <trkpt lat="42.78167" lon="1.83911">
        <ele>1718.97</ele>
        <time>2019-12-14T13:13:44Z</time>
      </trkpt>
      <trkpt lat="42.78164" lon="1.8391">
        <ele>1720.42</ele>
        <time>2019-12-14T13:13:47Z</time>
      </trkpt>
      <trkpt lat="42.78162" lon="1.8391">
        <ele>1718.49</ele>
        <time>2019-12-14T13:13:49Z</time>
      </trkpt>
      <trkpt lat="42.78156" lon="1.83918">
        <ele>1715.61</ele>
        <time>2019-12-14T13:13:58Z</time>
      </trkpt>
      <trkpt lat="42.78153" lon="1.83921">
        <ele>1714.17</ele>
        <time>2019-12-14T13:14:01Z</time>
      </trkpt>
      <trkpt lat="42.78143" lon="1.83927">
        <ele>1712.25</ele>
        <time>2019-12-14T13:14:10Z</time>
      </trkpt>
      <trkpt lat="42.78139" lon="1.8393">
        <ele>1711.76</ele>
        <time>2019-12-14T13:14:15Z</time>
      </trkpt>
      <trkpt lat="42.78129" lon="1.83939">
        <ele>1708.4</ele>
        <time>2019-12-14T13:14:27Z</time>
      </trkpt>
      <trkpt lat="42.7812" lon="1.83946">
        <ele>1706</ele>
        <time>2019-12-14T13:14:36Z</time>
      </trkpt>
      <trkpt lat="42.7812" lon="1.83946">
        <ele>1706</ele>
        <time>2019-12-14T13:14:37Z</time>
      </trkpt>
      <trkpt lat="42.78118" lon="1.83945">
        <ele>1706</ele>
        <time>2019-12-14T13:14:39Z</time>
      </trkpt>
      <trkpt lat="42.78114" lon="1.83945">
        <ele>1705.04</ele>
        <time>2019-12-14T13:14:43Z</time>
      </trkpt>
      <trkpt lat="42.78111" lon="1.83944">
        <ele>1705.52</ele>
        <time>2019-12-14T13:14:46Z</time>
      </trkpt>
      <trkpt lat="42.78105" lon="1.83947">
        <ele>1703.59</ele>
        <time>2019-12-14T13:14:53Z</time>
      </trkpt>
      <trkpt lat="42.781" lon="1.83952">
        <ele>1701.67</ele>
        <time>2019-12-14T13:14:59Z</time>
      </trkpt>
      <trkpt lat="42.78091" lon="1.83952">
        <ele>1700.23</ele>
        <time>2019-12-14T13:15:13Z</time>
      </trkpt>
      <trkpt lat="42.78093" lon="1.83951">
        <ele>1699.75</ele>
        <time>2019-12-14T13:15:47Z</time>
      </trkpt>
      <trkpt lat="42.78095" lon="1.83952">
        <ele>1699.75</ele>
        <time>2019-12-14T13:16:00Z</time>
      </trkpt>
      <trkpt lat="42.78105" lon="1.8396">
        <ele>1702.15</ele>
        <time>2019-12-14T13:16:12Z</time>
      </trkpt>
      <trkpt lat="42.78106" lon="1.83962">
        <ele>1702.15</ele>
        <time>2019-12-14T13:16:14Z</time>
      </trkpt>
      <trkpt lat="42.78108" lon="1.83967">
        <ele>1702.15</ele>
        <time>2019-12-14T13:16:28Z</time>
      </trkpt>
      <trkpt lat="42.78108" lon="1.83968">
        <ele>1702.15</ele>
        <time>2019-12-14T13:16:38Z</time>
      </trkpt>
      <trkpt lat="42.78108" lon="1.83967">
        <ele>1702.15</ele>
        <time>2019-12-14T13:16:52Z</time>
      </trkpt>
      <trkpt lat="42.78109" lon="1.83967">
        <ele>1701.19</ele>
        <time>2019-12-14T13:17:14Z</time>
      </trkpt>
      <trkpt lat="42.78106" lon="1.83975">
        <ele>1698.79</ele>
        <time>2019-12-14T13:17:37Z</time>
      </trkpt>
      <trkpt lat="42.78104" lon="1.83984">
        <ele>1694.94</ele>
        <time>2019-12-14T13:17:48Z</time>
      </trkpt>
      <trkpt lat="42.78103" lon="1.8399">
        <ele>1693.5</ele>
        <time>2019-12-14T13:17:58Z</time>
      </trkpt>
      <trkpt lat="42.78103" lon="1.83996">
        <ele>1692.54</ele>
        <time>2019-12-14T13:18:10Z</time>
      </trkpt>
      <trkpt lat="42.78103" lon="1.83998">
        <ele>1691.1</ele>
        <time>2019-12-14T13:18:25Z</time>
      </trkpt>
      <trkpt lat="42.78091" lon="1.83992">
        <ele>1690.62</ele>
        <time>2019-12-14T13:18:35Z</time>
      </trkpt>
      <trkpt lat="42.78089" lon="1.83992">
        <ele>1690.14</ele>
        <time>2019-12-14T13:18:37Z</time>
      </trkpt>
      <trkpt lat="42.78079" lon="1.83987">
        <ele>1690.14</ele>
        <time>2019-12-14T13:18:45Z</time>
      </trkpt>
      <trkpt lat="42.78075" lon="1.83987">
        <ele>1688.69</ele>
        <time>2019-12-14T13:18:49Z</time>
      </trkpt>
      <trkpt lat="42.78073" lon="1.83989">
        <ele>1688.21</ele>
        <time>2019-12-14T13:18:58Z</time>
      </trkpt>
      <trkpt lat="42.78072" lon="1.83993">
        <ele>1687.73</ele>
        <time>2019-12-14T13:19:02Z</time>
      </trkpt>
      <trkpt lat="42.78072" lon="1.83995">
        <ele>1687.25</ele>
        <time>2019-12-14T13:19:04Z</time>
      </trkpt>
      <trkpt lat="42.78075" lon="1.83997">
        <ele>1687.25</ele>
        <time>2019-12-14T13:19:06Z</time>
      </trkpt>
      <trkpt lat="42.78077" lon="1.83997">
        <ele>1687.73</ele>
        <time>2019-12-14T13:19:10Z</time>
      </trkpt>
      <trkpt lat="42.78079" lon="1.83997">
        <ele>1687.73</ele>
        <time>2019-12-14T13:19:12Z</time>
      </trkpt>
      <trkpt lat="42.7808" lon="1.83995">
        <ele>1688.21</ele>
        <time>2019-12-14T13:19:14Z</time>
      </trkpt>
      <trkpt lat="42.7808" lon="1.83989">
        <ele>1690.14</ele>
        <time>2019-12-14T13:19:24Z</time>
      </trkpt>
      <trkpt lat="42.78083" lon="1.83985">
        <ele>1691.58</ele>
        <time>2019-12-14T13:19:35Z</time>
      </trkpt>
      <trkpt lat="42.78084" lon="1.83985">
        <ele>1690.14</ele>
        <time>2019-12-14T13:19:37Z</time>
      </trkpt>
      <trkpt lat="42.78085" lon="1.83984">
        <ele>1693.5</ele>
        <time>2019-12-14T13:19:46Z</time>
      </trkpt>
      <trkpt lat="42.78088" lon="1.83983">
        <ele>1690.62</ele>
        <time>2019-12-14T13:19:52Z</time>
      </trkpt>
      <trkpt lat="42.78091" lon="1.83982">
        <ele>1692.06</ele>
        <time>2019-12-14T13:20:03Z</time>
      </trkpt>
      <trkpt lat="42.78093" lon="1.83983">
        <ele>1693.02</ele>
        <time>2019-12-14T13:20:05Z</time>
      </trkpt>
      <trkpt lat="42.78094" lon="1.83987">
        <ele>1693.02</ele>
        <time>2019-12-14T13:20:10Z</time>
      </trkpt>
      <trkpt lat="42.78099" lon="1.83997">
        <ele>1691.58</ele>
        <time>2019-12-14T13:20:21Z</time>
      </trkpt>
      <trkpt lat="42.78098" lon="1.83997">
        <ele>1691.58</ele>
        <time>2019-12-14T13:20:25Z</time>
      </trkpt>
      <trkpt lat="42.78099" lon="1.83998">
        <ele>1691.58</ele>
        <time>2019-12-14T13:20:27Z</time>
      </trkpt>
      <trkpt lat="42.78099" lon="1.84003">
        <ele>1690.14</ele>
        <time>2019-12-14T13:20:30Z</time>
      </trkpt>
      <trkpt lat="42.78105" lon="1.8401">
        <ele>1689.65</ele>
        <time>2019-12-14T13:20:38Z</time>
      </trkpt>
      <trkpt lat="42.78106" lon="1.84012">
        <ele>1690.62</ele>
        <time>2019-12-14T13:20:41Z</time>
      </trkpt>
      <trkpt lat="42.78107" lon="1.84021">
        <ele>1688.21</ele>
        <time>2019-12-14T13:20:49Z</time>
      </trkpt>
      <trkpt lat="42.78106" lon="1.84035">
        <ele>1686.29</ele>
        <time>2019-12-14T13:21:02Z</time>
      </trkpt>
      <trkpt lat="42.78109" lon="1.8404">
        <ele>1684.37</ele>
        <time>2019-12-14T13:21:09Z</time>
      </trkpt>
      <trkpt lat="42.78113" lon="1.84042">
        <ele>1686.29</ele>
        <time>2019-12-14T13:21:14Z</time>
      </trkpt>
      <trkpt lat="42.78114" lon="1.84043">
        <ele>1685.33</ele>
        <time>2019-12-14T13:21:16Z</time>
      </trkpt>
      <trkpt lat="42.78116" lon="1.84044">
        <ele>1685.33</ele>
        <time>2019-12-14T13:21:19Z</time>
      </trkpt>
      <trkpt lat="42.78125" lon="1.84047">
        <ele>1685.81</ele>
        <time>2019-12-14T13:21:31Z</time>
      </trkpt>
      <trkpt lat="42.78129" lon="1.84051">
        <ele>1685.81</ele>
        <time>2019-12-14T13:21:38Z</time>
      </trkpt>
      <trkpt lat="42.78131" lon="1.84053">
        <ele>1684.85</ele>
        <time>2019-12-14T13:21:41Z</time>
      </trkpt>
      <trkpt lat="42.78133" lon="1.84054">
        <ele>1686.77</ele>
        <time>2019-12-14T13:21:43Z</time>
      </trkpt>
      <trkpt lat="42.78135" lon="1.84055">
        <ele>1685.33</ele>
        <time>2019-12-14T13:21:46Z</time>
      </trkpt>
      <trkpt lat="42.78139" lon="1.84058">
        <ele>1685.81</ele>
        <time>2019-12-14T13:21:51Z</time>
      </trkpt>
      <trkpt lat="42.78147" lon="1.84064">
        <ele>1687.73</ele>
        <time>2019-12-14T13:22:03Z</time>
      </trkpt>
      <trkpt lat="42.78149" lon="1.84063">
        <ele>1686.29</ele>
        <time>2019-12-14T13:22:18Z</time>
      </trkpt>
      <trkpt lat="42.78151" lon="1.84062">
        <ele>1687.25</ele>
        <time>2019-12-14T13:22:46Z</time>
      </trkpt>
      <trkpt lat="42.78153" lon="1.84059">
        <ele>1686.77</ele>
        <time>2019-12-14T13:23:01Z</time>
      </trkpt>
      <trkpt lat="42.78157" lon="1.84059">
        <ele>1687.25</ele>
        <time>2019-12-14T13:23:13Z</time>
      </trkpt>
      <trkpt lat="42.78162" lon="1.84056">
        <ele>1685.81</ele>
        <time>2019-12-14T13:23:24Z</time>
      </trkpt>
      <trkpt lat="42.78164" lon="1.84055">
        <ele>1686.77</ele>
        <time>2019-12-14T13:23:26Z</time>
      </trkpt>
      <trkpt lat="42.78165" lon="1.84053">
        <ele>1686.29</ele>
        <time>2019-12-14T13:23:29Z</time>
      </trkpt>
      <trkpt lat="42.78172" lon="1.84055">
        <ele>1686.29</ele>
        <time>2019-12-14T13:23:42Z</time>
      </trkpt>
      <trkpt lat="42.78173" lon="1.84056">
        <ele>1684.85</ele>
        <time>2019-12-14T13:23:49Z</time>
      </trkpt>
      <trkpt lat="42.78176" lon="1.84058">
        <ele>1681.96</ele>
        <time>2019-12-14T13:23:52Z</time>
      </trkpt>
      <trkpt lat="42.78175" lon="1.84057">
        <ele>1684.85</ele>
        <time>2019-12-14T13:23:58Z</time>
      </trkpt>
      <trkpt lat="42.78177" lon="1.84057">
        <ele>1683.41</ele>
        <time>2019-12-14T13:24:03Z</time>
      </trkpt>
      <trkpt lat="42.78181" lon="1.84055">
        <ele>1682.44</ele>
        <time>2019-12-14T13:24:08Z</time>
      </trkpt>
      <trkpt lat="42.78186" lon="1.84051">
        <ele>1681.96</ele>
        <time>2019-12-14T13:24:14Z</time>
      </trkpt>
      <trkpt lat="42.78188" lon="1.84052">
        <ele>1680.52</ele>
        <time>2019-12-14T13:24:16Z</time>
      </trkpt>
      <trkpt lat="42.78192" lon="1.84059">
        <ele>1679.08</ele>
        <time>2019-12-14T13:24:25Z</time>
      </trkpt>
      <trkpt lat="42.78194" lon="1.84069">
        <ele>1678.12</ele>
        <time>2019-12-14T13:24:33Z</time>
      </trkpt>
      <trkpt lat="42.78195" lon="1.84077">
        <ele>1676.2</ele>
        <time>2019-12-14T13:24:38Z</time>
      </trkpt>
      <trkpt lat="42.78191" lon="1.84082">
        <ele>1673.79</ele>
        <time>2019-12-14T13:24:51Z</time>
      </trkpt>
      <trkpt lat="42.7819" lon="1.84083">
        <ele>1673.79</ele>
        <time>2019-12-14T13:24:56Z</time>
      </trkpt>
      <trkpt lat="42.78189" lon="1.84086">
        <ele>1673.31</ele>
        <time>2019-12-14T13:25:00Z</time>
      </trkpt>
      <trkpt lat="42.78187" lon="1.84088">
        <ele>1672.83</ele>
        <time>2019-12-14T13:25:03Z</time>
      </trkpt>
      <trkpt lat="42.78185" lon="1.84089">
        <ele>1671.39</ele>
        <time>2019-12-14T13:25:05Z</time>
      </trkpt>
      <trkpt lat="42.78183" lon="1.84091">
        <ele>1673.31</ele>
        <time>2019-12-14T13:25:07Z</time>
      </trkpt>
      <trkpt lat="42.78181" lon="1.8409">
        <ele>1670.91</ele>
        <time>2019-12-14T13:25:22Z</time>
      </trkpt>
      <trkpt lat="42.78182" lon="1.84089">
        <ele>1673.31</ele>
        <time>2019-12-14T13:25:42Z</time>
      </trkpt>
      <trkpt lat="42.7818" lon="1.84089">
        <ele>1669.95</ele>
        <time>2019-12-14T13:26:08Z</time>
      </trkpt>
      <trkpt lat="42.7818" lon="1.8409">
        <ele>1674.75</ele>
        <time>2019-12-14T13:26:09Z</time>
      </trkpt>
      <trkpt lat="42.78183" lon="1.84093">
        <ele>1671.87</ele>
        <time>2019-12-14T13:26:23Z</time>
      </trkpt>
      <trkpt lat="42.78183" lon="1.84091">
        <ele>1671.87</ele>
        <time>2019-12-14T13:26:53Z</time>
      </trkpt>
      <trkpt lat="42.78184" lon="1.841">
        <ele>1670.91</ele>
        <time>2019-12-14T13:27:16Z</time>
      </trkpt>
      <trkpt lat="42.78185" lon="1.84102">
        <ele>1670.43</ele>
        <time>2019-12-14T13:27:19Z</time>
      </trkpt>
      <trkpt lat="42.7819" lon="1.84107">
        <ele>1668.51</ele>
        <time>2019-12-14T13:27:26Z</time>
      </trkpt>
      <trkpt lat="42.7819" lon="1.84122">
        <ele>1667.06</ele>
        <time>2019-12-14T13:27:38Z</time>
      </trkpt>
      <trkpt lat="42.78186" lon="1.84127">
        <ele>1665.14</ele>
        <time>2019-12-14T13:27:45Z</time>
      </trkpt>
      <trkpt lat="42.78183" lon="1.84136">
        <ele>1663.22</ele>
        <time>2019-12-14T13:27:58Z</time>
      </trkpt>
      <trkpt lat="42.7818" lon="1.8414">
        <ele>1661.3</ele>
        <time>2019-12-14T13:28:12Z</time>
      </trkpt>
      <trkpt lat="42.78178" lon="1.84145">
        <ele>1659.37</ele>
        <time>2019-12-14T13:28:35Z</time>
      </trkpt>
      <trkpt lat="42.78176" lon="1.8415">
        <ele>1657.93</ele>
        <time>2019-12-14T13:28:49Z</time>
      </trkpt>
      <trkpt lat="42.78179" lon="1.84154">
        <ele>1656.97</ele>
        <time>2019-12-14T13:29:04Z</time>
      </trkpt>
      <trkpt lat="42.7818" lon="1.8416">
        <ele>1655.05</ele>
        <time>2019-12-14T13:29:16Z</time>
      </trkpt>
      <trkpt lat="42.78183" lon="1.84164">
        <ele>1654.57</ele>
        <time>2019-12-14T13:29:28Z</time>
      </trkpt>
      <trkpt lat="42.78184" lon="1.8417">
        <ele>1652.64</ele>
        <time>2019-12-14T13:29:39Z</time>
      </trkpt>
      <trkpt lat="42.78185" lon="1.84175">
        <ele>1652.16</ele>
        <time>2019-12-14T13:29:49Z</time>
      </trkpt>
      <trkpt lat="42.78185" lon="1.84181">
        <ele>1652.16</ele>
        <time>2019-12-14T13:30:02Z</time>
      </trkpt>
      <trkpt lat="42.78182" lon="1.84181">
        <ele>1650.72</ele>
        <time>2019-12-14T13:30:15Z</time>
      </trkpt>
      <trkpt lat="42.78178" lon="1.84178">
        <ele>1647.36</ele>
        <time>2019-12-14T13:30:24Z</time>
      </trkpt>
      <trkpt lat="42.78176" lon="1.84177">
        <ele>1649.28</ele>
        <time>2019-12-14T13:30:48Z</time>
      </trkpt>
      <trkpt lat="42.78176" lon="1.84177">
        <ele>1647.84</ele>
        <time>2019-12-14T13:30:52Z</time>
      </trkpt>
      <trkpt lat="42.78178" lon="1.84177">
        <ele>1649.76</ele>
        <time>2019-12-14T13:31:18Z</time>
      </trkpt>
      <trkpt lat="42.78175" lon="1.84176">
        <ele>1646.88</ele>
        <time>2019-12-14T13:31:24Z</time>
      </trkpt>
      <trkpt lat="42.78168" lon="1.84177">
        <ele>1644.47</ele>
        <time>2019-12-14T13:31:36Z</time>
      </trkpt>
      <trkpt lat="42.78168" lon="1.84178">
        <ele>1644.47</ele>
        <time>2019-12-14T13:31:37Z</time>
      </trkpt>
      <trkpt lat="42.78166" lon="1.84179">
        <ele>1644.47</ele>
        <time>2019-12-14T13:31:52Z</time>
      </trkpt>
      <trkpt lat="42.78166" lon="1.84179">
        <ele>1643.03</ele>
        <time>2019-12-14T13:32:06Z</time>
      </trkpt>
      <trkpt lat="42.78166" lon="1.84179">
        <ele>1644.47</ele>
        <time>2019-12-14T13:32:10Z</time>
      </trkpt>
      <trkpt lat="42.78165" lon="1.84179">
        <ele>1644.47</ele>
        <time>2019-12-14T13:32:24Z</time>
      </trkpt>
      <trkpt lat="42.78164" lon="1.84178">
        <ele>1643.03</ele>
        <time>2019-12-14T13:32:27Z</time>
      </trkpt>
      <trkpt lat="42.78159" lon="1.84177">
        <ele>1641.59</ele>
        <time>2019-12-14T13:32:36Z</time>
      </trkpt>
      <trkpt lat="42.78156" lon="1.84177">
        <ele>1641.59</ele>
        <time>2019-12-14T13:32:40Z</time>
      </trkpt>
      <trkpt lat="42.78155" lon="1.84177">
        <ele>1641.59</ele>
        <time>2019-12-14T13:32:41Z</time>
      </trkpt>
      <trkpt lat="42.78153" lon="1.84176">
        <ele>1641.59</ele>
        <time>2019-12-14T13:32:43Z</time>
      </trkpt>
      <trkpt lat="42.78151" lon="1.84177">
        <ele>1640.63</ele>
        <time>2019-12-14T13:32:45Z</time>
      </trkpt>
      <trkpt lat="42.78144" lon="1.8418">
        <ele>1637.74</ele>
        <time>2019-12-14T13:32:53Z</time>
      </trkpt>
      <trkpt lat="42.7814" lon="1.84181">
        <ele>1636.78</ele>
        <time>2019-12-14T13:32:58Z</time>
      </trkpt>
      <trkpt lat="42.78134" lon="1.84184">
        <ele>1636.3</ele>
        <time>2019-12-14T13:33:08Z</time>
      </trkpt>
      <trkpt lat="42.78135" lon="1.84185">
        <ele>1636.3</ele>
        <time>2019-12-14T13:33:29Z</time>
      </trkpt>
      <trkpt lat="42.7814" lon="1.84188">
        <ele>1634.38</ele>
        <time>2019-12-14T13:33:50Z</time>
      </trkpt>
      <trkpt lat="42.78141" lon="1.84186">
        <ele>1633.42</ele>
        <time>2019-12-14T13:34:22Z</time>
      </trkpt>
      <trkpt lat="42.78141" lon="1.84185">
        <ele>1633.42</ele>
        <time>2019-12-14T13:34:48Z</time>
      </trkpt>
      <trkpt lat="42.78139" lon="1.84187">
        <ele>1633.42</ele>
        <time>2019-12-14T13:35:20Z</time>
      </trkpt>
      <trkpt lat="42.78138" lon="1.84187">
        <ele>1633.42</ele>
        <time>2019-12-14T13:35:22Z</time>
      </trkpt>
      <trkpt lat="42.78136" lon="1.84189">
        <ele>1633.42</ele>
        <time>2019-12-14T13:35:24Z</time>
      </trkpt>
      <trkpt lat="42.78135" lon="1.84201">
        <ele>1629.57</ele>
        <time>2019-12-14T13:35:33Z</time>
      </trkpt>
      <trkpt lat="42.78137" lon="1.84211">
        <ele>1627.65</ele>
        <time>2019-12-14T13:35:45Z</time>
      </trkpt>
      <trkpt lat="42.78134" lon="1.84215">
        <ele>1626.21</ele>
        <time>2019-12-14T13:35:51Z</time>
      </trkpt>
      <trkpt lat="42.78133" lon="1.84216">
        <ele>1625.25</ele>
        <time>2019-12-14T13:35:53Z</time>
      </trkpt>
      <trkpt lat="42.78132" lon="1.84217">
        <ele>1625.25</ele>
        <time>2019-12-14T13:36:06Z</time>
      </trkpt>
      <trkpt lat="42.78132" lon="1.84219">
        <ele>1624.77</ele>
        <time>2019-12-14T13:36:30Z</time>
      </trkpt>
      <trkpt lat="42.7813" lon="1.84224">
        <ele>1620.44</ele>
        <time>2019-12-14T13:36:41Z</time>
      </trkpt>
      <trkpt lat="42.78129" lon="1.84228">
        <ele>1620.92</ele>
        <time>2019-12-14T13:36:44Z</time>
      </trkpt>
      <trkpt lat="42.78128" lon="1.8424">
        <ele>1616.59</ele>
        <time>2019-12-14T13:36:47Z</time>
      </trkpt>
      <trkpt lat="42.78127" lon="1.84246">
        <ele>1614.19</ele>
        <time>2019-12-14T13:36:48Z</time>
      </trkpt>
      <trkpt lat="42.78126" lon="1.84256">
        <ele>1608.9</ele>
        <time>2019-12-14T13:36:50Z</time>
      </trkpt>
      <trkpt lat="42.78126" lon="1.84258">
        <ele>1608.42</ele>
        <time>2019-12-14T13:36:51Z</time>
      </trkpt>
      <trkpt lat="42.78126" lon="1.84258">
        <ele>1607.94</ele>
        <time>2019-12-14T13:37:05Z</time>
      </trkpt>
      <trkpt lat="42.78124" lon="1.84255">
        <ele>1610.35</ele>
        <time>2019-12-14T13:37:11Z</time>
      </trkpt>
      <trkpt lat="42.78125" lon="1.84253">
        <ele>1610.35</ele>
        <time>2019-12-14T13:37:36Z</time>
      </trkpt>
      <trkpt lat="42.78126" lon="1.84255">
        <ele>1610.35</ele>
        <time>2019-12-14T13:37:54Z</time>
      </trkpt>
      <trkpt lat="42.78127" lon="1.84256">
        <ele>1610.35</ele>
        <time>2019-12-14T13:38:12Z</time>
      </trkpt>
      <trkpt lat="42.78125" lon="1.84256">
        <ele>1608.9</ele>
        <time>2019-12-14T13:38:23Z</time>
      </trkpt>
      <trkpt lat="42.78126" lon="1.84262">
        <ele>1606.98</ele>
        <time>2019-12-14T13:38:37Z</time>
      </trkpt>
      <trkpt lat="42.78129" lon="1.84265">
        <ele>1606.02</ele>
        <time>2019-12-14T13:38:43Z</time>
      </trkpt>
      <trkpt lat="42.78135" lon="1.84276">
        <ele>1604.58</ele>
        <time>2019-12-14T13:38:55Z</time>
      </trkpt>
      <trkpt lat="42.78136" lon="1.84281">
        <ele>1603.62</ele>
        <time>2019-12-14T13:39:01Z</time>
      </trkpt>
      <trkpt lat="42.7814" lon="1.84292">
        <ele>1600.73</ele>
        <time>2019-12-14T13:39:13Z</time>
      </trkpt>
      <trkpt lat="42.78138" lon="1.84293">
        <ele>1600.73</ele>
        <time>2019-12-14T13:39:15Z</time>
      </trkpt>
      <trkpt lat="42.78131" lon="1.84296">
        <ele>1598.33</ele>
        <time>2019-12-14T13:39:28Z</time>
      </trkpt>
      <trkpt lat="42.78132" lon="1.84302">
        <ele>1596.41</ele>
        <time>2019-12-14T13:39:42Z</time>
      </trkpt>
      <trkpt lat="42.78135" lon="1.84305">
        <ele>1595.93</ele>
        <time>2019-12-14T13:39:55Z</time>
      </trkpt>
      <trkpt lat="42.78134" lon="1.84306">
        <ele>1595.93</ele>
        <time>2019-12-14T13:40:13Z</time>
      </trkpt>
      <trkpt lat="42.78137" lon="1.84309">
        <ele>1595.93</ele>
        <time>2019-12-14T13:40:26Z</time>
      </trkpt>
      <trkpt lat="42.78137" lon="1.84308">
        <ele>1595.45</ele>
        <time>2019-12-14T13:40:33Z</time>
      </trkpt>
      <trkpt lat="42.78138" lon="1.8431">
        <ele>1597.37</ele>
        <time>2019-12-14T13:40:45Z</time>
      </trkpt>
      <trkpt lat="42.78135" lon="1.84311">
        <ele>1595.93</ele>
        <time>2019-12-14T13:41:02Z</time>
      </trkpt>
      <trkpt lat="42.78132" lon="1.84311">
        <ele>1592.56</ele>
        <time>2019-12-14T13:41:21Z</time>
      </trkpt>
      <trkpt lat="42.78132" lon="1.84311">
        <ele>1597.85</ele>
        <time>2019-12-14T13:41:22Z</time>
      </trkpt>
      <trkpt lat="42.78132" lon="1.8431">
        <ele>1594.48</ele>
        <time>2019-12-14T13:41:24Z</time>
      </trkpt>
      <trkpt lat="42.78134" lon="1.84309">
        <ele>1593.52</ele>
        <time>2019-12-14T13:41:43Z</time>
      </trkpt>
      <trkpt lat="42.78127" lon="1.84317">
        <ele>1591.6</ele>
        <time>2019-12-14T13:41:47Z</time>
      </trkpt>
      <trkpt lat="42.78121" lon="1.84322">
        <ele>1588.24</ele>
        <time>2019-12-14T13:41:49Z</time>
      </trkpt>
      <trkpt lat="42.78117" lon="1.84325">
        <ele>1583.43</ele>
        <time>2019-12-14T13:41:51Z</time>
      </trkpt>
      <trkpt lat="42.78115" lon="1.84326">
        <ele>1583.43</ele>
        <time>2019-12-14T13:41:52Z</time>
      </trkpt>
      <trkpt lat="42.78112" lon="1.84327">
        <ele>1581.99</ele>
        <time>2019-12-14T13:41:54Z</time>
      </trkpt>
      <trkpt lat="42.78106" lon="1.84328">
        <ele>1578.62</ele>
        <time>2019-12-14T13:41:56Z</time>
      </trkpt>
      <trkpt lat="42.781" lon="1.84331">
        <ele>1575.74</ele>
        <time>2019-12-14T13:41:58Z</time>
      </trkpt>
      <trkpt lat="42.78093" lon="1.84335">
        <ele>1570.45</ele>
        <time>2019-12-14T13:42:00Z</time>
      </trkpt>
      <trkpt lat="42.78084" lon="1.84339">
        <ele>1566.61</ele>
        <time>2019-12-14T13:42:03Z</time>
      </trkpt>
      <trkpt lat="42.78075" lon="1.8434">
        <ele>1563.24</ele>
        <time>2019-12-14T13:42:08Z</time>
      </trkpt>
      <trkpt lat="42.78072" lon="1.84342">
        <ele>1559.88</ele>
        <time>2019-12-14T13:42:18Z</time>
      </trkpt>
      <trkpt lat="42.78072" lon="1.84342">
        <ele>1563.72</ele>
        <time>2019-12-14T13:42:24Z</time>
      </trkpt>
      <trkpt lat="42.78073" lon="1.84339">
        <ele>1560.84</ele>
        <time>2019-12-14T13:42:48Z</time>
      </trkpt>
      <trkpt lat="42.78074" lon="1.84339">
        <ele>1560.84</ele>
        <time>2019-12-14T13:42:54Z</time>
      </trkpt>
      <trkpt lat="42.78077" lon="1.84337">
        <ele>1563.24</ele>
        <time>2019-12-14T13:43:00Z</time>
      </trkpt>
      <trkpt lat="42.78083" lon="1.84332">
        <ele>1565.16</ele>
        <time>2019-12-14T13:43:12Z</time>
      </trkpt>
      <trkpt lat="42.78086" lon="1.84335">
        <ele>1565.64</ele>
        <time>2019-12-14T13:43:31Z</time>
      </trkpt>
      <trkpt lat="42.78087" lon="1.84335">
        <ele>1564.68</ele>
        <time>2019-12-14T13:43:39Z</time>
      </trkpt>
      <trkpt lat="42.78086" lon="1.84336">
        <ele>1566.12</ele>
        <time>2019-12-14T13:43:43Z</time>
      </trkpt>
      <trkpt lat="42.78088" lon="1.84336">
        <ele>1564.68</ele>
        <time>2019-12-14T13:44:08Z</time>
      </trkpt>
      <trkpt lat="42.78081" lon="1.84338">
        <ele>1562.28</ele>
        <time>2019-12-14T13:44:21Z</time>
      </trkpt>
      <trkpt lat="42.78077" lon="1.84341">
        <ele>1560.84</ele>
        <time>2019-12-14T13:44:38Z</time>
      </trkpt>
      <trkpt lat="42.78076" lon="1.84342">
        <ele>1560.36</ele>
        <time>2019-12-14T13:44:59Z</time>
      </trkpt>
      <trkpt lat="42.78073" lon="1.84341">
        <ele>1558.92</ele>
        <time>2019-12-14T13:45:27Z</time>
      </trkpt>
      <trkpt lat="42.78067" lon="1.84348">
        <ele>1556.03</ele>
        <time>2019-12-14T13:45:41Z</time>
      </trkpt>
      <trkpt lat="42.78065" lon="1.8436">
        <ele>1553.15</ele>
        <time>2019-12-14T13:45:52Z</time>
      </trkpt>
      <trkpt lat="42.78064" lon="1.84372">
        <ele>1549.78</ele>
        <time>2019-12-14T13:46:05Z</time>
      </trkpt>
      <trkpt lat="42.78065" lon="1.84376">
        <ele>1549.3</ele>
        <time>2019-12-14T13:46:08Z</time>
      </trkpt>
      <trkpt lat="42.78066" lon="1.84382">
        <ele>1548.34</ele>
        <time>2019-12-14T13:46:13Z</time>
      </trkpt>
      <trkpt lat="42.78067" lon="1.84386">
        <ele>1547.86</ele>
        <time>2019-12-14T13:46:16Z</time>
      </trkpt>
      <trkpt lat="42.78067" lon="1.84393">
        <ele>1546.42</ele>
        <time>2019-12-14T13:46:22Z</time>
      </trkpt>
      <trkpt lat="42.78062" lon="1.84397">
        <ele>1544.01</ele>
        <time>2019-12-14T13:46:31Z</time>
      </trkpt>
      <trkpt lat="42.78054" lon="1.844">
        <ele>1541.13</ele>
        <time>2019-12-14T13:46:43Z</time>
      </trkpt>
      <trkpt lat="42.78046" lon="1.84402">
        <ele>1538.25</ele>
        <time>2019-12-14T13:46:57Z</time>
      </trkpt>
      <trkpt lat="42.78045" lon="1.84405">
        <ele>1537.77</ele>
        <time>2019-12-14T13:47:00Z</time>
      </trkpt>
      <trkpt lat="42.78038" lon="1.84421">
        <ele>1533.92</ele>
        <time>2019-12-14T13:47:14Z</time>
      </trkpt>
      <trkpt lat="42.78025" lon="1.84429">
        <ele>1531.52</ele>
        <time>2019-12-14T13:47:25Z</time>
      </trkpt>
      <trkpt lat="42.78016" lon="1.84436">
        <ele>1529.11</ele>
        <time>2019-12-14T13:47:38Z</time>
      </trkpt>
      <trkpt lat="42.78009" lon="1.8444">
        <ele>1528.15</ele>
        <time>2019-12-14T13:47:48Z</time>
      </trkpt>
      <trkpt lat="42.78003" lon="1.8444">
        <ele>1527.19</ele>
        <time>2019-12-14T13:48:02Z</time>
      </trkpt>
      <trkpt lat="42.78005" lon="1.84441">
        <ele>1527.19</ele>
        <time>2019-12-14T13:48:26Z</time>
      </trkpt>
      <trkpt lat="42.78005" lon="1.8444">
        <ele>1527.19</ele>
        <time>2019-12-14T13:48:53Z</time>
      </trkpt>
      <trkpt lat="42.78002" lon="1.8444">
        <ele>1526.71</ele>
        <time>2019-12-14T13:48:59Z</time>
      </trkpt>
      <trkpt lat="42.77986" lon="1.84437">
        <ele>1524.31</ele>
        <time>2019-12-14T13:49:12Z</time>
      </trkpt>
      <trkpt lat="42.77978" lon="1.84438">
        <ele>1523.83</ele>
        <time>2019-12-14T13:49:23Z</time>
      </trkpt>
      <trkpt lat="42.7797" lon="1.84438">
        <ele>1523.35</ele>
        <time>2019-12-14T13:49:36Z</time>
      </trkpt>
      <trkpt lat="42.77965" lon="1.84438">
        <ele>1522.39</ele>
        <time>2019-12-14T13:49:43Z</time>
      </trkpt>
      <trkpt lat="42.77953" lon="1.84437">
        <ele>1521.42</ele>
        <time>2019-12-14T13:49:53Z</time>
      </trkpt>
      <trkpt lat="42.77951" lon="1.84437">
        <ele>1519.5</ele>
        <time>2019-12-14T13:49:55Z</time>
      </trkpt>
      <trkpt lat="42.77947" lon="1.84436">
        <ele>1518.54</ele>
        <time>2019-12-14T13:50:06Z</time>
      </trkpt>
      <trkpt lat="42.77938" lon="1.84437">
        <ele>1517.1</ele>
        <time>2019-12-14T13:50:17Z</time>
      </trkpt>
      <trkpt lat="42.77928" lon="1.84439">
        <ele>1516.14</ele>
        <time>2019-12-14T13:50:29Z</time>
      </trkpt>
      <trkpt lat="42.77927" lon="1.84439">
        <ele>1516.14</ele>
        <time>2019-12-14T13:50:31Z</time>
      </trkpt>
      <trkpt lat="42.77917" lon="1.8444">
        <ele>1513.73</ele>
        <time>2019-12-14T13:50:44Z</time>
      </trkpt>
      <trkpt lat="42.77913" lon="1.84439">
        <ele>1513.73</ele>
        <time>2019-12-14T13:50:52Z</time>
      </trkpt>
      <trkpt lat="42.77909" lon="1.84438">
        <ele>1513.25</ele>
        <time>2019-12-14T13:50:56Z</time>
      </trkpt>
      <trkpt lat="42.77897" lon="1.84441">
        <ele>1511.33</ele>
        <time>2019-12-14T13:51:08Z</time>
      </trkpt>
      <trkpt lat="42.77893" lon="1.84442">
        <ele>1511.33</ele>
        <time>2019-12-14T13:51:13Z</time>
      </trkpt>
      <trkpt lat="42.77887" lon="1.84443">
        <ele>1511.81</ele>
        <time>2019-12-14T13:51:20Z</time>
      </trkpt>
      <trkpt lat="42.77879" lon="1.84446">
        <ele>1509.41</ele>
        <time>2019-12-14T13:51:33Z</time>
      </trkpt>
      <trkpt lat="42.77871" lon="1.84448">
        <ele>1508.93</ele>
        <time>2019-12-14T13:51:49Z</time>
      </trkpt>
      <trkpt lat="42.77866" lon="1.8445">
        <ele>1507.48</ele>
        <time>2019-12-14T13:51:54Z</time>
      </trkpt>
      <trkpt lat="42.77863" lon="1.84452">
        <ele>1507.97</ele>
        <time>2019-12-14T13:51:57Z</time>
      </trkpt>
      <trkpt lat="42.7786" lon="1.84453">
        <ele>1507.97</ele>
        <time>2019-12-14T13:52:00Z</time>
      </trkpt>
      <trkpt lat="42.77858" lon="1.84453">
        <ele>1506.52</ele>
        <time>2019-12-14T13:52:02Z</time>
      </trkpt>
      <trkpt lat="42.77857" lon="1.84453">
        <ele>1506.52</ele>
        <time>2019-12-14T13:52:03Z</time>
      </trkpt>
      <trkpt lat="42.77848" lon="1.84453">
        <ele>1505.56</ele>
        <time>2019-12-14T13:52:14Z</time>
      </trkpt>
      <trkpt lat="42.77847" lon="1.84453">
        <ele>1505.56</ele>
        <time>2019-12-14T13:52:34Z</time>
      </trkpt>
      <trkpt lat="42.77847" lon="1.84454">
        <ele>1505.56</ele>
        <time>2019-12-14T13:53:04Z</time>
      </trkpt>
      <trkpt lat="42.77849" lon="1.84452">
        <ele>1504.6</ele>
        <time>2019-12-14T13:53:24Z</time>
      </trkpt>
      <trkpt lat="42.7785" lon="1.84455">
        <ele>1505.56</ele>
        <time>2019-12-14T13:53:48Z</time>
      </trkpt>
      <trkpt lat="42.77848" lon="1.84454">
        <ele>1505.56</ele>
        <time>2019-12-14T13:54:13Z</time>
      </trkpt>
      <trkpt lat="42.77846" lon="1.84454">
        <ele>1505.08</ele>
        <time>2019-12-14T13:54:53Z</time>
      </trkpt>
      <trkpt lat="42.77845" lon="1.84454">
        <ele>1505.08</ele>
        <time>2019-12-14T13:54:58Z</time>
      </trkpt>
      <trkpt lat="42.77842" lon="1.84454">
        <ele>1504.6</ele>
        <time>2019-12-14T13:55:03Z</time>
      </trkpt>
      <trkpt lat="42.77841" lon="1.84457">
        <ele>1504.6</ele>
        <time>2019-12-14T13:55:05Z</time>
      </trkpt>
      <trkpt lat="42.77831" lon="1.84461">
        <ele>1504.12</ele>
        <time>2019-12-14T13:55:15Z</time>
      </trkpt>
      <trkpt lat="42.77821" lon="1.84463">
        <ele>1502.68</ele>
        <time>2019-12-14T13:55:25Z</time>
      </trkpt>
      <trkpt lat="42.7781" lon="1.84464">
        <ele>1501.72</ele>
        <time>2019-12-14T13:55:36Z</time>
      </trkpt>
      <trkpt lat="42.77809" lon="1.84464">
        <ele>1501.72</ele>
        <time>2019-12-14T13:55:37Z</time>
      </trkpt>
      <trkpt lat="42.778" lon="1.84468">
        <ele>1502.2</ele>
        <time>2019-12-14T13:55:48Z</time>
      </trkpt>
      <trkpt lat="42.77799" lon="1.84469">
        <ele>1500.27</ele>
        <time>2019-12-14T13:55:50Z</time>
      </trkpt>
      <trkpt lat="42.77791" lon="1.84471">
        <ele>1500.76</ele>
        <time>2019-12-14T13:56:00Z</time>
      </trkpt>
      <trkpt lat="42.77789" lon="1.84472">
        <ele>1499.31</ele>
        <time>2019-12-14T13:56:02Z</time>
      </trkpt>
      <trkpt lat="42.7778" lon="1.84472">
        <ele>1498.83</ele>
        <time>2019-12-14T13:56:12Z</time>
      </trkpt>
      <trkpt lat="42.7777" lon="1.84475">
        <ele>1497.87</ele>
        <time>2019-12-14T13:56:24Z</time>
      </trkpt>
      <trkpt lat="42.77767" lon="1.84475">
        <ele>1496.91</ele>
        <time>2019-12-14T13:56:27Z</time>
      </trkpt>
      <trkpt lat="42.77759" lon="1.84478">
        <ele>1496.43</ele>
        <time>2019-12-14T13:56:37Z</time>
      </trkpt>
      <trkpt lat="42.77757" lon="1.84478">
        <ele>1496.43</ele>
        <time>2019-12-14T13:56:40Z</time>
      </trkpt>
      <trkpt lat="42.77746" lon="1.84482">
        <ele>1494.99</ele>
        <time>2019-12-14T13:56:52Z</time>
      </trkpt>
      <trkpt lat="42.77743" lon="1.84483">
        <ele>1494.51</ele>
        <time>2019-12-14T13:56:55Z</time>
      </trkpt>
      <trkpt lat="42.77741" lon="1.84483">
        <ele>1495.95</ele>
        <time>2019-12-14T13:56:57Z</time>
      </trkpt>
      <trkpt lat="42.77739" lon="1.84484">
        <ele>1494.51</ele>
        <time>2019-12-14T13:56:59Z</time>
      </trkpt>
      <trkpt lat="42.77729" lon="1.84486">
        <ele>1494.03</ele>
        <time>2019-12-14T13:57:10Z</time>
      </trkpt>
      <trkpt lat="42.77724" lon="1.84488">
        <ele>1494.51</ele>
        <time>2019-12-14T13:57:21Z</time>
      </trkpt>
      <trkpt lat="42.7772" lon="1.8449">
        <ele>1493.06</ele>
        <time>2019-12-14T13:57:28Z</time>
      </trkpt>
      <trkpt lat="42.77714" lon="1.84501">
        <ele>1494.51</ele>
        <time>2019-12-14T13:57:38Z</time>
      </trkpt>
      <trkpt lat="42.77707" lon="1.8451">
        <ele>1492.58</ele>
        <time>2019-12-14T13:57:48Z</time>
      </trkpt>
      <trkpt lat="42.77701" lon="1.84517">
        <ele>1491.62</ele>
        <time>2019-12-14T13:57:59Z</time>
      </trkpt>
      <trkpt lat="42.77693" lon="1.84525">
        <ele>1491.14</ele>
        <time>2019-12-14T13:58:08Z</time>
      </trkpt>
      <trkpt lat="42.77692" lon="1.84525">
        <ele>1491.62</ele>
        <time>2019-12-14T13:58:09Z</time>
      </trkpt>
      <trkpt lat="42.77684" lon="1.84532">
        <ele>1491.14</ele>
        <time>2019-12-14T13:58:19Z</time>
      </trkpt>
      <trkpt lat="42.77676" lon="1.84538">
        <ele>1490.66</ele>
        <time>2019-12-14T13:58:29Z</time>
      </trkpt>
      <trkpt lat="42.77674" lon="1.8454">
        <ele>1491.62</ele>
        <time>2019-12-14T13:58:32Z</time>
      </trkpt>
      <trkpt lat="42.77672" lon="1.84541">
        <ele>1490.66</ele>
        <time>2019-12-14T13:58:34Z</time>
      </trkpt>
      <trkpt lat="42.7767" lon="1.84542">
        <ele>1490.18</ele>
        <time>2019-12-14T13:58:36Z</time>
      </trkpt>
      <trkpt lat="42.77665" lon="1.84546">
        <ele>1489.7</ele>
        <time>2019-12-14T13:58:42Z</time>
      </trkpt>
      <trkpt lat="42.77664" lon="1.84547">
        <ele>1491.62</ele>
        <time>2019-12-14T13:58:44Z</time>
      </trkpt>
      <trkpt lat="42.77656" lon="1.8455">
        <ele>1490.18</ele>
        <time>2019-12-14T13:58:54Z</time>
      </trkpt>
      <trkpt lat="42.77649" lon="1.84554">
        <ele>1489.7</ele>
        <time>2019-12-14T13:59:03Z</time>
      </trkpt>
      <trkpt lat="42.77646" lon="1.84557">
        <ele>1491.62</ele>
        <time>2019-12-14T13:59:07Z</time>
      </trkpt>
      <trkpt lat="42.77644" lon="1.84559">
        <ele>1489.7</ele>
        <time>2019-12-14T13:59:10Z</time>
      </trkpt>
      <trkpt lat="42.77643" lon="1.84562">
        <ele>1490.66</ele>
        <time>2019-12-14T13:59:13Z</time>
      </trkpt>
      <trkpt lat="42.77641" lon="1.84565">
        <ele>1490.66</ele>
        <time>2019-12-14T13:59:15Z</time>
      </trkpt>
      <trkpt lat="42.77638" lon="1.84571">
        <ele>1491.62</ele>
        <time>2019-12-14T13:59:22Z</time>
      </trkpt>
      <trkpt lat="42.77634" lon="1.84582">
        <ele>1492.58</ele>
        <time>2019-12-14T13:59:32Z</time>
      </trkpt>
      <trkpt lat="42.77633" lon="1.84588">
        <ele>1491.14</ele>
        <time>2019-12-14T13:59:38Z</time>
      </trkpt>
      <trkpt lat="42.77634" lon="1.84597">
        <ele>1493.06</ele>
        <time>2019-12-14T13:59:48Z</time>
      </trkpt>
      <trkpt lat="42.77634" lon="1.84598">
        <ele>1496.43</ele>
        <time>2019-12-14T13:59:49Z</time>
      </trkpt>
      <trkpt lat="42.77634" lon="1.84601">
        <ele>1494.51</ele>
        <time>2019-12-14T13:59:52Z</time>
      </trkpt>
      <trkpt lat="42.77634" lon="1.84603">
        <ele>1494.51</ele>
        <time>2019-12-14T13:59:54Z</time>
      </trkpt>
      <trkpt lat="42.77637" lon="1.84607">
        <ele>1496.43</ele>
        <time>2019-12-14T14:00:10Z</time>
      </trkpt>
      <trkpt lat="42.7764" lon="1.84606">
        <ele>1496.43</ele>
        <time>2019-12-14T14:00:37Z</time>
      </trkpt>
      <trkpt lat="42.7764" lon="1.84607">
        <ele>1496.43</ele>
        <time>2019-12-14T14:01:01Z</time>
      </trkpt>
      <trkpt lat="42.77636" lon="1.8462">
        <ele>1496.91</ele>
        <time>2019-12-14T14:01:08Z</time>
      </trkpt>
      <trkpt lat="42.77635" lon="1.84624">
        <ele>1497.87</ele>
        <time>2019-12-14T14:01:11Z</time>
      </trkpt>
      <trkpt lat="42.77634" lon="1.84627">
        <ele>1496.43</ele>
        <time>2019-12-14T14:01:14Z</time>
      </trkpt>
      <trkpt lat="42.77633" lon="1.84633">
        <ele>1496.43</ele>
        <time>2019-12-14T14:01:23Z</time>
      </trkpt>
      <trkpt lat="42.77632" lon="1.84637">
        <ele>1495.95</ele>
        <time>2019-12-14T14:01:27Z</time>
      </trkpt>
      <trkpt lat="42.77632" lon="1.84642">
        <ele>1496.43</ele>
        <time>2019-12-14T14:01:32Z</time>
      </trkpt>
      <trkpt lat="42.77632" lon="1.84649">
        <ele>1495.47</ele>
        <time>2019-12-14T14:01:39Z</time>
      </trkpt>
      <trkpt lat="42.77632" lon="1.84652">
        <ele>1494.51</ele>
        <time>2019-12-14T14:01:42Z</time>
      </trkpt>
      <trkpt lat="42.77632" lon="1.84656">
        <ele>1493.55</ele>
        <time>2019-12-14T14:01:46Z</time>
      </trkpt>
      <trkpt lat="42.77632" lon="1.84659">
        <ele>1493.06</ele>
        <time>2019-12-14T14:01:48Z</time>
      </trkpt>
      <trkpt lat="42.77633" lon="1.84663">
        <ele>1493.06</ele>
        <time>2019-12-14T14:01:52Z</time>
      </trkpt>
      <trkpt lat="42.77631" lon="1.84671">
        <ele>1492.1</ele>
        <time>2019-12-14T14:01:58Z</time>
      </trkpt>
      <trkpt lat="42.77632" lon="1.84676">
        <ele>1491.14</ele>
        <time>2019-12-14T14:02:07Z</time>
      </trkpt>
      <trkpt lat="42.7763" lon="1.84694">
        <ele>1489.7</ele>
        <time>2019-12-14T14:02:19Z</time>
      </trkpt>
      <trkpt lat="42.77628" lon="1.84706">
        <ele>1488.26</ele>
        <time>2019-12-14T14:02:29Z</time>
      </trkpt>
      <trkpt lat="42.77628" lon="1.84709">
        <ele>1488.26</ele>
        <time>2019-12-14T14:02:32Z</time>
      </trkpt>
      <trkpt lat="42.77627" lon="1.84715">
        <ele>1488.74</ele>
        <time>2019-12-14T14:02:36Z</time>
      </trkpt>
      <trkpt lat="42.77626" lon="1.84724">
        <ele>1487.3</ele>
        <time>2019-12-14T14:02:43Z</time>
      </trkpt>
      <trkpt lat="42.77624" lon="1.84738">
        <ele>1487.78</ele>
        <time>2019-12-14T14:02:54Z</time>
      </trkpt>
      <trkpt lat="42.77623" lon="1.84745">
        <ele>1486.34</ele>
        <time>2019-12-14T14:03:00Z</time>
      </trkpt>
      <trkpt lat="42.77624" lon="1.84748">
        <ele>1486.82</ele>
        <time>2019-12-14T14:03:03Z</time>
      </trkpt>
      <trkpt lat="42.77624" lon="1.84755">
        <ele>1486.82</ele>
        <time>2019-12-14T14:03:08Z</time>
      </trkpt>
      <trkpt lat="42.77623" lon="1.8476">
        <ele>1487.78</ele>
        <time>2019-12-14T14:03:13Z</time>
      </trkpt>
      <trkpt lat="42.77622" lon="1.84765">
        <ele>1485.85</ele>
        <time>2019-12-14T14:03:18Z</time>
      </trkpt>
      <trkpt lat="42.7762" lon="1.84779">
        <ele>1487.3</ele>
        <time>2019-12-14T14:03:30Z</time>
      </trkpt>
      <trkpt lat="42.77618" lon="1.84788">
        <ele>1484.89</ele>
        <time>2019-12-14T14:03:38Z</time>
      </trkpt>
      <trkpt lat="42.77615" lon="1.84799">
        <ele>1484.41</ele>
        <time>2019-12-14T14:03:48Z</time>
      </trkpt>
      <trkpt lat="42.77606" lon="1.84805">
        <ele>1482.97</ele>
        <time>2019-12-14T14:03:58Z</time>
      </trkpt>
      <trkpt lat="42.77603" lon="1.84808">
        <ele>1480.57</ele>
        <time>2019-12-14T14:04:02Z</time>
      </trkpt>
      <trkpt lat="42.77594" lon="1.84813">
        <ele>1480.57</ele>
        <time>2019-12-14T14:04:12Z</time>
      </trkpt>
      <trkpt lat="42.77585" lon="1.84815">
        <ele>1479.13</ele>
        <time>2019-12-14T14:04:22Z</time>
      </trkpt>
      <trkpt lat="42.7758" lon="1.84818">
        <ele>1478.65</ele>
        <time>2019-12-14T14:04:27Z</time>
      </trkpt>
      <trkpt lat="42.77571" lon="1.8482">
        <ele>1478.16</ele>
        <time>2019-12-14T14:04:36Z</time>
      </trkpt>
      <trkpt lat="42.77566" lon="1.84827">
        <ele>1477.2</ele>
        <time>2019-12-14T14:04:43Z</time>
      </trkpt>
      <trkpt lat="42.7756" lon="1.84833">
        <ele>1476.24</ele>
        <time>2019-12-14T14:04:52Z</time>
      </trkpt>
      <trkpt lat="42.77556" lon="1.84835">
        <ele>1475.28</ele>
        <time>2019-12-14T14:04:55Z</time>
      </trkpt>
      <trkpt lat="42.77554" lon="1.84838">
        <ele>1477.2</ele>
        <time>2019-12-14T14:04:58Z</time>
      </trkpt>
      <trkpt lat="42.77544" lon="1.84844">
        <ele>1475.28</ele>
        <time>2019-12-14T14:05:10Z</time>
      </trkpt>
      <trkpt lat="42.77543" lon="1.84845">
        <ele>1475.28</ele>
        <time>2019-12-14T14:05:11Z</time>
      </trkpt>
      <trkpt lat="42.77542" lon="1.84845">
        <ele>1475.28</ele>
        <time>2019-12-14T14:05:12Z</time>
      </trkpt>
      <trkpt lat="42.77539" lon="1.84848">
        <ele>1475.28</ele>
        <time>2019-12-14T14:05:15Z</time>
      </trkpt>
      <trkpt lat="42.77537" lon="1.84849">
        <ele>1475.76</ele>
        <time>2019-12-14T14:05:18Z</time>
      </trkpt>
      <trkpt lat="42.77535" lon="1.84851">
        <ele>1474.8</ele>
        <time>2019-12-14T14:05:20Z</time>
      </trkpt>
      <trkpt lat="42.77526" lon="1.84857">
        <ele>1475.76</ele>
        <time>2019-12-14T14:05:29Z</time>
      </trkpt>
      <trkpt lat="42.77516" lon="1.84862">
        <ele>1474.32</ele>
        <time>2019-12-14T14:05:40Z</time>
      </trkpt>
      <trkpt lat="42.77507" lon="1.84862">
        <ele>1474.32</ele>
        <time>2019-12-14T14:05:50Z</time>
      </trkpt>
      <trkpt lat="42.77501" lon="1.84863">
        <ele>1475.28</ele>
        <time>2019-12-14T14:05:55Z</time>
      </trkpt>
      <trkpt lat="42.77495" lon="1.84866">
        <ele>1474.8</ele>
        <time>2019-12-14T14:06:06Z</time>
      </trkpt>
      <trkpt lat="42.77487" lon="1.84864">
        <ele>1475.28</ele>
        <time>2019-12-14T14:06:14Z</time>
      </trkpt>
      <trkpt lat="42.7748" lon="1.84862">
        <ele>1474.32</ele>
        <time>2019-12-14T14:06:23Z</time>
      </trkpt>
      <trkpt lat="42.77477" lon="1.84861">
        <ele>1473.84</ele>
        <time>2019-12-14T14:06:26Z</time>
      </trkpt>
      <trkpt lat="42.77468" lon="1.84853">
        <ele>1473.84</ele>
        <time>2019-12-14T14:06:37Z</time>
      </trkpt>
      <trkpt lat="42.77466" lon="1.84851">
        <ele>1474.8</ele>
        <time>2019-12-14T14:06:39Z</time>
      </trkpt>
      <trkpt lat="42.77456" lon="1.84841">
        <ele>1475.28</ele>
        <time>2019-12-14T14:06:50Z</time>
      </trkpt>
      <trkpt lat="42.77455" lon="1.8484">
        <ele>1473.84</ele>
        <time>2019-12-14T14:06:52Z</time>
      </trkpt>
      <trkpt lat="42.77452" lon="1.84834">
        <ele>1474.8</ele>
        <time>2019-12-14T14:06:58Z</time>
      </trkpt>
      <trkpt lat="42.77444" lon="1.84827">
        <ele>1475.28</ele>
        <time>2019-12-14T14:07:08Z</time>
      </trkpt>
      <trkpt lat="42.77439" lon="1.84823">
        <ele>1475.76</ele>
        <time>2019-12-14T14:07:14Z</time>
      </trkpt>
      <trkpt lat="42.77434" lon="1.8482">
        <ele>1473.84</ele>
        <time>2019-12-14T14:07:20Z</time>
      </trkpt>
      <trkpt lat="42.77433" lon="1.8482">
        <ele>1477.68</ele>
        <time>2019-12-14T14:07:21Z</time>
      </trkpt>
      <trkpt lat="42.77433" lon="1.84819">
        <ele>1477.68</ele>
        <time>2019-12-14T14:07:22Z</time>
      </trkpt>
      <trkpt lat="42.77431" lon="1.84819">
        <ele>1475.28</ele>
        <time>2019-12-14T14:07:24Z</time>
      </trkpt>
      <trkpt lat="42.77431" lon="1.84819">
        <ele>1478.16</ele>
        <time>2019-12-14T14:07:25Z</time>
      </trkpt>
      <trkpt lat="42.7743" lon="1.84818">
        <ele>1476.72</ele>
        <time>2019-12-14T14:07:26Z</time>
      </trkpt>
      <trkpt lat="42.77428" lon="1.84816">
        <ele>1477.68</ele>
        <time>2019-12-14T14:07:28Z</time>
      </trkpt>
      <trkpt lat="42.77427" lon="1.84812">
        <ele>1477.68</ele>
        <time>2019-12-14T14:07:31Z</time>
      </trkpt>
      <trkpt lat="42.77422" lon="1.84806">
        <ele>1477.68</ele>
        <time>2019-12-14T14:07:38Z</time>
      </trkpt>
      <trkpt lat="42.77417" lon="1.84796">
        <ele>1481.05</ele>
        <time>2019-12-14T14:07:48Z</time>
      </trkpt>
      <trkpt lat="42.77416" lon="1.84794">
        <ele>1479.13</ele>
        <time>2019-12-14T14:07:51Z</time>
      </trkpt>
      <trkpt lat="42.77414" lon="1.84792">
        <ele>1481.53</ele>
        <time>2019-12-14T14:07:53Z</time>
      </trkpt>
      <trkpt lat="42.77409" lon="1.84787">
        <ele>1480.09</ele>
        <time>2019-12-14T14:08:04Z</time>
      </trkpt>
      <trkpt lat="42.7741" lon="1.84784">
        <ele>1480.09</ele>
        <time>2019-12-14T14:08:25Z</time>
      </trkpt>
      <trkpt lat="42.77409" lon="1.84784">
        <ele>1479.61</ele>
        <time>2019-12-14T14:08:28Z</time>
      </trkpt>
      <trkpt lat="42.77409" lon="1.84782">
        <ele>1480.57</ele>
        <time>2019-12-14T14:08:30Z</time>
      </trkpt>
      <trkpt lat="42.77404" lon="1.84774">
        <ele>1480.09</ele>
        <time>2019-12-14T14:08:42Z</time>
      </trkpt>
      <trkpt lat="42.77405" lon="1.84772">
        <ele>1481.05</ele>
        <time>2019-12-14T14:09:02Z</time>
      </trkpt>
      <trkpt lat="42.77405" lon="1.84775">
        <ele>1480.57</ele>
        <time>2019-12-14T14:09:19Z</time>
      </trkpt>
      <trkpt lat="42.77404" lon="1.84775">
        <ele>1480.09</ele>
        <time>2019-12-14T14:09:36Z</time>
      </trkpt>
      <trkpt lat="42.77393" lon="1.84778">
        <ele>1477.2</ele>
        <time>2019-12-14T14:09:45Z</time>
      </trkpt>
      <trkpt lat="42.77388" lon="1.84779">
        <ele>1476.72</ele>
        <time>2019-12-14T14:09:49Z</time>
      </trkpt>
      <trkpt lat="42.77377" lon="1.84783">
        <ele>1475.76</ele>
        <time>2019-12-14T14:09:57Z</time>
      </trkpt>
      <trkpt lat="42.77373" lon="1.84786">
        <ele>1471.92</ele>
        <time>2019-12-14T14:10:01Z</time>
      </trkpt>
      <trkpt lat="42.77372" lon="1.84787">
        <ele>1471.92</ele>
        <time>2019-12-14T14:10:02Z</time>
      </trkpt>
      <trkpt lat="42.77362" lon="1.84792">
        <ele>1469.03</ele>
        <time>2019-12-14T14:10:09Z</time>
      </trkpt>
      <trkpt lat="42.77361" lon="1.84792">
        <ele>1469.03</ele>
        <time>2019-12-14T14:10:10Z</time>
      </trkpt>
      <trkpt lat="42.77347" lon="1.84795">
        <ele>1466.15</ele>
        <time>2019-12-14T14:10:20Z</time>
      </trkpt>
      <trkpt lat="42.77343" lon="1.84796">
        <ele>1464.23</ele>
        <time>2019-12-14T14:10:23Z</time>
      </trkpt>
      <trkpt lat="42.77337" lon="1.84798">
        <ele>1462.3</ele>
        <time>2019-12-14T14:10:27Z</time>
      </trkpt>
      <trkpt lat="42.77332" lon="1.84799">
        <ele>1460.86</ele>
        <time>2019-12-14T14:10:31Z</time>
      </trkpt>
      <trkpt lat="42.77315" lon="1.848">
        <ele>1457.98</ele>
        <time>2019-12-14T14:10:43Z</time>
      </trkpt>
      <trkpt lat="42.77303" lon="1.84802">
        <ele>1456.53</ele>
        <time>2019-12-14T14:10:52Z</time>
      </trkpt>
      <trkpt lat="42.77293" lon="1.84806">
        <ele>1453.65</ele>
        <time>2019-12-14T14:11:00Z</time>
      </trkpt>
      <trkpt lat="42.77288" lon="1.84809">
        <ele>1452.21</ele>
        <time>2019-12-14T14:11:04Z</time>
      </trkpt>
      <trkpt lat="42.77282" lon="1.84811">
        <ele>1451.25</ele>
        <time>2019-12-14T14:11:08Z</time>
      </trkpt>
      <trkpt lat="42.77269" lon="1.84817">
        <ele>1449.81</ele>
        <time>2019-12-14T14:11:18Z</time>
      </trkpt>
      <trkpt lat="42.7726" lon="1.8482">
        <ele>1449.32</ele>
        <time>2019-12-14T14:11:26Z</time>
      </trkpt>
      <trkpt lat="42.77256" lon="1.84822">
        <ele>1447.4</ele>
        <time>2019-12-14T14:11:29Z</time>
      </trkpt>
      <trkpt lat="42.77251" lon="1.84824">
        <ele>1446.44</ele>
        <time>2019-12-14T14:11:33Z</time>
      </trkpt>
      <trkpt lat="42.77248" lon="1.84824">
        <ele>1447.88</ele>
        <time>2019-12-14T14:11:35Z</time>
      </trkpt>
      <trkpt lat="42.77237" lon="1.84828">
        <ele>1445.96</ele>
        <time>2019-12-14T14:11:44Z</time>
      </trkpt>
      <trkpt lat="42.77228" lon="1.84832">
        <ele>1444.52</ele>
        <time>2019-12-14T14:11:53Z</time>
      </trkpt>
      <trkpt lat="42.77226" lon="1.84833">
        <ele>1446.44</ele>
        <time>2019-12-14T14:11:55Z</time>
      </trkpt>
      <trkpt lat="42.77224" lon="1.84834">
        <ele>1445.48</ele>
        <time>2019-12-14T14:11:57Z</time>
      </trkpt>
      <trkpt lat="42.77216" lon="1.84838">
        <ele>1445.48</ele>
        <time>2019-12-14T14:12:05Z</time>
      </trkpt>
      <trkpt lat="42.7721" lon="1.84848">
        <ele>1444.52</ele>
        <time>2019-12-14T14:12:15Z</time>
      </trkpt>
      <trkpt lat="42.77202" lon="1.84856">
        <ele>1443.08</ele>
        <time>2019-12-14T14:12:25Z</time>
      </trkpt>
      <trkpt lat="42.77201" lon="1.84857">
        <ele>1443.08</ele>
        <time>2019-12-14T14:12:26Z</time>
      </trkpt>
      <trkpt lat="42.77191" lon="1.84863">
        <ele>1441.15</ele>
        <time>2019-12-14T14:12:37Z</time>
      </trkpt>
      <trkpt lat="42.77183" lon="1.84866">
        <ele>1441.15</ele>
        <time>2019-12-14T14:12:45Z</time>
      </trkpt>
      <trkpt lat="42.77182" lon="1.84868">
        <ele>1439.71</ele>
        <time>2019-12-14T14:12:48Z</time>
      </trkpt>
      <trkpt lat="42.77181" lon="1.84869">
        <ele>1441.15</ele>
        <time>2019-12-14T14:12:51Z</time>
      </trkpt>
      <trkpt lat="42.77179" lon="1.84869">
        <ele>1441.15</ele>
        <time>2019-12-14T14:12:58Z</time>
      </trkpt>
      <trkpt lat="42.77177" lon="1.84868">
        <ele>1442.6</ele>
        <time>2019-12-14T14:13:00Z</time>
      </trkpt>
      <trkpt lat="42.77173" lon="1.84867">
        <ele>1443.08</ele>
        <time>2019-12-14T14:13:06Z</time>
      </trkpt>
      <trkpt lat="42.77173" lon="1.84867">
        <ele>1441.15</ele>
        <time>2019-12-14T14:13:07Z</time>
      </trkpt>
      <trkpt lat="42.77169" lon="1.84865">
        <ele>1443.56</ele>
        <time>2019-12-14T14:13:12Z</time>
      </trkpt>
      <trkpt lat="42.77167" lon="1.84864">
        <ele>1441.63</ele>
        <time>2019-12-14T14:13:14Z</time>
      </trkpt>
      <trkpt lat="42.77164" lon="1.84861">
        <ele>1444.04</ele>
        <time>2019-12-14T14:13:18Z</time>
      </trkpt>
      <trkpt lat="42.77159" lon="1.84857">
        <ele>1442.6</ele>
        <time>2019-12-14T14:13:29Z</time>
      </trkpt>
      <trkpt lat="42.7716" lon="1.84859">
        <ele>1442.6</ele>
        <time>2019-12-14T14:13:36Z</time>
      </trkpt>
      <trkpt lat="42.77158" lon="1.84862">
        <ele>1443.08</ele>
        <time>2019-12-14T14:13:45Z</time>
      </trkpt>
      <trkpt lat="42.77157" lon="1.84863">
        <ele>1442.11</ele>
        <time>2019-12-14T14:13:47Z</time>
      </trkpt>
      <trkpt lat="42.7716" lon="1.84867">
        <ele>1444.04</ele>
        <time>2019-12-14T14:13:59Z</time>
      </trkpt>
      <trkpt lat="42.77163" lon="1.84867">
        <ele>1444.52</ele>
        <time>2019-12-14T14:14:21Z</time>
      </trkpt>
      <trkpt lat="42.77163" lon="1.84866">
        <ele>1444.04</ele>
        <time>2019-12-14T14:14:49Z</time>
      </trkpt>
      <trkpt lat="42.77163" lon="1.84868">
        <ele>1444.04</ele>
        <time>2019-12-14T14:15:20Z</time>
      </trkpt>
      <trkpt lat="42.77165" lon="1.8487">
        <ele>1444.04</ele>
        <time>2019-12-14T14:15:58Z</time>
      </trkpt>
      <trkpt lat="42.77165" lon="1.84866">
        <ele>1444.04</ele>
        <time>2019-12-14T14:16:37Z</time>
      </trkpt>
      <trkpt lat="42.7716" lon="1.84869">
        <ele>1442.6</ele>
        <time>2019-12-14T14:17:07Z</time>
      </trkpt>
      <trkpt lat="42.7716" lon="1.84867">
        <ele>1444.52</ele>
        <time>2019-12-14T14:17:22Z</time>
      </trkpt>
      <trkpt lat="42.77157" lon="1.84864">
        <ele>1444.04</ele>
        <time>2019-12-14T14:17:49Z</time>
      </trkpt>
      <trkpt lat="42.77158" lon="1.84868">
        <ele>1443.08</ele>
        <time>2019-12-14T14:18:11Z</time>
      </trkpt>
      <trkpt lat="42.77161" lon="1.84867">
        <ele>1444.04</ele>
        <time>2019-12-14T14:18:35Z</time>
      </trkpt>
      <trkpt lat="42.7716" lon="1.84869">
        <ele>1442.6</ele>
        <time>2019-12-14T14:18:48Z</time>
      </trkpt>
      <trkpt lat="42.7716" lon="1.84869">
        <ele>1438.75</ele>
        <time>2019-12-14T14:18:54Z</time>
      </trkpt>
      <trkpt lat="42.7716" lon="1.84869">
        <ele>1446.92</ele>
        <time>2019-12-14T14:18:55Z</time>
      </trkpt>
      <trkpt lat="42.7716" lon="1.84869">
        <ele>1444.04</ele>
        <time>2019-12-14T14:18:56Z</time>
      </trkpt>
      <trkpt lat="42.77162" lon="1.84866">
        <ele>1443.08</ele>
        <time>2019-12-14T14:19:16Z</time>
      </trkpt>
      <trkpt lat="42.77162" lon="1.84864">
        <ele>1442.6</ele>
        <time>2019-12-14T14:19:30Z</time>
      </trkpt>
      <trkpt lat="42.77161" lon="1.84864">
        <ele>1443.08</ele>
        <time>2019-12-14T14:19:51Z</time>
      </trkpt>
      <trkpt lat="42.77159" lon="1.84867">
        <ele>1443.56</ele>
        <time>2019-12-14T14:20:13Z</time>
      </trkpt>
      <trkpt lat="42.77158" lon="1.84867">
        <ele>1443.56</ele>
        <time>2019-12-14T14:20:23Z</time>
      </trkpt>
      <trkpt lat="42.77155" lon="1.84866">
        <ele>1444.52</ele>
        <time>2019-12-14T14:20:26Z</time>
      </trkpt>
      <trkpt lat="42.77153" lon="1.84866">
        <ele>1442.6</ele>
        <time>2019-12-14T14:20:28Z</time>
      </trkpt>
      <trkpt lat="42.77148" lon="1.84867">
        <ele>1441.63</ele>
        <time>2019-12-14T14:20:38Z</time>
      </trkpt>
      <trkpt lat="42.77146" lon="1.84868">
        <ele>1442.11</ele>
        <time>2019-12-14T14:20:41Z</time>
      </trkpt>
      <trkpt lat="42.77144" lon="1.84868">
        <ele>1443.08</ele>
        <time>2019-12-14T14:20:44Z</time>
      </trkpt>
      <trkpt lat="42.77141" lon="1.84868">
        <ele>1441.63</ele>
        <time>2019-12-14T14:20:47Z</time>
      </trkpt>
      <trkpt lat="42.77137" lon="1.84868">
        <ele>1440.67</ele>
        <time>2019-12-14T14:20:52Z</time>
      </trkpt>
      <trkpt lat="42.77126" lon="1.84868">
        <ele>1441.15</ele>
        <time>2019-12-14T14:21:04Z</time>
      </trkpt>
      <trkpt lat="42.7712" lon="1.84869">
        <ele>1441.15</ele>
        <time>2019-12-14T14:21:10Z</time>
      </trkpt>
      <trkpt lat="42.77109" lon="1.84866">
        <ele>1440.19</ele>
        <time>2019-12-14T14:21:21Z</time>
      </trkpt>
      <trkpt lat="42.77106" lon="1.84867">
        <ele>1440.19</ele>
        <time>2019-12-14T14:21:24Z</time>
      </trkpt>
      <trkpt lat="42.77094" lon="1.84864">
        <ele>1439.71</ele>
        <time>2019-12-14T14:21:37Z</time>
      </trkpt>
      <trkpt lat="42.77093" lon="1.84864">
        <ele>1438.75</ele>
        <time>2019-12-14T14:21:39Z</time>
      </trkpt>
      <trkpt lat="42.77091" lon="1.84865">
        <ele>1438.75</ele>
        <time>2019-12-14T14:21:42Z</time>
      </trkpt>
      <trkpt lat="42.77082" lon="1.8487">
        <ele>1437.31</ele>
        <time>2019-12-14T14:21:53Z</time>
      </trkpt>
      <trkpt lat="42.77078" lon="1.84871">
        <ele>1437.79</ele>
        <time>2019-12-14T14:21:56Z</time>
      </trkpt>
      <trkpt lat="42.77069" lon="1.84872">
        <ele>1438.75</ele>
        <time>2019-12-14T14:22:07Z</time>
      </trkpt>
      <trkpt lat="42.77062" lon="1.84872">
        <ele>1437.31</ele>
        <time>2019-12-14T14:22:15Z</time>
      </trkpt>
      <trkpt lat="42.77058" lon="1.84871">
        <ele>1436.83</ele>
        <time>2019-12-14T14:22:18Z</time>
      </trkpt>
      <trkpt lat="42.77055" lon="1.8487">
        <ele>1437.31</ele>
        <time>2019-12-14T14:22:21Z</time>
      </trkpt>
      <trkpt lat="42.7705" lon="1.84871">
        <ele>1436.83</ele>
        <time>2019-12-14T14:22:26Z</time>
      </trkpt>
      <trkpt lat="42.77047" lon="1.8487">
        <ele>1437.79</ele>
        <time>2019-12-14T14:22:29Z</time>
      </trkpt>
      <trkpt lat="42.7704" lon="1.84873">
        <ele>1435.87</ele>
        <time>2019-12-14T14:22:38Z</time>
      </trkpt>
      <trkpt lat="42.77031" lon="1.8487">
        <ele>1434.91</ele>
        <time>2019-12-14T14:22:46Z</time>
      </trkpt>
      <trkpt lat="42.77027" lon="1.8487">
        <ele>1434.91</ele>
        <time>2019-12-14T14:22:50Z</time>
      </trkpt>
      <trkpt lat="42.77025" lon="1.8487">
        <ele>1434.42</ele>
        <time>2019-12-14T14:22:52Z</time>
      </trkpt>
      <trkpt lat="42.77017" lon="1.84867">
        <ele>1433.46</ele>
        <time>2019-12-14T14:22:59Z</time>
      </trkpt>
      <trkpt lat="42.77009" lon="1.84867">
        <ele>1432.98</ele>
        <time>2019-12-14T14:23:08Z</time>
      </trkpt>
      <trkpt lat="42.76997" lon="1.84864">
        <ele>1432.02</ele>
        <time>2019-12-14T14:23:20Z</time>
      </trkpt>
      <trkpt lat="42.76988" lon="1.8486">
        <ele>1429.62</ele>
        <time>2019-12-14T14:23:32Z</time>
      </trkpt>
      <trkpt lat="42.76984" lon="1.84858">
        <ele>1430.1</ele>
        <time>2019-12-14T14:23:36Z</time>
      </trkpt>
      <trkpt lat="42.76973" lon="1.84848">
        <ele>1428.18</ele>
        <time>2019-12-14T14:23:49Z</time>
      </trkpt>
      <trkpt lat="42.76967" lon="1.84844">
        <ele>1426.73</ele>
        <time>2019-12-14T14:23:57Z</time>
      </trkpt>
      <trkpt lat="42.76963" lon="1.84842">
        <ele>1426.25</ele>
        <time>2019-12-14T14:24:01Z</time>
      </trkpt>
      <trkpt lat="42.76953" lon="1.84834">
        <ele>1423.85</ele>
        <time>2019-12-14T14:24:14Z</time>
      </trkpt>
      <trkpt lat="42.76948" lon="1.8483">
        <ele>1422.89</ele>
        <time>2019-12-14T14:24:20Z</time>
      </trkpt>
      <trkpt lat="42.76945" lon="1.84824">
        <ele>1420.97</ele>
        <time>2019-12-14T14:24:26Z</time>
      </trkpt>
      <trkpt lat="42.76942" lon="1.84821">
        <ele>1422.41</ele>
        <time>2019-12-14T14:24:29Z</time>
      </trkpt>
      <trkpt lat="42.76941" lon="1.8482">
        <ele>1420.97</ele>
        <time>2019-12-14T14:24:31Z</time>
      </trkpt>
      <trkpt lat="42.76937" lon="1.84811">
        <ele>1419.52</ele>
        <time>2019-12-14T14:24:40Z</time>
      </trkpt>
      <trkpt lat="42.76936" lon="1.8481">
        <ele>1418.56</ele>
        <time>2019-12-14T14:24:41Z</time>
      </trkpt>
      <trkpt lat="42.76934" lon="1.84804">
        <ele>1418.56</ele>
        <time>2019-12-14T14:24:45Z</time>
      </trkpt>
      <trkpt lat="42.76932" lon="1.84802">
        <ele>1417.6</ele>
        <time>2019-12-14T14:24:48Z</time>
      </trkpt>
      <trkpt lat="42.76923" lon="1.84791">
        <ele>1416.16</ele>
        <time>2019-12-14T14:25:00Z</time>
      </trkpt>
      <trkpt lat="42.76913" lon="1.8478">
        <ele>1414.24</ele>
        <time>2019-12-14T14:25:13Z</time>
      </trkpt>
      <trkpt lat="42.76905" lon="1.84774">
        <ele>1412.79</ele>
        <time>2019-12-14T14:25:24Z</time>
      </trkpt>
      <trkpt lat="42.76894" lon="1.84767">
        <ele>1410.39</ele>
        <time>2019-12-14T14:25:34Z</time>
      </trkpt>
      <trkpt lat="42.76882" lon="1.84757">
        <ele>1409.43</ele>
        <time>2019-12-14T14:25:47Z</time>
      </trkpt>
      <trkpt lat="42.76878" lon="1.84756">
        <ele>1407.51</ele>
        <time>2019-12-14T14:25:58Z</time>
      </trkpt>
      <trkpt lat="42.76878" lon="1.84756">
        <ele>1410.87</ele>
        <time>2019-12-14T14:26:00Z</time>
      </trkpt>
      <trkpt lat="42.76878" lon="1.84756">
        <ele>1407.03</ele>
        <time>2019-12-14T14:26:03Z</time>
      </trkpt>
      <trkpt lat="42.76878" lon="1.84756">
        <ele>1410.39</ele>
        <time>2019-12-14T14:26:06Z</time>
      </trkpt>
      <trkpt lat="42.76878" lon="1.84756">
        <ele>1407.51</ele>
        <time>2019-12-14T14:26:08Z</time>
      </trkpt>
      <trkpt lat="42.76878" lon="1.84756">
        <ele>1408.95</ele>
        <time>2019-12-14T14:26:10Z</time>
      </trkpt>
      <trkpt lat="42.76882" lon="1.84758">
        <ele>1408.47</ele>
        <time>2019-12-14T14:26:37Z</time>
      </trkpt>
      <trkpt lat="42.76883" lon="1.84763">
        <ele>1408.47</ele>
        <time>2019-12-14T14:27:06Z</time>
      </trkpt>
      <trkpt lat="42.76879" lon="1.84762">
        <ele>1407.99</ele>
        <time>2019-12-14T14:27:31Z</time>
      </trkpt>
      <trkpt lat="42.76878" lon="1.84753">
        <ele>1407.99</ele>
        <time>2019-12-14T14:28:00Z</time>
      </trkpt>
      <trkpt lat="42.7688" lon="1.84756">
        <ele>1407.51</ele>
        <time>2019-12-14T14:28:27Z</time>
      </trkpt>
      <trkpt lat="42.76873" lon="1.84756">
        <ele>1407.03</ele>
        <time>2019-12-14T14:28:48Z</time>
      </trkpt>
      <trkpt lat="42.7687" lon="1.84751">
        <ele>1407.03</ele>
        <time>2019-12-14T14:28:54Z</time>
      </trkpt>
      <trkpt lat="42.76869" lon="1.84749">
        <ele>1406.07</ele>
        <time>2019-12-14T14:28:56Z</time>
      </trkpt>
      <trkpt lat="42.76866" lon="1.84747">
        <ele>1405.1</ele>
        <time>2019-12-14T14:28:59Z</time>
      </trkpt>
      <trkpt lat="42.76863" lon="1.84741">
        <ele>1404.62</ele>
        <time>2019-12-14T14:29:05Z</time>
      </trkpt>
      <trkpt lat="42.76856" lon="1.84729">
        <ele>1402.7</ele>
        <time>2019-12-14T14:29:17Z</time>
      </trkpt>
      <trkpt lat="42.76854" lon="1.84725">
        <ele>1402.22</ele>
        <time>2019-12-14T14:29:21Z</time>
      </trkpt>
      <trkpt lat="42.7685" lon="1.84725">
        <ele>1401.26</ele>
        <time>2019-12-14T14:29:32Z</time>
      </trkpt>
      <trkpt lat="42.7685" lon="1.84732">
        <ele>1400.3</ele>
        <time>2019-12-14T14:29:39Z</time>
      </trkpt>
      <trkpt lat="42.76852" lon="1.84744">
        <ele>1397.89</ele>
        <time>2019-12-14T14:29:51Z</time>
      </trkpt>
      <trkpt lat="42.76856" lon="1.84752">
        <ele>1396.45</ele>
        <time>2019-12-14T14:30:01Z</time>
      </trkpt>
      <trkpt lat="42.7686" lon="1.8476">
        <ele>1395.49</ele>
        <time>2019-12-14T14:30:10Z</time>
      </trkpt>
      <trkpt lat="42.76862" lon="1.84767">
        <ele>1394.05</ele>
        <time>2019-12-14T14:30:17Z</time>
      </trkpt>
      <trkpt lat="42.76866" lon="1.84775">
        <ele>1393.09</ele>
        <time>2019-12-14T14:30:28Z</time>
      </trkpt>
      <trkpt lat="42.76871" lon="1.84782">
        <ele>1390.68</ele>
        <time>2019-12-14T14:30:38Z</time>
      </trkpt>
      <trkpt lat="42.7688" lon="1.84787">
        <ele>1389.72</ele>
        <time>2019-12-14T14:30:50Z</time>
      </trkpt>
      <trkpt lat="42.76883" lon="1.84802">
        <ele>1387.8</ele>
        <time>2019-12-14T14:31:02Z</time>
      </trkpt>
      <trkpt lat="42.76882" lon="1.84813">
        <ele>1387.32</ele>
        <time>2019-12-14T14:31:10Z</time>
      </trkpt>
      <trkpt lat="42.76881" lon="1.84821">
        <ele>1387.32</ele>
        <time>2019-12-14T14:31:15Z</time>
      </trkpt>
      <trkpt lat="42.76876" lon="1.84839">
        <ele>1386.36</ele>
        <time>2019-12-14T14:31:27Z</time>
      </trkpt>
      <trkpt lat="42.76875" lon="1.84842">
        <ele>1385.4</ele>
        <time>2019-12-14T14:31:29Z</time>
      </trkpt>
      <trkpt lat="42.76871" lon="1.84851">
        <ele>1386.84</ele>
        <time>2019-12-14T14:31:37Z</time>
      </trkpt>
      <trkpt lat="42.7687" lon="1.84853">
        <ele>1384.92</ele>
        <time>2019-12-14T14:31:40Z</time>
      </trkpt>
      <trkpt lat="42.76869" lon="1.84854">
        <ele>1384.92</ele>
        <time>2019-12-14T14:31:43Z</time>
      </trkpt>
      <trkpt lat="42.76858" lon="1.84861">
        <ele>1382.99</ele>
        <time>2019-12-14T14:31:55Z</time>
      </trkpt>
      <trkpt lat="42.76852" lon="1.84864">
        <ele>1381.55</ele>
        <time>2019-12-14T14:32:01Z</time>
      </trkpt>
      <trkpt lat="42.7685" lon="1.84864">
        <ele>1381.55</ele>
        <time>2019-12-14T14:32:03Z</time>
      </trkpt>
      <trkpt lat="42.76845" lon="1.84865">
        <ele>1380.59</ele>
        <time>2019-12-14T14:32:07Z</time>
      </trkpt>
      <trkpt lat="42.76841" lon="1.84864">
        <ele>1380.59</ele>
        <time>2019-12-14T14:32:11Z</time>
      </trkpt>
      <trkpt lat="42.76834" lon="1.84867">
        <ele>1379.15</ele>
        <time>2019-12-14T14:32:18Z</time>
      </trkpt>
      <trkpt lat="42.76824" lon="1.84871">
        <ele>1379.63</ele>
        <time>2019-12-14T14:32:30Z</time>
      </trkpt>
      <trkpt lat="42.76823" lon="1.84871">
        <ele>1379.63</ele>
        <time>2019-12-14T14:32:31Z</time>
      </trkpt>
      <trkpt lat="42.76821" lon="1.84873">
        <ele>1378.19</ele>
        <time>2019-12-14T14:32:33Z</time>
      </trkpt>
      <trkpt lat="42.7682" lon="1.84873">
        <ele>1378.19</ele>
        <time>2019-12-14T14:32:34Z</time>
      </trkpt>
      <trkpt lat="42.76813" lon="1.84872">
        <ele>1378.19</ele>
        <time>2019-12-14T14:32:41Z</time>
      </trkpt>
      <trkpt lat="42.76804" lon="1.84876">
        <ele>1377.71</ele>
        <time>2019-12-14T14:32:49Z</time>
      </trkpt>
      <trkpt lat="42.76797" lon="1.84876">
        <ele>1378.67</ele>
        <time>2019-12-14T14:32:56Z</time>
      </trkpt>
      <trkpt lat="42.76794" lon="1.84877">
        <ele>1380.11</ele>
        <time>2019-12-14T14:32:59Z</time>
      </trkpt>
      <trkpt lat="42.76792" lon="1.84877">
        <ele>1377.23</ele>
        <time>2019-12-14T14:33:01Z</time>
      </trkpt>
      <trkpt lat="42.76789" lon="1.84878">
        <ele>1379.15</ele>
        <time>2019-12-14T14:33:04Z</time>
      </trkpt>
      <trkpt lat="42.76786" lon="1.84878">
        <ele>1379.15</ele>
        <time>2019-12-14T14:33:07Z</time>
      </trkpt>
      <trkpt lat="42.76784" lon="1.8488">
        <ele>1380.59</ele>
        <time>2019-12-14T14:33:09Z</time>
      </trkpt>
      <trkpt lat="42.76782" lon="1.84882">
        <ele>1379.15</ele>
        <time>2019-12-14T14:33:11Z</time>
      </trkpt>
      <trkpt lat="42.76777" lon="1.84894">
        <ele>1379.63</ele>
        <time>2019-12-14T14:33:22Z</time>
      </trkpt>
      <trkpt lat="42.76774" lon="1.84898">
        <ele>1378.19</ele>
        <time>2019-12-14T14:33:25Z</time>
      </trkpt>
      <trkpt lat="42.76768" lon="1.84906">
        <ele>1377.23</ele>
        <time>2019-12-14T14:33:34Z</time>
      </trkpt>
      <trkpt lat="42.76764" lon="1.84911">
        <ele>1376.26</ele>
        <time>2019-12-14T14:33:39Z</time>
      </trkpt>
      <trkpt lat="42.76754" lon="1.84922">
        <ele>1374.34</ele>
        <time>2019-12-14T14:33:51Z</time>
      </trkpt>
      <trkpt lat="42.76744" lon="1.84933">
        <ele>1372.42</ele>
        <time>2019-12-14T14:34:03Z</time>
      </trkpt>
      <trkpt lat="42.76741" lon="1.84937">
        <ele>1372.42</ele>
        <time>2019-12-14T14:34:07Z</time>
      </trkpt>
      <trkpt lat="42.76732" lon="1.84951">
        <ele>1370.98</ele>
        <time>2019-12-14T14:34:20Z</time>
      </trkpt>
      <trkpt lat="42.76725" lon="1.84964">
        <ele>1369.05</ele>
        <time>2019-12-14T14:34:31Z</time>
      </trkpt>
      <trkpt lat="42.76721" lon="1.84967">
        <ele>1368.57</ele>
        <time>2019-12-14T14:34:36Z</time>
      </trkpt>
      <trkpt lat="42.76716" lon="1.84971">
        <ele>1367.61</ele>
        <time>2019-12-14T14:34:42Z</time>
      </trkpt>
      <trkpt lat="42.76713" lon="1.84975">
        <ele>1366.65</ele>
        <time>2019-12-14T14:34:56Z</time>
      </trkpt>
      <trkpt lat="42.76711" lon="1.84975">
        <ele>1366.65</ele>
        <time>2019-12-14T14:35:07Z</time>
      </trkpt>
      <trkpt lat="42.76705" lon="1.84978">
        <ele>1365.21</ele>
        <time>2019-12-14T14:35:13Z</time>
      </trkpt>
      <trkpt lat="42.76704" lon="1.84979">
        <ele>1364.25</ele>
        <time>2019-12-14T14:35:15Z</time>
      </trkpt>
      <trkpt lat="42.76694" lon="1.84985">
        <ele>1362.81</ele>
        <time>2019-12-14T14:35:24Z</time>
      </trkpt>
      <trkpt lat="42.76687" lon="1.84988">
        <ele>1362.33</ele>
        <time>2019-12-14T14:35:30Z</time>
      </trkpt>
      <trkpt lat="42.76683" lon="1.84991">
        <ele>1360.88</ele>
        <time>2019-12-14T14:35:34Z</time>
      </trkpt>
      <trkpt lat="42.76675" lon="1.84996">
        <ele>1360.4</ele>
        <time>2019-12-14T14:35:41Z</time>
      </trkpt>
      <trkpt lat="42.76673" lon="1.84997">
        <ele>1359.92</ele>
        <time>2019-12-14T14:35:44Z</time>
      </trkpt>
      <trkpt lat="42.7666" lon="1.85007">
        <ele>1359.44</ele>
        <time>2019-12-14T14:35:57Z</time>
      </trkpt>
      <trkpt lat="42.76654" lon="1.85015">
        <ele>1357.52</ele>
        <time>2019-12-14T14:36:05Z</time>
      </trkpt>
      <trkpt lat="42.76647" lon="1.85026">
        <ele>1357.04</ele>
        <time>2019-12-14T14:36:15Z</time>
      </trkpt>
      <trkpt lat="42.76645" lon="1.85035">
        <ele>1356.56</ele>
        <time>2019-12-14T14:36:20Z</time>
      </trkpt>
      <trkpt lat="42.76641" lon="1.85048">
        <ele>1355.6</ele>
        <time>2019-12-14T14:36:31Z</time>
      </trkpt>
      <trkpt lat="42.76644" lon="1.85058">
        <ele>1356.56</ele>
        <time>2019-12-14T14:36:42Z</time>
      </trkpt>
      <trkpt lat="42.76646" lon="1.85058">
        <ele>1356.56</ele>
        <time>2019-12-14T14:37:01Z</time>
      </trkpt>
      <trkpt lat="42.76645" lon="1.85054">
        <ele>1356.56</ele>
        <time>2019-12-14T14:37:19Z</time>
      </trkpt>
      <trkpt lat="42.76647" lon="1.85056">
        <ele>1356.56</ele>
        <time>2019-12-14T14:37:40Z</time>
      </trkpt>
      <trkpt lat="42.76647" lon="1.85055">
        <ele>1357.52</ele>
        <time>2019-12-14T14:38:04Z</time>
      </trkpt>
      <trkpt lat="42.76645" lon="1.85057">
        <ele>1356.56</ele>
        <time>2019-12-14T14:38:16Z</time>
      </trkpt>
      <trkpt lat="42.76635" lon="1.85062">
        <ele>1356.08</ele>
        <time>2019-12-14T14:38:30Z</time>
      </trkpt>
    </trkseg>
  </trk>
</gpx>